<?xml version='1.0' encoding='UTF-8'?><gpx version="1.1" creator="JPX - https://github.com/jenetics/jpx" xmlns="http://www.topografix.com/GPX/1/1"><trk><trkseg><trkpt lat="44.520394241892" lon="10.61129080459196"><ele>454.00000000000006</ele><time>2026-04-19T09:12:02Z</time></trkpt><trkpt lat="44.520301570433794" lon="10.611309814139387"><ele>454.0</ele><time>2026-04-19T09:12:04Z</time></trkpt><trkpt lat="44.52023899884215" lon="10.611353969136825"><ele>454.0</ele><time>2026-04-19T09:12:05Z</time></trkpt><trkpt lat="44.520172870688775" lon="10.611418194386767"><ele>454.0</ele><time>2026-04-19T09:12:06Z</time></trkpt><trkpt lat="44.520108738016816" lon="10.611499095306389"><ele>454.00000000000006</ele><time>2026-04-19T09:12:07Z</time></trkpt><trkpt lat="44.52004753159193" lon="10.611574985905277"><ele>454.0</ele><time>2026-04-19T09:12:08Z</time></trkpt><trkpt lat="44.51997820801444" lon="10.611649091265475"><ele>454.00000000000006</ele><time>2026-04-19T09:12:09Z</time></trkpt><trkpt lat="44.51990598865585" lon="10.61171333778139"><ele>454.0</ele><time>2026-04-19T09:12:10Z</time></trkpt><trkpt lat="44.5198337917502" lon="10.61178230340061"><ele>454.0</ele><time>2026-04-19T09:12:11Z</time></trkpt><trkpt lat="44.519766545750485" lon="10.611849834012148"><ele>454.0</ele><time>2026-04-19T09:12:12Z</time></trkpt><trkpt lat="44.51970664503107" lon="10.611934236146098"><ele>454.00000000000006</ele><time>2026-04-19T09:12:13Z</time></trkpt><trkpt lat="44.519652163212115" lon="10.612034498623343"><ele>454.0</ele><time>2026-04-19T09:12:14Z</time></trkpt><trkpt lat="44.519602122954566" lon="10.61215261779238"><ele>453.79999999999995</ele><time>2026-04-19T09:12:15Z</time></trkpt><trkpt lat="44.51955410225782" lon="10.612287624159624"><ele>453.59999999999997</ele><time>2026-04-19T09:12:16Z</time></trkpt><trkpt lat="44.5195029987387" lon="10.612419564998008"><ele>453.4</ele><time>2026-04-19T09:12:17Z</time></trkpt><trkpt lat="44.51944914375579" lon="10.612547859063337"><ele>453.2</ele><time>2026-04-19T09:12:18Z</time></trkpt><trkpt lat="44.519409059883856" lon="10.612655213293115"><ele>453.0</ele><time>2026-04-19T09:12:19Z</time></trkpt><trkpt lat="44.51936463534264" lon="10.612761085444875"><ele>454.2</ele><time>2026-04-19T09:12:20Z</time></trkpt><trkpt lat="44.51931168513277" lon="10.612880983814303"><ele>455.4</ele><time>2026-04-19T09:12:21Z</time></trkpt><trkpt lat="44.51925745185649" lon="10.613007736215614"><ele>456.59999999999997</ele><time>2026-04-19T09:12:21.999Z</time></trkpt><trkpt lat="44.51920370362796" lon="10.613139208416273"><ele>457.79999999999995</ele><time>2026-04-19T09:12:22.999Z</time></trkpt><trkpt lat="44.519150370304835" lon="10.613266418493312"><ele>459.0</ele><time>2026-04-19T09:12:23.999Z</time></trkpt><trkpt lat="44.5190759037341" lon="10.613361736069708"><ele>459.0</ele><time>2026-04-19T09:12:24.999Z</time></trkpt><trkpt lat="44.519029571981626" lon="10.613451103682676"><ele>459.0</ele><time>2026-04-19T09:12:25.999Z</time></trkpt><trkpt lat="44.518971166158316" lon="10.613500215311833"><ele>459.0</ele><time>2026-04-19T09:12:26.999Z</time></trkpt><trkpt lat="44.518913316063795" lon="10.613554031695115"><ele>459.0</ele><time>2026-04-19T09:12:27.999Z</time></trkpt><trkpt lat="44.51883657198432" lon="10.613609985364798"><ele>459.0</ele><time>2026-04-19T09:12:28.999Z</time></trkpt><trkpt lat="44.51874320998189" lon="10.613646177426972"><ele>459.0</ele><time>2026-04-19T09:12:29.999Z</time></trkpt><trkpt lat="44.51863990302003" lon="10.613654842200402"><ele>459.2</ele><time>2026-04-19T09:12:30.999Z</time></trkpt><trkpt lat="44.51853158853929" lon="10.61365949282038"><ele>459.4</ele><time>2026-04-19T09:12:31.999Z</time></trkpt><trkpt lat="44.51842543122069" lon="10.6136583447985"><ele>459.6</ele><time>2026-04-19T09:12:32.999Z</time></trkpt><trkpt lat="44.518321181423936" lon="10.613654764020508"><ele>459.8</ele><time>2026-04-19T09:12:33.999Z</time></trkpt><trkpt lat="44.51821633807925" lon="10.613660192422985"><ele>460.0</ele><time>2026-04-19T09:12:34.999Z</time></trkpt><trkpt lat="44.51811090383756" lon="10.613671186751938"><ele>461.6</ele><time>2026-04-19T09:12:35.999Z</time></trkpt><trkpt lat="44.51800169532095" lon="10.613693779463595"><ele>463.2</ele><time>2026-04-19T09:12:36.999Z</time></trkpt><trkpt lat="44.51789668331959" lon="10.613728314220543"><ele>464.79999999999995</ele><time>2026-04-19T09:12:37.999Z</time></trkpt><trkpt lat="44.51779285143327" lon="10.6137742678908"><ele>466.4</ele><time>2026-04-19T09:12:38.999Z</time></trkpt><trkpt lat="44.517691852971936" lon="10.613831423291895"><ele>468.0</ele><time>2026-04-19T09:12:39.999Z</time></trkpt><trkpt lat="44.51759266756319" lon="10.613901245219433"><ele>468.0</ele><time>2026-04-19T09:12:40.999Z</time></trkpt><trkpt lat="44.51749550312246" lon="10.613972433841257"><ele>467.99999999999994</ele><time>2026-04-19T09:12:41.999Z</time></trkpt><trkpt lat="44.517396844263665" lon="10.614045485781151"><ele>467.99999999999994</ele><time>2026-04-19T09:12:42.999Z</time></trkpt><trkpt lat="44.517298587103404" lon="10.614122338010677"><ele>468.0</ele><time>2026-04-19T09:12:43.999Z</time></trkpt><trkpt lat="44.51719454332128" lon="10.614193652576448"><ele>468.0</ele><time>2026-04-19T09:12:44.999Z</time></trkpt><trkpt lat="44.517092422457495" lon="10.614245461225773"><ele>466.5</ele><time>2026-04-19T09:12:45.999Z</time></trkpt><trkpt lat="44.51698136766565" lon="10.614278058284892"><ele>465.0</ele><time>2026-04-19T09:12:46.999Z</time></trkpt><trkpt lat="44.51686328312814" lon="10.614275535889345"><ele>463.5</ele><time>2026-04-19T09:12:47.999Z</time></trkpt><trkpt lat="44.51674991258373" lon="10.614275007081893"><ele>462.0</ele><time>2026-04-19T09:12:48.999Z</time></trkpt><trkpt lat="44.51663878867315" lon="10.614253235675132"><ele>462.0</ele><time>2026-04-19T09:12:49.999Z</time></trkpt><trkpt lat="44.5165253973823" lon="10.614241884917178"><ele>462.0</ele><time>2026-04-19T09:12:50.999Z</time></trkpt><trkpt lat="44.51641283151467" lon="10.61420353667899"><ele>462.0</ele><time>2026-04-19T09:12:51.999Z</time></trkpt><trkpt lat="44.5163017414003" lon="10.61416166394667"><ele>462.0</ele><time>2026-04-19T09:12:52.999Z</time></trkpt><trkpt lat="44.51618997729764" lon="10.614116801425627"><ele>462.75</ele><time>2026-04-19T09:12:53.999Z</time></trkpt><trkpt lat="44.51607626061536" lon="10.614075725993839"><ele>463.5</ele><time>2026-04-19T09:12:54.999Z</time></trkpt><trkpt lat="44.51596235906984" lon="10.614034941491436"><ele>464.25</ele><time>2026-04-19T09:12:55.999Z</time></trkpt><trkpt lat="44.51584875628715" lon="10.613987910248689"><ele>465.0</ele><time>2026-04-19T09:12:56.999Z</time></trkpt><trkpt lat="44.51573851961124" lon="10.613944448186091"><ele>465.0</ele><time>2026-04-19T09:12:57.999Z</time></trkpt><trkpt lat="44.51562612463007" lon="10.613899967814982"><ele>465.0</ele><time>2026-04-19T09:12:58.999Z</time></trkpt><trkpt lat="44.51551632063972" lon="10.61385380536425"><ele>465.0</ele><time>2026-04-19T09:12:59.999Z</time></trkpt><trkpt lat="44.51541168186392" lon="10.613825339165455"><ele>465.0</ele><time>2026-04-19T09:13:00.999Z</time></trkpt><trkpt lat="44.51531637100747" lon="10.613796243684012"><ele>465.0</ele><time>2026-04-19T09:13:01.999Z</time></trkpt><trkpt lat="44.51523788065456" lon="10.613773696861685"><ele>466.0</ele><time>2026-04-19T09:13:02.999Z</time></trkpt><trkpt lat="44.51516994669224" lon="10.61376755555621"><ele>467.0</ele><time>2026-04-19T09:13:03.999Z</time></trkpt><trkpt lat="44.51506656688681" lon="10.613730114718354"><ele>468.0</ele><time>2026-04-19T09:13:05.999Z</time></trkpt><trkpt lat="44.51497285439954" lon="10.613715018713041"><ele>469.0</ele><time>2026-04-19T09:13:09.999Z</time></trkpt><trkpt lat="44.51452259532665" lon="10.613347234784941"><ele>473.0</ele><time>2026-04-19T09:13:10.999Z</time></trkpt><trkpt lat="44.514521477439665" lon="10.61317500070906"><ele>477.0</ele><time>2026-04-19T09:13:12.999Z</time></trkpt><trkpt lat="44.51451688503648" lon="10.613054326735297"><ele>481.0</ele><time>2026-04-19T09:13:13.999Z</time></trkpt><trkpt lat="44.51451097604258" lon="10.612943995080155"><ele>485.0</ele><time>2026-04-19T09:13:14.999Z</time></trkpt><trkpt lat="44.514503504704415" lon="10.612812736166562"><ele>489.0</ele><time>2026-04-19T09:13:15.999Z</time></trkpt><trkpt lat="44.5145009742992" lon="10.612641256276484"><ele>490.2</ele><time>2026-04-19T09:13:16.999Z</time></trkpt><trkpt lat="44.514505118861805" lon="10.61249792863553"><ele>491.4</ele><time>2026-04-19T09:13:17.999Z</time></trkpt><trkpt lat="44.514512999420326" lon="10.612324778570663"><ele>492.6</ele><time>2026-04-19T09:13:18.999Z</time></trkpt><trkpt lat="44.51452224609786" lon="10.612175623126346"><ele>493.8</ele><time>2026-04-19T09:13:19.999Z</time></trkpt><trkpt lat="44.5145319284184" lon="10.612019440831446"><ele>495.0</ele><time>2026-04-19T09:13:20.999Z</time></trkpt><trkpt lat="44.51456445571962" lon="10.611869319459812"><ele>495.0</ele><time>2026-04-19T09:13:21.999Z</time></trkpt><trkpt lat="44.5145699266329" lon="10.611700269218845"><ele>495.0</ele><time>2026-04-19T09:13:22.999Z</time></trkpt><trkpt lat="44.51457480485639" lon="10.61154953303115"><ele>495.0</ele><time>2026-04-19T09:13:23.999Z</time></trkpt><trkpt lat="44.515099478595566" lon="10.611251714713834"><ele>489.0</ele><time>2026-04-19T09:13:26.999Z</time></trkpt><trkpt lat="44.51507665719482" lon="10.611110918893866"><ele>483.0</ele><time>2026-04-19T09:13:28.999Z</time></trkpt><trkpt lat="44.515018502911055" lon="10.611054438625837"><ele>477.0</ele><time>2026-04-19T09:13:30.999Z</time></trkpt><trkpt lat="44.51492703813697" lon="10.61103552218012"><ele>471.0</ele><time>2026-04-19T09:14:01Z</time></trkpt><trkpt lat="44.51480967263342" lon="10.610966626436419"><ele>465.0</ele><time>2026-04-19T09:14:03Z</time></trkpt><trkpt lat="44.51469497435041" lon="10.610933394044245"><ele>465.0</ele><time>2026-04-19T09:14:05Z</time></trkpt><trkpt lat="44.51459062788501" lon="10.610891980922037"><ele>465.0</ele><time>2026-04-19T09:14:07Z</time></trkpt><trkpt lat="44.514509864730485" lon="10.610752284815959"><ele>465.0</ele><time>2026-04-19T09:14:09Z</time></trkpt><trkpt lat="44.51443180943724" lon="10.610618357385832"><ele>465.0</ele><time>2026-04-19T09:14:11Z</time></trkpt><trkpt lat="44.51437973337034" lon="10.610479969600481"><ele>467.5</ele><time>2026-04-19T09:14:13Z</time></trkpt><trkpt lat="44.51437334642367" lon="10.610390568781357"><ele>470.0</ele><time>2026-04-19T09:14:14Z</time></trkpt><trkpt lat="44.51432870212259" lon="10.610291877784725"><ele>472.5</ele><time>2026-04-19T09:14:15Z</time></trkpt><trkpt lat="44.514252420305624" lon="10.61019491686618"><ele>475.0</ele><time>2026-04-19T09:14:16Z</time></trkpt><trkpt lat="44.5141758968089" lon="10.610100289259115"><ele>477.5</ele><time>2026-04-19T09:14:17Z</time></trkpt><trkpt lat="44.514111773359716" lon="10.610026837040394"><ele>480.0</ele><time>2026-04-19T09:14:18Z</time></trkpt><trkpt lat="44.51406255757968" lon="10.609931340347485"><ele>480.0</ele><time>2026-04-19T09:14:19Z</time></trkpt><trkpt lat="44.514011771898524" lon="10.60981925288336"><ele>480.0</ele><time>2026-04-19T09:14:20Z</time></trkpt><trkpt lat="44.51396658476218" lon="10.609700589294581"><ele>480.0</ele><time>2026-04-19T09:14:21Z</time></trkpt><trkpt lat="44.51391913376619" lon="10.609578871793145"><ele>480.0</ele><time>2026-04-19T09:14:22Z</time></trkpt><trkpt lat="44.51385978411508" lon="10.60946802285805"><ele>480.0</ele><time>2026-04-19T09:14:22.999Z</time></trkpt><trkpt lat="44.51378963200867" lon="10.609401441493747"><ele>480.1666666666667</ele><time>2026-04-19T09:14:23.999Z</time></trkpt><trkpt lat="44.51372163878206" lon="10.609310911607672"><ele>480.33333333333337</ele><time>2026-04-19T09:14:24.999Z</time></trkpt><trkpt lat="44.5136407564113" lon="10.609243288135147"><ele>480.5</ele><time>2026-04-19T09:14:25.999Z</time></trkpt><trkpt lat="44.51355913715726" lon="10.60918444309793"><ele>480.6666666666667</ele><time>2026-04-19T09:14:26.999Z</time></trkpt><trkpt lat="44.513479042443954" lon="10.60912858800625"><ele>480.83333333333337</ele><time>2026-04-19T09:14:27.999Z</time></trkpt><trkpt lat="44.5134044269607" lon="10.609112280600302"><ele>481.0</ele><time>2026-04-19T09:14:28.999Z</time></trkpt><trkpt lat="44.5133233002125" lon="10.609117249898926"><ele>481.00000000000006</ele><time>2026-04-19T09:14:29.999Z</time></trkpt><trkpt lat="44.5132419174598" lon="10.609131589017553"><ele>481.0</ele><time>2026-04-19T09:14:30.999Z</time></trkpt><trkpt lat="44.51312892856782" lon="10.609097634442364"><ele>481.0</ele><time>2026-04-19T09:14:32.999Z</time></trkpt><trkpt lat="44.5130895960522" lon="10.609025177067304"><ele>481.0</ele><time>2026-04-19T09:14:33.999Z</time></trkpt><trkpt lat="44.51306740492743" lon="10.608929592481685"><ele>481.00000000000006</ele><time>2026-04-19T09:14:34.999Z</time></trkpt><trkpt lat="44.51304449456944" lon="10.608772357481879"><ele>481.0</ele><time>2026-04-19T09:14:35.999Z</time></trkpt><trkpt lat="44.513024211254034" lon="10.60861162961148"><ele>482.00000000000006</ele><time>2026-04-19T09:14:36.999Z</time></trkpt><trkpt lat="44.51299434059714" lon="10.6085039837206"><ele>483.0</ele><time>2026-04-19T09:14:37.999Z</time></trkpt><trkpt lat="44.512947397022714" lon="10.608398686848348"><ele>484.0</ele><time>2026-04-19T09:14:38.999Z</time></trkpt><trkpt lat="44.51290560804656" lon="10.608323266135304"><ele>485.0</ele><time>2026-04-19T09:14:39.999Z</time></trkpt><trkpt lat="44.51285235276493" lon="10.608238730183063"><ele>486.00000000000006</ele><time>2026-04-19T09:14:40.999Z</time></trkpt><trkpt lat="44.51278505681646" lon="10.608127805739331"><ele>487.0</ele><time>2026-04-19T09:14:41.999Z</time></trkpt><trkpt lat="44.512713705987316" lon="10.607990287862117"><ele>487.0</ele><time>2026-04-19T09:14:42.999Z</time></trkpt><trkpt lat="44.51263970793097" lon="10.607829823005874"><ele>487.00000000000006</ele><time>2026-04-19T09:14:43.999Z</time></trkpt><trkpt lat="44.51258672092661" lon="10.607710326334914"><ele>487.00000000000006</ele><time>2026-04-19T09:14:44.999Z</time></trkpt><trkpt lat="44.512562192340525" lon="10.607579557030844"><ele>487.0</ele><time>2026-04-19T09:14:45.999Z</time></trkpt><trkpt lat="44.5125548831537" lon="10.607437406904221"><ele>487.0</ele><time>2026-04-19T09:14:46.999Z</time></trkpt><trkpt lat="44.51254098777064" lon="10.60732129238654"><ele>485.33333333333337</ele><time>2026-04-19T09:14:47.999Z</time></trkpt><trkpt lat="44.51251544999126" lon="10.607201753868402"><ele>483.6666666666667</ele><time>2026-04-19T09:14:48.999Z</time></trkpt><trkpt lat="44.51247965574235" lon="10.607060028703225"><ele>482.0</ele><time>2026-04-19T09:14:49.999Z</time></trkpt><trkpt lat="44.51244127655653" lon="10.606969179676717"><ele>480.33333333333337</ele><time>2026-04-19T09:14:50.999Z</time></trkpt><trkpt lat="44.51238145109549" lon="10.606883502217471"><ele>478.6666666666667</ele><time>2026-04-19T09:14:51.999Z</time></trkpt><trkpt lat="44.512311559717446" lon="10.606804773345145"><ele>477.0</ele><time>2026-04-19T09:14:52.999Z</time></trkpt><trkpt lat="44.51225158819003" lon="10.606690212918721"><ele>476.5</ele><time>2026-04-19T09:14:53.999Z</time></trkpt><trkpt lat="44.51219772986525" lon="10.606605013046064"><ele>476.0</ele><time>2026-04-19T09:14:54.999Z</time></trkpt><trkpt lat="44.51214329666002" lon="10.606524198308025"><ele>475.5</ele><time>2026-04-19T09:14:55.999Z</time></trkpt><trkpt lat="44.51207778020595" lon="10.606412993490242"><ele>475.0</ele><time>2026-04-19T09:14:57.999Z</time></trkpt><trkpt lat="44.51203984686846" lon="10.606332490262108"><ele>474.5</ele><time>2026-04-19T09:14:58.999Z</time></trkpt><trkpt lat="44.51199328309064" lon="10.606212758554173"><ele>474.0</ele><time>2026-04-19T09:14:59.999Z</time></trkpt><trkpt lat="44.51192512434335" lon="10.606062585979412"><ele>474.0</ele><time>2026-04-19T09:15:00.999Z</time></trkpt><trkpt lat="44.51186098003949" lon="10.605939155585517"><ele>474.0</ele><time>2026-04-19T09:15:01.999Z</time></trkpt><trkpt lat="44.511792206491" lon="10.605818768203372"><ele>474.0</ele><time>2026-04-19T09:15:02.999Z</time></trkpt><trkpt lat="44.51171554595815" lon="10.605711971569475"><ele>474.0</ele><time>2026-04-19T09:15:03.999Z</time></trkpt><trkpt lat="44.511641997438" lon="10.60559718659305"><ele>474.0</ele><time>2026-04-19T09:15:04.999Z</time></trkpt><trkpt lat="44.51158235315898" lon="10.605467169774279"><ele>474.0</ele><time>2026-04-19T09:15:05.999Z</time></trkpt><trkpt lat="44.51153802756791" lon="10.605334760891758"><ele>474.0</ele><time>2026-04-19T09:15:06.999Z</time></trkpt><trkpt lat="44.51152170070821" lon="10.605207454639789"><ele>474.0</ele><time>2026-04-19T09:15:07.999Z</time></trkpt><trkpt lat="44.511533521193144" lon="10.605071794077737"><ele>474.0</ele><time>2026-04-19T09:15:08.999Z</time></trkpt><trkpt lat="44.51154785744343" lon="10.604934243199894"><ele>474.0</ele><time>2026-04-19T09:15:09.999Z</time></trkpt><trkpt lat="44.511550060382056" lon="10.604820864401274"><ele>473.3333333333333</ele><time>2026-04-19T09:15:10.999Z</time></trkpt><trkpt lat="44.511521274852655" lon="10.604729871438137"><ele>472.66666666666663</ele><time>2026-04-19T09:15:11.999Z</time></trkpt><trkpt lat="44.51147484172666" lon="10.604648286457856"><ele>472.0</ele><time>2026-04-19T09:15:12.999Z</time></trkpt><trkpt lat="44.511405041193065" lon="10.604542896958655"><ele>471.3333333333333</ele><time>2026-04-19T09:15:13.999Z</time></trkpt><trkpt lat="44.51137194900856" lon="10.60440010219621"><ele>470.66666666666663</ele><time>2026-04-19T09:15:14.999Z</time></trkpt><trkpt lat="44.51137533276227" lon="10.604271774928709"><ele>470.0</ele><time>2026-04-19T09:15:15.999Z</time></trkpt><trkpt lat="44.51138962991102" lon="10.604151449022558"><ele>469.6</ele><time>2026-04-19T09:15:16.999Z</time></trkpt><trkpt lat="44.51137901847986" lon="10.604044387849061"><ele>469.2</ele><time>2026-04-19T09:15:18.999Z</time></trkpt><trkpt lat="44.511455447645055" lon="10.6040198062165"><ele>468.79999999999995</ele><time>2026-04-19T09:15:22.999Z</time></trkpt><trkpt lat="44.51152127897707" lon="10.604034679749969"><ele>468.4</ele><time>2026-04-19T09:15:25.999Z</time></trkpt><trkpt lat="44.51141561146021" lon="10.604071840375168"><ele>468.0</ele><time>2026-04-19T09:15:36.999Z</time></trkpt><trkpt lat="44.51130681263042" lon="10.603993559398202"><ele>467.4</ele><time>2026-04-19T09:15:38.999Z</time></trkpt><trkpt lat="44.51124035567521" lon="10.603901521017136"><ele>466.79999999999995</ele><time>2026-04-19T09:15:40.999Z</time></trkpt><trkpt lat="44.51119976059993" lon="10.60374461707121"><ele>466.2</ele><time>2026-04-19T09:15:42.999Z</time></trkpt><trkpt lat="44.51116214556094" lon="10.60365091368587"><ele>465.6</ele><time>2026-04-19T09:15:43.999Z</time></trkpt><trkpt lat="44.51111451019984" lon="10.603526319431102"><ele>465.0</ele><time>2026-04-19T09:15:44.999Z</time></trkpt><trkpt lat="44.5110791436256" lon="10.603404037116128"><ele>465.0</ele><time>2026-04-19T09:15:46Z</time></trkpt><trkpt lat="44.51105495681837" lon="10.603303511476168"><ele>465.0</ele><time>2026-04-19T09:15:47Z</time></trkpt><trkpt lat="44.51100885293089" lon="10.60322667220879"><ele>465.0</ele><time>2026-04-19T09:15:48Z</time></trkpt><trkpt lat="44.51094396772553" lon="10.60313644315574"><ele>465.0</ele><time>2026-04-19T09:15:49Z</time></trkpt><trkpt lat="44.510867524779464" lon="10.602987093432926"><ele>465.0</ele><time>2026-04-19T09:15:50Z</time></trkpt><trkpt lat="44.510786515564135" lon="10.602835581951615"><ele>462.0</ele><time>2026-04-19T09:15:51Z</time></trkpt><trkpt lat="44.510700697864" lon="10.602706705403092"><ele>459.0</ele><time>2026-04-19T09:15:52Z</time></trkpt><trkpt lat="44.510626225054274" lon="10.602577903857199"><ele>456.0</ele><time>2026-04-19T09:15:53Z</time></trkpt><trkpt lat="44.51055510504629" lon="10.602443234486586"><ele>453.0</ele><time>2026-04-19T09:15:54Z</time></trkpt><trkpt lat="44.510493713601136" lon="10.60231378072041"><ele>453.0</ele><time>2026-04-19T09:15:55Z</time></trkpt><trkpt lat="44.51046096197987" lon="10.602189584373125"><ele>453.0</ele><time>2026-04-19T09:15:56Z</time></trkpt><trkpt lat="44.51036731287889" lon="10.602044165374869"><ele>453.0</ele><time>2026-04-19T09:15:58Z</time></trkpt><trkpt lat="44.51027774351215" lon="10.601973348518557"><ele>453.0</ele><time>2026-04-19T09:15:59Z</time></trkpt><trkpt lat="44.51016755432343" lon="10.601892510508275"><ele>454.59999999999997</ele><time>2026-04-19T09:16:00Z</time></trkpt><trkpt lat="44.510085069725974" lon="10.60183306712868"><ele>456.19999999999993</ele><time>2026-04-19T09:16:01Z</time></trkpt><trkpt lat="44.5100261497321" lon="10.60177547765601"><ele>457.8</ele><time>2026-04-19T09:16:02Z</time></trkpt><trkpt lat="44.509985960930194" lon="10.601673492432587"><ele>459.4</ele><time>2026-04-19T09:16:03Z</time></trkpt><trkpt lat="44.509967785400065" lon="10.601501815379727"><ele>461.0</ele><time>2026-04-19T09:16:04Z</time></trkpt><trkpt lat="44.50995252231862" lon="10.601359967172927"><ele>461.0</ele><time>2026-04-19T09:16:05Z</time></trkpt><trkpt lat="44.50996084187473" lon="10.60118350876699"><ele>461.0</ele><time>2026-04-19T09:16:06Z</time></trkpt><trkpt lat="44.50994070007117" lon="10.601020776115794"><ele>461.0</ele><time>2026-04-19T09:16:07Z</time></trkpt><trkpt lat="44.50990322267678" lon="10.600927956004659"><ele>461.0</ele><time>2026-04-19T09:16:08Z</time></trkpt><trkpt lat="44.50985136393513" lon="10.600814967371905"><ele>461.0</ele><time>2026-04-19T09:16:09Z</time></trkpt><trkpt lat="44.509789612654856" lon="10.600657818466805"><ele>459.25</ele><time>2026-04-19T09:16:10Z</time></trkpt><trkpt lat="44.50976018354914" lon="10.600549204874444"><ele>457.5</ele><time>2026-04-19T09:16:11Z</time></trkpt><trkpt lat="44.50963063997996" lon="10.60052477263444"><ele>455.75</ele><time>2026-04-19T09:16:13Z</time></trkpt><trkpt lat="44.50951603808978" lon="10.60048909934511"><ele>454.0</ele><time>2026-04-19T09:16:14Z</time></trkpt><trkpt lat="44.50939980463436" lon="10.600428434843547"><ele>456.6</ele><time>2026-04-19T09:16:15Z</time></trkpt><trkpt lat="44.50931912169135" lon="10.60040700258643"><ele>459.2</ele><time>2026-04-19T09:16:16Z</time></trkpt><trkpt lat="44.50924636220188" lon="10.60027967392493"><ele>461.80000000000007</ele><time>2026-04-19T09:16:18Z</time></trkpt><trkpt lat="44.50920509139907" lon="10.600166570548073"><ele>464.40000000000003</ele><time>2026-04-19T09:16:19Z</time></trkpt><trkpt lat="44.50922364396735" lon="10.600072971187906"><ele>467.0</ele><time>2026-04-19T09:16:20Z</time></trkpt><trkpt lat="44.509254673966836" lon="10.599938496569184"><ele>467.0</ele><time>2026-04-19T09:16:21Z</time></trkpt><trkpt lat="44.50926389060457" lon="10.599817062650787"><ele>467.00000000000006</ele><time>2026-04-19T09:16:22Z</time></trkpt><trkpt lat="44.509233216756996" lon="10.599721144654332"><ele>467.00000000000006</ele><time>2026-04-19T09:16:24Z</time></trkpt><trkpt lat="44.50914370123528" lon="10.59972505485549"><ele>467.0</ele><time>2026-04-19T09:16:27Z</time></trkpt><trkpt lat="44.5090510407471" lon="10.599701838657971"><ele>467.0</ele><time>2026-04-19T09:16:38.999Z</time></trkpt><trkpt lat="44.508924384375526" lon="10.599684262538934"><ele>466.99999999999994</ele><time>2026-04-19T09:16:40.999Z</time></trkpt><trkpt lat="44.508826259628954" lon="10.599667304709772"><ele>467.0</ele><time>2026-04-19T09:16:42.999Z</time></trkpt><trkpt lat="44.50876889709187" lon="10.599604041976116"><ele>467.0</ele><time>2026-04-19T09:16:43.999Z</time></trkpt><trkpt lat="44.50871312206537" lon="10.599517525296875"><ele>467.0</ele><time>2026-04-19T09:16:44.999Z</time></trkpt><trkpt lat="44.50867743686674" lon="10.599420424927395"><ele>466.99999999999994</ele><time>2026-04-19T09:16:45.999Z</time></trkpt><trkpt lat="44.5086227402359" lon="10.599331521165364"><ele>467.0</ele><time>2026-04-19T09:16:46.999Z</time></trkpt><trkpt lat="44.508556987577784" lon="10.599226836059781"><ele>466.20000000000005</ele><time>2026-04-19T09:16:47.999Z</time></trkpt><trkpt lat="44.50849607626161" lon="10.59917331424821"><ele>465.40000000000003</ele><time>2026-04-19T09:16:48.999Z</time></trkpt><trkpt lat="44.50842435266011" lon="10.599165603930754"><ele>464.59999999999997</ele><time>2026-04-19T09:16:49.999Z</time></trkpt><trkpt lat="44.50829783915514" lon="10.599192512312856"><ele>463.79999999999995</ele><time>2026-04-19T09:16:51.999Z</time></trkpt><trkpt lat="44.50819387401939" lon="10.599239505362752"><ele>463.0</ele><time>2026-04-19T09:16:53.999Z</time></trkpt><trkpt lat="44.508106866109735" lon="10.59932280588013"><ele>463.00000000000006</ele><time>2026-04-19T09:16:55.999Z</time></trkpt><trkpt lat="44.50809054141964" lon="10.599412232410128"><ele>463.0</ele><time>2026-04-19T09:16:56.999Z</time></trkpt><trkpt lat="44.508001778620596" lon="10.599457004916454"><ele>463.0</ele><time>2026-04-19T09:16:58.999Z</time></trkpt><trkpt lat="44.507918247805975" lon="10.599526831283798"><ele>463.0</ele><time>2026-04-19T09:16:59.999Z</time></trkpt><trkpt lat="44.50783703017344" lon="10.599579495828305"><ele>463.00000000000006</ele><time>2026-04-19T09:17:00.999Z</time></trkpt><trkpt lat="44.50775885538237" lon="10.599609704552085"><ele>463.0</ele><time>2026-04-19T09:17:01.999Z</time></trkpt><trkpt lat="44.50769033052258" lon="10.599653119430936"><ele>462.0</ele><time>2026-04-19T09:17:02.999Z</time></trkpt><trkpt lat="44.507629338080775" lon="10.59967901107274"><ele>460.99999999999994</ele><time>2026-04-19T09:17:03.999Z</time></trkpt><trkpt lat="44.50751409598054" lon="10.599653657879486"><ele>459.99999999999994</ele><time>2026-04-19T09:17:05.999Z</time></trkpt><trkpt lat="44.50741900514694" lon="10.599615115104916"><ele>459.0</ele><time>2026-04-19T09:17:06.999Z</time></trkpt><trkpt lat="44.507296278704764" lon="10.599531425482814"><ele>458.0</ele><time>2026-04-19T09:17:07.999Z</time></trkpt><trkpt lat="44.50715975146109" lon="10.599453950459843"><ele>461.0</ele><time>2026-04-19T09:17:08.999Z</time></trkpt><trkpt lat="44.50699302745402" lon="10.599377342205997"><ele>464.0</ele><time>2026-04-19T09:17:09.999Z</time></trkpt><trkpt lat="44.50682028182303" lon="10.599309260836952"><ele>467.0</ele><time>2026-04-19T09:17:10.999Z</time></trkpt><trkpt lat="44.50671619437489" lon="10.59927885181097"><ele>467.0</ele><time>2026-04-19T09:17:11.999Z</time></trkpt><trkpt lat="44.506641550477546" lon="10.59921014390429"><ele>467.00000000000006</ele><time>2026-04-19T09:17:12.999Z</time></trkpt><trkpt lat="44.50657883646481" lon="10.599070718421657"><ele>467.00000000000006</ele><time>2026-04-19T09:17:13.999Z</time></trkpt><trkpt lat="44.50654106809424" lon="10.598914286318909"><ele>467.0</ele><time>2026-04-19T09:17:14.999Z</time></trkpt><trkpt lat="44.506491616222284" lon="10.598814062331249"><ele>467.0</ele><time>2026-04-19T09:17:15.999Z</time></trkpt><trkpt lat="44.5063898078428" lon="10.598758417760598"><ele>467.3333333333333</ele><time>2026-04-19T09:17:16.999Z</time></trkpt><trkpt lat="44.506240619856776" lon="10.598662374672793"><ele>467.66666666666663</ele><time>2026-04-19T09:17:17.999Z</time></trkpt><trkpt lat="44.50610735247196" lon="10.598534748219311"><ele>468.0</ele><time>2026-04-19T09:17:18.999Z</time></trkpt><trkpt lat="44.50597523632332" lon="10.598367517084274"><ele>468.0</ele><time>2026-04-19T09:17:19.999Z</time></trkpt><trkpt lat="44.50592932168238" lon="10.59818867681355"><ele>468.0</ele><time>2026-04-19T09:17:20.999Z</time></trkpt><trkpt lat="44.505908387588285" lon="10.598020555268402"><ele>468.0</ele><time>2026-04-19T09:17:21.999Z</time></trkpt><trkpt lat="44.50588665808913" lon="10.597896688367303"><ele>468.0</ele><time>2026-04-19T09:17:22.999Z</time></trkpt><trkpt lat="44.50580144315705" lon="10.59774783273522"><ele>468.59999999999997</ele><time>2026-04-19T09:17:24.999Z</time></trkpt><trkpt lat="44.50571264310423" lon="10.597686669410272"><ele>469.19999999999993</ele><time>2026-04-19T09:17:25.999Z</time></trkpt><trkpt lat="44.50561449155761" lon="10.597607353754285"><ele>469.8</ele><time>2026-04-19T09:17:26.999Z</time></trkpt><trkpt lat="44.50553144783225" lon="10.597534295848776"><ele>470.4</ele><time>2026-04-19T09:17:27.999Z</time></trkpt><trkpt lat="44.50546388969002" lon="10.597447375037897"><ele>471.0</ele><time>2026-04-19T09:17:28.999Z</time></trkpt><trkpt lat="44.50540014355178" lon="10.597395827922538"><ele>471.0</ele><time>2026-04-19T09:17:29.999Z</time></trkpt><trkpt lat="44.505323379705025" lon="10.597357914218753"><ele>471.0</ele><time>2026-04-19T09:17:30.999Z</time></trkpt><trkpt lat="44.50523230358915" lon="10.59735190794738"><ele>471.0</ele><time>2026-04-19T09:17:31.999Z</time></trkpt><trkpt lat="44.50516295607992" lon="10.597336188593642"><ele>471.0</ele><time>2026-04-19T09:17:32.999Z</time></trkpt><trkpt lat="44.505102002403866" lon="10.597297769289476"><ele>471.0</ele><time>2026-04-19T09:17:33.999Z</time></trkpt><trkpt lat="44.505043445515966" lon="10.59721552179121"><ele>471.0</ele><time>2026-04-19T09:17:34.999Z</time></trkpt><trkpt lat="44.505005673195186" lon="10.597101317016802"><ele>466.4</ele><time>2026-04-19T09:17:35.999Z</time></trkpt><trkpt lat="44.504925315256834" lon="10.596938001907255"><ele>461.8</ele><time>2026-04-19T09:17:36.999Z</time></trkpt><trkpt lat="44.504857967744066" lon="10.596844075291862"><ele>457.19999999999993</ele><time>2026-04-19T09:17:37.999Z</time></trkpt><trkpt lat="44.50479014021383" lon="10.596769532435694"><ele>452.59999999999997</ele><time>2026-04-19T09:17:38.999Z</time></trkpt><trkpt lat="44.50471492754469" lon="10.59669980590981"><ele>448.0</ele><time>2026-04-19T09:17:39.999Z</time></trkpt><trkpt lat="44.50464838085362" lon="10.596621260383108"><ele>450.83333333333337</ele><time>2026-04-19T09:17:40.999Z</time></trkpt><trkpt lat="44.50457911592904" lon="10.596557654843672"><ele>453.6666666666667</ele><time>2026-04-19T09:17:41.999Z</time></trkpt><trkpt lat="44.50449742563275" lon="10.596468724292732"><ele>456.5</ele><time>2026-04-19T09:17:42.999Z</time></trkpt><trkpt lat="44.504409962563706" lon="10.596429123708916"><ele>459.33333333333337</ele><time>2026-04-19T09:17:43.999Z</time></trkpt><trkpt lat="44.50434051398827" lon="10.59640107179255"><ele>462.1666666666667</ele><time>2026-04-19T09:17:44.999Z</time></trkpt><trkpt lat="44.5042791025206" lon="10.596377465529477"><ele>465.0</ele><time>2026-04-19T09:17:45.999Z</time></trkpt><trkpt lat="44.50416374445622" lon="10.596338387856589"><ele>465.0</ele><time>2026-04-19T09:17:47.999Z</time></trkpt><trkpt lat="44.504084527371305" lon="10.596343795521674"><ele>465.0</ele><time>2026-04-19T09:17:48.999Z</time></trkpt><trkpt lat="44.504017909601146" lon="10.596363679555632"><ele>465.0</ele><time>2026-04-19T09:17:49.999Z</time></trkpt><trkpt lat="44.503947370209865" lon="10.596387858852554"><ele>465.0</ele><time>2026-04-19T09:17:50.999Z</time></trkpt><trkpt lat="44.503875302163785" lon="10.59642584550839"><ele>465.0</ele><time>2026-04-19T09:17:52Z</time></trkpt><trkpt lat="44.50382019028947" lon="10.596477888996839"><ele>465.0</ele><time>2026-04-19T09:17:53Z</time></trkpt><trkpt lat="44.50375975858405" lon="10.596537672487615"><ele>465.0</ele><time>2026-04-19T09:17:54Z</time></trkpt><trkpt lat="44.50369327724405" lon="10.59663324029448"><ele>465.6666666666667</ele><time>2026-04-19T09:17:55Z</time></trkpt><trkpt lat="44.503613010782345" lon="10.596703184267865"><ele>466.33333333333337</ele><time>2026-04-19T09:17:56Z</time></trkpt><trkpt lat="44.50354938487162" lon="10.596761210599619"><ele>467.0</ele><time>2026-04-19T09:17:57Z</time></trkpt><trkpt lat="44.50349052915244" lon="10.59679877718309"><ele>467.6666666666667</ele><time>2026-04-19T09:17:58Z</time></trkpt><trkpt lat="44.503429865929434" lon="10.596842414842781"><ele>468.33333333333337</ele><time>2026-04-19T09:17:59Z</time></trkpt><trkpt lat="44.503348579404204" lon="10.596845735981187"><ele>469.0</ele><time>2026-04-19T09:18:00Z</time></trkpt><trkpt lat="44.503251841913766" lon="10.596848991705757"><ele>469.0</ele><time>2026-04-19T09:18:01Z</time></trkpt><trkpt lat="44.50314499754212" lon="10.596833683131191"><ele>469.0</ele><time>2026-04-19T09:18:02Z</time></trkpt><trkpt lat="44.503052911494095" lon="10.596835781122365"><ele>469.0</ele><time>2026-04-19T09:18:03Z</time></trkpt><trkpt lat="44.50295170897144" lon="10.596825410952578"><ele>469.0</ele><time>2026-04-19T09:18:04Z</time></trkpt><trkpt lat="44.50285913245761" lon="10.596814883743857"><ele>469.0</ele><time>2026-04-19T09:18:05Z</time></trkpt><trkpt lat="44.50278368481345" lon="10.596803059695223"><ele>469.6</ele><time>2026-04-19T09:18:06Z</time></trkpt><trkpt lat="44.50267040556503" lon="10.596781982848297"><ele>470.2</ele><time>2026-04-19T09:18:08Z</time></trkpt><trkpt lat="44.502594480140715" lon="10.596772738433147"><ele>470.80000000000007</ele><time>2026-04-19T09:18:10Z</time></trkpt><trkpt lat="44.50251647423024" lon="10.596739412582547"><ele>471.40000000000003</ele><time>2026-04-19T09:19:22.999Z</time></trkpt><trkpt lat="44.502472780815204" lon="10.596589747372935"><ele>472.0</ele><time>2026-04-19T09:19:24.999Z</time></trkpt><trkpt lat="44.50243362821868" lon="10.59650784199337"><ele>472.0</ele><time>2026-04-19T09:19:25.999Z</time></trkpt><trkpt lat="44.502362558344046" lon="10.596450080555762"><ele>472.00000000000006</ele><time>2026-04-19T09:19:26.999Z</time></trkpt><trkpt lat="44.502276534912774" lon="10.596397163634851"><ele>472.00000000000006</ele><time>2026-04-19T09:19:27.999Z</time></trkpt><trkpt lat="44.50216171190596" lon="10.596404389537295"><ele>472.0</ele><time>2026-04-19T09:19:28.999Z</time></trkpt><trkpt lat="44.50203143354095" lon="10.596443962230587"><ele>472.0</ele><time>2026-04-19T09:19:29.999Z</time></trkpt><trkpt lat="44.50190161945476" lon="10.59646926957768"><ele>470.33333333333337</ele><time>2026-04-19T09:19:30.999Z</time></trkpt><trkpt lat="44.50175848589952" lon="10.596492094609745"><ele>468.66666666666663</ele><time>2026-04-19T09:19:31.999Z</time></trkpt><trkpt lat="44.501606326232945" lon="10.596531369970918"><ele>467.0</ele><time>2026-04-19T09:19:32.999Z</time></trkpt><trkpt lat="44.50144896462276" lon="10.596570904844043"><ele>467.0</ele><time>2026-04-19T09:19:33.999Z</time></trkpt><trkpt lat="44.501298621514515" lon="10.596612944305637"><ele>467.0</ele><time>2026-04-19T09:19:34.999Z</time></trkpt><trkpt lat="44.501152925362284" lon="10.59665601033423"><ele>467.0</ele><time>2026-04-19T09:19:35.999Z</time></trkpt><trkpt lat="44.50101907612141" lon="10.596692124801864"><ele>467.0</ele><time>2026-04-19T09:19:36.999Z</time></trkpt><trkpt lat="44.50090924835525" lon="10.596703418568438"><ele>465.0</ele><time>2026-04-19T09:19:37.999Z</time></trkpt><trkpt lat="44.500832598665774" lon="10.596677205364005"><ele>463.00000000000006</ele><time>2026-04-19T09:19:38.999Z</time></trkpt><trkpt lat="44.50076501515239" lon="10.59660629914463"><ele>461.00000000000006</ele><time>2026-04-19T09:19:39.999Z</time></trkpt><trkpt lat="44.50074228159795" lon="10.596460245183069"><ele>459.0</ele><time>2026-04-19T09:19:40.999Z</time></trkpt><trkpt lat="44.50074555523153" lon="10.596300138438487"><ele>457.0</ele><time>2026-04-19T09:19:41.999Z</time></trkpt><trkpt lat="44.5007430524647" lon="10.596129602217141"><ele>453.75</ele><time>2026-04-19T09:19:42.999Z</time></trkpt><trkpt lat="44.5007880686318" lon="10.595984676001542"><ele>450.5</ele><time>2026-04-19T09:19:43.999Z</time></trkpt><trkpt lat="44.50088149895895" lon="10.595889311387413"><ele>447.25</ele><time>2026-04-19T09:19:44.999Z</time></trkpt><trkpt lat="44.500999160478514" lon="10.595778091937301"><ele>444.0</ele><time>2026-04-19T09:19:45.999Z</time></trkpt><trkpt lat="44.501133055012495" lon="10.595601472733346"><ele>444.0</ele><time>2026-04-19T09:19:46.999Z</time></trkpt><trkpt lat="44.501242263147006" lon="10.595434728208238"><ele>444.0</ele><time>2026-04-19T09:19:47.999Z</time></trkpt><trkpt lat="44.50135371297046" lon="10.595289547487283"><ele>444.0</ele><time>2026-04-19T09:19:48.999Z</time></trkpt><trkpt lat="44.50147159565513" lon="10.595153511606242"><ele>443.75</ele><time>2026-04-19T09:19:49.999Z</time></trkpt><trkpt lat="44.501596486178805" lon="10.595027978771203"><ele>443.5</ele><time>2026-04-19T09:19:50.999Z</time></trkpt><trkpt lat="44.50171701505181" lon="10.59490909330723"><ele>443.25</ele><time>2026-04-19T09:19:51.999Z</time></trkpt><trkpt lat="44.501829163908155" lon="10.594819263926711"><ele>443.0</ele><time>2026-04-19T09:19:52.999Z</time></trkpt><trkpt lat="44.501947027115804" lon="10.594773465024254"><ele>443.0</ele><time>2026-04-19T09:19:53.999Z</time></trkpt><trkpt lat="44.502062290738564" lon="10.59471601719379"><ele>443.0</ele><time>2026-04-19T09:19:54.999Z</time></trkpt><trkpt lat="44.50217568979895" lon="10.594648611026376"><ele>443.0</ele><time>2026-04-19T09:19:55.999Z</time></trkpt><trkpt lat="44.502263939887285" lon="10.594526827460328"><ele>443.0</ele><time>2026-04-19T09:19:57Z</time></trkpt><trkpt lat="44.50235054267698" lon="10.594383212205924"><ele>440.4</ele><time>2026-04-19T09:19:58Z</time></trkpt><trkpt lat="44.5024348968929" lon="10.59425119580015"><ele>437.79999999999995</ele><time>2026-04-19T09:19:59Z</time></trkpt><trkpt lat="44.50250000360989" lon="10.594163554421815"><ele>435.2</ele><time>2026-04-19T09:20:00Z</time></trkpt><trkpt lat="44.50257117558343" lon="10.59411716326505"><ele>432.6</ele><time>2026-04-19T09:20:01Z</time></trkpt><trkpt lat="44.50267088466466" lon="10.594112523073923"><ele>430.0</ele><time>2026-04-19T09:20:02Z</time></trkpt><trkpt lat="44.50277575528411" lon="10.594152323052993"><ele>430.0</ele><time>2026-04-19T09:20:03Z</time></trkpt><trkpt lat="44.50289855142029" lon="10.594166528632076"><ele>430.0</ele><time>2026-04-19T09:20:04Z</time></trkpt><trkpt lat="44.50302693833126" lon="10.594130916363211"><ele>430.0</ele><time>2026-04-19T09:20:05Z</time></trkpt><trkpt lat="44.50312803238566" lon="10.594072945852863"><ele>430.0</ele><time>2026-04-19T09:20:06Z</time></trkpt><trkpt lat="44.50322803557065" lon="10.594013454118613"><ele>429.5</ele><time>2026-04-19T09:20:07Z</time></trkpt><trkpt lat="44.50333012336087" lon="10.593980649265548"><ele>429.0</ele><time>2026-04-19T09:20:08Z</time></trkpt><trkpt lat="44.50344240875675" lon="10.59400569695674"><ele>428.5</ele><time>2026-04-19T09:20:09Z</time></trkpt><trkpt lat="44.503558131372074" lon="10.594076074444049"><ele>428.0</ele><time>2026-04-19T09:20:10Z</time></trkpt><trkpt lat="44.503688048547126" lon="10.594179238085578"><ele>422.3333333333333</ele><time>2026-04-19T09:20:11Z</time></trkpt><trkpt lat="44.503833273526595" lon="10.594290197155331"><ele>416.66666666666663</ele><time>2026-04-19T09:20:12Z</time></trkpt><trkpt lat="44.50400788034542" lon="10.594369964804335"><ele>411.0</ele><time>2026-04-19T09:20:13Z</time></trkpt><trkpt lat="44.50420313153959" lon="10.594449232266424"><ele>411.33333333333337</ele><time>2026-04-19T09:20:14Z</time></trkpt><trkpt lat="44.50435334161472" lon="10.594521005458198"><ele>411.6666666666667</ele><time>2026-04-19T09:20:15Z</time></trkpt><trkpt lat="44.50449026943966" lon="10.59459452203413"><ele>412.0</ele><time>2026-04-19T09:20:16Z</time></trkpt><trkpt lat="44.504627933835025" lon="10.594680221500658"><ele>412.0</ele><time>2026-04-19T09:20:17Z</time></trkpt><trkpt lat="44.50476186869252" lon="10.594769148340395"><ele>412.0</ele><time>2026-04-19T09:20:18Z</time></trkpt><trkpt lat="44.50488631559672" lon="10.59482326824381"><ele>412.0</ele><time>2026-04-19T09:20:19Z</time></trkpt><trkpt lat="44.50501850838839" lon="10.59485904648544"><ele>412.0</ele><time>2026-04-19T09:20:20Z</time></trkpt><trkpt lat="44.50513760357709" lon="10.59486441307222"><ele>412.0</ele><time>2026-04-19T09:20:21Z</time></trkpt><trkpt lat="44.505252301136416" lon="10.594835707744444"><ele>412.0</ele><time>2026-04-19T09:20:22Z</time></trkpt><trkpt lat="44.50536193303755" lon="10.594772437186815"><ele>412.0</ele><time>2026-04-19T09:20:23Z</time></trkpt><trkpt lat="44.50546344238513" lon="10.594658703440821"><ele>412.0</ele><time>2026-04-19T09:20:24Z</time></trkpt><trkpt lat="44.50555554624501" lon="10.594514976590078"><ele>407.20000000000005</ele><time>2026-04-19T09:20:25Z</time></trkpt><trkpt lat="44.505643668141154" lon="10.594372666710322"><ele>402.4</ele><time>2026-04-19T09:20:26Z</time></trkpt><trkpt lat="44.50572133908513" lon="10.594261294758482"><ele>397.6</ele><time>2026-04-19T09:20:27Z</time></trkpt><trkpt lat="44.505789028226474" lon="10.594185115969381"><ele>392.79999999999995</ele><time>2026-04-19T09:20:27.999Z</time></trkpt><trkpt lat="44.50585568323687" lon="10.594148255445583"><ele>388.0</ele><time>2026-04-19T09:20:28.999Z</time></trkpt><trkpt lat="44.50592096289073" lon="10.594181862154393"><ele>388.0</ele><time>2026-04-19T09:20:29.999Z</time></trkpt><trkpt lat="44.505970151276955" lon="10.594273937790105"><ele>388.0</ele><time>2026-04-19T09:20:30.999Z</time></trkpt><trkpt lat="44.50599149327246" lon="10.594421459272592"><ele>388.0</ele><time>2026-04-19T09:20:31.999Z</time></trkpt><trkpt lat="44.505990774508255" lon="10.594578992834416"><ele>388.0</ele><time>2026-04-19T09:20:32.999Z</time></trkpt><trkpt lat="44.50604595996947" lon="10.59469050276296"><ele>388.0</ele><time>2026-04-19T09:20:33.999Z</time></trkpt><trkpt lat="44.50614227698003" lon="10.594767341470703"><ele>387.0</ele><time>2026-04-19T09:20:34.999Z</time></trkpt><trkpt lat="44.50625740118517" lon="10.594816010133572"><ele>386.0</ele><time>2026-04-19T09:20:35.999Z</time></trkpt><trkpt lat="44.50638749226422" lon="10.594833688140419"><ele>385.0</ele><time>2026-04-19T09:20:36.999Z</time></trkpt><trkpt lat="44.50652380796853" lon="10.59484742409611"><ele>384.0</ele><time>2026-04-19T09:20:37.999Z</time></trkpt><trkpt lat="44.50666472151989" lon="10.594863563059453"><ele>384.0</ele><time>2026-04-19T09:20:38.999Z</time></trkpt><trkpt lat="44.50681813710201" lon="10.59487962416831"><ele>384.0</ele><time>2026-04-19T09:20:39.999Z</time></trkpt><trkpt lat="44.50697183030477" lon="10.594895409610869"><ele>384.0</ele><time>2026-04-19T09:20:40.999Z</time></trkpt><trkpt lat="44.507124691446485" lon="10.594914328559906"><ele>382.0</ele><time>2026-04-19T09:20:41.999Z</time></trkpt><trkpt lat="44.50726242588769" lon="10.594933080174867"><ele>380.0</ele><time>2026-04-19T09:20:42.999Z</time></trkpt><trkpt lat="44.507386047428646" lon="10.59493902884719"><ele>378.0</ele><time>2026-04-19T09:20:43.999Z</time></trkpt><trkpt lat="44.50750226876263" lon="10.594915412200926"><ele>376.0</ele><time>2026-04-19T09:20:44.999Z</time></trkpt><trkpt lat="44.50760833215867" lon="10.59484293448514"><ele>376.0</ele><time>2026-04-19T09:20:45.999Z</time></trkpt><trkpt lat="44.507698267465955" lon="10.594730174206346"><ele>376.0</ele><time>2026-04-19T09:20:46.999Z</time></trkpt><trkpt lat="44.50777925334956" lon="10.594572503755833"><ele>376.0</ele><time>2026-04-19T09:20:47.999Z</time></trkpt><trkpt lat="44.507861438439484" lon="10.594414888392883"><ele>376.0</ele><time>2026-04-19T09:20:48.999Z</time></trkpt><trkpt lat="44.50794424235421" lon="10.594259224573369"><ele>373.25</ele><time>2026-04-19T09:20:49.999Z</time></trkpt><trkpt lat="44.508018877482165" lon="10.59410964106059"><ele>370.5</ele><time>2026-04-19T09:20:50.999Z</time></trkpt><trkpt lat="44.508100554398915" lon="10.594011351885522"><ele>367.75</ele><time>2026-04-19T09:20:51.999Z</time></trkpt><trkpt lat="44.50820373235881" lon="10.593966891393347"><ele>365.0</ele><time>2026-04-19T09:20:52.999Z</time></trkpt><trkpt lat="44.5083298215515" lon="10.593972612934477"><ele>365.0</ele><time>2026-04-19T09:20:53.999Z</time></trkpt><trkpt lat="44.50845820314413" lon="10.594024625571349"><ele>365.0</ele><time>2026-04-19T09:20:54.999Z</time></trkpt><trkpt lat="44.50856917635338" lon="10.594052102445383"><ele>365.0</ele><time>2026-04-19T09:20:55.999Z</time></trkpt><trkpt lat="44.50867868828321" lon="10.59404957036654"><ele>365.0</ele><time>2026-04-19T09:20:56.999Z</time></trkpt><trkpt lat="44.50877306724531" lon="10.593993808752364"><ele>363.5</ele><time>2026-04-19T09:20:57.999Z</time></trkpt><trkpt lat="44.50883739544845" lon="10.59388732271921"><ele>362.0</ele><time>2026-04-19T09:20:58.999Z</time></trkpt><trkpt lat="44.50888645857503" lon="10.593744129942328"><ele>360.5</ele><time>2026-04-19T09:20:59.999Z</time></trkpt><trkpt lat="44.50887176341422" lon="10.593550398814637"><ele>359.0</ele><time>2026-04-19T09:21:00.999Z</time></trkpt><trkpt lat="44.50887185868191" lon="10.593334858905374"><ele>356.75</ele><time>2026-04-19T09:21:01.999Z</time></trkpt><trkpt lat="44.50887058653231" lon="10.593147547809307"><ele>354.5</ele><time>2026-04-19T09:21:02.999Z</time></trkpt><trkpt lat="44.50885884197433" lon="10.592973757780312"><ele>352.25</ele><time>2026-04-19T09:21:03.999Z</time></trkpt><trkpt lat="44.5088207072434" lon="10.592808153145858"><ele>350.0</ele><time>2026-04-19T09:21:04.999Z</time></trkpt><trkpt lat="44.508770808286144" lon="10.592658659496127"><ele>349.5</ele><time>2026-04-19T09:21:05.999Z</time></trkpt><trkpt lat="44.5086969485886" lon="10.59250693299842"><ele>349.0</ele><time>2026-04-19T09:21:06.999Z</time></trkpt><trkpt lat="44.50859947751187" lon="10.592354397742229"><ele>348.5</ele><time>2026-04-19T09:21:07.999Z</time></trkpt><trkpt lat="44.50848178004932" lon="10.59219363434674"><ele>348.0</ele><time>2026-04-19T09:21:08.999Z</time></trkpt><trkpt lat="44.50836700457256" lon="10.592041588456693"><ele>344.3333333333333</ele><time>2026-04-19T09:21:09.999Z</time></trkpt><trkpt lat="44.508269965843326" lon="10.591870332281616"><ele>340.66666666666663</ele><time>2026-04-19T09:21:10.999Z</time></trkpt><trkpt lat="44.50819962030033" lon="10.591677796097313"><ele>337.0</ele><time>2026-04-19T09:21:11.999Z</time></trkpt><trkpt lat="44.508152189131934" lon="10.591476374382772"><ele>337.0</ele><time>2026-04-19T09:21:12.999Z</time></trkpt><trkpt lat="44.50811111584412" lon="10.591278015471051"><ele>337.0</ele><time>2026-04-19T09:21:13.999Z</time></trkpt><trkpt lat="44.50806982794849" lon="10.59108239007629"><ele>337.0</ele><time>2026-04-19T09:21:14.999Z</time></trkpt><trkpt lat="44.50802537087382" lon="10.590889670856232"><ele>337.0</ele><time>2026-04-19T09:21:15.999Z</time></trkpt><trkpt lat="44.50798497015553" lon="10.590699630085346"><ele>335.75</ele><time>2026-04-19T09:21:16.999Z</time></trkpt><trkpt lat="44.50794358407374" lon="10.59051460382181"><ele>334.5</ele><time>2026-04-19T09:21:17.999Z</time></trkpt><trkpt lat="44.507900383790535" lon="10.590328791778058"><ele>333.25</ele><time>2026-04-19T09:21:18.999Z</time></trkpt><trkpt lat="44.50785751769746" lon="10.590149930274144"><ele>332.0</ele><time>2026-04-19T09:21:19.999Z</time></trkpt><trkpt lat="44.50781407715284" lon="10.589971799326607"><ele>332.0</ele><time>2026-04-19T09:21:20.999Z</time></trkpt><trkpt lat="44.507770055235376" lon="10.58979255755896"><ele>332.0</ele><time>2026-04-19T09:21:21.999Z</time></trkpt><trkpt lat="44.50772786871043" lon="10.589611243187614"><ele>332.0</ele><time>2026-04-19T09:21:22.999Z</time></trkpt><trkpt lat="44.507691065073" lon="10.589424360112755"><ele>332.0</ele><time>2026-04-19T09:21:23.999Z</time></trkpt><trkpt lat="44.50766729355471" lon="10.589231475241151"><ele>330.0</ele><time>2026-04-19T09:21:24.999Z</time></trkpt><trkpt lat="44.50765502045119" lon="10.58903604110523"><ele>328.0</ele><time>2026-04-19T09:21:25.999Z</time></trkpt><trkpt lat="44.50765121568295" lon="10.588842915853416"><ele>326.0</ele><time>2026-04-19T09:21:26.999Z</time></trkpt><trkpt lat="44.507641434798266" lon="10.588654657023666"><ele>324.0</ele><time>2026-04-19T09:21:27.999Z</time></trkpt><trkpt lat="44.50761259831457" lon="10.588476182456759"><ele>321.5</ele><time>2026-04-19T09:21:28.999Z</time></trkpt><trkpt lat="44.507570293555794" lon="10.588299923004532"><ele>319.0</ele><time>2026-04-19T09:21:29.999Z</time></trkpt><trkpt lat="44.507527412528276" lon="10.588122086863486"><ele>316.5</ele><time>2026-04-19T09:21:30.999Z</time></trkpt><trkpt lat="44.5074811508984" lon="10.587944318046464"><ele>314.0</ele><time>2026-04-19T09:21:31.999Z</time></trkpt><trkpt lat="44.50742830898275" lon="10.587768315575596"><ele>312.0</ele><time>2026-04-19T09:21:32.999Z</time></trkpt><trkpt lat="44.507377432134625" lon="10.587605922960156"><ele>310.0</ele><time>2026-04-19T09:21:33.999Z</time></trkpt><trkpt lat="44.50732228032078" lon="10.587466059842711"><ele>308.0</ele><time>2026-04-19T09:21:34.999Z</time></trkpt><trkpt lat="44.50724771229427" lon="10.587342052536517"><ele>306.0</ele><time>2026-04-19T09:21:35.999Z</time></trkpt><trkpt lat="44.50715217514721" lon="10.587259042326652"><ele>306.8</ele><time>2026-04-19T09:21:36.999Z</time></trkpt><trkpt lat="44.507040791479845" lon="10.587211448652374"><ele>307.6</ele><time>2026-04-19T09:21:37.999Z</time></trkpt><trkpt lat="44.506940189966194" lon="10.587188821786945"><ele>308.4</ele><time>2026-04-19T09:21:38.999Z</time></trkpt><trkpt lat="44.50684945486645" lon="10.587158467791344"><ele>309.2</ele><time>2026-04-19T09:21:39.999Z</time></trkpt><trkpt lat="44.50678222210354" lon="10.58712001998639"><ele>310.0</ele><time>2026-04-19T09:21:40.999Z</time></trkpt><trkpt lat="44.50672586672701" lon="10.587061174932549"><ele>309.0</ele><time>2026-04-19T09:21:41.999Z</time></trkpt><trkpt lat="44.50670086983578" lon="10.586979850001873"><ele>308.0</ele><time>2026-04-19T09:21:42.999Z</time></trkpt><trkpt lat="44.50670665197568" lon="10.586852069161521"><ele>307.0</ele><time>2026-04-19T09:21:44.999Z</time></trkpt><trkpt lat="44.50669720616481" lon="10.586704123628648"><ele>306.0</ele><time>2026-04-19T09:21:48.998Z</time></trkpt><trkpt lat="44.50651643581316" lon="10.586687783941851"><ele>305.0</ele><time>2026-04-19T09:21:49.998Z</time></trkpt><trkpt lat="44.506397846382015" lon="10.586663355680052"><ele>305.0</ele><time>2026-04-19T09:21:50.998Z</time></trkpt><trkpt lat="44.50624729424277" lon="10.586628261418548"><ele>305.0</ele><time>2026-04-19T09:21:51.998Z</time></trkpt><trkpt lat="44.506080695018056" lon="10.58658664459988"><ele>305.0</ele><time>2026-04-19T09:21:52.998Z</time></trkpt><trkpt lat="44.50594096304969" lon="10.586548131307095"><ele>306.25</ele><time>2026-04-19T09:21:53.998Z</time></trkpt><trkpt lat="44.50581719637281" lon="10.586506367888814"><ele>307.5</ele><time>2026-04-19T09:21:54.998Z</time></trkpt><trkpt lat="44.505705153179875" lon="10.586452356185479"><ele>308.75</ele><time>2026-04-19T09:21:55.998Z</time></trkpt><trkpt lat="44.50560257168851" lon="10.586373290580543"><ele>310.0</ele><time>2026-04-19T09:21:56.998Z</time></trkpt><trkpt lat="44.505515196637226" lon="10.586275027090835"><ele>309.2</ele><time>2026-04-19T09:21:57.998Z</time></trkpt><trkpt lat="44.505454242621994" lon="10.586161592261787"><ele>308.4</ele><time>2026-04-19T09:21:58.998Z</time></trkpt><trkpt lat="44.50540705161452" lon="10.586023060659654"><ele>307.6</ele><time>2026-04-19T09:21:59.998Z</time></trkpt><trkpt lat="44.505369648556844" lon="10.585848042342306"><ele>306.8</ele><time>2026-04-19T09:22:00.998Z</time></trkpt><trkpt lat="44.50532611478577" lon="10.585713818864155"><ele>306.0</ele><time>2026-04-19T09:22:01.998Z</time></trkpt><trkpt lat="44.50527369234917" lon="10.585568626355018"><ele>305.8</ele><time>2026-04-19T09:22:03Z</time></trkpt><trkpt lat="44.505221115519134" lon="10.585429228234686"><ele>305.6</ele><time>2026-04-19T09:22:04Z</time></trkpt><trkpt lat="44.50515845875443" lon="10.585299601204117"><ele>305.4</ele><time>2026-04-19T09:22:05Z</time></trkpt><trkpt lat="44.50508826287739" lon="10.585174350931089"><ele>305.2</ele><time>2026-04-19T09:22:06Z</time></trkpt><trkpt lat="44.50500793029484" lon="10.585072982421119"><ele>305.0</ele><time>2026-04-19T09:22:07Z</time></trkpt><trkpt lat="44.5049197746556" lon="10.58498017781567"><ele>306.0</ele><time>2026-04-19T09:22:08Z</time></trkpt><trkpt lat="44.50482386758276" lon="10.58489889778573"><ele>307.0</ele><time>2026-04-19T09:22:09Z</time></trkpt><trkpt lat="44.50473834340742" lon="10.584840283338607"><ele>308.0</ele><time>2026-04-19T09:22:10Z</time></trkpt><trkpt lat="44.504667255082154" lon="10.584797526779358"><ele>309.0</ele><time>2026-04-19T09:22:11Z</time></trkpt><trkpt lat="44.50457820556843" lon="10.584742277933048"><ele>310.0</ele><time>2026-04-19T09:22:13Z</time></trkpt><trkpt lat="44.504704779304234" lon="10.584627618551506"><ele>311.25</ele><time>2026-04-19T09:22:19Z</time></trkpt><trkpt lat="44.504835824207085" lon="10.584585331605457"><ele>312.5</ele><time>2026-04-19T09:22:21Z</time></trkpt><trkpt lat="44.50492862415212" lon="10.584539558511336"><ele>313.75</ele><time>2026-04-19T09:22:22Z</time></trkpt><trkpt lat="44.50503592731577" lon="10.584469178274444"><ele>315.0</ele><time>2026-04-19T09:22:23Z</time></trkpt><trkpt lat="44.50515620537971" lon="10.584392999644821"><ele>319.5</ele><time>2026-04-19T09:22:24Z</time></trkpt><trkpt lat="44.505267119812764" lon="10.584303401847551"><ele>324.0</ele><time>2026-04-19T09:22:25Z</time></trkpt><trkpt lat="44.505392484953546" lon="10.584216758844024"><ele>328.5</ele><time>2026-04-19T09:22:26Z</time></trkpt><trkpt lat="44.50550437262107" lon="10.584148580717097"><ele>333.0</ele><time>2026-04-19T09:22:27Z</time></trkpt><trkpt lat="44.505603498596685" lon="10.584068161494539"><ele>333.5</ele><time>2026-04-19T09:22:28Z</time></trkpt><trkpt lat="44.50569867619167" lon="10.583952628456021"><ele>334.0</ele><time>2026-04-19T09:22:29Z</time></trkpt><trkpt lat="44.50580692556343" lon="10.583845540946276"><ele>334.5</ele><time>2026-04-19T09:22:30Z</time></trkpt><trkpt lat="44.50590457372982" lon="10.583714819270758"><ele>335.0</ele><time>2026-04-19T09:22:31Z</time></trkpt><trkpt lat="44.505975322474285" lon="10.583590449760203"><ele>338.0</ele><time>2026-04-19T09:22:32Z</time></trkpt><trkpt lat="44.5059901259711" lon="10.583492956101699"><ele>341.0</ele><time>2026-04-19T09:22:33Z</time></trkpt><trkpt lat="44.505917543601726" lon="10.583426437775143"><ele>344.0</ele><time>2026-04-19T09:22:34Z</time></trkpt><trkpt lat="44.50581107791155" lon="10.583358576767518"><ele>347.0</ele><time>2026-04-19T09:22:35Z</time></trkpt><trkpt lat="44.50571293374073" lon="10.583272253243974"><ele>350.0</ele><time>2026-04-19T09:22:36Z</time></trkpt><trkpt lat="44.50577985481835" lon="10.583107130965958"><ele>350.0</ele><time>2026-04-19T09:22:38Z</time></trkpt><trkpt lat="44.50588211446976" lon="10.583031120873875"><ele>350.0</ele><time>2026-04-19T09:22:39Z</time></trkpt><trkpt lat="44.50597534896599" lon="10.582904754800412"><ele>350.0</ele><time>2026-04-19T09:22:40Z</time></trkpt><trkpt lat="44.50604706345275" lon="10.58277035938027"><ele>350.0</ele><time>2026-04-19T09:22:40.999Z</time></trkpt><trkpt lat="44.506071178128266" lon="10.58265705802705"><ele>350.0</ele><time>2026-04-19T09:22:41.999Z</time></trkpt><trkpt lat="44.50602285237722" lon="10.582581570565"><ele>353.2</ele><time>2026-04-19T09:22:42.999Z</time></trkpt><trkpt lat="44.505945650333096" lon="10.58257878984962"><ele>356.4</ele><time>2026-04-19T09:22:43.999Z</time></trkpt><trkpt lat="44.505842639154835" lon="10.582653447793303"><ele>359.6</ele><time>2026-04-19T09:22:44.999Z</time></trkpt><trkpt lat="44.505781554871334" lon="10.582593175039035"><ele>362.8</ele><time>2026-04-19T09:22:45.999Z</time></trkpt><trkpt lat="44.50570959687292" lon="10.582466240337917"><ele>366.0</ele><time>2026-04-19T09:22:46.999Z</time></trkpt><trkpt lat="44.505621423448545" lon="10.582299884922405"><ele>366.0</ele><time>2026-04-19T09:22:47.999Z</time></trkpt><trkpt lat="44.50551460296207" lon="10.582076743580217"><ele>366.0</ele><time>2026-04-19T09:22:48.999Z</time></trkpt><trkpt lat="44.50539999882015" lon="10.581882932152547"><ele>366.0</ele><time>2026-04-19T09:22:49.999Z</time></trkpt><trkpt lat="44.505321774770685" lon="10.581754555280925"><ele>368.5</ele><time>2026-04-19T09:22:50.999Z</time></trkpt><trkpt lat="44.50527949648768" lon="10.581659037613449"><ele>371.0</ele><time>2026-04-19T09:22:51.999Z</time></trkpt><trkpt lat="44.50525149398928" lon="10.581548885825388"><ele>373.5</ele><time>2026-04-19T09:22:52.999Z</time></trkpt><trkpt lat="44.50524345096424" lon="10.58141916941748"><ele>376.0</ele><time>2026-04-19T09:22:54.999Z</time></trkpt><trkpt lat="44.50525072015342" lon="10.581319602086179"><ele>378.5</ele><time>2026-04-19T09:22:55.999Z</time></trkpt><trkpt lat="44.505283197286325" lon="10.581238573387438"><ele>381.0</ele><time>2026-04-19T09:22:56.999Z</time></trkpt><trkpt lat="44.505302164822176" lon="10.581151624102576"><ele>381.4</ele><time>2026-04-19T09:22:57.999Z</time></trkpt><trkpt lat="44.50535240625187" lon="10.581095580571663"><ele>381.8</ele><time>2026-04-19T09:22:58.999Z</time></trkpt><trkpt lat="44.505449129820626" lon="10.581120250951258"><ele>382.2</ele><time>2026-04-19T09:22:59.999Z</time></trkpt><trkpt lat="44.50556383909514" lon="10.581217142408695"><ele>382.59999999999997</ele><time>2026-04-19T09:23:00.999Z</time></trkpt><trkpt lat="44.505632989821166" lon="10.58121430118191"><ele>383.0</ele><time>2026-04-19T09:23:01.999Z</time></trkpt><trkpt lat="44.5056144876756" lon="10.581036379249625"><ele>385.4</ele><time>2026-04-19T09:23:03.999Z</time></trkpt><trkpt lat="44.50559462376249" lon="10.580907302142313"><ele>387.79999999999995</ele><time>2026-04-19T09:23:04.999Z</time></trkpt><trkpt lat="44.50552861907641" lon="10.580753949566432"><ele>390.2</ele><time>2026-04-19T09:23:05.999Z</time></trkpt><trkpt lat="44.50546344415298" lon="10.580637217138841"><ele>392.6</ele><time>2026-04-19T09:23:06.999Z</time></trkpt><trkpt lat="44.50536728248871" lon="10.580579355260804"><ele>395.0</ele><time>2026-04-19T09:23:07.999Z</time></trkpt><trkpt lat="44.505272194155204" lon="10.580469964253256"><ele>397.6</ele><time>2026-04-19T09:23:08.999Z</time></trkpt><trkpt lat="44.505286207529586" lon="10.580274102905054"><ele>400.2</ele><time>2026-04-19T09:23:10.999Z</time></trkpt><trkpt lat="44.505312813819046" lon="10.580177944360013"><ele>402.79999999999995</ele><time>2026-04-19T09:23:11.999Z</time></trkpt><trkpt lat="44.505368253466365" lon="10.580033867792174"><ele>405.4</ele><time>2026-04-19T09:23:13.999Z</time></trkpt><trkpt lat="44.50542598849365" lon="10.579948398675851"><ele>408.0</ele><time>2026-04-19T09:23:14.999Z</time></trkpt><trkpt lat="44.50547131238848" lon="10.579860593590379"><ele>408.3333333333333</ele><time>2026-04-19T09:23:15.999Z</time></trkpt><trkpt lat="44.50549905033209" lon="10.579780314653075"><ele>408.66666666666663</ele><time>2026-04-19T09:23:16.999Z</time></trkpt><trkpt lat="44.505541820645014" lon="10.579700089884392"><ele>409.0</ele><time>2026-04-19T09:23:17.999Z</time></trkpt><trkpt lat="44.50557961803006" lon="10.57960528917326"><ele>409.3333333333333</ele><time>2026-04-19T09:23:18.999Z</time></trkpt><trkpt lat="44.505606164407986" lon="10.579506975401557"><ele>409.66666666666663</ele><time>2026-04-19T09:23:19.999Z</time></trkpt><trkpt lat="44.505643797073816" lon="10.579367229268957"><ele>410.0</ele><time>2026-04-19T09:23:20.999Z</time></trkpt><trkpt lat="44.505697299938774" lon="10.579226660840211"><ele>413.5</ele><time>2026-04-19T09:23:21.999Z</time></trkpt><trkpt lat="44.505772185306434" lon="10.579081705033165"><ele>417.0</ele><time>2026-04-19T09:23:22.999Z</time></trkpt><trkpt lat="44.505841532214404" lon="10.578943199727433"><ele>420.5</ele><time>2026-04-19T09:23:23.999Z</time></trkpt><trkpt lat="44.50588048618098" lon="10.578799834842346"><ele>424.0</ele><time>2026-04-19T09:23:24.999Z</time></trkpt><trkpt lat="44.50584608982385" lon="10.578630601392002"><ele>426.6</ele><time>2026-04-19T09:23:26.999Z</time></trkpt><trkpt lat="44.50578416206967" lon="10.578559459884067"><ele>429.2</ele><time>2026-04-19T09:23:27.999Z</time></trkpt><trkpt lat="44.50573351873227" lon="10.57840107012775"><ele>431.80000000000007</ele><time>2026-04-19T09:23:29.999Z</time></trkpt><trkpt lat="44.505739332104426" lon="10.578296860946317"><ele>434.40000000000003</ele><time>2026-04-19T09:23:30.999Z</time></trkpt><trkpt lat="44.50575632892854" lon="10.578175577022215"><ele>437.0</ele><time>2026-04-19T09:23:31.999Z</time></trkpt><trkpt lat="44.50577670642384" lon="10.578057746408572"><ele>437.0</ele><time>2026-04-19T09:23:32.999Z</time></trkpt><trkpt lat="44.50577959800464" lon="10.577944288013926"><ele>437.00000000000006</ele><time>2026-04-19T09:23:33.999Z</time></trkpt><trkpt lat="44.50573625327737" lon="10.57780195375961"><ele>437.00000000000006</ele><time>2026-04-19T09:23:35.999Z</time></trkpt><trkpt lat="44.50565982379409" lon="10.577725493607268"><ele>437.0</ele><time>2026-04-19T09:23:36.999Z</time></trkpt><trkpt lat="44.50556015779272" lon="10.57765401938592"><ele>437.0</ele><time>2026-04-19T09:23:37.999Z</time></trkpt><trkpt lat="44.50547081159786" lon="10.577594591383429"><ele>439.0</ele><time>2026-04-19T09:23:38.999Z</time></trkpt><trkpt lat="44.505395327955526" lon="10.577539438929955"><ele>441.00000000000006</ele><time>2026-04-19T09:23:39.999Z</time></trkpt><trkpt lat="44.505341426821104" lon="10.577483829870683"><ele>443.00000000000006</ele><time>2026-04-19T09:23:40.999Z</time></trkpt><trkpt lat="44.505373880048474" lon="10.577358360886489"><ele>445.0</ele><time>2026-04-19T09:23:42.999Z</time></trkpt><trkpt lat="44.50545997005419" lon="10.577249646945937"><ele>447.0</ele><time>2026-04-19T09:23:43.999Z</time></trkpt><trkpt lat="44.505540869989176" lon="10.577151389157361"><ele>447.20000000000005</ele><time>2026-04-19T09:23:44.999Z</time></trkpt><trkpt lat="44.50558366504532" lon="10.57705961282719"><ele>447.40000000000003</ele><time>2026-04-19T09:23:45.999Z</time></trkpt><trkpt lat="44.505581627118296" lon="10.576950680870564"><ele>447.59999999999997</ele><time>2026-04-19T09:23:46.999Z</time></trkpt><trkpt lat="44.5055298682822" lon="10.576844157782714"><ele>447.79999999999995</ele><time>2026-04-19T09:23:47.999Z</time></trkpt><trkpt lat="44.50545292700606" lon="10.576753565228602"><ele>448.0</ele><time>2026-04-19T09:23:48.999Z</time></trkpt><trkpt lat="44.50538236174351" lon="10.57663032888224"><ele>451.59999999999997</ele><time>2026-04-19T09:23:49.999Z</time></trkpt><trkpt lat="44.50533150150285" lon="10.576519690587736"><ele>455.19999999999993</ele><time>2026-04-19T09:23:50.999Z</time></trkpt><trkpt lat="44.50530286086111" lon="10.576392831929276"><ele>458.8</ele><time>2026-04-19T09:23:51.999Z</time></trkpt><trkpt lat="44.505284852423" lon="10.576240404941347"><ele>462.4</ele><time>2026-04-19T09:23:52.999Z</time></trkpt><trkpt lat="44.5052419990696" lon="10.576091706720431"><ele>466.0</ele><time>2026-04-19T09:23:53.999Z</time></trkpt><trkpt lat="44.50518239892029" lon="10.575952249739604"><ele>470.25</ele><time>2026-04-19T09:23:54.999Z</time></trkpt><trkpt lat="44.5051137587555" lon="10.575798532959292"><ele>474.5</ele><time>2026-04-19T09:23:55.999Z</time></trkpt><trkpt lat="44.5050584558652" lon="10.575640896413315"><ele>478.75</ele><time>2026-04-19T09:23:56.999Z</time></trkpt><trkpt lat="44.50500092312845" lon="10.57551169061916"><ele>483.0</ele><time>2026-04-19T09:23:57.999Z</time></trkpt><trkpt lat="44.50494297049969" lon="10.575408191456603"><ele>484.59999999999997</ele><time>2026-04-19T09:23:58.999Z</time></trkpt><trkpt lat="44.50488774164395" lon="10.57530310920544"><ele>486.19999999999993</ele><time>2026-04-19T09:24:00.999Z</time></trkpt><trkpt lat="44.50491333404576" lon="10.575194145406792"><ele>487.8</ele><time>2026-04-19T09:25:28.999Z</time></trkpt><trkpt lat="44.505006193036316" lon="10.575143508209159"><ele>489.4</ele><time>2026-04-19T09:25:30.999Z</time></trkpt><trkpt lat="44.505115031857194" lon="10.574996058255289"><ele>491.0</ele><time>2026-04-19T09:25:32.999Z</time></trkpt><trkpt lat="44.50517912836004" lon="10.574868913851125"><ele>491.0</ele><time>2026-04-19T09:25:33.999Z</time></trkpt><trkpt lat="44.505261235567055" lon="10.574712931860489"><ele>491.0</ele><time>2026-04-19T09:25:34.999Z</time></trkpt><trkpt lat="44.50537410203183" lon="10.574546285057835"><ele>491.0</ele><time>2026-04-19T09:25:35.999Z</time></trkpt><trkpt lat="44.50545067908144" lon="10.574375258567459"><ele>491.0</ele><time>2026-04-19T09:25:36.999Z</time></trkpt><trkpt lat="44.505534262404474" lon="10.574229604156278"><ele>493.5</ele><time>2026-04-19T09:25:37.999Z</time></trkpt><trkpt lat="44.50561836460506" lon="10.57408816528449"><ele>496.0</ele><time>2026-04-19T09:25:38.999Z</time></trkpt><trkpt lat="44.50569908818676" lon="10.573958348910864"><ele>498.5</ele><time>2026-04-19T09:25:39.999Z</time></trkpt><trkpt lat="44.505760303897446" lon="10.573823017777896"><ele>501.0</ele><time>2026-04-19T09:25:40.999Z</time></trkpt><trkpt lat="44.505810182186856" lon="10.573674695714576"><ele>503.6</ele><time>2026-04-19T09:25:41.999Z</time></trkpt><trkpt lat="44.505851432851394" lon="10.573534537231238"><ele>506.20000000000005</ele><time>2026-04-19T09:25:42.999Z</time></trkpt><trkpt lat="44.5058870127133" lon="10.573392447594937"><ele>508.79999999999995</ele><time>2026-04-19T09:25:43.999Z</time></trkpt><trkpt lat="44.505954675239074" lon="10.573270267451006"><ele>511.4</ele><time>2026-04-19T09:25:44.999Z</time></trkpt><trkpt lat="44.50603279211069" lon="10.573151824050369"><ele>514.0</ele><time>2026-04-19T09:25:45.999Z</time></trkpt><trkpt lat="44.50611727673777" lon="10.57303385867735"><ele>514.0</ele><time>2026-04-19T09:25:46.999Z</time></trkpt><trkpt lat="44.506185235072095" lon="10.57290652903686"><ele>514.0</ele><time>2026-04-19T09:25:47.999Z</time></trkpt><trkpt lat="44.506283417608344" lon="10.572732750757229"><ele>514.0</ele><time>2026-04-19T09:25:48.999Z</time></trkpt><trkpt lat="44.506365975297385" lon="10.572554287609517"><ele>514.0</ele><time>2026-04-19T09:25:49.999Z</time></trkpt><trkpt lat="44.50645812107919" lon="10.572356136460662"><ele>518.75</ele><time>2026-04-19T09:25:50.999Z</time></trkpt><trkpt lat="44.50656854056285" lon="10.57220210523288"><ele>523.5</ele><time>2026-04-19T09:25:51.999Z</time></trkpt><trkpt lat="44.50665750225492" lon="10.572060550693772"><ele>528.25</ele><time>2026-04-19T09:25:52.999Z</time></trkpt><trkpt lat="44.506746704499214" lon="10.57189745136444"><ele>533.0</ele><time>2026-04-19T09:25:53.999Z</time></trkpt><trkpt lat="44.506849058206434" lon="10.571762071297256"><ele>534.5</ele><time>2026-04-19T09:25:54.999Z</time></trkpt><trkpt lat="44.50691718544248" lon="10.57165583765352"><ele>536.0</ele><time>2026-04-19T09:25:55.999Z</time></trkpt><trkpt lat="44.50692150730494" lon="10.571539986987545"><ele>537.5</ele><time>2026-04-19T09:25:56.999Z</time></trkpt><trkpt lat="44.506855853990366" lon="10.571373055036874"><ele>539.0</ele><time>2026-04-19T09:25:57.999Z</time></trkpt><trkpt lat="44.50678545936497" lon="10.571162276581186"><ele>539.8333333333333</ele><time>2026-04-19T09:25:58.999Z</time></trkpt><trkpt lat="44.506768894481226" lon="10.570978249264275"><ele>540.6666666666666</ele><time>2026-04-19T09:25:59.999Z</time></trkpt><trkpt lat="44.506748118591766" lon="10.57089043727377"><ele>541.5</ele><time>2026-04-19T09:26:00.999Z</time></trkpt><trkpt lat="44.50676997203354" lon="10.570798741311378"><ele>542.3333333333334</ele><time>2026-04-19T09:26:01.999Z</time></trkpt><trkpt lat="44.506816270555156" lon="10.570692520927288"><ele>543.1666666666667</ele><time>2026-04-19T09:26:02.999Z</time></trkpt><trkpt lat="44.50686794743854" lon="10.570598378060197"><ele>544.0</ele><time>2026-04-19T09:26:03.999Z</time></trkpt><trkpt lat="44.50692811545289" lon="10.570526653691498"><ele>544.0</ele><time>2026-04-19T09:26:04.999Z</time></trkpt><trkpt lat="44.507002072183454" lon="10.570454118159683"><ele>544.0</ele><time>2026-04-19T09:26:05.999Z</time></trkpt><trkpt lat="44.50706801121521" lon="10.570392089187552"><ele>544.0</ele><time>2026-04-19T09:26:06.999Z</time></trkpt><trkpt lat="44.507153533017984" lon="10.57034115637188"><ele>544.0</ele><time>2026-04-19T09:26:08.999Z</time></trkpt><trkpt lat="44.507076038163774" lon="10.570202411072533"><ele>544.0</ele><time>2026-04-19T09:26:11.998Z</time></trkpt><trkpt lat="44.50698850737491" lon="10.570149138180904"><ele>543.4</ele><time>2026-04-19T09:26:13Z</time></trkpt><trkpt lat="44.50688938024605" lon="10.570105795288756"><ele>542.8</ele><time>2026-04-19T09:26:14Z</time></trkpt><trkpt lat="44.50677237729759" lon="10.570075839840916"><ele>542.2</ele><time>2026-04-19T09:26:15Z</time></trkpt><trkpt lat="44.50666157742897" lon="10.570061650417525"><ele>541.6</ele><time>2026-04-19T09:26:16Z</time></trkpt><trkpt lat="44.50657234012322" lon="10.570053395185294"><ele>541.0</ele><time>2026-04-19T09:26:17Z</time></trkpt><trkpt lat="44.50643888319543" lon="10.570030533120956"><ele>541.0</ele><time>2026-04-19T09:26:19Z</time></trkpt><trkpt lat="44.5063509450772" lon="10.570002885157832"><ele>541.0</ele><time>2026-04-19T09:26:20Z</time></trkpt><trkpt lat="44.50625904558345" lon="10.569962550006005"><ele>541.0</ele><time>2026-04-19T09:26:21Z</time></trkpt><trkpt lat="44.506176278722606" lon="10.569910151141904"><ele>541.0</ele><time>2026-04-19T09:26:22Z</time></trkpt><trkpt lat="44.50611841097433" lon="10.569851583833616"><ele>541.0</ele><time>2026-04-19T09:26:23Z</time></trkpt><trkpt lat="44.506075303176765" lon="10.569782272644405"><ele>541.0</ele><time>2026-04-19T09:26:24Z</time></trkpt><trkpt lat="44.50599866125065" lon="10.569668513899844"><ele>538.25</ele><time>2026-04-19T09:26:25Z</time></trkpt><trkpt lat="44.50589387495596" lon="10.569575466068747"><ele>535.5</ele><time>2026-04-19T09:26:26Z</time></trkpt><trkpt lat="44.50578933433223" lon="10.569495411439652"><ele>532.75</ele><time>2026-04-19T09:26:27Z</time></trkpt><trkpt lat="44.50569817055613" lon="10.569422258832375"><ele>530.0</ele><time>2026-04-19T09:26:28Z</time></trkpt><trkpt lat="44.50559826565073" lon="10.5693420917621"><ele>530.0</ele><time>2026-04-19T09:26:29Z</time></trkpt><trkpt lat="44.50549328578172" lon="10.569257852310589"><ele>530.0</ele><time>2026-04-19T09:26:30Z</time></trkpt><trkpt lat="44.50539542468077" lon="10.569173518601335"><ele>530.0</ele><time>2026-04-19T09:26:31Z</time></trkpt><trkpt lat="44.50530343828679" lon="10.569103723457767"><ele>530.0</ele><time>2026-04-19T09:26:32Z</time></trkpt><trkpt lat="44.50521840374226" lon="10.569037482532305"><ele>530.0</ele><time>2026-04-19T09:26:33Z</time></trkpt><trkpt lat="44.50514177432491" lon="10.568981651828798"><ele>527.6</ele><time>2026-04-19T09:26:34Z</time></trkpt><trkpt lat="44.505047335561855" lon="10.568917905441078"><ele>525.2</ele><time>2026-04-19T09:26:35Z</time></trkpt><trkpt lat="44.50495510310076" lon="10.568839517236698"><ele>522.8</ele><time>2026-04-19T09:26:36Z</time></trkpt><trkpt lat="44.504889606089655" lon="10.568768982505661"><ele>520.4</ele><time>2026-04-19T09:26:37Z</time></trkpt><trkpt lat="44.50485119339254" lon="10.568674354123551"><ele>518.0</ele><time>2026-04-19T09:27:17.999Z</time></trkpt><trkpt lat="44.50483809333527" lon="10.56851805326426"><ele>518.0</ele><time>2026-04-19T09:27:19.999Z</time></trkpt><trkpt lat="44.50483002897796" lon="10.568427058348297"><ele>518.0</ele><time>2026-04-19T09:27:20.999Z</time></trkpt><trkpt lat="44.50482343184913" lon="10.568331028296162"><ele>518.0</ele><time>2026-04-19T09:27:21.999Z</time></trkpt><trkpt lat="44.50482197892653" lon="10.568221582341554"><ele>518.0</ele><time>2026-04-19T09:27:22.999Z</time></trkpt><trkpt lat="44.50481961953192" lon="10.568122858603026"><ele>518.0</ele><time>2026-04-19T09:27:23.999Z</time></trkpt><trkpt lat="44.50481452248113" lon="10.568028378234551"><ele>518.0</ele><time>2026-04-19T09:27:24.999Z</time></trkpt><trkpt lat="44.50482770047794" lon="10.567939173760328"><ele>518.0</ele><time>2026-04-19T09:27:25.999Z</time></trkpt><trkpt lat="44.50479509482492" lon="10.56786270717835"><ele>517.6666666666666</ele><time>2026-04-19T09:27:26.999Z</time></trkpt><trkpt lat="44.50477600291758" lon="10.567776453068408"><ele>517.3333333333333</ele><time>2026-04-19T09:27:27.999Z</time></trkpt><trkpt lat="44.50474861211763" lon="10.567614584349718"><ele>517.0</ele><time>2026-04-19T09:27:29.999Z</time></trkpt><trkpt lat="44.50473560000219" lon="10.567525106800023"><ele>516.6666666666666</ele><time>2026-04-19T09:27:30.999Z</time></trkpt><trkpt lat="44.50472376615766" lon="10.56743796406002"><ele>516.3333333333334</ele><time>2026-04-19T09:27:31.999Z</time></trkpt><trkpt lat="44.504729160788294" lon="10.567337620442949"><ele>516.0</ele><time>2026-04-19T09:27:32.999Z</time></trkpt><trkpt lat="44.50471959354142" lon="10.567236945498307"><ele>515.9999999999999</ele><time>2026-04-19T09:27:33.999Z</time></trkpt><trkpt lat="44.504707362712026" lon="10.56713830248149"><ele>516.0</ele><time>2026-04-19T09:27:34.999Z</time></trkpt><trkpt lat="44.50469061530477" lon="10.56704196198898"><ele>516.0</ele><time>2026-04-19T09:27:35.999Z</time></trkpt><trkpt lat="44.50466482783947" lon="10.566949527743253"><ele>516.0</ele><time>2026-04-19T09:27:36.999Z</time></trkpt><trkpt lat="44.504644003249744" lon="10.566859067643191"><ele>516.0</ele><time>2026-04-19T09:27:37.999Z</time></trkpt><trkpt lat="44.50461956657789" lon="10.5667616566456"><ele>515.9999999999999</ele><time>2026-04-19T09:27:38.999Z</time></trkpt><trkpt lat="44.50462342626684" lon="10.566663684128237"><ele>516.0</ele><time>2026-04-19T09:27:39.999Z</time></trkpt><trkpt lat="44.50461116038616" lon="10.566570536093227"><ele>516.1666666666666</ele><time>2026-04-19T09:27:40.999Z</time></trkpt><trkpt lat="44.50457558670302" lon="10.566412787059106"><ele>516.3333333333334</ele><time>2026-04-19T09:27:42.999Z</time></trkpt><trkpt lat="44.504559906954064" lon="10.566255042845915"><ele>516.5</ele><time>2026-04-19T09:27:44.999Z</time></trkpt><trkpt lat="44.50455259984023" lon="10.56615552768859"><ele>516.6666666666667</ele><time>2026-04-19T09:27:45.999Z</time></trkpt><trkpt lat="44.50454628348447" lon="10.56605860475654"><ele>516.8333333333334</ele><time>2026-04-19T09:27:46.999Z</time></trkpt><trkpt lat="44.50453702904705" lon="10.56596869369641"><ele>517.0</ele><time>2026-04-19T09:27:47.999Z</time></trkpt><trkpt lat="44.504523239790224" lon="10.565844228938515"><ele>517.2</ele><time>2026-04-19T09:27:49.999Z</time></trkpt><trkpt lat="44.5044817062716" lon="10.565769722696581"><ele>517.4000000000001</ele><time>2026-04-19T09:27:52.999Z</time></trkpt><trkpt lat="44.504355517104194" lon="10.565780009406778"><ele>517.5999999999999</ele><time>2026-04-19T09:27:54.999Z</time></trkpt><trkpt lat="44.504291109979" lon="10.565797286534456"><ele>517.8</ele><time>2026-04-19T09:27:55.999Z</time></trkpt><trkpt lat="44.504165384561816" lon="10.565840307484368"><ele>518.0</ele><time>2026-04-19T09:27:57.999Z</time></trkpt><trkpt lat="44.504077359969216" lon="10.565882995275123"><ele>518.0</ele><time>2026-04-19T09:27:58.999Z</time></trkpt><trkpt lat="44.50397968765524" lon="10.565928978401402"><ele>518.0</ele><time>2026-04-19T09:27:59.999Z</time></trkpt><trkpt lat="44.50387507729867" lon="10.565973164526811"><ele>518.0</ele><time>2026-04-19T09:28:00.999Z</time></trkpt><trkpt lat="44.503763095300485" lon="10.56602984155017"><ele>518.0</ele><time>2026-04-19T09:28:01.999Z</time></trkpt><trkpt lat="44.503648834064236" lon="10.566086160169682"><ele>518.0</ele><time>2026-04-19T09:28:02.999Z</time></trkpt><trkpt lat="44.50353831570515" lon="10.566147868818822"><ele>518.0</ele><time>2026-04-19T09:28:03.999Z</time></trkpt><trkpt lat="44.503426299665904" lon="10.566210771449555"><ele>518.0</ele><time>2026-04-19T09:28:04.999Z</time></trkpt><trkpt lat="44.503299030169536" lon="10.566238153246328"><ele>518.0</ele><time>2026-04-19T09:28:05.999Z</time></trkpt><trkpt lat="44.50317773396951" lon="10.566284425935738"><ele>518.0</ele><time>2026-04-19T09:28:06.999Z</time></trkpt><trkpt lat="44.503060089442315" lon="10.566344285004122"><ele>518.0</ele><time>2026-04-19T09:28:07.999Z</time></trkpt><trkpt lat="44.50294334394812" lon="10.566371873566867"><ele>518.0</ele><time>2026-04-19T09:28:08.999Z</time></trkpt><trkpt lat="44.502833865158934" lon="10.566374745071206"><ele>518.0</ele><time>2026-04-19T09:28:09.999Z</time></trkpt><trkpt lat="44.50273254511701" lon="10.56636825512982"><ele>518.0</ele><time>2026-04-19T09:28:10.999Z</time></trkpt><trkpt lat="44.50263829849361" lon="10.566351572586385"><ele>518.0</ele><time>2026-04-19T09:28:11.999Z</time></trkpt><trkpt lat="44.50253633613559" lon="10.566334872419366"><ele>518.0</ele><time>2026-04-19T09:28:12.998Z</time></trkpt><trkpt lat="44.50241642416184" lon="10.566312969985384"><ele>518.0</ele><time>2026-04-19T09:28:13.998Z</time></trkpt><trkpt lat="44.50228094469516" lon="10.566264607049016"><ele>518.0</ele><time>2026-04-19T09:28:14.998Z</time></trkpt><trkpt lat="44.502172921842096" lon="10.566230669153258"><ele>518.0</ele><time>2026-04-19T09:28:15.998Z</time></trkpt><trkpt lat="44.50208635502228" lon="10.566160089377451"><ele>518.0</ele><time>2026-04-19T09:28:16.998Z</time></trkpt><trkpt lat="44.502041202485586" lon="10.56608466821683"><ele>518.0</ele><time>2026-04-19T09:28:17.998Z</time></trkpt><trkpt lat="44.502009590866244" lon="10.565947743566667"><ele>518.0</ele><time>2026-04-19T09:28:20Z</time></trkpt><trkpt lat="44.50189874499044" lon="10.565725620955824"><ele>517.6</ele><time>2026-04-19T09:28:21Z</time></trkpt><trkpt lat="44.501827238302404" lon="10.565666340365938"><ele>517.1999999999999</ele><time>2026-04-19T09:28:22Z</time></trkpt><trkpt lat="44.501753510808534" lon="10.565605218574845"><ele>516.8</ele><time>2026-04-19T09:28:23Z</time></trkpt><trkpt lat="44.501678312482674" lon="10.565563325522575"><ele>516.4</ele><time>2026-04-19T09:28:24Z</time></trkpt><trkpt lat="44.50159912262085" lon="10.565525022874898"><ele>516.0</ele><time>2026-04-19T09:28:25Z</time></trkpt><trkpt lat="44.50119202986094" lon="10.566240902265163"><ele>516.0</ele><time>2026-04-19T09:28:26Z</time></trkpt><trkpt lat="44.501080417144735" lon="10.56627653059193"><ele>516.0</ele><time>2026-04-19T09:28:27Z</time></trkpt><trkpt lat="44.50098213506216" lon="10.566301709002854"><ele>516.0</ele><time>2026-04-19T09:28:28Z</time></trkpt><trkpt lat="44.50088746461568" lon="10.56629740998772"><ele>516.0</ele><time>2026-04-19T09:28:29Z</time></trkpt><trkpt lat="44.500783048187685" lon="10.566297558889215"><ele>516.0</ele><time>2026-04-19T09:28:30Z</time></trkpt><trkpt lat="44.50066913948314" lon="10.566307997801422"><ele>516.0</ele><time>2026-04-19T09:28:31Z</time></trkpt><trkpt lat="44.500545309248416" lon="10.566318374611274"><ele>516.0</ele><time>2026-04-19T09:28:32Z</time></trkpt><trkpt lat="44.50042383448192" lon="10.566316361100125"><ele>516.0</ele><time>2026-04-19T09:28:33Z</time></trkpt><trkpt lat="44.50030658914436" lon="10.566318962339803"><ele>516.0</ele><time>2026-04-19T09:28:34Z</time></trkpt><trkpt lat="44.50017428737986" lon="10.566312741860337"><ele>516.0</ele><time>2026-04-19T09:28:35Z</time></trkpt><trkpt lat="44.50004413251563" lon="10.56630750717032"><ele>516.0</ele><time>2026-04-19T09:28:36Z</time></trkpt><trkpt lat="44.49990759631444" lon="10.566315941669167"><ele>516.0</ele><time>2026-04-19T09:28:37Z</time></trkpt><trkpt lat="44.49977641241493" lon="10.56633971421377"><ele>516.0</ele><time>2026-04-19T09:28:38Z</time></trkpt><trkpt lat="44.49965302855402" lon="10.566368415004522"><ele>514.75</ele><time>2026-04-19T09:28:39Z</time></trkpt><trkpt lat="44.49954534512251" lon="10.56640679410942"><ele>513.5</ele><time>2026-04-19T09:28:40Z</time></trkpt><trkpt lat="44.49944135960533" lon="10.566446646470514"><ele>512.25</ele><time>2026-04-19T09:28:41Z</time></trkpt><trkpt lat="44.499310151385245" lon="10.566482431676569"><ele>511.0</ele><time>2026-04-19T09:28:42Z</time></trkpt><trkpt lat="44.49919448325968" lon="10.56650329883588"><ele>511.0</ele><time>2026-04-19T09:28:43Z</time></trkpt><trkpt lat="44.49910144386211" lon="10.566539448203082"><ele>511.0</ele><time>2026-04-19T09:28:44Z</time></trkpt><trkpt lat="44.49902621672943" lon="10.56656479664427"><ele>511.0</ele><time>2026-04-19T09:28:45Z</time></trkpt><trkpt lat="44.498954728975406" lon="10.566614654460137"><ele>511.0</ele><time>2026-04-19T09:28:46Z</time></trkpt><trkpt lat="44.498878494195566" lon="10.56668119764417"><ele>511.0</ele><time>2026-04-19T09:28:47Z</time></trkpt><trkpt lat="44.498795668492065" lon="10.5667895990675"><ele>509.5</ele><time>2026-04-19T09:28:48Z</time></trkpt><trkpt lat="44.49870925460799" lon="10.566902921119096"><ele>508.0</ele><time>2026-04-19T09:28:49Z</time></trkpt><trkpt lat="44.49861875456507" lon="10.567037014172506"><ele>506.5</ele><time>2026-04-19T09:28:50Z</time></trkpt><trkpt lat="44.49852591187535" lon="10.56714288121263"><ele>505.0</ele><time>2026-04-19T09:28:51Z</time></trkpt><trkpt lat="44.49843749016349" lon="10.56721783544587"><ele>505.0</ele><time>2026-04-19T09:28:52Z</time></trkpt><trkpt lat="44.498336580414275" lon="10.56729815533295"><ele>505.0</ele><time>2026-04-19T09:28:52.999Z</time></trkpt><trkpt lat="44.49823127136676" lon="10.56738624859275"><ele>505.0</ele><time>2026-04-19T09:28:53.999Z</time></trkpt><trkpt lat="44.49813870014026" lon="10.567472801399404"><ele>505.0</ele><time>2026-04-19T09:28:54.999Z</time></trkpt><trkpt lat="44.49805951547931" lon="10.567524920892758"><ele>505.0</ele><time>2026-04-19T09:28:55.999Z</time></trkpt><trkpt lat="44.49798754887069" lon="10.567588626113233"><ele>505.00000000000006</ele><time>2026-04-19T09:28:56.999Z</time></trkpt><trkpt lat="44.49793194476106" lon="10.567647790826715"><ele>505.0</ele><time>2026-04-19T09:28:57.999Z</time></trkpt><trkpt lat="44.497843734130754" lon="10.567678366827788"><ele>505.0</ele><time>2026-04-19T09:28:59.999Z</time></trkpt><trkpt lat="44.49778859321542" lon="10.56763272523933"><ele>505.0</ele><time>2026-04-19T09:29:00.999Z</time></trkpt><trkpt lat="44.49767929055152" lon="10.567578082450407"><ele>505.00000000000006</ele><time>2026-04-19T09:29:02.999Z</time></trkpt><trkpt lat="44.49759771869466" lon="10.567599775598003"><ele>505.0</ele><time>2026-04-19T09:29:04.999Z</time></trkpt><trkpt lat="44.497552896913135" lon="10.56767937948426"><ele>503.0</ele><time>2026-04-19T09:29:06.999Z</time></trkpt><trkpt lat="44.49749314133845" lon="10.567839988807668"><ele>501.0</ele><time>2026-04-19T09:29:09.999Z</time></trkpt><trkpt lat="44.49744960384715" lon="10.567951816585117"><ele>499.0</ele><time>2026-04-19T09:29:10.999Z</time></trkpt><trkpt lat="44.497399974605635" lon="10.56808835534752"><ele>497.0</ele><time>2026-04-19T09:29:11.999Z</time></trkpt><trkpt lat="44.49734501388504" lon="10.568187232860547"><ele>495.0</ele><time>2026-04-19T09:29:12.999Z</time></trkpt><trkpt lat="44.49727197847689" lon="10.568244125265496"><ele>494.5</ele><time>2026-04-19T09:29:13.999Z</time></trkpt><trkpt lat="44.49719921668072" lon="10.568312762265931"><ele>494.0</ele><time>2026-04-19T09:29:14.999Z</time></trkpt><trkpt lat="44.49709778297678" lon="10.568374195917187"><ele>493.5</ele><time>2026-04-19T09:29:15.999Z</time></trkpt><trkpt lat="44.49697888256381" lon="10.568429109735904"><ele>493.0</ele><time>2026-04-19T09:29:16.999Z</time></trkpt><trkpt lat="44.496857574390205" lon="10.568491311443408"><ele>489.5</ele><time>2026-04-19T09:29:17.999Z</time></trkpt><trkpt lat="44.49674149152673" lon="10.568559912821692"><ele>486.0</ele><time>2026-04-19T09:29:18.999Z</time></trkpt><trkpt lat="44.49663419452149" lon="10.568621043891941"><ele>482.5</ele><time>2026-04-19T09:29:19.999Z</time></trkpt><trkpt lat="44.496538657926145" lon="10.568660107168837"><ele>479.0</ele><time>2026-04-19T09:29:20.999Z</time></trkpt><trkpt lat="44.49642289567884" lon="10.568690500003127"><ele>477.0</ele><time>2026-04-19T09:29:21.999Z</time></trkpt><trkpt lat="44.49630470217059" lon="10.568727719781338"><ele>475.0</ele><time>2026-04-19T09:29:22.999Z</time></trkpt><trkpt lat="44.49619780040619" lon="10.56877268421493"><ele>473.0</ele><time>2026-04-19T09:29:23.999Z</time></trkpt><trkpt lat="44.496096338761205" lon="10.568807784201253"><ele>471.0</ele><time>2026-04-19T09:29:24.999Z</time></trkpt><trkpt lat="44.495984748026174" lon="10.568828319290496"><ele>469.5</ele><time>2026-04-19T09:29:25.999Z</time></trkpt><trkpt lat="44.495866012803695" lon="10.568841756072917"><ele>468.0</ele><time>2026-04-19T09:29:26.999Z</time></trkpt><trkpt lat="44.49575679154243" lon="10.568853966343031"><ele>466.5</ele><time>2026-04-19T09:29:27.999Z</time></trkpt><trkpt lat="44.49565172617249" lon="10.568898381440508"><ele>465.0</ele><time>2026-04-19T09:29:28.999Z</time></trkpt><trkpt lat="44.49555697888139" lon="10.568981950850535"><ele>465.0</ele><time>2026-04-19T09:29:29.999Z</time></trkpt><trkpt lat="44.49547145712397" lon="10.56907011653696"><ele>465.0</ele><time>2026-04-19T09:29:30.999Z</time></trkpt><trkpt lat="44.495386151756364" lon="10.569170920943675"><ele>465.0</ele><time>2026-04-19T09:29:31.999Z</time></trkpt><trkpt lat="44.495319041384896" lon="10.56926035405963"><ele>465.0</ele><time>2026-04-19T09:29:32.999Z</time></trkpt><trkpt lat="44.4952546676844" lon="10.569331467552162"><ele>465.0</ele><time>2026-04-19T09:29:33.999Z</time></trkpt><trkpt lat="44.49520673232078" lon="10.56939539695821"><ele>462.8</ele><time>2026-04-19T09:29:34.999Z</time></trkpt><trkpt lat="44.49515689167849" lon="10.569575818338437"><ele>460.6</ele><time>2026-04-19T09:29:36.999Z</time></trkpt><trkpt lat="44.49511221588006" lon="10.569644039054468"><ele>458.4</ele><time>2026-04-19T09:29:37.999Z</time></trkpt><trkpt lat="44.49501036285199" lon="10.56970298884473"><ele>456.2</ele><time>2026-04-19T09:29:38.999Z</time></trkpt><trkpt lat="44.4948909851101" lon="10.569760063773478"><ele>454.0</ele><time>2026-04-19T09:29:39.999Z</time></trkpt><trkpt lat="44.49479765921893" lon="10.56981645465896"><ele>454.0</ele><time>2026-04-19T09:29:40.999Z</time></trkpt><trkpt lat="44.49469543030897" lon="10.569901204365644"><ele>454.0</ele><time>2026-04-19T09:29:42.999Z</time></trkpt><trkpt lat="44.494613631389164" lon="10.569928403557281"><ele>454.0</ele><time>2026-04-19T09:29:43.999Z</time></trkpt><trkpt lat="44.494514746031264" lon="10.56994045656128"><ele>454.0</ele><time>2026-04-19T09:29:44.999Z</time></trkpt><trkpt lat="44.49442382171575" lon="10.569963054714467"><ele>454.0</ele><time>2026-04-19T09:29:45.999Z</time></trkpt><trkpt lat="44.494349546696654" lon="10.570021812644713"><ele>453.0</ele><time>2026-04-19T09:29:46.999Z</time></trkpt><trkpt lat="44.49427220959094" lon="10.57009277083212"><ele>452.0</ele><time>2026-04-19T09:29:47.999Z</time></trkpt><trkpt lat="44.49417761730782" lon="10.57018038146346"><ele>451.0</ele><time>2026-04-19T09:29:48.999Z</time></trkpt><trkpt lat="44.494082808716946" lon="10.57027618332889"><ele>450.0</ele><time>2026-04-19T09:29:49.999Z</time></trkpt><trkpt lat="44.49402558670691" lon="10.570338648374829"><ele>449.0</ele><time>2026-04-19T09:29:50.999Z</time></trkpt><trkpt lat="44.493967129948324" lon="10.570421299954866"><ele>446.99999999999994</ele><time>2026-04-19T09:29:51.999Z</time></trkpt><trkpt lat="44.493918411651606" lon="10.570486603359733"><ele>445.0</ele><time>2026-04-19T09:29:52.999Z</time></trkpt><trkpt lat="44.49384243956587" lon="10.570500835802962"><ele>443.0</ele><time>2026-04-19T09:29:53.999Z</time></trkpt><trkpt lat="44.49375446167816" lon="10.57049255071048"><ele>441.0</ele><time>2026-04-19T09:29:54.999Z</time></trkpt><trkpt lat="44.4936682205849" lon="10.570467763729539"><ele>438.99999999999994</ele><time>2026-04-19T09:29:55.999Z</time></trkpt><trkpt lat="44.4935835836566" lon="10.570425883060249"><ele>437.0</ele><time>2026-04-19T09:29:56.999Z</time></trkpt><trkpt lat="44.49351979601153" lon="10.570375341178073"><ele>435.99999999999994</ele><time>2026-04-19T09:29:57.999Z</time></trkpt><trkpt lat="44.4934593170604" lon="10.570344302829318"><ele>435.0</ele><time>2026-04-19T09:29:58.999Z</time></trkpt><trkpt lat="44.49337300733135" lon="10.570299680959257"><ele>434.0</ele><time>2026-04-19T09:29:59.999Z</time></trkpt><trkpt lat="44.49328095561242" lon="10.570274953957808"><ele>433.0</ele><time>2026-04-19T09:30:00.999Z</time></trkpt><trkpt lat="44.49319465074883" lon="10.570293085518907"><ele>431.99999999999994</ele><time>2026-04-19T09:30:01.999Z</time></trkpt><trkpt lat="44.49308988336021" lon="10.570342297493173"><ele>431.0</ele><time>2026-04-19T09:30:02.999Z</time></trkpt><trkpt lat="44.493008423822864" lon="10.570373236596032"><ele>430.20000000000005</ele><time>2026-04-19T09:30:03.999Z</time></trkpt><trkpt lat="44.49292542879198" lon="10.570411516845347"><ele>429.40000000000003</ele><time>2026-04-19T09:30:04.999Z</time></trkpt><trkpt lat="44.49283325629762" lon="10.570460486196607"><ele>428.6</ele><time>2026-04-19T09:30:05.999Z</time></trkpt><trkpt lat="44.49271879591518" lon="10.5704951087217"><ele>427.8</ele><time>2026-04-19T09:30:06.999Z</time></trkpt><trkpt lat="44.492577581372586" lon="10.570519421874332"><ele>427.0</ele><time>2026-04-19T09:30:07.999Z</time></trkpt><trkpt lat="44.49248371652079" lon="10.570570284212753"><ele>425.1666666666667</ele><time>2026-04-19T09:30:08.999Z</time></trkpt><trkpt lat="44.492425428344426" lon="10.570638724988356"><ele>423.33333333333337</ele><time>2026-04-19T09:30:09.999Z</time></trkpt><trkpt lat="44.492372698473076" lon="10.57070071533427"><ele>421.5</ele><time>2026-04-19T09:30:10.999Z</time></trkpt><trkpt lat="44.49231221654327" lon="10.570772458292971"><ele>419.66666666666663</ele><time>2026-04-19T09:30:11.999Z</time></trkpt><trkpt lat="44.492238814112376" lon="10.570830329296022"><ele>417.8333333333333</ele><time>2026-04-19T09:30:12.999Z</time></trkpt><trkpt lat="44.49212036516247" lon="10.570847916430953"><ele>416.0</ele><time>2026-04-19T09:30:14.998Z</time></trkpt><trkpt lat="44.492045006623535" lon="10.570818481638343"><ele>412.8</ele><time>2026-04-19T09:30:15.998Z</time></trkpt><trkpt lat="44.49195849636591" lon="10.570783665944788"><ele>409.6</ele><time>2026-04-19T09:30:16.998Z</time></trkpt><trkpt lat="44.491885242449" lon="10.570748888296041"><ele>406.4</ele><time>2026-04-19T09:30:17.998Z</time></trkpt><trkpt lat="44.49180913635017" lon="10.570648821009712"><ele>403.2</ele><time>2026-04-19T09:30:18.998Z</time></trkpt><trkpt lat="44.4917219657981" lon="10.5705455274182"><ele>400.0</ele><time>2026-04-19T09:30:19.998Z</time></trkpt><trkpt lat="44.49162469446756" lon="10.570452491195507"><ele>400.0</ele><time>2026-04-19T09:30:20.998Z</time></trkpt><trkpt lat="44.49155200221712" lon="10.570430076717097"><ele>400.0</ele><time>2026-04-19T09:30:21.998Z</time></trkpt><trkpt lat="44.49147170284784" lon="10.570393399899352"><ele>400.0</ele><time>2026-04-19T09:30:24Z</time></trkpt><trkpt lat="44.49137214733071" lon="10.570372549726176"><ele>400.0</ele><time>2026-04-19T09:30:25Z</time></trkpt><trkpt lat="44.491225366035884" lon="10.570359313695683"><ele>400.0</ele><time>2026-04-19T09:30:26Z</time></trkpt><trkpt lat="44.4911009430841" lon="10.570359449489406"><ele>395.8</ele><time>2026-04-19T09:30:27Z</time></trkpt><trkpt lat="44.49099282714908" lon="10.570345047725576"><ele>391.6</ele><time>2026-04-19T09:30:28Z</time></trkpt><trkpt lat="44.4908814926545" lon="10.570337678521058"><ele>387.4</ele><time>2026-04-19T09:30:29Z</time></trkpt><trkpt lat="44.49080305332427" lon="10.570375356419797"><ele>383.2</ele><time>2026-04-19T09:30:30Z</time></trkpt><trkpt lat="44.490730943579955" lon="10.570327014887166"><ele>379.0</ele><time>2026-04-19T09:30:34Z</time></trkpt><trkpt lat="44.49057839909435" lon="10.570163228150808"><ele>378.79999999999995</ele><time>2026-04-19T09:30:38Z</time></trkpt><trkpt lat="44.4905554393762" lon="10.570055456013465"><ele>378.59999999999997</ele><time>2026-04-19T09:30:40Z</time></trkpt><trkpt lat="44.49054562330437" lon="10.569962132110811"><ele>378.4</ele><time>2026-04-19T09:30:46Z</time></trkpt><trkpt lat="44.490611961231814" lon="10.56982869945253"><ele>378.2</ele><time>2026-04-19T09:31:02.999Z</time></trkpt><trkpt lat="44.490654400373955" lon="10.56972855579253"><ele>378.0</ele><time>2026-04-19T09:31:03.999Z</time></trkpt><trkpt lat="44.49067993658723" lon="10.569577430114695"><ele>375.79999999999995</ele><time>2026-04-19T09:31:04.999Z</time></trkpt><trkpt lat="44.490690825808215" lon="10.569434335148323"><ele>373.6</ele><time>2026-04-19T09:31:05.999Z</time></trkpt><trkpt lat="44.4907085729378" lon="10.569293596170358"><ele>371.4</ele><time>2026-04-19T09:31:06.999Z</time></trkpt><trkpt lat="44.49073131881577" lon="10.569158625010608"><ele>369.20000000000005</ele><time>2026-04-19T09:31:07.999Z</time></trkpt><trkpt lat="44.4907697807547" lon="10.569069411181726"><ele>367.0</ele><time>2026-04-19T09:31:08.999Z</time></trkpt><trkpt lat="44.490842543363215" lon="10.568964353342423"><ele>367.0</ele><time>2026-04-19T09:31:10.999Z</time></trkpt><trkpt lat="44.490889035044205" lon="10.568887596783082"><ele>367.0</ele><time>2026-04-19T09:31:11.999Z</time></trkpt><trkpt lat="44.490934165066" lon="10.568803429697002"><ele>367.0</ele><time>2026-04-19T09:31:12.999Z</time></trkpt><trkpt lat="44.49094720227258" lon="10.568656423318913"><ele>367.0</ele><time>2026-04-19T09:31:14.999Z</time></trkpt><trkpt lat="44.49084963155437" lon="10.568538518553575"><ele>367.0</ele><time>2026-04-19T09:31:16.999Z</time></trkpt><trkpt lat="44.49071957443133" lon="10.568482675745495"><ele>364.7142857142857</ele><time>2026-04-19T09:31:18.999Z</time></trkpt><trkpt lat="44.49065817608283" lon="10.568459703149905"><ele>362.42857142857144</ele><time>2026-04-19T09:31:19.999Z</time></trkpt><trkpt lat="44.490587917816036" lon="10.568465227035992"><ele>360.14285714285717</ele><time>2026-04-19T09:31:20.999Z</time></trkpt><trkpt lat="44.49051493054069" lon="10.568480422370687"><ele>357.8571428571429</ele><time>2026-04-19T09:31:21.999Z</time></trkpt><trkpt lat="44.49044343384673" lon="10.568487705981337"><ele>355.57142857142856</ele><time>2026-04-19T09:31:22.999Z</time></trkpt><trkpt lat="44.490373898726745" lon="10.568447606762124"><ele>353.28571428571433</ele><time>2026-04-19T09:31:24.999Z</time></trkpt><trkpt lat="44.490309808230535" lon="10.568358956955878"><ele>351.0</ele><time>2026-04-19T09:31:26.999Z</time></trkpt><trkpt lat="44.490260710063716" lon="10.568262840500843"><ele>351.0</ele><time>2026-04-19T09:31:29.999Z</time></trkpt><trkpt lat="44.49023631818598" lon="10.56814678031814"><ele>351.0</ele><time>2026-04-19T09:31:31.999Z</time></trkpt><trkpt lat="44.49021783818844" lon="10.568060062439182"><ele>351.0</ele><time>2026-04-19T09:31:34.999Z</time></trkpt><trkpt lat="44.49027362769727" lon="10.56792794707367"><ele>351.0</ele><time>2026-04-19T09:32:23.998Z</time></trkpt><trkpt lat="44.49039348556272" lon="10.567772041920593"><ele>351.0</ele><time>2026-04-19T09:32:25.998Z</time></trkpt><trkpt lat="44.490418147284565" lon="10.567540837132418"><ele>351.0</ele><time>2026-04-19T09:32:27.998Z</time></trkpt><trkpt lat="44.49041812163198" lon="10.567430553887405"><ele>351.0</ele><time>2026-04-19T09:32:29Z</time></trkpt><trkpt lat="44.49041854488384" lon="10.567332888403495"><ele>351.0</ele><time>2026-04-19T09:32:30Z</time></trkpt><trkpt lat="44.49041489077674" lon="10.567216599481855"><ele>351.0</ele><time>2026-04-19T09:32:31Z</time></trkpt><trkpt lat="44.49040414674668" lon="10.56712901215435"><ele>351.0</ele><time>2026-04-19T09:32:32Z</time></trkpt><trkpt lat="44.490413591121964" lon="10.567020080586014"><ele>351.0</ele><time>2026-04-19T09:32:33Z</time></trkpt><trkpt lat="44.49041117780032" lon="10.56690957722702"><ele>353.6</ele><time>2026-04-19T09:32:34Z</time></trkpt><trkpt lat="44.49041114745838" lon="10.566807311835902"><ele>356.20000000000005</ele><time>2026-04-19T09:32:35Z</time></trkpt><trkpt lat="44.490412092792944" lon="10.566693587129382"><ele>358.79999999999995</ele><time>2026-04-19T09:32:36Z</time></trkpt><trkpt lat="44.49041218986621" lon="10.566515168291662"><ele>361.4</ele><time>2026-04-19T09:32:37Z</time></trkpt><trkpt lat="44.49039420120877" lon="10.566346206102377"><ele>364.0</ele><time>2026-04-19T09:32:38Z</time></trkpt><trkpt lat="44.49037078337902" lon="10.566225702256"><ele>365.0</ele><time>2026-04-19T09:32:39Z</time></trkpt><trkpt lat="44.49036918691171" lon="10.56611629642428"><ele>366.0</ele><time>2026-04-19T09:32:40Z</time></trkpt><trkpt lat="44.49038320677729" lon="10.565987365390354"><ele>367.0</ele><time>2026-04-19T09:32:41Z</time></trkpt><trkpt lat="44.4904304629497" lon="10.565873405236923"><ele>368.0</ele><time>2026-04-19T09:32:42Z</time></trkpt><trkpt lat="44.490459816597664" lon="10.565739176259505"><ele>369.0</ele><time>2026-04-19T09:32:43Z</time></trkpt><trkpt lat="44.4905030092374" lon="10.565624344962696"><ele>369.0</ele><time>2026-04-19T09:32:44Z</time></trkpt><trkpt lat="44.49053856167771" lon="10.565509726411547"><ele>369.0</ele><time>2026-04-19T09:32:45Z</time></trkpt><trkpt lat="44.49056285757236" lon="10.565398216155897"><ele>369.0</ele><time>2026-04-19T09:32:46Z</time></trkpt><trkpt lat="44.490582474752415" lon="10.565283445501729"><ele>369.0</ele><time>2026-04-19T09:32:47Z</time></trkpt><trkpt lat="44.49061951765683" lon="10.56518423902593"><ele>369.0</ele><time>2026-04-19T09:32:48Z</time></trkpt><trkpt lat="44.4906388066711" lon="10.565081498418971"><ele>369.0</ele><time>2026-04-19T09:32:49Z</time></trkpt><trkpt lat="44.49064228644549" lon="10.564975329261799"><ele>370.3333333333333</ele><time>2026-04-19T09:32:50Z</time></trkpt><trkpt lat="44.4906730336298" lon="10.564887867361444"><ele>371.6666666666667</ele><time>2026-04-19T09:32:51Z</time></trkpt><trkpt lat="44.49067258896326" lon="10.564789472964593"><ele>373.0</ele><time>2026-04-19T09:32:52Z</time></trkpt><trkpt lat="44.49069310412428" lon="10.56466290201441"><ele>374.33333333333337</ele><time>2026-04-19T09:32:54Z</time></trkpt><trkpt lat="44.490698941897115" lon="10.56453344598704"><ele>375.6666666666667</ele><time>2026-04-19T09:32:57Z</time></trkpt><trkpt lat="44.49070128401159" lon="10.564642475480122"><ele>377.0</ele><time>2026-04-19T09:33:03.999Z</time></trkpt><trkpt lat="44.490685160856955" lon="10.564761858492643"><ele>377.0</ele><time>2026-04-19T09:33:06.999Z</time></trkpt><trkpt lat="44.4906702824951" lon="10.564904682343132"><ele>377.0</ele><time>2026-04-19T09:33:09.999Z</time></trkpt><trkpt lat="44.49064357068074" lon="10.565008753210595"><ele>377.0</ele><time>2026-04-19T09:33:11.999Z</time></trkpt><trkpt lat="44.49063038532864" lon="10.565116219869045"><ele>377.0</ele><time>2026-04-19T09:33:13.999Z</time></trkpt><trkpt lat="44.49060206120229" lon="10.565224331722511"><ele>377.0</ele><time>2026-04-19T09:33:16.999Z</time></trkpt><trkpt lat="44.49063566054935" lon="10.565098797946442"><ele>377.0</ele><time>2026-04-19T09:34:42Z</time></trkpt><trkpt lat="44.490660799449095" lon="10.56496264260978"><ele>377.0</ele><time>2026-04-19T09:34:44Z</time></trkpt><trkpt lat="44.49067621229241" lon="10.564869461552073"><ele>377.0</ele><time>2026-04-19T09:34:45Z</time></trkpt><trkpt lat="44.49068709584344" lon="10.564781234574877"><ele>377.0</ele><time>2026-04-19T09:34:46Z</time></trkpt><trkpt lat="44.49070297402799" lon="10.564619016880368"><ele>377.0</ele><time>2026-04-19T09:34:48Z</time></trkpt><trkpt lat="44.490714012009065" lon="10.564465802986167"><ele>377.0</ele><time>2026-04-19T09:34:50Z</time></trkpt><trkpt lat="44.490724646378965" lon="10.56431819151449"><ele>377.0</ele><time>2026-04-19T09:34:52Z</time></trkpt><trkpt lat="44.49072119099877" lon="10.56417478225298"><ele>377.0</ele><time>2026-04-19T09:34:54Z</time></trkpt><trkpt lat="44.49011081441653" lon="10.564027807321082"><ele>380.8</ele><time>2026-04-19T09:34:55Z</time></trkpt><trkpt lat="44.49003008258256" lon="10.563963527325388"><ele>384.6</ele><time>2026-04-19T09:34:56Z</time></trkpt><trkpt lat="44.489947074436195" lon="10.563903749542204"><ele>388.40000000000003</ele><time>2026-04-19T09:34:57Z</time></trkpt><trkpt lat="44.48987395863284" lon="10.563821892951035"><ele>392.20000000000005</ele><time>2026-04-19T09:34:58Z</time></trkpt><trkpt lat="44.48982513357583" lon="10.563712785964546"><ele>396.0</ele><time>2026-04-19T09:34:59Z</time></trkpt><trkpt lat="44.48978477058551" lon="10.563585808159523"><ele>397.8</ele><time>2026-04-19T09:34:59.999Z</time></trkpt><trkpt lat="44.48975472116746" lon="10.563444552182322"><ele>399.6</ele><time>2026-04-19T09:35:00.999Z</time></trkpt><trkpt lat="44.48973106983854" lon="10.563303058449353"><ele>401.4</ele><time>2026-04-19T09:35:01.999Z</time></trkpt><trkpt lat="44.489702818604435" lon="10.5631519784725"><ele>403.2</ele><time>2026-04-19T09:35:02.999Z</time></trkpt><trkpt lat="44.48966704555566" lon="10.562979086515478"><ele>405.0</ele><time>2026-04-19T09:35:03.999Z</time></trkpt><trkpt lat="44.48963686776291" lon="10.562841536070584"><ele>406.2</ele><time>2026-04-19T09:35:04.999Z</time></trkpt><trkpt lat="44.48962332333661" lon="10.562736504652383"><ele>407.4</ele><time>2026-04-19T09:35:05.999Z</time></trkpt><trkpt lat="44.48953084378338" lon="10.562640991296648"><ele>408.6</ele><time>2026-04-19T09:35:07.999Z</time></trkpt><trkpt lat="44.489442591517054" lon="10.562560114456"><ele>409.8</ele><time>2026-04-19T09:35:08.999Z</time></trkpt><trkpt lat="44.489346901149744" lon="10.562469859506734"><ele>411.0</ele><time>2026-04-19T09:35:09.999Z</time></trkpt><trkpt lat="44.48927344663616" lon="10.56241991594829"><ele>415.20000000000005</ele><time>2026-04-19T09:35:10.999Z</time></trkpt><trkpt lat="44.489200063789745" lon="10.562429769939127"><ele>419.40000000000003</ele><time>2026-04-19T09:35:11.999Z</time></trkpt><trkpt lat="44.489095430463976" lon="10.562462721937633"><ele>423.6</ele><time>2026-04-19T09:35:13.999Z</time></trkpt><trkpt lat="44.48900265569645" lon="10.56246581593599"><ele>427.8</ele><time>2026-04-19T09:35:14.999Z</time></trkpt><trkpt lat="44.48890719797972" lon="10.562477499629386"><ele>432.0</ele><time>2026-04-19T09:35:15.999Z</time></trkpt><trkpt lat="44.48882259111206" lon="10.562488723566736"><ele>434.2857142857143</ele><time>2026-04-19T09:35:16.999Z</time></trkpt><trkpt lat="44.48874682049246" lon="10.562499711441355"><ele>436.57142857142856</ele><time>2026-04-19T09:35:17.999Z</time></trkpt><trkpt lat="44.48867356944235" lon="10.56252237259565"><ele>438.8571428571429</ele><time>2026-04-19T09:35:18.999Z</time></trkpt><trkpt lat="44.48859318561035" lon="10.562541237749153"><ele>441.1428571428571</ele><time>2026-04-19T09:35:19.999Z</time></trkpt><trkpt lat="44.4885223774842" lon="10.562541474180785"><ele>443.42857142857144</ele><time>2026-04-19T09:35:20.999Z</time></trkpt><trkpt lat="44.48846101815134" lon="10.562514366266367"><ele>445.7142857142857</ele><time>2026-04-19T09:35:21.999Z</time></trkpt><trkpt lat="44.48840282433242" lon="10.562479053067376"><ele>448.0</ele><time>2026-04-19T09:35:22.999Z</time></trkpt><trkpt lat="44.48831812073546" lon="10.562348564185402"><ele>448.00000000000006</ele><time>2026-04-19T09:35:24.999Z</time></trkpt><trkpt lat="44.4882835742809" lon="10.562242898593183"><ele>448.0</ele><time>2026-04-19T09:35:25.999Z</time></trkpt><trkpt lat="44.48825762720226" lon="10.562142613837489"><ele>448.0</ele><time>2026-04-19T09:35:26.999Z</time></trkpt><trkpt lat="44.48822676203658" lon="10.562037142292253"><ele>448.0</ele><time>2026-04-19T09:35:27.999Z</time></trkpt><trkpt lat="44.48819545207936" lon="10.561940383418312"><ele>448.00000000000006</ele><time>2026-04-19T09:35:28.999Z</time></trkpt><trkpt lat="44.48815881582573" lon="10.561836193170397"><ele>448.0</ele><time>2026-04-19T09:35:29.999Z</time></trkpt><trkpt lat="44.48812123273998" lon="10.561710882469173"><ele>448.79999999999995</ele><time>2026-04-19T09:35:30.999Z</time></trkpt><trkpt lat="44.488078124825776" lon="10.561595541474022"><ele>449.59999999999997</ele><time>2026-04-19T09:35:31.999Z</time></trkpt><trkpt lat="44.48802987868368" lon="10.561471313878577"><ele>450.40000000000003</ele><time>2026-04-19T09:35:32.999Z</time></trkpt><trkpt lat="44.48798654176911" lon="10.561356272852356"><ele>451.20000000000005</ele><time>2026-04-19T09:35:33.999Z</time></trkpt><trkpt lat="44.48794302678066" lon="10.561222285805018"><ele>452.0</ele><time>2026-04-19T09:35:34.999Z</time></trkpt><trkpt lat="44.48790240477997" lon="10.561108742680197"><ele>453.99999999999994</ele><time>2026-04-19T09:35:35.999Z</time></trkpt><trkpt lat="44.4878611963062" lon="10.560992011520467"><ele>456.0</ele><time>2026-04-19T09:35:36.999Z</time></trkpt><trkpt lat="44.48780126981446" lon="10.560873945845177"><ele>458.0</ele><time>2026-04-19T09:35:37.999Z</time></trkpt><trkpt lat="44.48773118654092" lon="10.560772590811938"><ele>460.0</ele><time>2026-04-19T09:35:38.999Z</time></trkpt><trkpt lat="44.48766635960203" lon="10.560718775283387"><ele>461.99999999999994</ele><time>2026-04-19T09:35:39.999Z</time></trkpt><trkpt lat="44.487662914534745" lon="10.56063033763947"><ele>464.0</ele><time>2026-04-19T09:35:41.999Z</time></trkpt><trkpt lat="44.48774209565672" lon="10.560452204314041"><ele>463.3333333333333</ele><time>2026-04-19T09:35:43.999Z</time></trkpt><trkpt lat="44.487793724733216" lon="10.560334074689921"><ele>462.66666666666663</ele><time>2026-04-19T09:35:44.999Z</time></trkpt><trkpt lat="44.48784389473559" lon="10.560201037245765"><ele>462.0</ele><time>2026-04-19T09:35:45.999Z</time></trkpt><trkpt lat="44.487880001810446" lon="10.560088808087317"><ele>461.33333333333337</ele><time>2026-04-19T09:35:46.999Z</time></trkpt><trkpt lat="44.487904041908635" lon="10.559988929124328"><ele>460.6666666666667</ele><time>2026-04-19T09:35:47.999Z</time></trkpt><trkpt lat="44.48791388704448" lon="10.559884025406715"><ele>460.0</ele><time>2026-04-19T09:35:48.999Z</time></trkpt><trkpt lat="44.48791643282924" lon="10.559793094477149"><ele>460.0</ele><time>2026-04-19T09:35:49.999Z</time></trkpt><trkpt lat="44.48791653556818" lon="10.559675285358349"><ele>460.0</ele><time>2026-04-19T09:35:50.999Z</time></trkpt><trkpt lat="44.487911176794704" lon="10.559546432077683"><ele>460.0</ele><time>2026-04-19T09:35:51.999Z</time></trkpt><trkpt lat="44.48789571642019" lon="10.559407618138229"><ele>460.0</ele><time>2026-04-19T09:35:52.999Z</time></trkpt><trkpt lat="44.487877203724025" lon="10.559259353377513"><ele>460.0</ele><time>2026-04-19T09:35:53.999Z</time></trkpt><trkpt lat="44.48785150080667" lon="10.559112573055874"><ele>459.83333333333337</ele><time>2026-04-19T09:35:54.999Z</time></trkpt><trkpt lat="44.48783995699016" lon="10.559005615576126"><ele>459.6666666666667</ele><time>2026-04-19T09:35:55.999Z</time></trkpt><trkpt lat="44.487847955802025" lon="10.55888594184977"><ele>459.5</ele><time>2026-04-19T09:35:56.999Z</time></trkpt><trkpt lat="44.48787459735722" lon="10.558774420500079"><ele>459.33333333333337</ele><time>2026-04-19T09:35:57.999Z</time></trkpt><trkpt lat="44.487909804761216" lon="10.558670253738903"><ele>459.1666666666667</ele><time>2026-04-19T09:35:58.999Z</time></trkpt><trkpt lat="44.48795744999781" lon="10.558572008391259"><ele>459.0</ele><time>2026-04-19T09:35:59.999Z</time></trkpt><trkpt lat="44.48801278870199" lon="10.558471289160568"><ele>462.2</ele><time>2026-04-19T09:36:00.999Z</time></trkpt><trkpt lat="44.488076513361115" lon="10.558384635121538"><ele>465.4</ele><time>2026-04-19T09:36:01.999Z</time></trkpt><trkpt lat="44.488152589360276" lon="10.558305738630624"><ele>468.6</ele><time>2026-04-19T09:36:02.999Z</time></trkpt><trkpt lat="44.48824615965712" lon="10.5582152212382"><ele>471.8</ele><time>2026-04-19T09:36:03.999Z</time></trkpt><trkpt lat="44.48833453308636" lon="10.55812735410777"><ele>475.0</ele><time>2026-04-19T09:36:04.999Z</time></trkpt><trkpt lat="44.48842922774266" lon="10.558027423688694"><ele>475.0</ele><time>2026-04-19T09:36:05.999Z</time></trkpt><trkpt lat="44.48850074599805" lon="10.557950996682825"><ele>475.0</ele><time>2026-04-19T09:36:06.999Z</time></trkpt><trkpt lat="44.488566147374904" lon="10.55785122599503"><ele>475.0</ele><time>2026-04-19T09:36:07.999Z</time></trkpt><trkpt lat="44.488633822627015" lon="10.557731812259117"><ele>475.0</ele><time>2026-04-19T09:36:08.999Z</time></trkpt><trkpt lat="44.48869694004597" lon="10.557610631575734"><ele>475.0</ele><time>2026-04-19T09:36:09.999Z</time></trkpt><trkpt lat="44.488748774612624" lon="10.557524631439355"><ele>476.1666666666667</ele><time>2026-04-19T09:36:10.999Z</time></trkpt><trkpt lat="44.488823697374904" lon="10.557441708596192"><ele>477.33333333333337</ele><time>2026-04-19T09:36:11.999Z</time></trkpt><trkpt lat="44.48887798411036" lon="10.557377997181952"><ele>478.5</ele><time>2026-04-19T09:36:12.999Z</time></trkpt><trkpt lat="44.48891243043759" lon="10.557289407069955"><ele>479.66666666666663</ele><time>2026-04-19T09:36:13.999Z</time></trkpt><trkpt lat="44.48893511785097" lon="10.557168651986464"><ele>480.8333333333333</ele><time>2026-04-19T09:36:14.999Z</time></trkpt><trkpt lat="44.48898106427768" lon="10.557050042788022"><ele>482.0</ele><time>2026-04-19T09:36:15.999Z</time></trkpt><trkpt lat="44.489067429881395" lon="10.556943571725647"><ele>486.75</ele><time>2026-04-19T09:36:16.999Z</time></trkpt><trkpt lat="44.489125448070496" lon="10.556818787853263"><ele>491.5</ele><time>2026-04-19T09:36:17.999Z</time></trkpt><trkpt lat="44.489167040335744" lon="10.556680507755596"><ele>496.25</ele><time>2026-04-19T09:36:18.999Z</time></trkpt><trkpt lat="44.48920284286061" lon="10.556516747870223"><ele>501.0</ele><time>2026-04-19T09:36:19.999Z</time></trkpt><trkpt lat="44.48925673466484" lon="10.556353627425024"><ele>504.6</ele><time>2026-04-19T09:36:20.999Z</time></trkpt><trkpt lat="44.48930782906749" lon="10.556194119148097"><ele>508.20000000000005</ele><time>2026-04-19T09:36:21.999Z</time></trkpt><trkpt lat="44.48934153706312" lon="10.556070540677812"><ele>511.79999999999995</ele><time>2026-04-19T09:36:22.999Z</time></trkpt><trkpt lat="44.48934147021873" lon="10.555966306905942"><ele>515.4</ele><time>2026-04-19T09:36:23.998Z</time></trkpt><trkpt lat="44.489221236908634" lon="10.555878232648768"><ele>519.0</ele><time>2026-04-19T09:36:25.998Z</time></trkpt><trkpt lat="44.48918309164163" lon="10.555757363467277"><ele>519.0</ele><time>2026-04-19T09:36:27.998Z</time></trkpt><trkpt lat="44.48922162567551" lon="10.555653628720238"><ele>519.0</ele><time>2026-04-19T09:36:28.998Z</time></trkpt><trkpt lat="44.489230420810195" lon="10.55550711485346"><ele>519.0</ele><time>2026-04-19T09:36:30.998Z</time></trkpt><trkpt lat="44.48922826075826" lon="10.555370316339896"><ele>519.0</ele><time>2026-04-19T09:36:31.998Z</time></trkpt><trkpt lat="44.48922820050194" lon="10.555241052451594"><ele>519.0</ele><time>2026-04-19T09:36:32.998Z</time></trkpt><trkpt lat="44.489244802860384" lon="10.555110110923165"><ele>522.6</ele><time>2026-04-19T09:36:33.998Z</time></trkpt><trkpt lat="44.48928206219238" lon="10.55497588613009"><ele>526.2</ele><time>2026-04-19T09:36:34.998Z</time></trkpt><trkpt lat="44.489323955760575" lon="10.55483742444743"><ele>529.8000000000001</ele><time>2026-04-19T09:36:35.998Z</time></trkpt><trkpt lat="44.48936871856656" lon="10.554717510663243"><ele>533.4</ele><time>2026-04-19T09:36:36.998Z</time></trkpt><trkpt lat="44.4894189293354" lon="10.554597730157205"><ele>537.0</ele><time>2026-04-19T09:36:37.998Z</time></trkpt><trkpt lat="44.48943446122334" lon="10.5545046894192"><ele>539.8000000000001</ele><time>2026-04-19T09:36:38.998Z</time></trkpt><trkpt lat="44.48942234377543" lon="10.5543401182944"><ele>542.6</ele><time>2026-04-19T09:37:14.999Z</time></trkpt><trkpt lat="44.48933692974637" lon="10.554165171028178"><ele>545.4000000000001</ele><time>2026-04-19T09:37:16.999Z</time></trkpt><trkpt lat="44.489304790504605" lon="10.554080163592891"><ele>548.2</ele><time>2026-04-19T09:37:17.999Z</time></trkpt><trkpt lat="44.48930402894566" lon="10.553980762492404"><ele>551.0</ele><time>2026-04-19T09:37:18.999Z</time></trkpt><trkpt lat="44.48932642705084" lon="10.553849395811952"><ele>551.0</ele><time>2026-04-19T09:37:19.999Z</time></trkpt><trkpt lat="44.48933443625682" lon="10.553716846592144"><ele>551.0</ele><time>2026-04-19T09:37:20.999Z</time></trkpt><trkpt lat="44.48933483580732" lon="10.553575270376658"><ele>551.0</ele><time>2026-04-19T09:37:21.999Z</time></trkpt><trkpt lat="44.48933525251179" lon="10.553441313171936"><ele>551.0</ele><time>2026-04-19T09:37:22.999Z</time></trkpt><trkpt lat="44.4893348051245" lon="10.553304929609617"><ele>551.0</ele><time>2026-04-19T09:37:23.999Z</time></trkpt><trkpt lat="44.48934049760035" lon="10.553152881752139"><ele>554.2</ele><time>2026-04-19T09:37:24.999Z</time></trkpt><trkpt lat="44.48936781382492" lon="10.553020333901017"><ele>557.4000000000001</ele><time>2026-04-19T09:37:25.999Z</time></trkpt><trkpt lat="44.48936506240855" lon="10.55287950521937"><ele>560.6</ele><time>2026-04-19T09:37:26.999Z</time></trkpt><trkpt lat="44.489353590695195" lon="10.552731781768944"><ele>563.8000000000001</ele><time>2026-04-19T09:37:27.999Z</time></trkpt><trkpt lat="44.489324661523135" lon="10.552595344362954"><ele>567.0</ele><time>2026-04-19T09:37:28.999Z</time></trkpt><trkpt lat="44.489284415623686" lon="10.55243069095493"><ele>569.8000000000001</ele><time>2026-04-19T09:37:29.999Z</time></trkpt><trkpt lat="44.489256156060705" lon="10.55229303838055"><ele>572.6</ele><time>2026-04-19T09:37:30.999Z</time></trkpt><trkpt lat="44.489204979856986" lon="10.552146070043158"><ele>575.4000000000001</ele><time>2026-04-19T09:37:31.999Z</time></trkpt><trkpt lat="44.48912833911569" lon="10.552034013215602"><ele>578.2</ele><time>2026-04-19T09:37:32.999Z</time></trkpt><trkpt lat="44.489100012057925" lon="10.551948166154038"><ele>581.0</ele><time>2026-04-19T09:37:33.999Z</time></trkpt><trkpt lat="44.48918731598332" lon="10.551845923767697"><ele>582.0</ele><time>2026-04-19T09:37:35.999Z</time></trkpt><trkpt lat="44.48925533203955" lon="10.551792331453024"><ele>583.0</ele><time>2026-04-19T09:37:36.999Z</time></trkpt><trkpt lat="44.48933384991346" lon="10.551641197502327"><ele>584.0</ele><time>2026-04-19T09:37:38.999Z</time></trkpt><trkpt lat="44.489369321632786" lon="10.551434575352754"><ele>585.0</ele><time>2026-04-19T09:37:39.999Z</time></trkpt><trkpt lat="44.489402694769495" lon="10.551251910356978"><ele>586.0</ele><time>2026-04-19T09:37:40.999Z</time></trkpt><trkpt lat="44.48942117204448" lon="10.551087365239445"><ele>587.0</ele><time>2026-04-19T09:37:41.999Z</time></trkpt><trkpt lat="44.4894451196912" lon="10.550925456328445"><ele>588.0</ele><time>2026-04-19T09:37:42.999Z</time></trkpt><trkpt lat="44.48944911775547" lon="10.550825703880605"><ele>589.0</ele><time>2026-04-19T09:37:43.999Z</time></trkpt><trkpt lat="44.48945371550242" lon="10.550687827030481"><ele>590.0</ele><time>2026-04-19T09:37:44.999Z</time></trkpt><trkpt lat="44.48946577547386" lon="10.550560855799189"><ele>590.0</ele><time>2026-04-19T09:37:45.999Z</time></trkpt><trkpt lat="44.48947512419011" lon="10.550444530380204"><ele>590.0</ele><time>2026-04-19T09:37:46.999Z</time></trkpt><trkpt lat="44.48948527090174" lon="10.550331089845601"><ele>590.0</ele><time>2026-04-19T09:37:47.999Z</time></trkpt><trkpt lat="44.489492309437765" lon="10.550212310212597"><ele>590.0</ele><time>2026-04-19T09:37:48.999Z</time></trkpt><trkpt lat="44.48949772111425" lon="10.550079286207145"><ele>590.0</ele><time>2026-04-19T09:37:49.999Z</time></trkpt><trkpt lat="44.48950267960356" lon="10.549966552630234"><ele>590.0</ele><time>2026-04-19T09:37:50.999Z</time></trkpt><trkpt lat="44.48950814085585" lon="10.54983519866422"><ele>592.0</ele><time>2026-04-19T09:37:51.999Z</time></trkpt><trkpt lat="44.48950970957001" lon="10.549738311170266"><ele>594.0</ele><time>2026-04-19T09:37:52.999Z</time></trkpt><trkpt lat="44.489569073490415" lon="10.54967134008468"><ele>596.0</ele><time>2026-04-19T09:41:39.999Z</time></trkpt><trkpt lat="44.489702842814744" lon="10.549636755187944"><ele>598.0</ele><time>2026-04-19T09:41:41.999Z</time></trkpt><trkpt lat="44.48977831561839" lon="10.549597638265073"><ele>600.0</ele><time>2026-04-19T09:41:42.999Z</time></trkpt><trkpt lat="44.48985984359672" lon="10.549544729358058"><ele>603.6</ele><time>2026-04-19T09:41:43.999Z</time></trkpt><trkpt lat="44.48994363118883" lon="10.549499938216545"><ele>607.2</ele><time>2026-04-19T09:41:44.999Z</time></trkpt><trkpt lat="44.4900311488085" lon="10.549469492969882"><ele>610.8</ele><time>2026-04-19T09:41:45.999Z</time></trkpt><trkpt lat="44.49013033565649" lon="10.549422137206594"><ele>614.4</ele><time>2026-04-19T09:41:46.999Z</time></trkpt><trkpt lat="44.49022873139028" lon="10.54937155971086"><ele>618.0</ele><time>2026-04-19T09:41:47.999Z</time></trkpt><trkpt lat="44.49031257225124" lon="10.549330510681553"><ele>618.0</ele><time>2026-04-19T09:41:48.999Z</time></trkpt><trkpt lat="44.49038472652611" lon="10.549275629770118"><ele>618.0</ele><time>2026-04-19T09:41:49.999Z</time></trkpt><trkpt lat="44.490481899753526" lon="10.549201462459575"><ele>618.0</ele><time>2026-04-19T09:41:50.999Z</time></trkpt><trkpt lat="44.490573170155315" lon="10.549123892312664"><ele>618.0</ele><time>2026-04-19T09:41:51.999Z</time></trkpt><trkpt lat="44.49065669100436" lon="10.549084926006387"><ele>618.0</ele><time>2026-04-19T09:41:52.999Z</time></trkpt><trkpt lat="44.49072752610693" lon="10.549079392320541"><ele>619.4</ele><time>2026-04-19T09:41:53.999Z</time></trkpt><trkpt lat="44.49081075289857" lon="10.549081349274715"><ele>620.8</ele><time>2026-04-19T09:41:54.999Z</time></trkpt><trkpt lat="44.49088279238763" lon="10.548955898079704"><ele>622.2</ele><time>2026-04-19T09:41:55.999Z</time></trkpt><trkpt lat="44.49095206537846" lon="10.54884092571074"><ele>623.6</ele><time>2026-04-19T09:41:56.999Z</time></trkpt><trkpt lat="44.49103022116226" lon="10.548770582028252"><ele>625.0</ele><time>2026-04-19T09:41:57.999Z</time></trkpt><trkpt lat="44.49109536227932" lon="10.548695187040785"><ele>625.8</ele><time>2026-04-19T09:41:58.999Z</time></trkpt><trkpt lat="44.49113882585051" lon="10.548593488200414"><ele>626.6</ele><time>2026-04-19T09:41:59.999Z</time></trkpt><trkpt lat="44.49116945689194" lon="10.548465000146317"><ele>627.4</ele><time>2026-04-19T09:42:00.999Z</time></trkpt><trkpt lat="44.491199923180204" lon="10.54832167641865"><ele>628.2</ele><time>2026-04-19T09:42:01.999Z</time></trkpt><trkpt lat="44.49123309111959" lon="10.548173277137463"><ele>629.0</ele><time>2026-04-19T09:42:02.999Z</time></trkpt><trkpt lat="44.491239155138366" lon="10.547992814242486"><ele>632.0</ele><time>2026-04-19T09:42:03.999Z</time></trkpt><trkpt lat="44.491242211931805" lon="10.547766686962444"><ele>635.0</ele><time>2026-04-19T09:42:04.999Z</time></trkpt><trkpt lat="44.49123705836103" lon="10.547562899532826"><ele>638.0</ele><time>2026-04-19T09:42:05.999Z</time></trkpt><trkpt lat="44.49121325057077" lon="10.54741027769051"><ele>641.0</ele><time>2026-04-19T09:42:06.999Z</time></trkpt><trkpt lat="44.491173840372106" lon="10.54723487733098"><ele>641.0</ele><time>2026-04-19T09:42:07.999Z</time></trkpt><trkpt lat="44.4911362331434" lon="10.547058715534915"><ele>641.0</ele><time>2026-04-19T09:42:08.999Z</time></trkpt><trkpt lat="44.49113480167151" lon="10.546921471255573"><ele>641.0</ele><time>2026-04-19T09:42:09.999Z</time></trkpt><trkpt lat="44.491149274224796" lon="10.546811129773872"><ele>641.0</ele><time>2026-04-19T09:42:10.999Z</time></trkpt><trkpt lat="44.49116434905038" lon="10.546607240694287"><ele>643.0</ele><time>2026-04-19T09:42:12.999Z</time></trkpt><trkpt lat="44.491159345574566" lon="10.546454104881033"><ele>645.0</ele><time>2026-04-19T09:42:13.999Z</time></trkpt><trkpt lat="44.49114398897911" lon="10.546344829251233"><ele>647.0</ele><time>2026-04-19T09:42:14.999Z</time></trkpt><trkpt lat="44.49111012159312" lon="10.546219212743459"><ele>649.0</ele><time>2026-04-19T09:42:15.999Z</time></trkpt><trkpt lat="44.49106316465061" lon="10.54608129909756"><ele>651.0</ele><time>2026-04-19T09:42:16.999Z</time></trkpt><trkpt lat="44.491006512880055" lon="10.545939722569047"><ele>651.0</ele><time>2026-04-19T09:42:17.999Z</time></trkpt><trkpt lat="44.490971341223606" lon="10.545827406938864"><ele>651.0</ele><time>2026-04-19T09:42:18.999Z</time></trkpt><trkpt lat="44.49092629796732" lon="10.54570088572224"><ele>651.0</ele><time>2026-04-19T09:42:19.999Z</time></trkpt><trkpt lat="44.49089563368057" lon="10.545541796850156"><ele>651.0</ele><time>2026-04-19T09:42:21.999Z</time></trkpt><trkpt lat="44.49092470660083" lon="10.545453981059438"><ele>651.0</ele><time>2026-04-19T09:42:22.999Z</time></trkpt><trkpt lat="44.490985855132095" lon="10.54534868719308"><ele>651.0</ele><time>2026-04-19T09:42:23.999Z</time></trkpt><trkpt lat="44.49104533515037" lon="10.54526533701805"><ele>651.0</ele><time>2026-04-19T09:42:24.999Z</time></trkpt><trkpt lat="44.49113135714933" lon="10.545126348005196"><ele>651.0</ele><time>2026-04-19T09:42:26.999Z</time></trkpt><trkpt lat="44.49114724694858" lon="10.545003455381226"><ele>651.0</ele><time>2026-04-19T09:42:27.999Z</time></trkpt><trkpt lat="44.49116359008797" lon="10.544864566393844"><ele>651.0</ele><time>2026-04-19T09:42:28.999Z</time></trkpt><trkpt lat="44.491179069132826" lon="10.5447511158026"><ele>651.0</ele><time>2026-04-19T09:42:29.999Z</time></trkpt><trkpt lat="44.491204748204915" lon="10.54462130552603"><ele>651.0</ele><time>2026-04-19T09:42:30.999Z</time></trkpt><trkpt lat="44.491205153534615" lon="10.544495275049284"><ele>651.0</ele><time>2026-04-19T09:42:31.999Z</time></trkpt><trkpt lat="44.49118598022179" lon="10.544356905894597"><ele>651.0</ele><time>2026-04-19T09:42:32.999Z</time></trkpt><trkpt lat="44.49115505601845" lon="10.54423267110255"><ele>651.0</ele><time>2026-04-19T09:42:33.999Z</time></trkpt><trkpt lat="44.491130431697215" lon="10.544128612607992"><ele>651.0</ele><time>2026-04-19T09:42:34.999Z</time></trkpt><trkpt lat="44.49110622734381" lon="10.544045781436672"><ele>651.0</ele><time>2026-04-19T09:42:35.998Z</time></trkpt><trkpt lat="44.4911774777515" lon="10.543884164929157"><ele>651.0</ele><time>2026-04-19T09:42:37.998Z</time></trkpt><trkpt lat="44.49123600922601" lon="10.543789285158157"><ele>651.0</ele><time>2026-04-19T09:42:38.998Z</time></trkpt><trkpt lat="44.49127560447195" lon="10.543697614630378"><ele>651.0</ele><time>2026-04-19T09:42:39.998Z</time></trkpt><trkpt lat="44.49130020111291" lon="10.54353472193755"><ele>649.4</ele><time>2026-04-19T09:42:41.998Z</time></trkpt><trkpt lat="44.491263009393116" lon="10.543369019856957"><ele>647.8</ele><time>2026-04-19T09:42:43.998Z</time></trkpt><trkpt lat="44.491234678920726" lon="10.543208118292787"><ele>646.1999999999999</ele><time>2026-04-19T09:42:45.998Z</time></trkpt><trkpt lat="44.49119819059619" lon="10.543119894379139"><ele>644.5999999999999</ele><time>2026-04-19T09:42:46.998Z</time></trkpt><trkpt lat="44.49109527114054" lon="10.543031534061083"><ele>643.0</ele><time>2026-04-19T09:42:48.998Z</time></trkpt><trkpt lat="44.491028143311134" lon="10.54300867708136"><ele>642.0</ele><time>2026-04-19T09:42:49.998Z</time></trkpt><trkpt lat="44.490986083720735" lon="10.542874719888687"><ele>641.0</ele><time>2026-04-19T09:42:51.998Z</time></trkpt><trkpt lat="44.4909773466787" lon="10.542777776183883"><ele>640.0</ele><time>2026-04-19T09:42:52.998Z</time></trkpt><trkpt lat="44.49087445766827" lon="10.542710404055073"><ele>639.0</ele><time>2026-04-19T09:42:54.998Z</time></trkpt><trkpt lat="44.49081375068164" lon="10.54268219668022"><ele>638.0</ele><time>2026-04-19T09:42:55.998Z</time></trkpt><trkpt lat="44.490839415483045" lon="10.542528441178764"><ele>638.0</ele><time>2026-04-19T09:42:59Z</time></trkpt><trkpt lat="44.49092153042417" lon="10.542323226727115"><ele>638.0</ele><time>2026-04-19T09:43:02Z</time></trkpt><trkpt lat="44.49102013711141" lon="10.542267012971012"><ele>638.0</ele><time>2026-04-19T09:43:04Z</time></trkpt><trkpt lat="44.491090491084975" lon="10.54226503765332"><ele>638.0</ele><time>2026-04-19T09:43:06Z</time></trkpt><trkpt lat="44.491178525884024" lon="10.542257130948432"><ele>638.0</ele><time>2026-04-19T09:43:08Z</time></trkpt><trkpt lat="44.49124622073896" lon="10.54223333719398"><ele>634.5714285714286</ele><time>2026-04-19T09:43:09Z</time></trkpt><trkpt lat="44.49131909115485" lon="10.54220025584266"><ele>631.1428571428571</ele><time>2026-04-19T09:43:10Z</time></trkpt><trkpt lat="44.491379921852115" lon="10.542170638709745"><ele>627.7142857142857</ele><time>2026-04-19T09:43:11Z</time></trkpt><trkpt lat="44.491455473074616" lon="10.542130410550214"><ele>624.2857142857142</ele><time>2026-04-19T09:43:12Z</time></trkpt><trkpt lat="44.491523580284635" lon="10.542081418781153"><ele>620.8571428571429</ele><time>2026-04-19T09:43:13Z</time></trkpt><trkpt lat="44.49158947938722" lon="10.542026789626956"><ele>617.4285714285713</ele><time>2026-04-19T09:43:14Z</time></trkpt><trkpt lat="44.49163176737593" lon="10.541946585113164"><ele>614.0</ele><time>2026-04-19T09:43:15Z</time></trkpt><trkpt lat="44.49167260957181" lon="10.541786049271815"><ele>613.5</ele><time>2026-04-19T09:43:16.999Z</time></trkpt><trkpt lat="44.49166654432733" lon="10.541654135730427"><ele>613.0</ele><time>2026-04-19T09:43:18.999Z</time></trkpt><trkpt lat="44.49167099244492" lon="10.541517411197061"><ele>612.5</ele><time>2026-04-19T09:43:20.999Z</time></trkpt><trkpt lat="44.49171513230105" lon="10.541380436095212"><ele>612.0</ele><time>2026-04-19T09:43:22.999Z</time></trkpt><trkpt lat="44.49171394147593" lon="10.54127325956755"><ele>611.5</ele><time>2026-04-19T09:43:23.999Z</time></trkpt><trkpt lat="44.49169261200234" lon="10.541182334477362"><ele>611.0</ele><time>2026-04-19T09:43:24.999Z</time></trkpt><trkpt lat="44.491642767389365" lon="10.541092555736025"><ele>611.0</ele><time>2026-04-19T09:43:25.999Z</time></trkpt><trkpt lat="44.49173468064908" lon="10.540954289126315"><ele>611.0</ele><time>2026-04-19T09:43:28.999Z</time></trkpt><trkpt lat="44.4918043359649" lon="10.540858571926535"><ele>611.0</ele><time>2026-04-19T09:43:29.999Z</time></trkpt><trkpt lat="44.491886386653974" lon="10.54075050707258"><ele>611.0</ele><time>2026-04-19T09:43:30.999Z</time></trkpt><trkpt lat="44.491931150349494" lon="10.540679683389312"><ele>611.0</ele><time>2026-04-19T09:43:31.999Z</time></trkpt><trkpt lat="44.49193843311927" lon="10.540572761026244"><ele>611.0</ele><time>2026-04-19T09:43:32.999Z</time></trkpt><trkpt lat="44.491931406764586" lon="10.54043596848135"><ele>611.0</ele><time>2026-04-19T09:43:33.999Z</time></trkpt><trkpt lat="44.491888868263636" lon="10.540266431216498"><ele>611.0</ele><time>2026-04-19T09:43:34.999Z</time></trkpt><trkpt lat="44.49183765298516" lon="10.540099992779831"><ele>611.0</ele><time>2026-04-19T09:43:35.999Z</time></trkpt><trkpt lat="44.49182346791879" lon="10.539972222236939"><ele>611.0</ele><time>2026-04-19T09:43:36.999Z</time></trkpt><trkpt lat="44.4918348912769" lon="10.539853437600893"><ele>611.0</ele><time>2026-04-19T09:43:37.999Z</time></trkpt><trkpt lat="44.49186550419937" lon="10.539703668459385"><ele>611.0</ele><time>2026-04-19T09:43:38.999Z</time></trkpt><trkpt lat="44.491871430967365" lon="10.539585746997927"><ele>611.0</ele><time>2026-04-19T09:43:39.999Z</time></trkpt><trkpt lat="44.49188073794615" lon="10.539485642609607"><ele>611.0</ele><time>2026-04-19T09:43:40.999Z</time></trkpt><trkpt lat="44.49182097983581" lon="10.539391685411221"><ele>611.0</ele><time>2026-04-19T09:43:41.999Z</time></trkpt><trkpt lat="44.49176499191887" lon="10.53920749973786"><ele>611.1666666666666</ele><time>2026-04-19T09:43:42.999Z</time></trkpt><trkpt lat="44.49174100939305" lon="10.539075127885294"><ele>611.3333333333333</ele><time>2026-04-19T09:43:43.999Z</time></trkpt><trkpt lat="44.49178246800918" lon="10.539003139962936"><ele>611.5</ele><time>2026-04-19T09:43:44.999Z</time></trkpt><trkpt lat="44.49191469152545" lon="10.53900775703669"><ele>611.6666666666666</ele><time>2026-04-19T09:43:46.999Z</time></trkpt><trkpt lat="44.49197782821278" lon="10.538973230363487"><ele>611.8333333333334</ele><time>2026-04-19T09:43:47.999Z</time></trkpt><trkpt lat="44.49202465728503" lon="10.538906968184657"><ele>612.0</ele><time>2026-04-19T09:43:48.999Z</time></trkpt><trkpt lat="44.49205293057288" lon="10.538815118575755"><ele>611.8000000000001</ele><time>2026-04-19T09:43:49.999Z</time></trkpt><trkpt lat="44.49207367140542" lon="10.538698168240051"><ele>611.6</ele><time>2026-04-19T09:43:50.999Z</time></trkpt><trkpt lat="44.49221466649296" lon="10.538654553943184"><ele>611.4000000000001</ele><time>2026-04-19T09:43:52.999Z</time></trkpt><trkpt lat="44.492316924402964" lon="10.538685531650023"><ele>611.2</ele><time>2026-04-19T09:43:53.999Z</time></trkpt><trkpt lat="44.4923932592563" lon="10.538697737731336"><ele>611.0</ele><time>2026-04-19T09:43:54.999Z</time></trkpt><trkpt lat="44.49243132034097" lon="10.538773946260244"><ele>611.0</ele><time>2026-04-19T09:43:55.999Z</time></trkpt><trkpt lat="44.49249610405809" lon="10.538841236950864"><ele>611.0</ele><time>2026-04-19T09:43:56.999Z</time></trkpt><trkpt lat="44.492578473031784" lon="10.538874185470558"><ele>611.0</ele><time>2026-04-19T09:43:57.999Z</time></trkpt><trkpt lat="44.49266594191992" lon="10.538833867605236"><ele>611.0</ele><time>2026-04-19T09:43:58.999Z</time></trkpt><trkpt lat="44.492760354957646" lon="10.538701698438697"><ele>611.0</ele><time>2026-04-19T09:44:00.999Z</time></trkpt><trkpt lat="44.49278947584915" lon="10.53858231824963"><ele>611.0</ele><time>2026-04-19T09:44:01.999Z</time></trkpt><trkpt lat="44.49285971491156" lon="10.538471678070316"><ele>611.0</ele><time>2026-04-19T09:44:02.999Z</time></trkpt><trkpt lat="44.492965167406574" lon="10.538396306727229"><ele>611.0</ele><time>2026-04-19T09:44:04.999Z</time></trkpt><trkpt lat="44.493079338183044" lon="10.53833839413521"><ele>611.0</ele><time>2026-04-19T09:44:05.999Z</time></trkpt><trkpt lat="44.49318435236994" lon="10.538264508372375"><ele>609.6</ele><time>2026-04-19T09:44:06.999Z</time></trkpt><trkpt lat="44.49327809428847" lon="10.538186478554925"><ele>608.2</ele><time>2026-04-19T09:44:07.999Z</time></trkpt><trkpt lat="44.49336339455667" lon="10.538090677489842"><ele>606.8</ele><time>2026-04-19T09:44:08.999Z</time></trkpt><trkpt lat="44.49343227012396" lon="10.537982951900332"><ele>605.4</ele><time>2026-04-19T09:44:09.999Z</time></trkpt><trkpt lat="44.49351913418499" lon="10.537852329195912"><ele>604.0</ele><time>2026-04-19T09:44:10.999Z</time></trkpt><trkpt lat="44.493595045562635" lon="10.537745473466687"><ele>606.3333333333334</ele><time>2026-04-19T09:44:11.999Z</time></trkpt><trkpt lat="44.49365758084784" lon="10.53765747289083"><ele>608.6666666666667</ele><time>2026-04-19T09:44:12.999Z</time></trkpt><trkpt lat="44.49368953490078" lon="10.537574669847102"><ele>611.0</ele><time>2026-04-19T09:44:13.999Z</time></trkpt><trkpt lat="44.493677217443064" lon="10.537484359203766"><ele>613.3333333333334</ele><time>2026-04-19T09:44:14.999Z</time></trkpt><trkpt lat="44.4936399564828" lon="10.537375584397008"><ele>615.6666666666666</ele><time>2026-04-19T09:44:15.999Z</time></trkpt><trkpt lat="44.49359622062193" lon="10.537261760452877"><ele>618.0</ele><time>2026-04-19T09:44:16.999Z</time></trkpt><trkpt lat="44.49356355866557" lon="10.537138145979807"><ele>618.1999999999999</ele><time>2026-04-19T09:44:17.999Z</time></trkpt><trkpt lat="44.49351807886573" lon="10.536992664348162"><ele>618.4</ele><time>2026-04-19T09:44:18.999Z</time></trkpt><trkpt lat="44.4934890896423" lon="10.536869730411384"><ele>618.5999999999999</ele><time>2026-04-19T09:44:19.999Z</time></trkpt><trkpt lat="44.49344704272955" lon="10.536737403281332"><ele>618.8</ele><time>2026-04-19T09:44:20.999Z</time></trkpt><trkpt lat="44.49337702984846" lon="10.536586977027083"><ele>619.0</ele><time>2026-04-19T09:44:21.999Z</time></trkpt><trkpt lat="44.49333344411471" lon="10.536498671134837"><ele>619.0</ele><time>2026-04-19T09:44:22.999Z</time></trkpt><trkpt lat="44.493288429247286" lon="10.53640289665908"><ele>619.0</ele><time>2026-04-19T09:44:23.999Z</time></trkpt><trkpt lat="44.49325042804017" lon="10.536321801410887"><ele>619.0</ele><time>2026-04-19T09:44:24.999Z</time></trkpt><trkpt lat="44.49321532873981" lon="10.536248193365143"><ele>619.0</ele><time>2026-04-19T09:44:26.999Z</time></trkpt><trkpt lat="44.493151027613436" lon="10.536244029312092"><ele>619.0</ele><time>2026-04-19T09:44:31.999Z</time></trkpt><trkpt lat="44.493071235305116" lon="10.536366705738507"><ele>619.0</ele><time>2026-04-19T09:44:33.999Z</time></trkpt><trkpt lat="44.493025649605386" lon="10.536443601922867"><ele>619.0</ele><time>2026-04-19T09:44:34.999Z</time></trkpt><trkpt lat="44.49297890565183" lon="10.536534199010326"><ele>619.0</ele><time>2026-04-19T09:44:35.999Z</time></trkpt><trkpt lat="44.49292553311309" lon="10.536627692450338"><ele>619.0</ele><time>2026-04-19T09:44:36.999Z</time></trkpt><trkpt lat="44.49285796008069" lon="10.53670661585746"><ele>619.0</ele><time>2026-04-19T09:44:37.999Z</time></trkpt><trkpt lat="44.49278320508442" lon="10.536778071058254"><ele>619.0</ele><time>2026-04-19T09:44:38.999Z</time></trkpt><trkpt lat="44.492709257717436" lon="10.536843493447494"><ele>619.0</ele><time>2026-04-19T09:44:39.999Z</time></trkpt><trkpt lat="44.49261729060266" lon="10.536900563856939"><ele>622.6666666666667</ele><time>2026-04-19T09:44:40.999Z</time></trkpt><trkpt lat="44.49253103967922" lon="10.536919725422702"><ele>626.3333333333334</ele><time>2026-04-19T09:44:41.999Z</time></trkpt><trkpt lat="44.49245493362309" lon="10.536904623728299"><ele>630.0</ele><time>2026-04-19T09:44:42.998Z</time></trkpt><trkpt lat="44.492385387953846" lon="10.53689644658524"><ele>633.6666666666666</ele><time>2026-04-19T09:44:43.998Z</time></trkpt><trkpt lat="44.49230106397878" lon="10.536943952797282"><ele>637.3333333333333</ele><time>2026-04-19T09:44:44.998Z</time></trkpt><trkpt lat="44.49220057070648" lon="10.536981997330304"><ele>641.0</ele><time>2026-04-19T09:44:45.998Z</time></trkpt><trkpt lat="44.49208856047544" lon="10.537012320947573"><ele>641.0</ele><time>2026-04-19T09:44:46.998Z</time></trkpt><trkpt lat="44.491985027869745" lon="10.537048213769184"><ele>641.0</ele><time>2026-04-19T09:44:47.998Z</time></trkpt><trkpt lat="44.4918823688996" lon="10.537084561423582"><ele>641.0</ele><time>2026-04-19T09:44:48.998Z</time></trkpt><trkpt lat="44.49178734148044" lon="10.537116807389205"><ele>641.0</ele><time>2026-04-19T09:44:49.998Z</time></trkpt><trkpt lat="44.49168006262208" lon="10.537148674400353"><ele>641.0</ele><time>2026-04-19T09:44:50.998Z</time></trkpt><trkpt lat="44.491580670428895" lon="10.537178356147665"><ele>641.0</ele><time>2026-04-19T09:44:51.998Z</time></trkpt><trkpt lat="44.49147438360863" lon="10.537255859405358"><ele>641.0</ele><time>2026-04-19T09:44:52.998Z</time></trkpt><trkpt lat="44.49138110689989" lon="10.537358690504668"><ele>641.0</ele><time>2026-04-19T09:44:53.998Z</time></trkpt><trkpt lat="44.491283659055846" lon="10.537463452685198"><ele>641.0</ele><time>2026-04-19T09:44:54.998Z</time></trkpt><trkpt lat="44.49118476291864" lon="10.5375723996921"><ele>643.0</ele><time>2026-04-19T09:44:55.998Z</time></trkpt><trkpt lat="44.491085537891216" lon="10.537669237112501"><ele>645.0</ele><time>2026-04-19T09:44:56.998Z</time></trkpt><trkpt lat="44.49095834358711" lon="10.537730883489347"><ele>647.0</ele><time>2026-04-19T09:44:57.998Z</time></trkpt><trkpt lat="44.49083615860811" lon="10.537817575341162"><ele>649.0</ele><time>2026-04-19T09:44:58.998Z</time></trkpt><trkpt lat="44.49072552321427" lon="10.537940634586176"><ele>649.2</ele><time>2026-04-19T09:44:59.998Z</time></trkpt><trkpt lat="44.49063092626843" lon="10.538027949704198"><ele>649.4000000000001</ele><time>2026-04-19T09:45:00.998Z</time></trkpt><trkpt lat="44.49054900441065" lon="10.538067765751412"><ele>649.6</ele><time>2026-04-19T09:45:01.998Z</time></trkpt><trkpt lat="44.49047707626517" lon="10.538089476303272"><ele>649.8</ele><time>2026-04-19T09:45:02.998Z</time></trkpt><trkpt lat="44.49039033846964" lon="10.538114574471928"><ele>650.0</ele><time>2026-04-19T09:45:04Z</time></trkpt><trkpt lat="44.49030311908213" lon="10.538150090180897"><ele>653.1666666666666</ele><time>2026-04-19T09:45:05Z</time></trkpt><trkpt lat="44.4902275311526" lon="10.538186224395515"><ele>656.3333333333333</ele><time>2026-04-19T09:45:06Z</time></trkpt><trkpt lat="44.49017559352084" lon="10.538120827102556"><ele>659.5</ele><time>2026-04-19T09:45:08Z</time></trkpt><trkpt lat="44.49010193492805" lon="10.538136335276585"><ele>662.6666666666666</ele><time>2026-04-19T09:45:13Z</time></trkpt><trkpt lat="44.49003773560677" lon="10.538129317372505"><ele>665.8333333333334</ele><time>2026-04-19T09:45:15Z</time></trkpt><trkpt lat="44.48994766304238" lon="10.538137041436187"><ele>669.0</ele><time>2026-04-19T09:45:16Z</time></trkpt><trkpt lat="44.48985624491176" lon="10.538118940734144"><ele>669.0</ele><time>2026-04-19T09:45:17Z</time></trkpt><trkpt lat="44.48975681586213" lon="10.538076221464426"><ele>669.0</ele><time>2026-04-19T09:45:18Z</time></trkpt><trkpt lat="44.489645686343756" lon="10.538005868991084"><ele>669.0</ele><time>2026-04-19T09:45:19Z</time></trkpt><trkpt lat="44.48952286088072" lon="10.537938551085148"><ele>669.0</ele><time>2026-04-19T09:45:20Z</time></trkpt><trkpt lat="44.48941864635332" lon="10.537903249154189"><ele>672.0</ele><time>2026-04-19T09:45:21Z</time></trkpt><trkpt lat="44.48934071159858" lon="10.53790398478723"><ele>675.0</ele><time>2026-04-19T09:45:22Z</time></trkpt><trkpt lat="44.48927804840075" lon="10.537941758375228"><ele>678.0</ele><time>2026-04-19T09:45:22.999Z</time></trkpt><trkpt lat="44.48921278353946" lon="10.538000561406294"><ele>681.0</ele><time>2026-04-19T09:45:23.999Z</time></trkpt><trkpt lat="44.489117301413316" lon="10.538061435982199"><ele>684.0</ele><time>2026-04-19T09:45:24.999Z</time></trkpt><trkpt lat="44.489019702006544" lon="10.538121653672853"><ele>687.0</ele><time>2026-04-19T09:45:25.999Z</time></trkpt><trkpt lat="44.488940649049724" lon="10.538211098253944"><ele>687.0</ele><time>2026-04-19T09:45:26.999Z</time></trkpt><trkpt lat="44.48888823462505" lon="10.538313195014137"><ele>687.0</ele><time>2026-04-19T09:45:27.999Z</time></trkpt><trkpt lat="44.48884690684143" lon="10.538415620166987"><ele>687.0</ele><time>2026-04-19T09:45:28.999Z</time></trkpt><trkpt lat="44.48881044032739" lon="10.538537022584654"><ele>687.0</ele><time>2026-04-19T09:45:29.999Z</time></trkpt><trkpt lat="44.48875185205621" lon="10.538652876227864"><ele>687.0</ele><time>2026-04-19T09:45:30.999Z</time></trkpt><trkpt lat="44.488695721746055" lon="10.538696595172722"><ele>687.0</ele><time>2026-04-19T09:45:31.999Z</time></trkpt><trkpt lat="44.488651421876156" lon="10.538564327029873"><ele>689.4000000000001</ele><time>2026-04-19T09:45:33.999Z</time></trkpt><trkpt lat="44.488583853600396" lon="10.538586395926767"><ele>691.8000000000001</ele><time>2026-04-19T09:45:35.999Z</time></trkpt><trkpt lat="44.488497851555245" lon="10.538624666301859"><ele>694.2</ele><time>2026-04-19T09:45:41.999Z</time></trkpt><trkpt lat="44.4884755274106" lon="10.538753327568505"><ele>696.6</ele><time>2026-04-19T09:45:43.999Z</time></trkpt><trkpt lat="44.488422920804815" lon="10.53885549596127"><ele>699.0</ele><time>2026-04-19T09:45:46.999Z</time></trkpt><trkpt lat="44.48832774712934" lon="10.53895298929852"><ele>699.0</ele><time>2026-04-19T09:45:48.999Z</time></trkpt><trkpt lat="44.4882724678646" lon="10.539008240116589"><ele>699.0</ele><time>2026-04-19T09:45:49.999Z</time></trkpt><trkpt lat="44.48821881266226" lon="10.539074826373733"><ele>699.0</ele><time>2026-04-19T09:45:50.999Z</time></trkpt><trkpt lat="44.48815401395759" lon="10.5391416577517"><ele>699.0</ele><time>2026-04-19T09:45:51.999Z</time></trkpt><trkpt lat="44.48810048361867" lon="10.539230213935914"><ele>699.0</ele><time>2026-04-19T09:45:53.999Z</time></trkpt><trkpt lat="44.488093215379116" lon="10.539358631688266"><ele>699.0</ele><time>2026-04-19T09:45:55.999Z</time></trkpt><trkpt lat="44.48803940838741" lon="10.539462876245192"><ele>699.2857142857142</ele><time>2026-04-19T09:45:57.999Z</time></trkpt><trkpt lat="44.487973368381205" lon="10.539555266199207"><ele>699.5714285714287</ele><time>2026-04-19T09:45:59.999Z</time></trkpt><trkpt lat="44.48791819721113" lon="10.539604167511456"><ele>699.8571428571429</ele><time>2026-04-19T09:46:00.999Z</time></trkpt><trkpt lat="44.48785741710405" lon="10.539648453547702"><ele>700.1428571428571</ele><time>2026-04-19T09:46:01.999Z</time></trkpt><trkpt lat="44.48779646431171" lon="10.539673826529057"><ele>700.4285714285713</ele><time>2026-04-19T09:46:02.999Z</time></trkpt><trkpt lat="44.48773037335188" lon="10.539675667858262"><ele>700.7142857142858</ele><time>2026-04-19T09:46:03.999Z</time></trkpt><trkpt lat="44.487643774905635" lon="10.539657606367811"><ele>701.0</ele><time>2026-04-19T09:46:04.999Z</time></trkpt><trkpt lat="44.48755880146179" lon="10.53963025716844"><ele>700.1666666666666</ele><time>2026-04-19T09:46:05.999Z</time></trkpt><trkpt lat="44.48748046252446" lon="10.53960286095622"><ele>699.3333333333333</ele><time>2026-04-19T09:46:06.999Z</time></trkpt><trkpt lat="44.48740417922022" lon="10.539577906422858"><ele>698.5</ele><time>2026-04-19T09:46:07.999Z</time></trkpt><trkpt lat="44.48733282337072" lon="10.539558060232727"><ele>697.6666666666666</ele><time>2026-04-19T09:46:08.999Z</time></trkpt><trkpt lat="44.48725211863897" lon="10.53953652006915"><ele>696.8333333333334</ele><time>2026-04-19T09:46:09.999Z</time></trkpt><trkpt lat="44.48716256432786" lon="10.539510911970973"><ele>696.0</ele><time>2026-04-19T09:46:10.999Z</time></trkpt><trkpt lat="44.4870679255207" lon="10.539486008993306"><ele>691.5999999999999</ele><time>2026-04-19T09:46:11.999Z</time></trkpt><trkpt lat="44.48697224191965" lon="10.539456727800133"><ele>687.2</ele><time>2026-04-19T09:46:12.999Z</time></trkpt><trkpt lat="44.48687295104805" lon="10.539410411884331"><ele>682.8</ele><time>2026-04-19T09:46:13.999Z</time></trkpt><trkpt lat="44.48677070034927" lon="10.539361677376196"><ele>678.4000000000001</ele><time>2026-04-19T09:46:14.999Z</time></trkpt><trkpt lat="44.486690945103234" lon="10.539314578653093"><ele>674.0</ele><time>2026-04-19T09:46:15.999Z</time></trkpt><trkpt lat="44.4866072823374" lon="10.539261173713268"><ele>674.0</ele><time>2026-04-19T09:46:16.999Z</time></trkpt><trkpt lat="44.48654929255691" lon="10.539224554605099"><ele>674.0</ele><time>2026-04-19T09:46:17.999Z</time></trkpt><trkpt lat="44.48645402079061" lon="10.539265405383683"><ele>674.0</ele><time>2026-04-19T09:46:19.999Z</time></trkpt><trkpt lat="44.48642326641497" lon="10.539362739751287"><ele>674.0</ele><time>2026-04-19T09:46:20.999Z</time></trkpt><trkpt lat="44.486396959947" lon="10.539508053073945"><ele>674.0</ele><time>2026-04-19T09:46:21.999Z</time></trkpt><trkpt lat="44.48637115670412" lon="10.539652632117948"><ele>675.2</ele><time>2026-04-19T09:46:22.999Z</time></trkpt><trkpt lat="44.48633016649508" lon="10.53977369835929"><ele>676.4000000000001</ele><time>2026-04-19T09:46:23.999Z</time></trkpt><trkpt lat="44.48626392988934" lon="10.539901370807275"><ele>677.6</ele><time>2026-04-19T09:46:24.999Z</time></trkpt><trkpt lat="44.486181110321645" lon="10.540032767356477"><ele>678.8</ele><time>2026-04-19T09:46:25.999Z</time></trkpt><trkpt lat="44.486118698487665" lon="10.540151656924404"><ele>680.0</ele><time>2026-04-19T09:46:26.999Z</time></trkpt><trkpt lat="44.486066824073724" lon="10.54024616161835"><ele>676.6</ele><time>2026-04-19T09:46:27.999Z</time></trkpt><trkpt lat="44.486010696798566" lon="10.54033751676054"><ele>673.2</ele><time>2026-04-19T09:46:28.999Z</time></trkpt><trkpt lat="44.48595013973657" lon="10.540441470666849"><ele>669.8</ele><time>2026-04-19T09:46:29.999Z</time></trkpt><trkpt lat="44.48590280124843" lon="10.54052943082165"><ele>666.4</ele><time>2026-04-19T09:46:30.999Z</time></trkpt><trkpt lat="44.485827298238284" lon="10.540609867106259"><ele>663.0</ele><time>2026-04-19T09:46:32.999Z</time></trkpt><trkpt lat="44.48577520391765" lon="10.540433362657307"><ele>661.8</ele><time>2026-04-19T09:46:34.999Z</time></trkpt><trkpt lat="44.48574086926205" lon="10.540294204519599"><ele>660.5999999999999</ele><time>2026-04-19T09:46:35.999Z</time></trkpt><trkpt lat="44.4857228027189" lon="10.540139001548912"><ele>659.4000000000001</ele><time>2026-04-19T09:46:36.999Z</time></trkpt><trkpt lat="44.485723185147265" lon="10.54000046102258"><ele>658.2</ele><time>2026-04-19T09:46:37.999Z</time></trkpt><trkpt lat="44.48573908016806" lon="10.539851229907436"><ele>657.0</ele><time>2026-04-19T09:46:38.999Z</time></trkpt><trkpt lat="44.48574845074571" lon="10.539710109532777"><ele>657.0</ele><time>2026-04-19T09:46:39.999Z</time></trkpt><trkpt lat="44.4857632287121" lon="10.53958077243109"><ele>657.0</ele><time>2026-04-19T09:46:40.999Z</time></trkpt><trkpt lat="44.485755427913716" lon="10.539422803456455"><ele>657.0</ele><time>2026-04-19T09:46:41.999Z</time></trkpt><trkpt lat="44.48575364550871" lon="10.539275529098822"><ele>657.0</ele><time>2026-04-19T09:46:42.999Z</time></trkpt><trkpt lat="44.48576187168865" lon="10.539160812419547"><ele>657.0</ele><time>2026-04-19T09:46:43.999Z</time></trkpt><trkpt lat="44.48573524504993" lon="10.539052066873255"><ele>656.2</ele><time>2026-04-19T09:46:44.999Z</time></trkpt><trkpt lat="44.48568567873358" lon="10.538969930019311"><ele>655.4000000000001</ele><time>2026-04-19T09:46:45.999Z</time></trkpt><trkpt lat="44.48563956456386" lon="10.53886730896003"><ele>654.5999999999999</ele><time>2026-04-19T09:46:46.998Z</time></trkpt><trkpt lat="44.485596950110185" lon="10.538726290066942"><ele>653.8</ele><time>2026-04-19T09:46:47.998Z</time></trkpt><trkpt lat="44.485580903604045" lon="10.53860777194289"><ele>653.0</ele><time>2026-04-19T09:46:48.998Z</time></trkpt><trkpt lat="44.48558405505945" lon="10.538447371439695"><ele>651.8333333333333</ele><time>2026-04-19T09:48:33Z</time></trkpt><trkpt lat="44.48558424505598" lon="10.538348026571425"><ele>650.6666666666666</ele><time>2026-04-19T09:48:34Z</time></trkpt><trkpt lat="44.48560805302084" lon="10.538190897684958"><ele>649.5</ele><time>2026-04-19T09:48:36Z</time></trkpt><trkpt lat="44.48561480106755" lon="10.538092191825966"><ele>648.3333333333334</ele><time>2026-04-19T09:48:37Z</time></trkpt><trkpt lat="44.485636959106444" lon="10.538003859675639"><ele>647.1666666666667</ele><time>2026-04-19T09:48:38Z</time></trkpt><trkpt lat="44.485646849508406" lon="10.537912487569233"><ele>646.0</ele><time>2026-04-19T09:48:39Z</time></trkpt><trkpt lat="44.485682696450155" lon="10.537828041830906"><ele>643.6666666666667</ele><time>2026-04-19T09:48:40Z</time></trkpt><trkpt lat="44.4856932124448" lon="10.537708744636308"><ele>641.3333333333334</ele><time>2026-04-19T09:48:41Z</time></trkpt><trkpt lat="44.48567423243505" lon="10.53759502010284"><ele>639.0</ele><time>2026-04-19T09:48:42Z</time></trkpt><trkpt lat="44.485643396081564" lon="10.53749755051794"><ele>636.6666666666666</ele><time>2026-04-19T09:48:43Z</time></trkpt><trkpt lat="44.4856328177763" lon="10.53739712164705"><ele>634.3333333333333</ele><time>2026-04-19T09:48:44Z</time></trkpt><trkpt lat="44.48562214904008" lon="10.53730873133109"><ele>632.0</ele><time>2026-04-19T09:48:45Z</time></trkpt><trkpt lat="44.485601568215834" lon="10.537196867988463"><ele>632.0</ele><time>2026-04-19T09:48:46Z</time></trkpt><trkpt lat="44.485579325916106" lon="10.537070910657826"><ele>632.0</ele><time>2026-04-19T09:48:47Z</time></trkpt><trkpt lat="44.485540170704844" lon="10.53693869338243"><ele>632.0</ele><time>2026-04-19T09:48:48Z</time></trkpt><trkpt lat="44.4854921097138" lon="10.536848071863426"><ele>632.0</ele><time>2026-04-19T09:48:49Z</time></trkpt><trkpt lat="44.485432270131284" lon="10.536789889894465"><ele>632.0</ele><time>2026-04-19T09:48:50Z</time></trkpt><trkpt lat="44.48537072957235" lon="10.536717701731357"><ele>632.0</ele><time>2026-04-19T09:48:51.999Z</time></trkpt><trkpt lat="44.485416960180295" lon="10.536645263917729"><ele>629.0</ele><time>2026-04-19T09:48:53.999Z</time></trkpt><trkpt lat="44.48548462671652" lon="10.53660638205879"><ele>626.0</ele><time>2026-04-19T09:48:54.999Z</time></trkpt><trkpt lat="44.485545389098085" lon="10.536484958551158"><ele>623.0</ele><time>2026-04-19T09:48:55.999Z</time></trkpt><trkpt lat="44.485623405607015" lon="10.536372411260071"><ele>620.0</ele><time>2026-04-19T09:48:56.999Z</time></trkpt><trkpt lat="44.48569194795403" lon="10.536250318501358"><ele>617.0</ele><time>2026-04-19T09:48:57.999Z</time></trkpt><trkpt lat="44.4857742225729" lon="10.5361430930019"><ele>614.8000000000001</ele><time>2026-04-19T09:48:58.999Z</time></trkpt><trkpt lat="44.4858452104674" lon="10.536023789513296"><ele>612.6</ele><time>2026-04-19T09:48:59.999Z</time></trkpt><trkpt lat="44.48589245703199" lon="10.535881714248148"><ele>610.4000000000001</ele><time>2026-04-19T09:49:00.999Z</time></trkpt><trkpt lat="44.48592555157983" lon="10.535731133123805"><ele>608.2</ele><time>2026-04-19T09:49:01.999Z</time></trkpt><trkpt lat="44.4859582747316" lon="10.535578390576736"><ele>606.0</ele><time>2026-04-19T09:49:02.999Z</time></trkpt><trkpt lat="44.4859910816476" lon="10.535419318713503"><ele>603.75</ele><time>2026-04-19T09:49:03.999Z</time></trkpt><trkpt lat="44.48602281239634" lon="10.535262662370084"><ele>601.5</ele><time>2026-04-19T09:49:04.999Z</time></trkpt><trkpt lat="44.48605369603905" lon="10.535102984743673"><ele>599.25</ele><time>2026-04-19T09:49:05.999Z</time></trkpt><trkpt lat="44.48606668980245" lon="10.53493498320769"><ele>597.0</ele><time>2026-04-19T09:49:06.999Z</time></trkpt><trkpt lat="44.486069694109666" lon="10.534775569610092"><ele>597.0</ele><time>2026-04-19T09:49:07.999Z</time></trkpt><trkpt lat="44.48606900718429" lon="10.534613836675783"><ele>597.0</ele><time>2026-04-19T09:49:08.999Z</time></trkpt><trkpt lat="44.48606741593501" lon="10.534454780397986"><ele>597.0</ele><time>2026-04-19T09:49:09.999Z</time></trkpt><trkpt lat="44.48604890086986" lon="10.534304902463264"><ele>597.0</ele><time>2026-04-19T09:49:10.999Z</time></trkpt><trkpt lat="44.48604891813265" lon="10.534153194942748"><ele>597.0</ele><time>2026-04-19T09:49:11.999Z</time></trkpt><trkpt lat="44.48604180810699" lon="10.534011389370178"><ele>596.5</ele><time>2026-04-19T09:49:12.999Z</time></trkpt><trkpt lat="44.48604129063168" lon="10.533885741733707"><ele>596.0</ele><time>2026-04-19T09:49:13.999Z</time></trkpt><trkpt lat="44.48604438101371" lon="10.533769350442695"><ele>595.5</ele><time>2026-04-19T09:49:15.001Z</time></trkpt><trkpt lat="44.48603899554401" lon="10.533666876818037"><ele>595.0</ele><time>2026-04-19T09:49:16.001Z</time></trkpt><trkpt lat="44.48608203403264" lon="10.533541736559737"><ele>594.5</ele><time>2026-04-19T09:49:18.001Z</time></trkpt><trkpt lat="44.486144875035485" lon="10.533529133975202"><ele>594.0</ele><time>2026-04-19T09:49:22.001Z</time></trkpt><trkpt lat="44.48622155644585" lon="10.533519463391361"><ele>595.5</ele><time>2026-04-19T09:49:24.001Z</time></trkpt><trkpt lat="44.486290930979145" lon="10.533481730231989"><ele>597.0</ele><time>2026-04-19T09:49:25.001Z</time></trkpt><trkpt lat="44.48633580882839" lon="10.533392015006443"><ele>598.5</ele><time>2026-04-19T09:49:26.001Z</time></trkpt><trkpt lat="44.486338068485054" lon="10.533273302116173"><ele>600.0</ele><time>2026-04-19T09:49:27.001Z</time></trkpt><trkpt lat="44.48634340962877" lon="10.533153846264556"><ele>601.5</ele><time>2026-04-19T09:49:28.001Z</time></trkpt><trkpt lat="44.486363572781585" lon="10.533018936477974"><ele>603.0</ele><time>2026-04-19T09:49:29.001Z</time></trkpt><trkpt lat="44.48636371334913" lon="10.532861071876676"><ele>603.0</ele><time>2026-04-19T09:49:30.001Z</time></trkpt><trkpt lat="44.486397450401114" lon="10.532724896461733"><ele>603.0</ele><time>2026-04-19T09:49:31.001Z</time></trkpt><trkpt lat="44.486416590144465" lon="10.532616029571324"><ele>603.0</ele><time>2026-04-19T09:49:32Z</time></trkpt><trkpt lat="44.48647523621825" lon="10.532472260193451"><ele>603.0</ele><time>2026-04-19T09:49:34Z</time></trkpt><trkpt lat="44.486473441437035" lon="10.532330841835794"><ele>603.0</ele><time>2026-04-19T09:49:35Z</time></trkpt><trkpt lat="44.48652463303648" lon="10.532230886891732"><ele>603.0</ele><time>2026-04-19T09:49:36Z</time></trkpt><trkpt lat="44.48662735507425" lon="10.53212676651297"><ele>603.0</ele><time>2026-04-19T09:49:38Z</time></trkpt><trkpt lat="44.48671041827575" lon="10.53208781266417"><ele>603.0</ele><time>2026-04-19T09:49:39Z</time></trkpt><trkpt lat="44.486807858792886" lon="10.532024758253142"><ele>603.0</ele><time>2026-04-19T09:49:40Z</time></trkpt><trkpt lat="44.486860316720886" lon="10.531964709274263"><ele>603.0</ele><time>2026-04-19T09:49:42Z</time></trkpt><trkpt lat="44.48676597380154" lon="10.531908949650438"><ele>602.5</ele><time>2026-04-19T09:49:46Z</time></trkpt><trkpt lat="44.48667731441136" lon="10.53194210585507"><ele>602.0</ele><time>2026-04-19T09:49:47Z</time></trkpt><trkpt lat="44.48656315288749" lon="10.53195536360442"><ele>601.5</ele><time>2026-04-19T09:49:48Z</time></trkpt><trkpt lat="44.48641071192443" lon="10.531965048517497"><ele>601.0</ele><time>2026-04-19T09:49:49Z</time></trkpt><trkpt lat="44.4862439973993" lon="10.531966571519071"><ele>601.6</ele><time>2026-04-19T09:49:50Z</time></trkpt><trkpt lat="44.48615263613197" lon="10.531999209761072"><ele>602.2</ele><time>2026-04-19T09:49:51Z</time></trkpt><trkpt lat="44.48604061276815" lon="10.53204105035043"><ele>602.8</ele><time>2026-04-19T09:49:53Z</time></trkpt><trkpt lat="44.48600044177705" lon="10.532111663580023"><ele>603.4</ele><time>2026-04-19T09:49:54Z</time></trkpt><trkpt lat="44.48599255313927" lon="10.53228751426225"><ele>604.0</ele><time>2026-04-19T09:49:55Z</time></trkpt><trkpt lat="44.486025053139905" lon="10.53247763834148"><ele>604.0</ele><time>2026-04-19T09:49:56Z</time></trkpt><trkpt lat="44.48601864050512" lon="10.532648597854454"><ele>604.0</ele><time>2026-04-19T09:49:57Z</time></trkpt><trkpt lat="44.48597905207273" lon="10.532727895055748"><ele>604.0</ele><time>2026-04-19T09:49:58Z</time></trkpt><trkpt lat="44.48587717124987" lon="10.532736018750175"><ele>604.0</ele><time>2026-04-19T09:50:00Z</time></trkpt><trkpt lat="44.48577069518199" lon="10.532714609797422"><ele>604.0</ele><time>2026-04-19T09:50:01Z</time></trkpt><trkpt lat="44.485668877533776" lon="10.532724556033994"><ele>603.0</ele><time>2026-04-19T09:50:02Z</time></trkpt><trkpt lat="44.48556075333248" lon="10.532897771756383"><ele>602.0</ele><time>2026-04-19T09:50:04Z</time></trkpt><trkpt lat="44.4855580507006" lon="10.533106279145006"><ele>601.0</ele><time>2026-04-19T09:50:05Z</time></trkpt><trkpt lat="44.48548124926733" lon="10.533336182156813"><ele>593.3333333333334</ele><time>2026-04-19T09:50:06Z</time></trkpt><trkpt lat="44.48540055721009" lon="10.533586387608954"><ele>585.6666666666666</ele><time>2026-04-19T09:50:07Z</time></trkpt><trkpt lat="44.485326656583304" lon="10.53381367231458"><ele>578.0</ele><time>2026-04-19T09:50:08Z</time></trkpt><trkpt lat="44.4852874451964" lon="10.53393732432093"><ele>578.0</ele><time>2026-04-19T09:50:10Z</time></trkpt><trkpt lat="44.48523990629113" lon="10.53400002871794"><ele>578.0</ele><time>2026-04-19T09:50:12Z</time></trkpt><trkpt lat="44.48520704458352" lon="10.534110031600969"><ele>578.0</ele><time>2026-04-19T09:50:15Z</time></trkpt><trkpt lat="44.48526301637286" lon="10.533993346007144"><ele>578.0</ele><time>2026-04-19T09:50:20Z</time></trkpt><trkpt lat="44.48530986706928" lon="10.533879115455422"><ele>578.0</ele><time>2026-04-19T09:50:21Z</time></trkpt><trkpt lat="44.48537538169573" lon="10.533771472216314"><ele>578.0</ele><time>2026-04-19T09:50:22Z</time></trkpt><trkpt lat="44.48541589765574" lon="10.533648313911337"><ele>578.0</ele><time>2026-04-19T09:50:23Z</time></trkpt><trkpt lat="44.48544035039104" lon="10.533530643199835"><ele>578.0</ele><time>2026-04-19T09:50:24Z</time></trkpt><trkpt lat="44.48548254782268" lon="10.533443760234155"><ele>578.0</ele><time>2026-04-19T09:50:25Z</time></trkpt><trkpt lat="44.48533794660906" lon="10.533445489993891"><ele>578.0</ele><time>2026-04-19T09:50:40Z</time></trkpt><trkpt lat="44.48525945760037" lon="10.533424033388478"><ele>578.0</ele><time>2026-04-19T09:50:42Z</time></trkpt><trkpt lat="44.485186805265805" lon="10.533407481232942"><ele>578.0</ele><time>2026-04-19T09:50:46Z</time></trkpt><trkpt lat="44.485082137993196" lon="10.533408567668474"><ele>578.0</ele><time>2026-04-19T09:50:48Z</time></trkpt><trkpt lat="44.48498888826503" lon="10.533472882353587"><ele>578.0</ele><time>2026-04-19T09:50:50Z</time></trkpt><trkpt lat="44.484915309393365" lon="10.533414454532995"><ele>578.0</ele><time>2026-04-19T09:50:52Z</time></trkpt><trkpt lat="44.48482119278948" lon="10.533353308918946"><ele>578.0</ele><time>2026-04-19T09:50:54Z</time></trkpt><trkpt lat="44.4847425275763" lon="10.533335762523981"><ele>578.0</ele><time>2026-04-19T09:50:54.999Z</time></trkpt><trkpt lat="44.48465705635116" lon="10.533271956375874"><ele>578.0</ele><time>2026-04-19T09:50:56.999Z</time></trkpt><trkpt lat="44.48461506687488" lon="10.533145854307294"><ele>578.0</ele><time>2026-04-19T09:50:58.999Z</time></trkpt><trkpt lat="44.48450117360626" lon="10.533173000818811"><ele>578.0</ele><time>2026-04-19T09:51:00.999Z</time></trkpt><trkpt lat="44.48442795317953" lon="10.533221966682136"><ele>578.0</ele><time>2026-04-19T09:51:01.999Z</time></trkpt><trkpt lat="44.484347124984005" lon="10.533211187930107"><ele>575.6</ele><time>2026-04-19T09:51:02.999Z</time></trkpt><trkpt lat="44.48423588547916" lon="10.533179591943195"><ele>573.1999999999999</ele><time>2026-04-19T09:51:03.999Z</time></trkpt><trkpt lat="44.48411387084795" lon="10.533130045179027"><ele>570.8</ele><time>2026-04-19T09:51:04.999Z</time></trkpt><trkpt lat="44.483999315280066" lon="10.533071275766412"><ele>568.4</ele><time>2026-04-19T09:51:05.999Z</time></trkpt><trkpt lat="44.48392224985173" lon="10.533026140906928"><ele>566.0</ele><time>2026-04-19T09:51:06.999Z</time></trkpt><trkpt lat="44.483829659390224" lon="10.533030648426216"><ele>564.8</ele><time>2026-04-19T09:51:08.999Z</time></trkpt><trkpt lat="44.48371845330048" lon="10.5330256903264"><ele>563.6</ele><time>2026-04-19T09:51:10.999Z</time></trkpt><trkpt lat="44.48365378866723" lon="10.53300371496511"><ele>562.4</ele><time>2026-04-19T09:51:11.999Z</time></trkpt><trkpt lat="44.48359121671018" lon="10.533013821905707"><ele>561.2</ele><time>2026-04-19T09:51:28.001Z</time></trkpt><trkpt lat="44.483540167071695" lon="10.532865299717379"><ele>560.0</ele><time>2026-04-19T09:51:31.001Z</time></trkpt><trkpt lat="44.48348247466423" lon="10.53273912726399"><ele>567.5</ele><time>2026-04-19T09:51:33.001Z</time></trkpt><trkpt lat="44.483410760870484" lon="10.532697109326161"><ele>575.0</ele><time>2026-04-19T09:51:35.001Z</time></trkpt><trkpt lat="44.48331242706563" lon="10.532700878459702"><ele>582.5</ele><time>2026-04-19T09:51:38Z</time></trkpt><trkpt lat="44.48323716896779" lon="10.532687583282051"><ele>590.0</ele><time>2026-04-19T09:51:42Z</time></trkpt><trkpt lat="44.48312422186271" lon="10.532663478485322"><ele>597.5</ele><time>2026-04-19T09:51:44Z</time></trkpt><trkpt lat="44.48305597632953" lon="10.532655997476429"><ele>605.0</ele><time>2026-04-19T09:51:45Z</time></trkpt><trkpt lat="44.48298668951336" lon="10.532648488580918"><ele>605.0</ele><time>2026-04-19T09:51:47Z</time></trkpt><trkpt lat="44.48305855038891" lon="10.53262260617875"><ele>605.0</ele><time>2026-04-19T09:54:59Z</time></trkpt><trkpt lat="44.483126340295236" lon="10.53259703176549"><ele>605.0</ele><time>2026-04-19T09:55:05.999Z</time></trkpt><trkpt lat="44.483190358569665" lon="10.53261044199149"><ele>605.0</ele><time>2026-04-19T09:55:11.999Z</time></trkpt><trkpt lat="44.48326654321797" lon="10.532666522662456"><ele>605.0</ele><time>2026-04-19T09:55:45Z</time></trkpt><trkpt lat="44.48319725246926" lon="10.532671448583004"><ele>605.0</ele><time>2026-04-19T09:58:50Z</time></trkpt><trkpt lat="44.483119245968446" lon="10.532640374547444"><ele>605.0</ele><time>2026-04-19T09:59:06.999Z</time></trkpt><trkpt lat="44.48305328059645" lon="10.532630490177228"><ele>605.0</ele><time>2026-04-19T09:59:14.999Z</time></trkpt><trkpt lat="44.482990224024235" lon="10.532641910853712"><ele>605.0</ele><time>2026-04-19T09:59:23.999Z</time></trkpt><trkpt lat="44.48291826508987" lon="10.53266386390629"><ele>605.0</ele><time>2026-04-19T09:59:43.999Z</time></trkpt><trkpt lat="44.482855324465284" lon="10.532658094563315"><ele>605.0</ele><time>2026-04-19T09:59:45Z</time></trkpt><trkpt lat="44.4827601831852" lon="10.532704355659114"><ele>605.0</ele><time>2026-04-19T09:59:47Z</time></trkpt><trkpt lat="44.482690283318405" lon="10.532660416027282"><ele>605.0</ele><time>2026-04-19T09:59:49Z</time></trkpt><trkpt lat="44.48264741391168" lon="10.53258832041872"><ele>605.0</ele><time>2026-04-19T09:59:50Z</time></trkpt><trkpt lat="44.48266022176218" lon="10.532491613242513"><ele>603.0</ele><time>2026-04-19T10:00:06Z</time></trkpt><trkpt lat="44.48266083121334" lon="10.53239159081469"><ele>601.0</ele><time>2026-04-19T10:00:13Z</time></trkpt><trkpt lat="44.4827187787295" lon="10.532333900106915"><ele>599.0</ele><time>2026-04-19T10:00:16Z</time></trkpt><trkpt lat="44.48274882787021" lon="10.532216136846614"><ele>597.0</ele><time>2026-04-19T10:00:18Z</time></trkpt><trkpt lat="44.4827411232708" lon="10.532094663770152"><ele>595.0</ele><time>2026-04-19T10:00:20Z</time></trkpt><trkpt lat="44.48282729553995" lon="10.532076478096602"><ele>593.0</ele><time>2026-04-19T10:00:26Z</time></trkpt><trkpt lat="44.48292506176437" lon="10.532071129570166"><ele>601.8</ele><time>2026-04-19T10:00:28Z</time></trkpt><trkpt lat="44.48302379969682" lon="10.531985110509535"><ele>610.5999999999999</ele><time>2026-04-19T10:00:30Z</time></trkpt><trkpt lat="44.483061388538694" lon="10.531846854683568"><ele>619.4000000000001</ele><time>2026-04-19T10:00:32Z</time></trkpt><trkpt lat="44.48309003528161" lon="10.531702933362524"><ele>628.2</ele><time>2026-04-19T10:00:34Z</time></trkpt><trkpt lat="44.483128293057625" lon="10.531625784414558"><ele>637.0</ele><time>2026-04-19T10:00:35Z</time></trkpt><trkpt lat="44.4831385536969" lon="10.531538495714317"><ele>637.0</ele><time>2026-04-19T10:00:36Z</time></trkpt><trkpt lat="44.48317861856077" lon="10.531428611280495"><ele>637.0</ele><time>2026-04-19T10:00:37Z</time></trkpt><trkpt lat="44.48319465654304" lon="10.531320731119454"><ele>637.0</ele><time>2026-04-19T10:00:38Z</time></trkpt><trkpt lat="44.48318459988993" lon="10.531203069049932"><ele>637.0</ele><time>2026-04-19T10:00:39Z</time></trkpt><trkpt lat="44.48312152755233" lon="10.531112190538519"><ele>637.0</ele><time>2026-04-19T10:00:41Z</time></trkpt><trkpt lat="44.483034783412414" lon="10.531031762336463"><ele>637.0</ele><time>2026-04-19T10:00:43Z</time></trkpt><trkpt lat="44.48302388230909" lon="10.530920232890562"><ele>637.6666666666667</ele><time>2026-04-19T10:00:44Z</time></trkpt><trkpt lat="44.48301574534747" lon="10.53083221080649"><ele>638.3333333333334</ele><time>2026-04-19T10:00:45Z</time></trkpt><trkpt lat="44.48303439845165" lon="10.530729909201266"><ele>639.0</ele><time>2026-04-19T10:00:46Z</time></trkpt><trkpt lat="44.483060385729715" lon="10.530614215827676"><ele>639.6666666666666</ele><time>2026-04-19T10:00:47Z</time></trkpt><trkpt lat="44.48306270963337" lon="10.530520467699066"><ele>640.3333333333333</ele><time>2026-04-19T10:00:48Z</time></trkpt><trkpt lat="44.483053750906265" lon="10.530425029408445"><ele>641.0</ele><time>2026-04-19T10:00:49Z</time></trkpt><trkpt lat="44.48296821394494" lon="10.53025718827574"><ele>631.0</ele><time>2026-04-19T10:00:51Z</time></trkpt><trkpt lat="44.48288312003155" lon="10.530089912844575"><ele>621.0</ele><time>2026-04-19T10:00:52Z</time></trkpt><trkpt lat="44.48285102847106" lon="10.529988904142849"><ele>611.0</ele><time>2026-04-19T10:00:53Z</time></trkpt><trkpt lat="44.48278808331742" lon="10.529847845322609"><ele>601.0</ele><time>2026-04-19T10:00:55Z</time></trkpt><trkpt lat="44.48278623418885" lon="10.529752763153526"><ele>591.0</ele><time>2026-04-19T10:00:56Z</time></trkpt><trkpt lat="44.48280497580747" lon="10.529659321268351"><ele>590.2</ele><time>2026-04-19T10:00:57Z</time></trkpt><trkpt lat="44.48283516533765" lon="10.529517314700584"><ele>589.4000000000001</ele><time>2026-04-19T10:00:58Z</time></trkpt><trkpt lat="44.482851366391586" lon="10.529387140191366"><ele>588.6</ele><time>2026-04-19T10:00:59Z</time></trkpt><trkpt lat="44.48290563494921" lon="10.52927147702305"><ele>587.8000000000001</ele><time>2026-04-19T10:01:01Z</time></trkpt><trkpt lat="44.48296807536857" lon="10.529227695447844"><ele>587.0</ele><time>2026-04-19T10:01:02Z</time></trkpt><trkpt lat="44.48303681484723" lon="10.529146227318527"><ele>587.0</ele><time>2026-04-19T10:01:03Z</time></trkpt><trkpt lat="44.48307086034366" lon="10.529068277677721"><ele>587.0</ele><time>2026-04-19T10:01:04Z</time></trkpt><trkpt lat="44.48305049953818" lon="10.528974683380898"><ele>587.0</ele><time>2026-04-19T10:01:05Z</time></trkpt><trkpt lat="44.482986337045794" lon="10.528873058345566"><ele>587.0</ele><time>2026-04-19T10:01:06Z</time></trkpt><trkpt lat="44.482927457686735" lon="10.528747885963936"><ele>587.0</ele><time>2026-04-19T10:01:06.999Z</time></trkpt><trkpt lat="44.48293048984959" lon="10.528659282835742"><ele>587.0</ele><time>2026-04-19T10:01:07.999Z</time></trkpt><trkpt lat="44.48294961000292" lon="10.528489658442831"><ele>591.8000000000001</ele><time>2026-04-19T10:01:09.999Z</time></trkpt><trkpt lat="44.4829839425329" lon="10.52835777943042"><ele>596.6</ele><time>2026-04-19T10:01:10.999Z</time></trkpt><trkpt lat="44.48300858733009" lon="10.528225605305398"><ele>601.4000000000001</ele><time>2026-04-19T10:01:11.999Z</time></trkpt><trkpt lat="44.483044910335565" lon="10.528102615695085"><ele>606.2</ele><time>2026-04-19T10:01:12.999Z</time></trkpt><trkpt lat="44.48308418843989" lon="10.52797943919523"><ele>611.0</ele><time>2026-04-19T10:01:13.999Z</time></trkpt><trkpt lat="44.48307885605281" lon="10.527820382348297"><ele>611.0</ele><time>2026-04-19T10:01:14.999Z</time></trkpt><trkpt lat="44.483058409466" lon="10.527736320191748"><ele>611.0</ele><time>2026-04-19T10:01:16.999Z</time></trkpt><trkpt lat="44.48298737875027" lon="10.527683557145386"><ele>611.0</ele><time>2026-04-19T10:01:19.999Z</time></trkpt><trkpt lat="44.48298060729322" lon="10.527578200246245"><ele>611.0</ele><time>2026-04-19T10:01:24.999Z</time></trkpt><trkpt lat="44.48299825612104" lon="10.527422002636595"><ele>611.0</ele><time>2026-04-19T10:01:27.999Z</time></trkpt><trkpt lat="44.48301667471018" lon="10.52729254870596"><ele>611.0</ele><time>2026-04-19T10:01:28.999Z</time></trkpt><trkpt lat="44.4830153314423" lon="10.5271308183323"><ele>612.75</ele><time>2026-04-19T10:01:29.999Z</time></trkpt><trkpt lat="44.48298387076808" lon="10.52693402047352"><ele>614.5</ele><time>2026-04-19T10:01:30.999Z</time></trkpt><trkpt lat="44.48294542107735" lon="10.526723692254759"><ele>616.25</ele><time>2026-04-19T10:01:31.999Z</time></trkpt><trkpt lat="44.4828967878605" lon="10.526556999192266"><ele>618.0</ele><time>2026-04-19T10:01:32.999Z</time></trkpt><trkpt lat="44.48283592521667" lon="10.526385989437447"><ele>612.1999999999999</ele><time>2026-04-19T10:01:33.999Z</time></trkpt><trkpt lat="44.48279275502538" lon="10.526208220662511"><ele>606.4</ele><time>2026-04-19T10:01:34.999Z</time></trkpt><trkpt lat="44.482763821253485" lon="10.526076937088918"><ele>600.5999999999999</ele><time>2026-04-19T10:01:35.999Z</time></trkpt><trkpt lat="44.48277201772391" lon="10.525971632995992"><ele>594.8</ele><time>2026-04-19T10:01:36.999Z</time></trkpt><trkpt lat="44.482800591609696" lon="10.525846741159683"><ele>589.0</ele><time>2026-04-19T10:01:37.999Z</time></trkpt><trkpt lat="44.482817311574316" lon="10.525697720576082"><ele>589.0</ele><time>2026-04-19T10:01:38.999Z</time></trkpt><trkpt lat="44.4828301663257" lon="10.525590509432176"><ele>589.0</ele><time>2026-04-19T10:01:39.999Z</time></trkpt><trkpt lat="44.4828604030426" lon="10.525509085838536"><ele>589.0</ele><time>2026-04-19T10:01:41.999Z</time></trkpt><trkpt lat="44.48289421290389" lon="10.52542347306448"><ele>589.0</ele><time>2026-04-19T10:01:43.999Z</time></trkpt><trkpt lat="44.48295206647703" lon="10.525352914968689"><ele>589.0</ele><time>2026-04-19T10:01:44.999Z</time></trkpt><trkpt lat="44.48300424217885" lon="10.525261263226025"><ele>589.0</ele><time>2026-04-19T10:01:45.999Z</time></trkpt><trkpt lat="44.4830546514797" lon="10.525168612241405"><ele>588.6</ele><time>2026-04-19T10:01:46.999Z</time></trkpt><trkpt lat="44.483021063176935" lon="10.525002530338798"><ele>588.2</ele><time>2026-04-19T10:01:48.999Z</time></trkpt><trkpt lat="44.48295052687238" lon="10.524899574450552"><ele>587.8000000000001</ele><time>2026-04-19T10:01:49.999Z</time></trkpt><trkpt lat="44.48292886604705" lon="10.524784297173476"><ele>587.4</ele><time>2026-04-19T10:01:51Z</time></trkpt><trkpt lat="44.4829665474823" lon="10.524666817004483"><ele>587.0</ele><time>2026-04-19T10:01:52Z</time></trkpt><trkpt lat="44.482995757277095" lon="10.52458146731534"><ele>588.8000000000001</ele><time>2026-04-19T10:01:53Z</time></trkpt><trkpt lat="44.48295556853939" lon="10.52449022703695"><ele>590.6</ele><time>2026-04-19T10:01:58Z</time></trkpt><trkpt lat="44.48293187083463" lon="10.524359481924964"><ele>592.4000000000001</ele><time>2026-04-19T10:02:27Z</time></trkpt><trkpt lat="44.482942902765586" lon="10.524267350186916"><ele>594.2</ele><time>2026-04-19T10:02:28Z</time></trkpt><trkpt lat="44.482930089092044" lon="10.524095890963954"><ele>596.0</ele><time>2026-04-19T10:02:30Z</time></trkpt><trkpt lat="44.48289297946598" lon="10.523982622570276"><ele>596.0</ele><time>2026-04-19T10:02:31Z</time></trkpt><trkpt lat="44.4828523590975" lon="10.523864470781918"><ele>596.0</ele><time>2026-04-19T10:02:32Z</time></trkpt><trkpt lat="44.48281122730169" lon="10.523741043028123"><ele>596.0</ele><time>2026-04-19T10:02:33Z</time></trkpt><trkpt lat="44.48282906894526" lon="10.523563152486194"><ele>596.0</ele><time>2026-04-19T10:02:34Z</time></trkpt><trkpt lat="44.482861486906174" lon="10.523389037723323"><ele>596.0</ele><time>2026-04-19T10:02:35Z</time></trkpt><trkpt lat="44.48284231643008" lon="10.523292339018548"><ele>595.8</ele><time>2026-04-19T10:02:36Z</time></trkpt><trkpt lat="44.48278872301846" lon="10.523223204699821"><ele>595.6</ele><time>2026-04-19T10:02:37Z</time></trkpt><trkpt lat="44.48269720489384" lon="10.523113395587911"><ele>595.4</ele><time>2026-04-19T10:02:38Z</time></trkpt><trkpt lat="44.482612533747435" lon="10.523004182073764"><ele>595.2</ele><time>2026-04-19T10:02:39Z</time></trkpt><trkpt lat="44.482505324257204" lon="10.522945058560953"><ele>595.0</ele><time>2026-04-19T10:02:40Z</time></trkpt><trkpt lat="44.48235263464652" lon="10.522941972191395"><ele>595.5</ele><time>2026-04-19T10:02:41Z</time></trkpt><trkpt lat="44.4822346989681" lon="10.522889306167839"><ele>596.0</ele><time>2026-04-19T10:02:42Z</time></trkpt><trkpt lat="44.48219113204046" lon="10.52272204485928"><ele>596.5</ele><time>2026-04-19T10:02:43Z</time></trkpt><trkpt lat="44.4820989425177" lon="10.522595807554065"><ele>597.0</ele><time>2026-04-19T10:02:44Z</time></trkpt><trkpt lat="44.481940359423255" lon="10.522527030963785"><ele>596.0</ele><time>2026-04-19T10:02:45Z</time></trkpt><trkpt lat="44.48176907802787" lon="10.522487856328349"><ele>595.0</ele><time>2026-04-19T10:02:46Z</time></trkpt><trkpt lat="44.48165693823003" lon="10.52244791636286"><ele>594.0</ele><time>2026-04-19T10:02:47Z</time></trkpt><trkpt lat="44.48171795267169" lon="10.52258057272999"><ele>593.0</ele><time>2026-04-19T10:02:55Z</time></trkpt><trkpt lat="44.481752335193256" lon="10.522786928559889"><ele>593.0</ele><time>2026-04-19T10:02:57Z</time></trkpt><trkpt lat="44.481752374747245" lon="10.522876663600213"><ele>593.0</ele><time>2026-04-19T10:02:58Z</time></trkpt><trkpt lat="44.48175292736953" lon="10.522985679925885"><ele>593.0</ele><time>2026-04-19T10:02:59Z</time></trkpt><trkpt lat="44.481768673528244" lon="10.523093852108317"><ele>593.0</ele><time>2026-04-19T10:03:00Z</time></trkpt><trkpt lat="44.48179741387082" lon="10.523204298607752"><ele>593.0</ele><time>2026-04-19T10:03:01Z</time></trkpt><trkpt lat="44.48183501048331" lon="10.52330769388111"><ele>593.0</ele><time>2026-04-19T10:03:02Z</time></trkpt><trkpt lat="44.48186873212454" lon="10.523394771521154"><ele>593.6666666666666</ele><time>2026-04-19T10:03:03Z</time></trkpt><trkpt lat="44.48189583032058" lon="10.523475421931224"><ele>594.3333333333333</ele><time>2026-04-19T10:03:04Z</time></trkpt><trkpt lat="44.48195120485009" lon="10.523624298196776"><ele>595.0</ele><time>2026-04-19T10:03:06Z</time></trkpt><trkpt lat="44.48194174088144" lon="10.523726196955442"><ele>595.6666666666666</ele><time>2026-04-19T10:03:07Z</time></trkpt><trkpt lat="44.481940752303586" lon="10.523818821491762"><ele>596.3333333333334</ele><time>2026-04-19T10:03:07.999Z</time></trkpt><trkpt lat="44.48194504602918" lon="10.523987399550204"><ele>597.0</ele><time>2026-04-19T10:03:09.999Z</time></trkpt><trkpt lat="44.4819455837781" lon="10.524079088431536"><ele>597.0</ele><time>2026-04-19T10:03:10.999Z</time></trkpt><trkpt lat="44.481916607217" lon="10.524244399360283"><ele>597.0</ele><time>2026-04-19T10:03:12.999Z</time></trkpt><trkpt lat="44.4818927266144" lon="10.524336188625329"><ele>597.0</ele><time>2026-04-19T10:03:13.999Z</time></trkpt><trkpt lat="44.48186856715706" lon="10.524441104677711"><ele>597.0</ele><time>2026-04-19T10:03:14.999Z</time></trkpt><trkpt lat="44.481751097170054" lon="10.524651373375338"><ele>597.0</ele><time>2026-04-19T10:03:15.999Z</time></trkpt><trkpt lat="44.48170987463402" lon="10.524742315048393"><ele>597.0</ele><time>2026-04-19T10:03:16.999Z</time></trkpt><trkpt lat="44.481704172008214" lon="10.524873930592143"><ele>597.0</ele><time>2026-04-19T10:03:17.999Z</time></trkpt><trkpt lat="44.48168704076486" lon="10.525070172253255"><ele>597.0</ele><time>2026-04-19T10:03:18.999Z</time></trkpt><trkpt lat="44.48167904241732" lon="10.525300288644653"><ele>596.6</ele><time>2026-04-19T10:03:19.999Z</time></trkpt><trkpt lat="44.48168394282611" lon="10.52550962157419"><ele>596.2</ele><time>2026-04-19T10:03:20.999Z</time></trkpt><trkpt lat="44.48168524176242" lon="10.525662320468394"><ele>595.8</ele><time>2026-04-19T10:03:21.999Z</time></trkpt><trkpt lat="44.48168143406162" lon="10.525778990143735"><ele>595.4</ele><time>2026-04-19T10:03:22.999Z</time></trkpt><trkpt lat="44.481648134972836" lon="10.52589095625114"><ele>595.0</ele><time>2026-04-19T10:03:24.999Z</time></trkpt><trkpt lat="44.48159109718641" lon="10.525967948520735"><ele>595.0</ele><time>2026-04-19T10:03:29.999Z</time></trkpt><trkpt lat="44.48155972417856" lon="10.526108107000882"><ele>595.0</ele><time>2026-04-19T10:03:56Z</time></trkpt><trkpt lat="44.48151227204687" lon="10.526219030883835"><ele>595.0</ele><time>2026-04-19T10:03:57Z</time></trkpt><trkpt lat="44.48146107000484" lon="10.526368371333833"><ele>595.0</ele><time>2026-04-19T10:03:58Z</time></trkpt><trkpt lat="44.48143107656392" lon="10.52649904404066"><ele>595.0</ele><time>2026-04-19T10:03:59Z</time></trkpt><trkpt lat="44.481407333504" lon="10.526604748311515"><ele>596.0</ele><time>2026-04-19T10:04:00Z</time></trkpt><trkpt lat="44.48135392406281" lon="10.52674102901851"><ele>597.0</ele><time>2026-04-19T10:04:01Z</time></trkpt><trkpt lat="44.48132185518001" lon="10.52688262906413"><ele>598.0</ele><time>2026-04-19T10:04:02Z</time></trkpt><trkpt lat="44.48128508964398" lon="10.527014746667554"><ele>599.0</ele><time>2026-04-19T10:04:03Z</time></trkpt><trkpt lat="44.48124529522546" lon="10.52713170355808"><ele>600.0</ele><time>2026-04-19T10:04:04Z</time></trkpt><trkpt lat="44.481175372328295" lon="10.527234743863504"><ele>596.6666666666666</ele><time>2026-04-19T10:04:05Z</time></trkpt><trkpt lat="44.481109999387066" lon="10.52730969450444"><ele>593.3333333333334</ele><time>2026-04-19T10:04:06Z</time></trkpt><trkpt lat="44.48105877049771" lon="10.52738911276708"><ele>590.0</ele><time>2026-04-19T10:04:07Z</time></trkpt><trkpt lat="44.48099764022499" lon="10.527465491432029"><ele>586.6666666666667</ele><time>2026-04-19T10:04:08Z</time></trkpt><trkpt lat="44.48095193516638" lon="10.527534902239834"><ele>583.3333333333334</ele><time>2026-04-19T10:04:09Z</time></trkpt><trkpt lat="44.48086216906814" lon="10.52763780225376"><ele>580.0</ele><time>2026-04-19T10:04:11Z</time></trkpt><trkpt lat="44.480755900049964" lon="10.527643513084179"><ele>580.0</ele><time>2026-04-19T10:04:13Z</time></trkpt><trkpt lat="44.480619290500705" lon="10.527622089083277"><ele>580.0</ele><time>2026-04-19T10:04:15Z</time></trkpt><trkpt lat="44.48051338307244" lon="10.527632443876389"><ele>580.0</ele><time>2026-04-19T10:04:16Z</time></trkpt><trkpt lat="44.4804288234185" lon="10.52763196668507"><ele>580.0</ele><time>2026-04-19T10:04:17Z</time></trkpt><trkpt lat="44.480366193124084" lon="10.527622682285791"><ele>580.0</ele><time>2026-04-19T10:04:18Z</time></trkpt><trkpt lat="44.480265640019006" lon="10.527645299689862"><ele>576.8</ele><time>2026-04-19T10:04:19Z</time></trkpt><trkpt lat="44.48014605445119" lon="10.527703832495405"><ele>573.6</ele><time>2026-04-19T10:04:20Z</time></trkpt><trkpt lat="44.48002820591524" lon="10.527722571112399"><ele>570.4</ele><time>2026-04-19T10:04:21Z</time></trkpt><trkpt lat="44.47992320942808" lon="10.527740489858276"><ele>567.2</ele><time>2026-04-19T10:04:22Z</time></trkpt><trkpt lat="44.479853075014695" lon="10.527733687357026"><ele>564.0</ele><time>2026-04-19T10:04:23Z</time></trkpt><trkpt lat="44.4797505323089" lon="10.527653030345721"><ele>564.0</ele><time>2026-04-19T10:04:25Z</time></trkpt><trkpt lat="44.47967648210356" lon="10.527592780273405"><ele>564.0</ele><time>2026-04-19T10:04:26Z</time></trkpt><trkpt lat="44.47955131226095" lon="10.52751500401864"><ele>564.0</ele><time>2026-04-19T10:04:28Z</time></trkpt><trkpt lat="44.479512065480954" lon="10.527418271107052"><ele>564.0</ele><time>2026-04-19T10:04:29Z</time></trkpt><trkpt lat="44.47935831662968" lon="10.527419046457998"><ele>562.8333333333334</ele><time>2026-04-19T10:04:31Z</time></trkpt><trkpt lat="44.47925653155806" lon="10.52745673228638"><ele>561.6666666666666</ele><time>2026-04-19T10:04:32Z</time></trkpt><trkpt lat="44.479183736643165" lon="10.527453344807896"><ele>560.5</ele><time>2026-04-19T10:04:33Z</time></trkpt><trkpt lat="44.47911803300559" lon="10.527427229667994"><ele>559.3333333333333</ele><time>2026-04-19T10:04:34Z</time></trkpt><trkpt lat="44.479023200779636" lon="10.527402289596221"><ele>558.1666666666666</ele><time>2026-04-19T10:04:35Z</time></trkpt><trkpt lat="44.47892475501263" lon="10.527351280643868"><ele>557.0</ele><time>2026-04-19T10:04:36Z</time></trkpt><trkpt lat="44.478830698094484" lon="10.527245440054031"><ele>553.4</ele><time>2026-04-19T10:04:38Z</time></trkpt><trkpt lat="44.47872222059249" lon="10.527170651687369"><ele>549.8000000000001</ele><time>2026-04-19T10:04:40Z</time></trkpt><trkpt lat="44.478588917115836" lon="10.527096550213425"><ele>546.2</ele><time>2026-04-19T10:04:42Z</time></trkpt><trkpt lat="44.478531366073234" lon="10.526993644394583"><ele>542.6</ele><time>2026-04-19T10:04:43Z</time></trkpt><trkpt lat="44.478488361709516" lon="10.526910167120906"><ele>539.0</ele><time>2026-04-19T10:04:44Z</time></trkpt><trkpt lat="44.4783703952056" lon="10.526830091529018"><ele>538.3333333333333</ele><time>2026-04-19T10:04:46Z</time></trkpt><trkpt lat="44.478290323014264" lon="10.526729488965866"><ele>537.6666666666666</ele><time>2026-04-19T10:04:48Z</time></trkpt><trkpt lat="44.478212026103606" lon="10.526659111652013"><ele>537.0</ele><time>2026-04-19T10:04:50Z</time></trkpt><trkpt lat="44.47814993215467" lon="10.526591380312285"><ele>536.3333333333334</ele><time>2026-04-19T10:04:52Z</time></trkpt><trkpt lat="44.478084506464334" lon="10.526534193319371"><ele>535.6666666666667</ele><time>2026-04-19T10:04:54Z</time></trkpt><trkpt lat="44.47801776502722" lon="10.526518471299983"><ele>535.0</ele><time>2026-04-19T10:04:56Z</time></trkpt><trkpt lat="44.47798943419244" lon="10.526602488898439"><ele>535.0</ele><time>2026-04-19T10:04:58Z</time></trkpt><trkpt lat="44.478062664139266" lon="10.526682622199301"><ele>535.0</ele><time>2026-04-19T10:05:01Z</time></trkpt><trkpt lat="44.47813796859958" lon="10.52671892658262"><ele>535.0</ele><time>2026-04-19T10:05:03Z</time></trkpt><trkpt lat="44.478178494943585" lon="10.526799066369882"><ele>535.0</ele><time>2026-04-19T10:05:43.999Z</time></trkpt><trkpt lat="44.47826652838502" lon="10.526776276511825"><ele>535.0</ele><time>2026-04-19T10:05:46.999Z</time></trkpt><trkpt lat="44.47836200252583" lon="10.526822342600882"><ele>535.0</ele><time>2026-04-19T10:05:48.999Z</time></trkpt><trkpt lat="44.47843897552883" lon="10.526914218472472"><ele>535.0</ele><time>2026-04-19T10:05:50.999Z</time></trkpt><trkpt lat="44.4785083615571" lon="10.526981521991853"><ele>535.0</ele><time>2026-04-19T10:05:52.999Z</time></trkpt><trkpt lat="44.47858271557006" lon="10.527057072554552"><ele>535.0</ele><time>2026-04-19T10:05:54.999Z</time></trkpt><trkpt lat="44.47862759242622" lon="10.527139569256436"><ele>535.0</ele><time>2026-04-19T10:05:56.999Z</time></trkpt><trkpt lat="44.47868428067701" lon="10.527178400381592"><ele>535.0</ele><time>2026-04-19T10:06:12Z</time></trkpt><trkpt lat="44.47876843922157" lon="10.527200131240107"><ele>535.0</ele><time>2026-04-19T10:06:15Z</time></trkpt><trkpt lat="44.47882201398844" lon="10.527279952350458"><ele>539.4</ele><time>2026-04-19T10:06:17Z</time></trkpt><trkpt lat="44.47888705106583" lon="10.527333651579283"><ele>543.8</ele><time>2026-04-19T10:06:19Z</time></trkpt><trkpt lat="44.47898866158829" lon="10.527376176278867"><ele>548.2</ele><time>2026-04-19T10:06:22Z</time></trkpt><trkpt lat="44.47911871042618" lon="10.52739453681291"><ele>552.6</ele><time>2026-04-19T10:06:24Z</time></trkpt><trkpt lat="44.47922335298531" lon="10.527423078740501"><ele>557.0</ele><time>2026-04-19T10:06:26Z</time></trkpt><trkpt lat="44.47929622230774" lon="10.527437520348753"><ele>557.0</ele><time>2026-04-19T10:06:28Z</time></trkpt><trkpt lat="44.479391315448524" lon="10.527431887640473"><ele>557.0</ele><time>2026-04-19T10:06:30Z</time></trkpt><trkpt lat="44.47945962444172" lon="10.527420206150868"><ele>557.0</ele><time>2026-04-19T10:06:32Z</time></trkpt><trkpt lat="44.47938256695871" lon="10.527295600045509"><ele>557.0</ele><time>2026-04-19T10:06:36Z</time></trkpt><trkpt lat="44.479298314872636" lon="10.527330655660567"><ele>557.0</ele><time>2026-04-19T10:06:38Z</time></trkpt><trkpt lat="44.47926891952075" lon="10.527248723685341"><ele>557.0</ele><time>2026-04-19T10:06:42Z</time></trkpt><trkpt lat="44.479238919250875" lon="10.527136535537165"><ele>557.0</ele><time>2026-04-19T10:06:45Z</time></trkpt><trkpt lat="44.479217858708154" lon="10.527042210233999"><ele>557.0</ele><time>2026-04-19T10:06:47Z</time></trkpt><trkpt lat="44.47916743195982" lon="10.526984952386748"><ele>557.0</ele><time>2026-04-19T10:07:08Z</time></trkpt><trkpt lat="44.47915141981395" lon="10.527073934474545"><ele>557.0</ele><time>2026-04-19T10:07:18Z</time></trkpt><trkpt lat="44.479214178181266" lon="10.527082995012254"><ele>557.0</ele><time>2026-04-19T10:07:23.999Z</time></trkpt><trkpt lat="44.47922953755255" lon="10.527182753704869"><ele>557.0</ele><time>2026-04-19T10:07:25.999Z</time></trkpt><trkpt lat="44.479268746805126" lon="10.527277357792563"><ele>557.0</ele><time>2026-04-19T10:07:28.999Z</time></trkpt><trkpt lat="44.47928636973413" lon="10.52737235265038"><ele>557.0</ele><time>2026-04-19T10:07:32.999Z</time></trkpt><trkpt lat="44.47921140859245" lon="10.527411079645097"><ele>557.0</ele><time>2026-04-19T10:07:38.999Z</time></trkpt><trkpt lat="44.47910526831859" lon="10.527429736118064"><ele>557.0</ele><time>2026-04-19T10:07:40.999Z</time></trkpt><trkpt lat="44.479009152780755" lon="10.527400494955998"><ele>557.0</ele><time>2026-04-19T10:07:41.999Z</time></trkpt><trkpt lat="44.478917451146984" lon="10.527368053328901"><ele>557.0</ele><time>2026-04-19T10:07:42.999Z</time></trkpt><trkpt lat="44.47882703392462" lon="10.527285146215393"><ele>554.0</ele><time>2026-04-19T10:07:44.999Z</time></trkpt><trkpt lat="44.47873437742054" lon="10.527198178518177"><ele>551.0</ele><time>2026-04-19T10:07:46.999Z</time></trkpt><trkpt lat="44.47866053104571" lon="10.527166435859257"><ele>548.0</ele><time>2026-04-19T10:07:47.999Z</time></trkpt><trkpt lat="44.47857452801592" lon="10.527100211784042"><ele>545.0</ele><time>2026-04-19T10:07:48.999Z</time></trkpt><trkpt lat="44.478512829698914" lon="10.527008845990537"><ele>542.0</ele><time>2026-04-19T10:07:49.999Z</time></trkpt><trkpt lat="44.4784892914406" lon="10.52692268089924"><ele>539.0</ele><time>2026-04-19T10:07:50.999Z</time></trkpt><trkpt lat="44.4783957079891" lon="10.526856500138532"><ele>538.3333333333333</ele><time>2026-04-19T10:07:52.999Z</time></trkpt><trkpt lat="44.47832433669392" lon="10.52677887865435"><ele>537.6666666666666</ele><time>2026-04-19T10:07:55.999Z</time></trkpt><trkpt lat="44.47827219173138" lon="10.52672119285111"><ele>537.0</ele><time>2026-04-19T10:07:59.999Z</time></trkpt><trkpt lat="44.47819046160146" lon="10.526645093984065"><ele>536.3333333333334</ele><time>2026-04-19T10:08:02.999Z</time></trkpt><trkpt lat="44.478136225824905" lon="10.526583647363097"><ele>535.6666666666667</ele><time>2026-04-19T10:08:03.999Z</time></trkpt><trkpt lat="44.47806555199065" lon="10.526527245670014"><ele>535.0</ele><time>2026-04-19T10:08:04.999Z</time></trkpt><trkpt lat="44.47796546313423" lon="10.526409965035159"><ele>531.75</ele><time>2026-04-19T10:08:06.999Z</time></trkpt><trkpt lat="44.47788268291413" lon="10.526282143343076"><ele>528.5</ele><time>2026-04-19T10:08:09Z</time></trkpt><trkpt lat="44.4778110523895" lon="10.526172601642992"><ele>525.25</ele><time>2026-04-19T10:08:11Z</time></trkpt><trkpt lat="44.47767794337376" lon="10.526128703320534"><ele>522.0</ele><time>2026-04-19T10:08:13Z</time></trkpt><trkpt lat="44.47758787757952" lon="10.526127090691608"><ele>520.5</ele><time>2026-04-19T10:08:14Z</time></trkpt><trkpt lat="44.47751636113608" lon="10.526134131726034"><ele>519.0</ele><time>2026-04-19T10:08:15Z</time></trkpt><trkpt lat="44.47741647340552" lon="10.526133851231647"><ele>517.5</ele><time>2026-04-19T10:08:16Z</time></trkpt><trkpt lat="44.47731652550385" lon="10.526129257482188"><ele>516.0</ele><time>2026-04-19T10:08:17Z</time></trkpt><trkpt lat="44.477248668210166" lon="10.526108464295827"><ele>514.5</ele><time>2026-04-19T10:08:18Z</time></trkpt><trkpt lat="44.47716120584402" lon="10.526058837264355"><ele>513.0</ele><time>2026-04-19T10:08:19Z</time></trkpt><trkpt lat="44.47709284470544" lon="10.526002056325469"><ele>511.4</ele><time>2026-04-19T10:08:20Z</time></trkpt><trkpt lat="44.47702970047092" lon="10.526048716539314"><ele>509.79999999999995</ele><time>2026-04-19T10:08:22Z</time></trkpt><trkpt lat="44.47698600859848" lon="10.526131263096898"><ele>508.2</ele><time>2026-04-19T10:08:23Z</time></trkpt><trkpt lat="44.47692236773642" lon="10.526233787545147"><ele>506.6</ele><time>2026-04-19T10:08:24Z</time></trkpt><trkpt lat="44.47682989119008" lon="10.526321633550744"><ele>505.0</ele><time>2026-04-19T10:08:25Z</time></trkpt><trkpt lat="44.47671617382019" lon="10.526344853376225"><ele>505.00000000000006</ele><time>2026-04-19T10:08:26Z</time></trkpt><trkpt lat="44.47659406144461" lon="10.526320944072985"><ele>505.0</ele><time>2026-04-19T10:08:27Z</time></trkpt><trkpt lat="44.476496449431586" lon="10.526302279647286"><ele>505.0</ele><time>2026-04-19T10:08:28Z</time></trkpt><trkpt lat="44.47642286218527" lon="10.526333051171706"><ele>505.0</ele><time>2026-04-19T10:08:29Z</time></trkpt><trkpt lat="44.47637363512537" lon="10.526388224894298"><ele>505.00000000000006</ele><time>2026-04-19T10:08:31Z</time></trkpt><trkpt lat="44.476433768164306" lon="10.52644815217979"><ele>505.0</ele><time>2026-04-19T10:08:35Z</time></trkpt><trkpt lat="44.47650442347062" lon="10.52643467184426"><ele>505.00000000000006</ele><time>2026-04-19T10:08:37Z</time></trkpt><trkpt lat="44.47652983617801" lon="10.526519402752413"><ele>505.0</ele><time>2026-04-19T10:08:41Z</time></trkpt><trkpt lat="44.476624786697165" lon="10.526434285353973"><ele>505.0</ele><time>2026-04-19T10:08:45Z</time></trkpt><trkpt lat="44.47668129260499" lon="10.526382193792239"><ele>505.0</ele><time>2026-04-19T10:08:46Z</time></trkpt><trkpt lat="44.47677552052438" lon="10.52635573551522"><ele>505.00000000000006</ele><time>2026-04-19T10:08:48Z</time></trkpt><trkpt lat="44.47685746326437" lon="10.526371078539617"><ele>505.0</ele><time>2026-04-19T10:08:50Z</time></trkpt><trkpt lat="44.47695139325346" lon="10.526349076552265"><ele>505.00000000000006</ele><time>2026-04-19T10:08:52Z</time></trkpt><trkpt lat="44.47703771870937" lon="10.5263760502191"><ele>505.0</ele><time>2026-04-19T10:08:54Z</time></trkpt><trkpt lat="44.477117225781626" lon="10.526370758226266"><ele>505.0</ele><time>2026-04-19T10:08:56Z</time></trkpt><trkpt lat="44.477232135265666" lon="10.526407308252747"><ele>505.0</ele><time>2026-04-19T10:08:58Z</time></trkpt><trkpt lat="44.477270141660384" lon="10.52648056093898"><ele>505.00000000000006</ele><time>2026-04-19T10:09:00Z</time></trkpt><trkpt lat="44.47727179950367" lon="10.526589708006712"><ele>505.0</ele><time>2026-04-19T10:09:02Z</time></trkpt><trkpt lat="44.477264646263876" lon="10.526693408903643"><ele>505.00000000000006</ele><time>2026-04-19T10:09:03Z</time></trkpt><trkpt lat="44.47724209392509" lon="10.526810162496014"><ele>505.0</ele><time>2026-04-19T10:09:04Z</time></trkpt><trkpt lat="44.477202383346224" lon="10.526898529995242"><ele>505.0</ele><time>2026-04-19T10:09:05Z</time></trkpt><trkpt lat="44.47713914313702" lon="10.526978550674345"><ele>505.0</ele><time>2026-04-19T10:09:06Z</time></trkpt><trkpt lat="44.4770836854038" lon="10.527067735760598"><ele>505.00000000000006</ele><time>2026-04-19T10:09:07Z</time></trkpt><trkpt lat="44.477057661365684" lon="10.527162140678355"><ele>505.0</ele><time>2026-04-19T10:09:08Z</time></trkpt><trkpt lat="44.477051376416846" lon="10.52730746276958"><ele>505.0</ele><time>2026-04-19T10:09:10Z</time></trkpt><trkpt lat="44.47705723079173" lon="10.527516486589779"><ele>505.0</ele><time>2026-04-19T10:09:12Z</time></trkpt><trkpt lat="44.477059135503985" lon="10.527650175466963"><ele>505.0</ele><time>2026-04-19T10:09:13Z</time></trkpt><trkpt lat="44.477045255096876" lon="10.527752866031966"><ele>505.0</ele><time>2026-04-19T10:09:14Z</time></trkpt><trkpt lat="44.47700874490199" lon="10.527847767230535"><ele>505.0</ele><time>2026-04-19T10:09:15Z</time></trkpt><trkpt lat="44.47694598377089" lon="10.527903807811485"><ele>507.25</ele><time>2026-04-19T10:09:17Z</time></trkpt><trkpt lat="44.47700675630393" lon="10.528197390560512"><ele>509.5</ele><time>2026-04-19T10:09:20Z</time></trkpt><trkpt lat="44.47705420003853" lon="10.528304387714975"><ele>511.75</ele><time>2026-04-19T10:09:21Z</time></trkpt><trkpt lat="44.47710048551474" lon="10.528418983575623"><ele>514.0</ele><time>2026-04-19T10:09:22Z</time></trkpt><trkpt lat="44.47713403645389" lon="10.528553157462149"><ele>514.0</ele><time>2026-04-19T10:09:22.999Z</time></trkpt><trkpt lat="44.47706459139938" lon="10.528671911698805"><ele>514.0</ele><time>2026-04-19T10:09:24.999Z</time></trkpt><trkpt lat="44.47700483629153" lon="10.52872331216384"><ele>514.0</ele><time>2026-04-19T10:09:25.999Z</time></trkpt><trkpt lat="44.476940245895015" lon="10.528773859597237"><ele>514.0</ele><time>2026-04-19T10:09:26.999Z</time></trkpt><trkpt lat="44.47688063129241" lon="10.52881549560995"><ele>514.0</ele><time>2026-04-19T10:09:27.999Z</time></trkpt><trkpt lat="44.47687231473604" lon="10.52892074811634"><ele>514.0</ele><time>2026-04-19T10:09:30.999Z</time></trkpt><trkpt lat="44.47696960161719" lon="10.528935532120117"><ele>513.6</ele><time>2026-04-19T10:09:32.999Z</time></trkpt><trkpt lat="44.47705349674795" lon="10.528918608959406"><ele>513.2</ele><time>2026-04-19T10:09:33.999Z</time></trkpt><trkpt lat="44.47713333577689" lon="10.528859837193263"><ele>512.8000000000001</ele><time>2026-04-19T10:09:34.999Z</time></trkpt><trkpt lat="44.47722275227364" lon="10.528821683144557"><ele>512.4</ele><time>2026-04-19T10:09:35.999Z</time></trkpt><trkpt lat="44.47731934546057" lon="10.52876822263983"><ele>512.0</ele><time>2026-04-19T10:09:36.999Z</time></trkpt><trkpt lat="44.4773934006279" lon="10.528716916063695"><ele>514.8000000000001</ele><time>2026-04-19T10:09:37.999Z</time></trkpt><trkpt lat="44.47747117527081" lon="10.528723698826518"><ele>517.6</ele><time>2026-04-19T10:09:39.999Z</time></trkpt><trkpt lat="44.47758858706384" lon="10.5287734174124"><ele>520.4000000000001</ele><time>2026-04-19T10:09:40.999Z</time></trkpt><trkpt lat="44.47772104571941" lon="10.528814375815934"><ele>523.2</ele><time>2026-04-19T10:09:41.999Z</time></trkpt><trkpt lat="44.47782374964821" lon="10.528820819397096"><ele>526.0</ele><time>2026-04-19T10:09:42.999Z</time></trkpt><trkpt lat="44.47790939229012" lon="10.528784468809762"><ele>528.6</ele><time>2026-04-19T10:09:43.999Z</time></trkpt><trkpt lat="44.47801358046106" lon="10.528735940058034"><ele>531.2</ele><time>2026-04-19T10:09:44.999Z</time></trkpt><trkpt lat="44.47809939989661" lon="10.528728383466508"><ele>533.8</ele><time>2026-04-19T10:09:45.999Z</time></trkpt><trkpt lat="44.47817138022428" lon="10.528867741122376"><ele>536.4</ele><time>2026-04-19T10:09:47.999Z</time></trkpt><trkpt lat="44.47821233310711" lon="10.528964531706395"><ele>539.0</ele><time>2026-04-19T10:09:48.999Z</time></trkpt><trkpt lat="44.47830788518502" lon="10.529023729850854"><ele>539.0</ele><time>2026-04-19T10:09:50.999Z</time></trkpt><trkpt lat="44.47837157935144" lon="10.52894018658249"><ele>539.0</ele><time>2026-04-19T10:09:52.999Z</time></trkpt><trkpt lat="44.47845889369157" lon="10.529062207650416"><ele>539.0</ele><time>2026-04-19T10:09:54.999Z</time></trkpt><trkpt lat="44.47851993704802" lon="10.529126767009807"><ele>539.0</ele><time>2026-04-19T10:09:55.999Z</time></trkpt><trkpt lat="44.47860502706576" lon="10.529153648938383"><ele>539.0</ele><time>2026-04-19T10:09:56.999Z</time></trkpt><trkpt lat="44.478697532891516" lon="10.529173678097255"><ele>541.0</ele><time>2026-04-19T10:09:57.999Z</time></trkpt><trkpt lat="44.47878758345164" lon="10.529166019190766"><ele>543.0</ele><time>2026-04-19T10:09:58.999Z</time></trkpt><trkpt lat="44.47886478387432" lon="10.529138703346014"><ele>545.0</ele><time>2026-04-19T10:09:59.999Z</time></trkpt><trkpt lat="44.478954384582366" lon="10.529074226576459"><ele>547.0</ele><time>2026-04-19T10:10:00.999Z</time></trkpt><trkpt lat="44.47903006061421" lon="10.529040057838372"><ele>549.0</ele><time>2026-04-19T10:10:01.999Z</time></trkpt><trkpt lat="44.47910203574824" lon="10.529046684676194"><ele>551.0</ele><time>2026-04-19T10:10:02.999Z</time></trkpt><trkpt lat="44.47920136230592" lon="10.528980361179427"><ele>551.0</ele><time>2026-04-19T10:10:04.999Z</time></trkpt><trkpt lat="44.479250451122326" lon="10.528875222777243"><ele>551.0</ele><time>2026-04-19T10:10:05.999Z</time></trkpt><trkpt lat="44.47930265926718" lon="10.528772059939783"><ele>551.0</ele><time>2026-04-19T10:10:06.999Z</time></trkpt><trkpt lat="44.47934891827" lon="10.528709101692954"><ele>551.0</ele><time>2026-04-19T10:10:07.999Z</time></trkpt><trkpt lat="44.479413344864234" lon="10.528684179502577"><ele>551.0</ele><time>2026-04-19T10:10:08.999Z</time></trkpt><trkpt lat="44.47948071362816" lon="10.52863947710584"><ele>551.0</ele><time>2026-04-19T10:10:09.999Z</time></trkpt><trkpt lat="44.479559346940604" lon="10.528540924134045"><ele>555.0</ele><time>2026-04-19T10:10:10.999Z</time></trkpt><trkpt lat="44.479646953614825" lon="10.528442832403547"><ele>559.0</ele><time>2026-04-19T10:10:11.999Z</time></trkpt><trkpt lat="44.479758999951784" lon="10.528347534323297"><ele>563.0</ele><time>2026-04-19T10:10:12.999Z</time></trkpt><trkpt lat="44.47988263414754" lon="10.528238002341155"><ele>567.0</ele><time>2026-04-19T10:10:14Z</time></trkpt><trkpt lat="44.479993205067295" lon="10.52817302284281"><ele>567.0</ele><time>2026-04-19T10:10:15Z</time></trkpt><trkpt lat="44.48009486597429" lon="10.528149694875776"><ele>567.0</ele><time>2026-04-19T10:10:16Z</time></trkpt><trkpt lat="44.48020370082851" lon="10.528115411485256"><ele>567.0</ele><time>2026-04-19T10:10:17Z</time></trkpt><trkpt lat="44.480317063044026" lon="10.528042572216682"><ele>567.0</ele><time>2026-04-19T10:10:18Z</time></trkpt><trkpt lat="44.480412084860816" lon="10.527945425795854"><ele>569.6</ele><time>2026-04-19T10:10:19Z</time></trkpt><trkpt lat="44.4805010294268" lon="10.527857373955019"><ele>572.2</ele><time>2026-04-19T10:10:20Z</time></trkpt><trkpt lat="44.48058391129536" lon="10.527761635972452"><ele>574.8</ele><time>2026-04-19T10:10:21Z</time></trkpt><trkpt lat="44.48067532200277" lon="10.527698969992263"><ele>577.4</ele><time>2026-04-19T10:10:22Z</time></trkpt><trkpt lat="44.480749759102984" lon="10.527655792168725"><ele>580.0</ele><time>2026-04-19T10:10:23Z</time></trkpt><trkpt lat="44.48084446108441" lon="10.52761177564142"><ele>580.0</ele><time>2026-04-19T10:10:24Z</time></trkpt><trkpt lat="44.48093609762067" lon="10.527570981890722"><ele>580.0</ele><time>2026-04-19T10:10:25Z</time></trkpt><trkpt lat="44.48100746864494" lon="10.52757851573134"><ele>580.0</ele><time>2026-04-19T10:10:46Z</time></trkpt><trkpt lat="44.48110765588468" lon="10.52753056736457"><ele>580.0</ele><time>2026-04-19T10:10:48Z</time></trkpt><trkpt lat="44.48121907982735" lon="10.527537416678513"><ele>580.0</ele><time>2026-04-19T10:10:50Z</time></trkpt><trkpt lat="44.4812353803462" lon="10.527628484293116"><ele>582.5</ele><time>2026-04-19T10:10:52Z</time></trkpt><trkpt lat="44.481267558916045" lon="10.527777221739724"><ele>585.0</ele><time>2026-04-19T10:10:54Z</time></trkpt><trkpt lat="44.48130157032225" lon="10.527884288058093"><ele>587.5</ele><time>2026-04-19T10:10:55Z</time></trkpt><trkpt lat="44.48134225230664" lon="10.527971618333067"><ele>590.0</ele><time>2026-04-19T10:10:56Z</time></trkpt><trkpt lat="44.481376645001106" lon="10.528083982535598"><ele>592.5</ele><time>2026-04-19T10:10:58Z</time></trkpt><trkpt lat="44.481378397113225" lon="10.528178839756752"><ele>595.0</ele><time>2026-04-19T10:10:59Z</time></trkpt><trkpt lat="44.481369631688636" lon="10.528275812949781"><ele>595.0</ele><time>2026-04-19T10:11:00Z</time></trkpt><trkpt lat="44.48132082533138" lon="10.528379563459204"><ele>595.0</ele><time>2026-04-19T10:11:01Z</time></trkpt><trkpt lat="44.48127042674196" lon="10.528503474723692"><ele>595.0</ele><time>2026-04-19T10:11:02Z</time></trkpt><trkpt lat="44.48124508514266" lon="10.528683649222232"><ele>595.0</ele><time>2026-04-19T10:11:04Z</time></trkpt><trkpt lat="44.48120551441671" lon="10.52876190894305"><ele>595.0</ele><time>2026-04-19T10:11:05Z</time></trkpt><trkpt lat="44.48114917955418" lon="10.528867055130142"><ele>594.0</ele><time>2026-04-19T10:11:06Z</time></trkpt><trkpt lat="44.481107998144765" lon="10.528954382299654"><ele>593.0</ele><time>2026-04-19T10:11:07Z</time></trkpt><trkpt lat="44.48105437410423" lon="10.529124226026706"><ele>592.0</ele><time>2026-04-19T10:11:09Z</time></trkpt><trkpt lat="44.48102025548253" lon="10.529266895612796"><ele>591.0</ele><time>2026-04-19T10:11:10Z</time></trkpt><trkpt lat="44.48098859586329" lon="10.529403921523343"><ele>590.0</ele><time>2026-04-19T10:11:11Z</time></trkpt><trkpt lat="44.48096038753216" lon="10.52953033490456"><ele>589.6</ele><time>2026-04-19T10:11:12Z</time></trkpt><trkpt lat="44.480925996102705" lon="10.529610815598918"><ele>589.2</ele><time>2026-04-19T10:11:13Z</time></trkpt><trkpt lat="44.48085605761969" lon="10.529723282527769"><ele>588.8</ele><time>2026-04-19T10:11:14Z</time></trkpt><trkpt lat="44.480772987231575" lon="10.529840620844654"><ele>588.4</ele><time>2026-04-19T10:11:15Z</time></trkpt><trkpt lat="44.48071355480987" lon="10.529941103629785"><ele>588.0</ele><time>2026-04-19T10:11:16Z</time></trkpt><trkpt lat="44.48065836384376" lon="10.530035418506136"><ele>588.0</ele><time>2026-04-19T10:11:17Z</time></trkpt><trkpt lat="44.48059970228732" lon="10.530131588830331"><ele>588.0</ele><time>2026-04-19T10:11:18Z</time></trkpt><trkpt lat="44.480535708017406" lon="10.530222972219992"><ele>588.0</ele><time>2026-04-19T10:11:19Z</time></trkpt><trkpt lat="44.480479401798206" lon="10.530306670148997"><ele>588.0</ele><time>2026-04-19T10:11:20Z</time></trkpt><trkpt lat="44.480428947925695" lon="10.530411692919074"><ele>588.0</ele><time>2026-04-19T10:11:21Z</time></trkpt><trkpt lat="44.48038931345135" lon="10.530522005282442"><ele>588.0</ele><time>2026-04-19T10:11:22Z</time></trkpt><trkpt lat="44.48033810345106" lon="10.530641297554967"><ele>585.0</ele><time>2026-04-19T10:11:23Z</time></trkpt><trkpt lat="44.4802570266733" lon="10.530789802576408"><ele>582.0</ele><time>2026-04-19T10:11:24Z</time></trkpt><trkpt lat="44.480171104611074" lon="10.530906981521884"><ele>579.0</ele><time>2026-04-19T10:11:25Z</time></trkpt><trkpt lat="44.480089858425906" lon="10.53099088404175"><ele>576.0</ele><time>2026-04-19T10:11:26Z</time></trkpt><trkpt lat="44.479992860171144" lon="10.53104421305716"><ele>576.0</ele><time>2026-04-19T10:11:26.999Z</time></trkpt><trkpt lat="44.47988682512279" lon="10.531067163949647"><ele>576.0</ele><time>2026-04-19T10:11:27.999Z</time></trkpt><trkpt lat="44.47981527501871" lon="10.531075852741687"><ele>576.0</ele><time>2026-04-19T10:11:28.999Z</time></trkpt><trkpt lat="44.47975016966285" lon="10.531144081632945"><ele>576.0</ele><time>2026-04-19T10:11:29.999Z</time></trkpt><trkpt lat="44.47968855027606" lon="10.531250354085786"><ele>576.0</ele><time>2026-04-19T10:11:30.999Z</time></trkpt><trkpt lat="44.47961638384794" lon="10.531372892429697"><ele>576.2</ele><time>2026-04-19T10:11:31.999Z</time></trkpt><trkpt lat="44.47952425135136" lon="10.531468640791665"><ele>576.4000000000001</ele><time>2026-04-19T10:11:32.999Z</time></trkpt><trkpt lat="44.479427386782575" lon="10.531534561891426"><ele>576.6</ele><time>2026-04-19T10:11:33.999Z</time></trkpt><trkpt lat="44.479346962676274" lon="10.531632216488644"><ele>576.8000000000001</ele><time>2026-04-19T10:11:34.999Z</time></trkpt><trkpt lat="44.47924676206823" lon="10.5316789820307"><ele>577.0</ele><time>2026-04-19T10:11:35.999Z</time></trkpt><trkpt lat="44.47911562616448" lon="10.531690728086867"><ele>577.0</ele><time>2026-04-19T10:11:36.999Z</time></trkpt><trkpt lat="44.47898995981523" lon="10.53171312667715"><ele>577.0</ele><time>2026-04-19T10:11:37.999Z</time></trkpt><trkpt lat="44.47890938112742" lon="10.531778451360948"><ele>577.0</ele><time>2026-04-19T10:11:39.999Z</time></trkpt><trkpt lat="44.47891369528744" lon="10.53188501294742"><ele>577.0</ele><time>2026-04-19T10:11:40.999Z</time></trkpt><trkpt lat="44.4788964348405" lon="10.532026329432263"><ele>577.0</ele><time>2026-04-19T10:11:41.999Z</time></trkpt><trkpt lat="44.478790241010635" lon="10.532158044701436"><ele>574.6</ele><time>2026-04-19T10:11:43.999Z</time></trkpt><trkpt lat="44.47867089688677" lon="10.53225006387424"><ele>572.2</ele><time>2026-04-19T10:11:44.999Z</time></trkpt><trkpt lat="44.478581986673795" lon="10.532309846643699"><ele>569.8</ele><time>2026-04-19T10:11:45.999Z</time></trkpt><trkpt lat="44.47854560749515" lon="10.532393478386366"><ele>567.4</ele><time>2026-04-19T10:11:46.999Z</time></trkpt><trkpt lat="44.47849339657597" lon="10.53246337492156"><ele>565.0</ele><time>2026-04-19T10:11:47.999Z</time></trkpt><trkpt lat="44.478447083390925" lon="10.532551680106955"><ele>565.0</ele><time>2026-04-19T10:11:48.999Z</time></trkpt><trkpt lat="44.47836735022974" lon="10.53258003977463"><ele>565.0</ele><time>2026-04-19T10:11:49.999Z</time></trkpt><trkpt lat="44.478298935242826" lon="10.532682834332851"><ele>565.0</ele><time>2026-04-19T10:11:50.999Z</time></trkpt><trkpt lat="44.4782147540211" lon="10.53273368533448"><ele>565.0</ele><time>2026-04-19T10:11:51.999Z</time></trkpt><trkpt lat="44.47811279842663" lon="10.532756058347623"><ele>565.0</ele><time>2026-04-19T10:11:52.999Z</time></trkpt><trkpt lat="44.47800922713802" lon="10.532801564275386"><ele>562.5</ele><time>2026-04-19T10:11:53.999Z</time></trkpt><trkpt lat="44.47791956093963" lon="10.532883295198447"><ele>560.0</ele><time>2026-04-19T10:11:54.999Z</time></trkpt><trkpt lat="44.477797011998966" lon="10.532961764409745"><ele>557.5</ele><time>2026-04-19T10:11:55.999Z</time></trkpt><trkpt lat="44.47768446340271" lon="10.533021962756509"><ele>555.0</ele><time>2026-04-19T10:11:56.999Z</time></trkpt><trkpt lat="44.47759653890489" lon="10.533082620593191"><ele>555.0</ele><time>2026-04-19T10:11:57.999Z</time></trkpt><trkpt lat="44.47753894683488" lon="10.533120559459842"><ele>555.0</ele><time>2026-04-19T10:11:58.999Z</time></trkpt><trkpt lat="44.47746811068586" lon="10.533122132740703"><ele>555.0</ele><time>2026-04-19T10:12:20Z</time></trkpt><trkpt lat="44.477401860833" lon="10.53304247851779"><ele>555.0</ele><time>2026-04-19T10:12:22Z</time></trkpt><trkpt lat="44.47730623350322" lon="10.532953963684816"><ele>555.0</ele><time>2026-04-19T10:12:24Z</time></trkpt><trkpt lat="44.4772311687994" lon="10.532955165598315"><ele>555.0</ele><time>2026-04-19T10:12:25Z</time></trkpt><trkpt lat="44.47715888094087" lon="10.532987670066749"><ele>550.6</ele><time>2026-04-19T10:12:26Z</time></trkpt><trkpt lat="44.47707541873896" lon="10.532968756368412"><ele>546.2</ele><time>2026-04-19T10:12:27Z</time></trkpt><trkpt lat="44.4769799551248" lon="10.532944147718451"><ele>541.8</ele><time>2026-04-19T10:12:29Z</time></trkpt><trkpt lat="44.476876534979525" lon="10.532871034830052"><ele>537.4</ele><time>2026-04-19T10:12:31Z</time></trkpt><trkpt lat="44.476818325037314" lon="10.532797074659355"><ele>533.0</ele><time>2026-04-19T10:12:32Z</time></trkpt><trkpt lat="44.47674797500544" lon="10.532745279174572"><ele>533.0</ele><time>2026-04-19T10:12:34Z</time></trkpt><trkpt lat="44.476674689854214" lon="10.532745434037011"><ele>533.0</ele><time>2026-04-19T10:12:37Z</time></trkpt><trkpt lat="44.476610868242766" lon="10.532792620587589"><ele>533.0</ele><time>2026-04-19T10:12:40Z</time></trkpt><trkpt lat="44.4764656693675" lon="10.532896622122452"><ele>533.0</ele><time>2026-04-19T10:12:43Z</time></trkpt><trkpt lat="44.476346995928466" lon="10.533001487268375"><ele>533.0</ele><time>2026-04-19T10:12:44Z</time></trkpt><trkpt lat="44.476277625236" lon="10.53309640798095"><ele>530.1666666666666</ele><time>2026-04-19T10:12:45Z</time></trkpt><trkpt lat="44.47623143019297" lon="10.53317438741044"><ele>527.3333333333333</ele><time>2026-04-19T10:12:46Z</time></trkpt><trkpt lat="44.47617034202613" lon="10.533230801967973"><ele>524.5</ele><time>2026-04-19T10:12:47Z</time></trkpt><trkpt lat="44.47609027202981" lon="10.533207415383526"><ele>521.6666666666666</ele><time>2026-04-19T10:12:50Z</time></trkpt><trkpt lat="44.4759977217345" lon="10.533220491494223"><ele>518.8333333333334</ele><time>2026-04-19T10:12:52Z</time></trkpt><trkpt lat="44.47590387024387" lon="10.533161493007762"><ele>516.0</ele><time>2026-04-19T10:12:54Z</time></trkpt><trkpt lat="44.475845293670424" lon="10.53319515616381"><ele>516.0</ele><time>2026-04-19T10:12:56Z</time></trkpt><trkpt lat="44.47575830776634" lon="10.533199686543146"><ele>516.0</ele><time>2026-04-19T10:12:59Z</time></trkpt><trkpt lat="44.475692511169" lon="10.533261633764418"><ele>516.0</ele><time>2026-04-19T10:13:01Z</time></trkpt><trkpt lat="44.4755339301639" lon="10.5332922999697"><ele>516.0</ele><time>2026-04-19T10:13:03Z</time></trkpt><trkpt lat="44.475463593991535" lon="10.533318088583304"><ele>516.0</ele><time>2026-04-19T10:13:05Z</time></trkpt><trkpt lat="44.47536408672543" lon="10.533349561713152"><ele>513.4</ele><time>2026-04-19T10:13:07Z</time></trkpt><trkpt lat="44.4752418696407" lon="10.533402571354063"><ele>510.8</ele><time>2026-04-19T10:13:08Z</time></trkpt><trkpt lat="44.47519094364296" lon="10.533335820226656"><ele>508.19999999999993</ele><time>2026-04-19T10:13:11Z</time></trkpt><trkpt lat="44.47512347233292" lon="10.533272130078936"><ele>505.59999999999997</ele><time>2026-04-19T10:13:13Z</time></trkpt><trkpt lat="44.47507074931946" lon="10.533118681828405"><ele>503.0</ele><time>2026-04-19T10:13:15Z</time></trkpt><trkpt lat="44.47512342784475" lon="10.533034554582532"><ele>503.0</ele><time>2026-04-19T10:13:21Z</time></trkpt><trkpt lat="44.47516628784403" lon="10.532918026202367"><ele>502.99999999999994</ele><time>2026-04-19T10:14:24.999Z</time></trkpt><trkpt lat="44.47516047958727" lon="10.532815864198895"><ele>502.99999999999994</ele><time>2026-04-19T10:14:28Z</time></trkpt><trkpt lat="44.47507203481352" lon="10.532701793938958"><ele>503.0</ele><time>2026-04-19T10:14:30Z</time></trkpt><trkpt lat="44.47498307905324" lon="10.53261096256285"><ele>503.0</ele><time>2026-04-19T10:14:31Z</time></trkpt><trkpt lat="44.47488368350797" lon="10.532533793565321"><ele>505.0</ele><time>2026-04-19T10:14:32Z</time></trkpt><trkpt lat="44.47475806345746" lon="10.53244647859512"><ele>507.0</ele><time>2026-04-19T10:14:33Z</time></trkpt><trkpt lat="44.47463557166778" lon="10.532370828524735"><ele>509.0</ele><time>2026-04-19T10:14:34Z</time></trkpt><trkpt lat="44.47457311132221" lon="10.532324445912714"><ele>511.0</ele><time>2026-04-19T10:14:35Z</time></trkpt><trkpt lat="44.4745906452097" lon="10.532092076202556"><ele>513.0</ele><time>2026-04-19T10:14:37Z</time></trkpt><trkpt lat="44.47458572967188" lon="10.531927205498887"><ele>515.0</ele><time>2026-04-19T10:14:38Z</time></trkpt><trkpt lat="44.47455938009799" lon="10.53179589819987"><ele>517.0</ele><time>2026-04-19T10:14:39Z</time></trkpt><trkpt lat="44.47456480327923" lon="10.531704614712307"><ele>519.0</ele><time>2026-04-19T10:14:40Z</time></trkpt><trkpt lat="44.47457196244192" lon="10.531591236135807"><ele>521.0</ele><time>2026-04-19T10:14:41Z</time></trkpt><trkpt lat="44.47460742590807" lon="10.531439387206902"><ele>521.0</ele><time>2026-04-19T10:14:42Z</time></trkpt><trkpt lat="44.474639922447345" lon="10.531280737396862"><ele>521.0</ele><time>2026-04-19T10:14:43Z</time></trkpt><trkpt lat="44.474629943514046" lon="10.531146455962167"><ele>521.0</ele><time>2026-04-19T10:14:44Z</time></trkpt><trkpt lat="44.47460794148676" lon="10.530978254953865"><ele>521.0</ele><time>2026-04-19T10:14:45Z</time></trkpt><trkpt lat="44.47457982130388" lon="10.530832967307273"><ele>521.0</ele><time>2026-04-19T10:14:46Z</time></trkpt><trkpt lat="44.47447904823493" lon="10.530816898603794"><ele>515.8</ele><time>2026-04-19T10:14:48Z</time></trkpt><trkpt lat="44.47446497221145" lon="10.530922604739075"><ele>510.6</ele><time>2026-04-19T10:14:49Z</time></trkpt><trkpt lat="44.47448529826055" lon="10.53103471762844"><ele>505.4</ele><time>2026-04-19T10:14:50Z</time></trkpt><trkpt lat="44.474432087126395" lon="10.531219200222543"><ele>500.2</ele><time>2026-04-19T10:14:52Z</time></trkpt><trkpt lat="44.47438945023606" lon="10.531323150161237"><ele>495.0</ele><time>2026-04-19T10:14:53Z</time></trkpt><trkpt lat="44.47436718112256" lon="10.531475727023226"><ele>495.0</ele><time>2026-04-19T10:14:54Z</time></trkpt><trkpt lat="44.47432947716805" lon="10.53159983957439"><ele>495.0</ele><time>2026-04-19T10:14:55Z</time></trkpt><trkpt lat="44.47427916846315" lon="10.531698198319125"><ele>495.0</ele><time>2026-04-19T10:14:56Z</time></trkpt><trkpt lat="44.47421567526218" lon="10.531821552027981"><ele>495.0</ele><time>2026-04-19T10:14:57Z</time></trkpt><trkpt lat="44.47419922009007" lon="10.531932241142544"><ele>495.0</ele><time>2026-04-19T10:14:58Z</time></trkpt><trkpt lat="44.474191115196504" lon="10.53203904530316"><ele>495.0</ele><time>2026-04-19T10:14:59Z</time></trkpt><trkpt lat="44.4741467400009" lon="10.532123952733743"><ele>495.0</ele><time>2026-04-19T10:15:00Z</time></trkpt><trkpt lat="44.47404729068429" lon="10.532154491887557"><ele>495.0</ele><time>2026-04-19T10:15:01Z</time></trkpt><trkpt lat="44.47391377084303" lon="10.53216525273001"><ele>495.0</ele><time>2026-04-19T10:15:02Z</time></trkpt><trkpt lat="44.47378617320615" lon="10.532189191700317"><ele>495.0</ele><time>2026-04-19T10:15:03Z</time></trkpt><trkpt lat="44.47365141278539" lon="10.532184094371308"><ele>492.2</ele><time>2026-04-19T10:15:04Z</time></trkpt><trkpt lat="44.47353276143022" lon="10.532136702017153"><ele>489.4</ele><time>2026-04-19T10:15:05Z</time></trkpt><trkpt lat="44.47342970210231" lon="10.532128290749672"><ele>486.6</ele><time>2026-04-19T10:15:06Z</time></trkpt><trkpt lat="44.47335396631536" lon="10.532147316986153"><ele>483.8</ele><time>2026-04-19T10:15:07Z</time></trkpt><trkpt lat="44.473241386106004" lon="10.532178008416878"><ele>481.0</ele><time>2026-04-19T10:15:09Z</time></trkpt><trkpt lat="44.47325560509484" lon="10.532283915625811"><ele>481.00000000000006</ele><time>2026-04-19T10:15:22Z</time></trkpt><trkpt lat="44.473348882335216" lon="10.532414011784136"><ele>481.0</ele><time>2026-04-19T10:15:24Z</time></trkpt><trkpt lat="44.473372404705366" lon="10.532532145429887"><ele>481.0</ele><time>2026-04-19T10:15:25Z</time></trkpt><trkpt lat="44.473365725644925" lon="10.532633770531683"><ele>481.0</ele><time>2026-04-19T10:15:26Z</time></trkpt><trkpt lat="44.47331414202656" lon="10.532709559739049"><ele>481.00000000000006</ele><time>2026-04-19T10:15:27Z</time></trkpt><trkpt lat="44.47325355277235" lon="10.532763040637315"><ele>481.0</ele><time>2026-04-19T10:15:28Z</time></trkpt><trkpt lat="44.473235495602445" lon="10.532962336120953"><ele>480.25</ele><time>2026-04-19T10:15:29.999Z</time></trkpt><trkpt lat="44.47325668197191" lon="10.533053344488525"><ele>479.5</ele><time>2026-04-19T10:15:30.999Z</time></trkpt><trkpt lat="44.47341225095002" lon="10.533120285083392"><ele>478.75</ele><time>2026-04-19T10:15:32.999Z</time></trkpt><trkpt lat="44.47353126209805" lon="10.53315372444756"><ele>478.0</ele><time>2026-04-19T10:15:33.999Z</time></trkpt><trkpt lat="44.47364449640697" lon="10.533188653242659"><ele>478.0</ele><time>2026-04-19T10:15:34.999Z</time></trkpt><trkpt lat="44.47368730339294" lon="10.533255040651541"><ele>477.99999999999994</ele><time>2026-04-19T10:15:35.999Z</time></trkpt><trkpt lat="44.473732725812305" lon="10.533378517003587"><ele>477.99999999999994</ele><time>2026-04-19T10:15:36.999Z</time></trkpt><trkpt lat="44.47376188829499" lon="10.533485562058852"><ele>478.0</ele><time>2026-04-19T10:15:37.999Z</time></trkpt><trkpt lat="44.4736716734304" lon="10.533569703834035"><ele>478.0</ele><time>2026-04-19T10:15:38.999Z</time></trkpt><trkpt lat="44.47353749937123" lon="10.533593731622007"><ele>478.0</ele><time>2026-04-19T10:15:39.999Z</time></trkpt><trkpt lat="44.473378563106905" lon="10.53357553875753"><ele>478.0</ele><time>2026-04-19T10:15:40.999Z</time></trkpt><trkpt lat="44.47321978382537" lon="10.533572921274793"><ele>478.0</ele><time>2026-04-19T10:15:41.999Z</time></trkpt><trkpt lat="44.473096550625144" lon="10.533621530726982"><ele>478.0</ele><time>2026-04-19T10:15:42.999Z</time></trkpt><trkpt lat="44.47302016421045" lon="10.533618001157398"><ele>478.00000000000006</ele><time>2026-04-19T10:15:43.999Z</time></trkpt><trkpt lat="44.47295672524321" lon="10.533713410111329"><ele>478.0</ele><time>2026-04-19T10:15:46.999Z</time></trkpt><trkpt lat="44.47291804198932" lon="10.533791431978894"><ele>478.0</ele><time>2026-04-19T10:15:51.999Z</time></trkpt><trkpt lat="44.472825362259634" lon="10.533815876143715"><ele>478.0</ele><time>2026-04-19T10:15:56.999Z</time></trkpt><trkpt lat="44.47274555158802" lon="10.533808481778827"><ele>478.00000000000006</ele><time>2026-04-19T10:15:57.999Z</time></trkpt><trkpt lat="44.47266347151346" lon="10.53378191189816"><ele>478.0</ele><time>2026-04-19T10:15:58.999Z</time></trkpt><trkpt lat="44.472600669942594" lon="10.53372379086903"><ele>477.2</ele><time>2026-04-19T10:15:59.999Z</time></trkpt><trkpt lat="44.472556815652176" lon="10.5336349192077"><ele>476.4</ele><time>2026-04-19T10:16:00.999Z</time></trkpt><trkpt lat="44.47248860330446" lon="10.53353597760802"><ele>475.59999999999997</ele><time>2026-04-19T10:16:02.999Z</time></trkpt><trkpt lat="44.47241962962891" lon="10.533522500449752"><ele>474.79999999999995</ele><time>2026-04-19T10:16:10.999Z</time></trkpt><trkpt lat="44.47237780643988" lon="10.533689550219973"><ele>474.0</ele><time>2026-04-19T10:16:14.999Z</time></trkpt><trkpt lat="44.47232939358134" lon="10.533838395371333"><ele>474.0</ele><time>2026-04-19T10:16:16.999Z</time></trkpt><trkpt lat="44.47225524600223" lon="10.533953854742638"><ele>474.0</ele><time>2026-04-19T10:16:18.999Z</time></trkpt><trkpt lat="44.47216391618112" lon="10.534045563645893"><ele>474.0</ele><time>2026-04-19T10:16:20.999Z</time></trkpt><trkpt lat="44.47206383317776" lon="10.534146655767012"><ele>474.0</ele><time>2026-04-19T10:16:22.999Z</time></trkpt><trkpt lat="44.47198262143186" lon="10.534200078806723"><ele>474.0</ele><time>2026-04-19T10:16:24.999Z</time></trkpt><trkpt lat="44.471942585144625" lon="10.534125969130901"><ele>471.1666666666667</ele><time>2026-04-19T10:16:27.999Z</time></trkpt><trkpt lat="44.47193693426387" lon="10.534014421142752"><ele>468.33333333333337</ele><time>2026-04-19T10:16:30.999Z</time></trkpt><trkpt lat="44.471857447656525" lon="10.53405402099119"><ele>465.5</ele><time>2026-04-19T10:16:35Z</time></trkpt><trkpt lat="44.4718121697665" lon="10.534128151300774"><ele>462.6666666666667</ele><time>2026-04-19T10:16:36Z</time></trkpt><trkpt lat="44.47175229951845" lon="10.534201624530864"><ele>459.83333333333337</ele><time>2026-04-19T10:16:37Z</time></trkpt><trkpt lat="44.47169470734605" lon="10.534256601909409"><ele>457.0</ele><time>2026-04-19T10:16:38Z</time></trkpt><trkpt lat="44.471634338793244" lon="10.534304515660114"><ele>457.0</ele><time>2026-04-19T10:16:39Z</time></trkpt><trkpt lat="44.471524985293534" lon="10.534342912304483"><ele>457.00000000000006</ele><time>2026-04-19T10:16:41Z</time></trkpt><trkpt lat="44.471453708070776" lon="10.53433777157236"><ele>457.00000000000006</ele><time>2026-04-19T10:16:42Z</time></trkpt><trkpt lat="44.471387930693126" lon="10.534289817104272"><ele>457.0</ele><time>2026-04-19T10:16:43Z</time></trkpt><trkpt lat="44.47133186622743" lon="10.53418144711294"><ele>457.0</ele><time>2026-04-19T10:16:45Z</time></trkpt><trkpt lat="44.47123009513568" lon="10.534128378630864"><ele>455.6666666666667</ele><time>2026-04-19T10:16:47Z</time></trkpt><trkpt lat="44.471165441711754" lon="10.534107653183872"><ele>454.33333333333337</ele><time>2026-04-19T10:16:48Z</time></trkpt><trkpt lat="44.47110216654699" lon="10.534095444423619"><ele>453.0</ele><time>2026-04-19T10:16:49Z</time></trkpt><trkpt lat="44.47099381571997" lon="10.534054035853858"><ele>451.66666666666663</ele><time>2026-04-19T10:16:51Z</time></trkpt><trkpt lat="44.4709380739006" lon="10.534012268659152"><ele>450.3333333333333</ele><time>2026-04-19T10:16:53Z</time></trkpt><trkpt lat="44.470887410714" lon="10.534116495607677"><ele>449.0</ele><time>2026-04-19T10:16:57Z</time></trkpt><trkpt lat="44.470858662208535" lon="10.534212518119594"><ele>449.0</ele><time>2026-04-19T10:17:00Z</time></trkpt></trkseg><trkseg><trkpt lat="44.47091665832272" lon="10.534419840371967"><ele>449.3333333333333</ele><time>2026-04-19T10:31:17Z</time></trkpt><trkpt lat="44.47087738624525" lon="10.534580333464458"><ele>449.66666666666663</ele><time>2026-04-19T10:31:19Z</time></trkpt><trkpt lat="44.470815413030195" lon="10.534614116062729"><ele>450.0</ele><time>2026-04-19T10:31:20Z</time></trkpt><trkpt lat="44.47075181129773" lon="10.534632255804976"><ele>450.33333333333337</ele><time>2026-04-19T10:31:21Z</time></trkpt><trkpt lat="44.4706420696423" lon="10.534651159743882"><ele>450.6666666666667</ele><time>2026-04-19T10:31:23Z</time></trkpt><trkpt lat="44.470564587858206" lon="10.534676241665036"><ele>451.0</ele><time>2026-04-19T10:31:25Z</time></trkpt><trkpt lat="44.47046504324076" lon="10.534711337985424"><ele>453.71428571428567</ele><time>2026-04-19T10:31:28Z</time></trkpt><trkpt lat="44.47041625098428" lon="10.534788369226286"><ele>456.42857142857144</ele><time>2026-04-19T10:31:29Z</time></trkpt><trkpt lat="44.47037929776325" lon="10.534883104601125"><ele>459.1428571428571</ele><time>2026-04-19T10:31:30Z</time></trkpt><trkpt lat="44.47034494998777" lon="10.534962262358567"><ele>461.85714285714283</ele><time>2026-04-19T10:31:31Z</time></trkpt><trkpt lat="44.47030641119959" lon="10.535034065544288"><ele>464.57142857142856</ele><time>2026-04-19T10:31:32Z</time></trkpt><trkpt lat="44.470259569583355" lon="10.535097394733969"><ele>467.2857142857143</ele><time>2026-04-19T10:31:33Z</time></trkpt><trkpt lat="44.47019699604191" lon="10.535151701772765"><ele>470.0</ele><time>2026-04-19T10:31:36Z</time></trkpt><trkpt lat="44.47027052838722" lon="10.53517445221731"><ele>470.0</ele><time>2026-04-19T10:31:38Z</time></trkpt><trkpt lat="44.47031198095494" lon="10.535106655653381"><ele>470.0</ele><time>2026-04-19T10:31:39Z</time></trkpt><trkpt lat="44.47037263778206" lon="10.535065173533757"><ele>470.0</ele><time>2026-04-19T10:31:41Z</time></trkpt><trkpt lat="44.47042704116088" lon="10.535111788472536"><ele>470.0</ele><time>2026-04-19T10:31:49Z</time></trkpt><trkpt lat="44.470477197019264" lon="10.535314432096264"><ele>470.0</ele><time>2026-04-19T10:31:51Z</time></trkpt><trkpt lat="44.47051056328185" lon="10.535455488471218"><ele>465.8</ele><time>2026-04-19T10:31:52Z</time></trkpt><trkpt lat="44.470559325554625" lon="10.535580901755209"><ele>461.6</ele><time>2026-04-19T10:31:53Z</time></trkpt><trkpt lat="44.47062245338139" lon="10.535667851765616"><ele>457.4</ele><time>2026-04-19T10:31:54Z</time></trkpt><trkpt lat="44.470699433544915" lon="10.535718268754481"><ele>453.2</ele><time>2026-04-19T10:31:55Z</time></trkpt><trkpt lat="44.470794392873245" lon="10.535755715145608"><ele>449.0</ele><time>2026-04-19T10:31:56Z</time></trkpt><trkpt lat="44.47089183928715" lon="10.53578486038305"><ele>449.0</ele><time>2026-04-19T10:31:57Z</time></trkpt><trkpt lat="44.470992555136704" lon="10.535814372494311"><ele>449.0</ele><time>2026-04-19T10:31:58Z</time></trkpt><trkpt lat="44.47109947441414" lon="10.535850797025343"><ele>449.0</ele><time>2026-04-19T10:31:59Z</time></trkpt><trkpt lat="44.47121799458361" lon="10.535893082169743"><ele>449.0</ele><time>2026-04-19T10:32:00Z</time></trkpt><trkpt lat="44.471346465489134" lon="10.53593689609507"><ele>451.25</ele><time>2026-04-19T10:32:01Z</time></trkpt><trkpt lat="44.47147208420929" lon="10.535977665197839"><ele>453.5</ele><time>2026-04-19T10:32:02Z</time></trkpt><trkpt lat="44.47160891550239" lon="10.536024125269478"><ele>455.75</ele><time>2026-04-19T10:32:03Z</time></trkpt><trkpt lat="44.4717517852682" lon="10.536069930773412"><ele>458.0</ele><time>2026-04-19T10:32:04Z</time></trkpt><trkpt lat="44.47189551946652" lon="10.536117795376192"><ele>458.0</ele><time>2026-04-19T10:32:05Z</time></trkpt><trkpt lat="44.47203602390307" lon="10.53616766575823"><ele>458.0</ele><time>2026-04-19T10:32:06Z</time></trkpt><trkpt lat="44.47216523465026" lon="10.536211922785146"><ele>458.0</ele><time>2026-04-19T10:32:07Z</time></trkpt><trkpt lat="44.47228017494416" lon="10.536250444491685"><ele>458.0</ele><time>2026-04-19T10:32:08Z</time></trkpt><trkpt lat="44.47239568877183" lon="10.536290986602266"><ele>452.75</ele><time>2026-04-19T10:32:09Z</time></trkpt><trkpt lat="44.47251713836982" lon="10.53633570406564"><ele>447.5</ele><time>2026-04-19T10:32:10Z</time></trkpt><trkpt lat="44.47264138773745" lon="10.536371247851346"><ele>442.25</ele><time>2026-04-19T10:32:11Z</time></trkpt><trkpt lat="44.47275627617588" lon="10.536416659788244"><ele>437.0</ele><time>2026-04-19T10:32:12Z</time></trkpt><trkpt lat="44.47287344449207" lon="10.536479934297407"><ele>442.75</ele><time>2026-04-19T10:32:13Z</time></trkpt><trkpt lat="44.472971883425345" lon="10.536570567489523"><ele>448.5</ele><time>2026-04-19T10:32:14Z</time></trkpt><trkpt lat="44.47306525635497" lon="10.536691760536872"><ele>454.25</ele><time>2026-04-19T10:32:15Z</time></trkpt><trkpt lat="44.47314041255105" lon="10.53684256231066"><ele>460.0</ele><time>2026-04-19T10:32:16Z</time></trkpt><trkpt lat="44.473213855414365" lon="10.536974828115282"><ele>455.5</ele><time>2026-04-19T10:32:17Z</time></trkpt><trkpt lat="44.47327685768544" lon="10.5371203909745"><ele>451.0</ele><time>2026-04-19T10:32:18Z</time></trkpt><trkpt lat="44.47332045325565" lon="10.53727192765277"><ele>446.5</ele><time>2026-04-19T10:32:19Z</time></trkpt><trkpt lat="44.47333598260112" lon="10.537438766813938"><ele>442.0</ele><time>2026-04-19T10:32:20Z</time></trkpt><trkpt lat="44.47332829773035" lon="10.537608571624139"><ele>442.0</ele><time>2026-04-19T10:32:21Z</time></trkpt><trkpt lat="44.473311104578144" lon="10.537785599876134"><ele>442.0</ele><time>2026-04-19T10:32:22Z</time></trkpt><trkpt lat="44.473294433553036" lon="10.537955370403767"><ele>442.0</ele><time>2026-04-19T10:32:23Z</time></trkpt><trkpt lat="44.47329243117564" lon="10.538110465920761"><ele>442.0</ele><time>2026-04-19T10:32:24Z</time></trkpt><trkpt lat="44.47330936817202" lon="10.538241303852942"><ele>439.6</ele><time>2026-04-19T10:32:25Z</time></trkpt><trkpt lat="44.47335334902757" lon="10.53837558484628"><ele>437.20000000000005</ele><time>2026-04-19T10:32:26Z</time></trkpt><trkpt lat="44.473423014712" lon="10.53848533911415"><ele>434.8</ele><time>2026-04-19T10:32:27Z</time></trkpt><trkpt lat="44.47351027827102" lon="10.538564145045834"><ele>432.4</ele><time>2026-04-19T10:32:28Z</time></trkpt><trkpt lat="44.47361596285546" lon="10.538611935871858"><ele>430.0</ele><time>2026-04-19T10:32:29Z</time></trkpt><trkpt lat="44.473735382256145" lon="10.538622652970346"><ele>431.5</ele><time>2026-04-19T10:32:30Z</time></trkpt><trkpt lat="44.47386183287539" lon="10.53859663783105"><ele>433.0</ele><time>2026-04-19T10:32:31Z</time></trkpt><trkpt lat="44.47399346369443" lon="10.538565580075746"><ele>434.5</ele><time>2026-04-19T10:32:32Z</time></trkpt><trkpt lat="44.4741265280456" lon="10.538541896886784"><ele>436.0</ele><time>2026-04-19T10:32:33Z</time></trkpt><trkpt lat="44.47426440317699" lon="10.53852304016055"><ele>436.0</ele><time>2026-04-19T10:32:34Z</time></trkpt><trkpt lat="44.47441563160476" lon="10.538492480180896"><ele>436.0</ele><time>2026-04-19T10:32:35Z</time></trkpt><trkpt lat="44.474559061943815" lon="10.538471421170389"><ele>436.0</ele><time>2026-04-19T10:32:35.999Z</time></trkpt><trkpt lat="44.47468695524511" lon="10.538461337827862"><ele>436.0</ele><time>2026-04-19T10:32:36.999Z</time></trkpt><trkpt lat="44.474804867008785" lon="10.538459931040219"><ele>436.25</ele><time>2026-04-19T10:32:37.999Z</time></trkpt><trkpt lat="44.474926848756326" lon="10.538471076315036"><ele>436.5</ele><time>2026-04-19T10:32:38.999Z</time></trkpt><trkpt lat="44.475052074063164" lon="10.538497500109594"><ele>436.75</ele><time>2026-04-19T10:32:39.999Z</time></trkpt><trkpt lat="44.47517932518294" lon="10.538541445775872"><ele>437.0</ele><time>2026-04-19T10:32:40.999Z</time></trkpt><trkpt lat="44.47530685068575" lon="10.538584134717997"><ele>437.0</ele><time>2026-04-19T10:32:41.999Z</time></trkpt><trkpt lat="44.47542965245545" lon="10.53862144999891"><ele>437.0</ele><time>2026-04-19T10:32:42.999Z</time></trkpt><trkpt lat="44.475547978393145" lon="10.538656354316174"><ele>437.0</ele><time>2026-04-19T10:32:43.999Z</time></trkpt><trkpt lat="44.47567211192449" lon="10.538689887113872"><ele>437.0</ele><time>2026-04-19T10:32:44.999Z</time></trkpt><trkpt lat="44.47580676919572" lon="10.53872707110014"><ele>434.5</ele><time>2026-04-19T10:32:45.999Z</time></trkpt><trkpt lat="44.47594492180064" lon="10.538763616709952"><ele>432.0</ele><time>2026-04-19T10:32:46.999Z</time></trkpt><trkpt lat="44.476084746314235" lon="10.538804995547425"><ele>429.5</ele><time>2026-04-19T10:32:47.999Z</time></trkpt><trkpt lat="44.47622308369697" lon="10.538847437628977"><ele>427.0</ele><time>2026-04-19T10:32:48.999Z</time></trkpt><trkpt lat="44.476354921371446" lon="10.538899171428508"><ele>426.20000000000005</ele><time>2026-04-19T10:32:49.999Z</time></trkpt><trkpt lat="44.47646947549618" lon="10.538964798479851"><ele>425.40000000000003</ele><time>2026-04-19T10:32:50.999Z</time></trkpt><trkpt lat="44.47655799556743" lon="10.53904371889846"><ele>424.6</ele><time>2026-04-19T10:32:51.999Z</time></trkpt><trkpt lat="44.47663506750421" lon="10.539131185102251"><ele>423.79999999999995</ele><time>2026-04-19T10:32:52.999Z</time></trkpt><trkpt lat="44.47671060309684" lon="10.539240129668345"><ele>423.0</ele><time>2026-04-19T10:32:53.999Z</time></trkpt><trkpt lat="44.47676369088124" lon="10.539348509316623"><ele>423.0</ele><time>2026-04-19T10:32:54.999Z</time></trkpt><trkpt lat="44.47681494451355" lon="10.539433033449948"><ele>423.0</ele><time>2026-04-19T10:32:55.999Z</time></trkpt><trkpt lat="44.47678535440107" lon="10.539512913166066"><ele>423.0</ele><time>2026-04-19T10:32:59.999Z</time></trkpt><trkpt lat="44.4770279692047" lon="10.540258609663814"><ele>423.5</ele><time>2026-04-19T10:33:01.999Z</time></trkpt><trkpt lat="44.4769243729207" lon="10.539740682953099"><ele>424.0</ele><time>2026-04-19T10:33:04.999Z</time></trkpt><trkpt lat="44.47694110121313" lon="10.539895420951602"><ele>424.0</ele><time>2026-04-19T10:33:06Z</time></trkpt><trkpt lat="44.47694530500703" lon="10.540007641424085"><ele>424.0</ele><time>2026-04-19T10:33:07Z</time></trkpt><trkpt lat="44.476848663167566" lon="10.540450007845818"><ele>424.0</ele><time>2026-04-19T10:33:08Z</time></trkpt><trkpt lat="44.47679999670082" lon="10.540516994516025"><ele>424.0</ele><time>2026-04-19T10:33:10Z</time></trkpt><trkpt lat="44.4767405897529" lon="10.540572049096061"><ele>424.0</ele><time>2026-04-19T10:33:12Z</time></trkpt><trkpt lat="44.476477587971964" lon="10.540135920303733"><ele>424.0</ele><time>2026-04-19T10:33:14Z</time></trkpt><trkpt lat="44.47649293075003" lon="10.54001995714912"><ele>424.0</ele><time>2026-04-19T10:33:15Z</time></trkpt><trkpt lat="44.47639347684147" lon="10.539951631219086"><ele>424.0</ele><time>2026-04-19T10:33:17Z</time></trkpt><trkpt lat="44.47636935564421" lon="10.540082992534812"><ele>424.0</ele><time>2026-04-19T10:33:19Z</time></trkpt><trkpt lat="44.47630064854062" lon="10.540223692374338"><ele>424.0</ele><time>2026-04-19T10:33:21Z</time></trkpt><trkpt lat="44.476243203774466" lon="10.540347261604108"><ele>434.4</ele><time>2026-04-19T10:33:23Z</time></trkpt><trkpt lat="44.47621201250443" lon="10.540519372145917"><ele>444.79999999999995</ele><time>2026-04-19T10:33:24Z</time></trkpt><trkpt lat="44.47618935318792" lon="10.540679793621273"><ele>455.20000000000005</ele><time>2026-04-19T10:33:25Z</time></trkpt><trkpt lat="44.476171191257016" lon="10.540803301098881"><ele>465.6</ele><time>2026-04-19T10:33:26Z</time></trkpt><trkpt lat="44.47616019179135" lon="10.540904502369639"><ele>476.0</ele><time>2026-04-19T10:33:27Z</time></trkpt><trkpt lat="44.47608103301331" lon="10.540970743512636"><ele>475.99999999999994</ele><time>2026-04-19T10:33:29Z</time></trkpt><trkpt lat="44.476024210334096" lon="10.541008926919687"><ele>476.0</ele><time>2026-04-19T10:33:30Z</time></trkpt><trkpt lat="44.475966514228595" lon="10.541105074003571"><ele>476.0</ele><time>2026-04-19T10:33:31Z</time></trkpt><trkpt lat="44.475962611091695" lon="10.541208218136893"><ele>476.0</ele><time>2026-04-19T10:33:32Z</time></trkpt><trkpt lat="44.47592654992454" lon="10.541332881455032"><ele>475.99999999999994</ele><time>2026-04-19T10:33:33Z</time></trkpt><trkpt lat="44.475863861473066" lon="10.541410421154604"><ele>476.0</ele><time>2026-04-19T10:33:34Z</time></trkpt><trkpt lat="44.47578822749271" lon="10.541463808107853"><ele>477.16666666666663</ele><time>2026-04-19T10:33:36Z</time></trkpt><trkpt lat="44.47573453367305" lon="10.541511494565837"><ele>478.3333333333333</ele><time>2026-04-19T10:33:38Z</time></trkpt><trkpt lat="44.475678840639844" lon="10.541564541880469"><ele>479.5</ele><time>2026-04-19T10:33:40Z</time></trkpt><trkpt lat="44.475643472117035" lon="10.541644349566495"><ele>480.66666666666663</ele><time>2026-04-19T10:33:41Z</time></trkpt><trkpt lat="44.47557844528257" lon="10.541703551212654"><ele>481.8333333333333</ele><time>2026-04-19T10:33:42Z</time></trkpt><trkpt lat="44.475511560688105" lon="10.541813882484252"><ele>483.0</ele><time>2026-04-19T10:33:43Z</time></trkpt><trkpt lat="44.475467220956155" lon="10.541900451920382"><ele>484.2</ele><time>2026-04-19T10:33:44Z</time></trkpt><trkpt lat="44.47535948354952" lon="10.542001251843596"><ele>485.4</ele><time>2026-04-19T10:33:46Z</time></trkpt><trkpt lat="44.475256785861006" lon="10.542089374840511"><ele>486.59999999999997</ele><time>2026-04-19T10:33:47Z</time></trkpt><trkpt lat="44.47516733414148" lon="10.542170441900902"><ele>487.79999999999995</ele><time>2026-04-19T10:33:48Z</time></trkpt><trkpt lat="44.47511577288943" lon="10.54224797898996"><ele>489.0</ele><time>2026-04-19T10:33:49Z</time></trkpt><trkpt lat="44.475054819941064" lon="10.542347442098807"><ele>489.0</ele><time>2026-04-19T10:33:50Z</time></trkpt><trkpt lat="44.47494891941928" lon="10.542471838939937"><ele>489.0</ele><time>2026-04-19T10:33:51Z</time></trkpt><trkpt lat="44.47494609765669" lon="10.542581771519792"><ele>489.0</ele><time>2026-04-19T10:33:53Z</time></trkpt><trkpt lat="44.47494509030955" lon="10.542725980028619"><ele>489.0</ele><time>2026-04-19T10:33:54Z</time></trkpt><trkpt lat="44.474912828376745" lon="10.542914524877347"><ele>488.5</ele><time>2026-04-19T10:33:55Z</time></trkpt><trkpt lat="44.47487490400305" lon="10.543054406222502"><ele>488.0</ele><time>2026-04-19T10:33:56Z</time></trkpt><trkpt lat="44.47483800348906" lon="10.543152741402183"><ele>487.5</ele><time>2026-04-19T10:33:57Z</time></trkpt><trkpt lat="44.47480512083821" lon="10.543238753285554"><ele>487.0</ele><time>2026-04-19T10:33:58Z</time></trkpt><trkpt lat="44.47475885423191" lon="10.543309137989556"><ele>486.5</ele><time>2026-04-19T10:33:59Z</time></trkpt><trkpt lat="44.47469989108801" lon="10.5433474441435"><ele>486.0</ele><time>2026-04-19T10:34:00Z</time></trkpt><trkpt lat="44.47470275985062" lon="10.543457072889561"><ele>486.0</ele><time>2026-04-19T10:34:02Z</time></trkpt><trkpt lat="44.474705263002036" lon="10.543570873435677"><ele>486.0</ele><time>2026-04-19T10:34:03Z</time></trkpt><trkpt lat="44.474677106747706" lon="10.543660762537648"><ele>486.0</ele><time>2026-04-19T10:34:04Z</time></trkpt><trkpt lat="44.474622261655874" lon="10.54374524671208"><ele>486.0</ele><time>2026-04-19T10:34:05Z</time></trkpt><trkpt lat="44.47459507926986" lon="10.543853711930572"><ele>486.0</ele><time>2026-04-19T10:34:06Z</time></trkpt><trkpt lat="44.474469725474556" lon="10.543985551410849"><ele>490.5</ele><time>2026-04-19T10:34:08Z</time></trkpt><trkpt lat="44.4744087156668" lon="10.544055605459219"><ele>495.0</ele><time>2026-04-19T10:34:09Z</time></trkpt><trkpt lat="44.474378973982866" lon="10.544155915226847"><ele>499.5</ele><time>2026-04-19T10:34:10Z</time></trkpt><trkpt lat="44.474338988847606" lon="10.544266971621703"><ele>504.0</ele><time>2026-04-19T10:34:12Z</time></trkpt><trkpt lat="44.47426973913078" lon="10.544312471807876"><ele>508.5</ele><time>2026-04-19T10:34:16Z</time></trkpt><trkpt lat="44.47418277327593" lon="10.544331894565467"><ele>513.0</ele><time>2026-04-19T10:34:49.999Z</time></trkpt><trkpt lat="44.47412396364478" lon="10.544406353481142"><ele>513.0</ele><time>2026-04-19T10:34:51.999Z</time></trkpt><trkpt lat="44.474044430075445" lon="10.544532398008089"><ele>513.0</ele><time>2026-04-19T10:34:53.999Z</time></trkpt><trkpt lat="44.47398573486317" lon="10.544582080671065"><ele>513.0</ele><time>2026-04-19T10:34:54.999Z</time></trkpt><trkpt lat="44.473873367813724" lon="10.544697629211768"><ele>513.0</ele><time>2026-04-19T10:34:56.999Z</time></trkpt><trkpt lat="44.473794495198774" lon="10.544796289879251"><ele>513.0</ele><time>2026-04-19T10:34:57.999Z</time></trkpt><trkpt lat="44.473730324131644" lon="10.544837282372423"><ele>518.6</ele><time>2026-04-19T10:34:58.999Z</time></trkpt><trkpt lat="44.47366940215071" lon="10.544892303098864"><ele>524.1999999999999</ele><time>2026-04-19T10:34:59.999Z</time></trkpt><trkpt lat="44.47354142465844" lon="10.544980596886436"><ele>529.8</ele><time>2026-04-19T10:35:00.999Z</time></trkpt><trkpt lat="44.47347292335945" lon="10.545044494430352"><ele>535.4</ele><time>2026-04-19T10:35:01.999Z</time></trkpt><trkpt lat="44.473390199767316" lon="10.545069706850807"><ele>541.0</ele><time>2026-04-19T10:35:02.999Z</time></trkpt><trkpt lat="44.473317389145365" lon="10.545087870021517"><ele>541.0</ele><time>2026-04-19T10:35:03.999Z</time></trkpt><trkpt lat="44.473235432533244" lon="10.545154848770599"><ele>541.0</ele><time>2026-04-19T10:35:05.999Z</time></trkpt><trkpt lat="44.47311671382837" lon="10.54524313810676"><ele>541.0</ele><time>2026-04-19T10:35:07.999Z</time></trkpt><trkpt lat="44.473044565072726" lon="10.545277896010342"><ele>541.0</ele><time>2026-04-19T10:35:08.999Z</time></trkpt><trkpt lat="44.47296873571024" lon="10.545320030644662"><ele>541.0</ele><time>2026-04-19T10:35:09.999Z</time></trkpt><trkpt lat="44.472848329858984" lon="10.545265195156182"><ele>543.25</ele><time>2026-04-19T10:35:12Z</time></trkpt><trkpt lat="44.47274882893575" lon="10.54529903565737"><ele>545.5</ele><time>2026-04-19T10:35:13.001Z</time></trkpt><trkpt lat="44.47265211069933" lon="10.545345536218164"><ele>547.75</ele><time>2026-04-19T10:35:14Z</time></trkpt><trkpt lat="44.472540857036904" lon="10.54528970493257"><ele>550.0</ele><time>2026-04-19T10:35:15Z</time></trkpt><trkpt lat="44.472392161278194" lon="10.545212009267539"><ele>550.0</ele><time>2026-04-19T10:35:16Z</time></trkpt><trkpt lat="44.4722836153464" lon="10.545223321981343"><ele>550.0</ele><time>2026-04-19T10:35:17Z</time></trkpt><trkpt lat="44.472216325323046" lon="10.545238978465283"><ele>550.0</ele><time>2026-04-19T10:35:18Z</time></trkpt><trkpt lat="44.47214382002972" lon="10.545262311704185"><ele>550.0</ele><time>2026-04-19T10:35:19Z</time></trkpt><trkpt lat="44.47202880718499" lon="10.545277173977315"><ele>550.0</ele><time>2026-04-19T10:35:21Z</time></trkpt><trkpt lat="44.47192302451141" lon="10.545258917791898"><ele>552.8</ele><time>2026-04-19T10:35:44Z</time></trkpt><trkpt lat="44.471856591682304" lon="10.545187852137651"><ele>555.6</ele><time>2026-04-19T10:35:45Z</time></trkpt><trkpt lat="44.471796454143124" lon="10.545141898493538"><ele>558.4</ele><time>2026-04-19T10:35:46Z</time></trkpt><trkpt lat="44.47166979384036" lon="10.54517524192418"><ele>561.2</ele><time>2026-04-19T10:35:48Z</time></trkpt><trkpt lat="44.47156053665456" lon="10.545238411708977"><ele>564.0</ele><time>2026-04-19T10:35:49Z</time></trkpt><trkpt lat="44.47148224351238" lon="10.545256078855918"><ele>564.0</ele><time>2026-04-19T10:35:50Z</time></trkpt><trkpt lat="44.47141977833347" lon="10.545193022088903"><ele>564.0</ele><time>2026-04-19T10:35:51Z</time></trkpt><trkpt lat="44.47129248997075" lon="10.54520418004314"><ele>564.0</ele><time>2026-04-19T10:35:53Z</time></trkpt><trkpt lat="44.47122448713445" lon="10.545271051730982"><ele>564.0</ele><time>2026-04-19T10:35:54Z</time></trkpt><trkpt lat="44.4711434149898" lon="10.545362394942382"><ele>564.0</ele><time>2026-04-19T10:35:55Z</time></trkpt><trkpt lat="44.4710538675493" lon="10.545439768379877"><ele>565.5</ele><time>2026-04-19T10:35:56Z</time></trkpt><trkpt lat="44.47094679398071" lon="10.545495514324688"><ele>567.0</ele><time>2026-04-19T10:35:57Z</time></trkpt><trkpt lat="44.47081751611962" lon="10.545544153548427"><ele>568.5</ele><time>2026-04-19T10:35:58Z</time></trkpt><trkpt lat="44.47067386353457" lon="10.545624789833353"><ele>570.0</ele><time>2026-04-19T10:35:59Z</time></trkpt><trkpt lat="44.470558725670855" lon="10.545657366238535"><ele>570.0</ele><time>2026-04-19T10:36:00Z</time></trkpt><trkpt lat="44.470461446011456" lon="10.545690606367168"><ele>570.0</ele><time>2026-04-19T10:36:01Z</time></trkpt><trkpt lat="44.47039929273487" lon="10.545709494527928"><ele>570.0</ele><time>2026-04-19T10:36:03Z</time></trkpt><trkpt lat="44.470474394520195" lon="10.54566805470837"><ele>570.0</ele><time>2026-04-19T10:36:25Z</time></trkpt><trkpt lat="44.470614594948664" lon="10.545625370741424"><ele>570.0</ele><time>2026-04-19T10:36:27Z</time></trkpt><trkpt lat="44.47073094300119" lon="10.54558035612588"><ele>570.0</ele><time>2026-04-19T10:36:28Z</time></trkpt><trkpt lat="44.47083761939369" lon="10.545577980487094"><ele>570.0</ele><time>2026-04-19T10:36:29Z</time></trkpt><trkpt lat="44.47091213512528" lon="10.545539397093071"><ele>570.0</ele><time>2026-04-19T10:36:30Z</time></trkpt><trkpt lat="44.471026015279456" lon="10.545477258958122"><ele>570.0</ele><time>2026-04-19T10:36:31Z</time></trkpt><trkpt lat="44.4711326874095" lon="10.545409714024927"><ele>570.0</ele><time>2026-04-19T10:36:32Z</time></trkpt><trkpt lat="44.471224341528895" lon="10.545325573424865"><ele>569.0</ele><time>2026-04-19T10:36:33Z</time></trkpt><trkpt lat="44.47128960214391" lon="10.545257449342545"><ele>568.0</ele><time>2026-04-19T10:36:34Z</time></trkpt><trkpt lat="44.471395888600576" lon="10.545192487496328"><ele>567.0</ele><time>2026-04-19T10:36:36Z</time></trkpt><trkpt lat="44.47147089596315" lon="10.545193817081378"><ele>566.0</ele><time>2026-04-19T10:36:37Z</time></trkpt><trkpt lat="44.47156032340045" lon="10.545203428164085"><ele>565.0</ele><time>2026-04-19T10:36:38Z</time></trkpt><trkpt lat="44.471643402797696" lon="10.54519329048076"><ele>564.0</ele><time>2026-04-19T10:36:39Z</time></trkpt><trkpt lat="44.471728371463094" lon="10.545173197028268"><ele>564.0</ele><time>2026-04-19T10:36:41Z</time></trkpt><trkpt lat="44.47166059310209" lon="10.545189496159225"><ele>564.0</ele><time>2026-04-19T10:36:51.999Z</time></trkpt><trkpt lat="44.4715340480577" lon="10.545193929436497"><ele>564.0</ele><time>2026-04-19T10:36:52.999Z</time></trkpt><trkpt lat="44.47139771828933" lon="10.54521519891019"><ele>564.0</ele><time>2026-04-19T10:36:53.999Z</time></trkpt><trkpt lat="44.4712919368214" lon="10.545197638997227"><ele>564.0</ele><time>2026-04-19T10:36:54.999Z</time></trkpt><trkpt lat="44.47122720070971" lon="10.54523500312386"><ele>565.0</ele><time>2026-04-19T10:36:55.999Z</time></trkpt><trkpt lat="44.471151305322536" lon="10.545375968758956"><ele>566.0</ele><time>2026-04-19T10:36:56.999Z</time></trkpt><trkpt lat="44.47104352403181" lon="10.545519473560216"><ele>567.0</ele><time>2026-04-19T10:36:57.999Z</time></trkpt><trkpt lat="44.47086487295755" lon="10.54551602107226"><ele>567.75</ele><time>2026-04-19T10:36:58.999Z</time></trkpt><trkpt lat="44.47073809968656" lon="10.545613451527291"><ele>568.5</ele><time>2026-04-19T10:36:59.999Z</time></trkpt><trkpt lat="44.470606354536464" lon="10.5456783454124"><ele>569.25</ele><time>2026-04-19T10:37:00.999Z</time></trkpt><trkpt lat="44.47045656328151" lon="10.545687643831563"><ele>570.0</ele><time>2026-04-19T10:37:01.999Z</time></trkpt><trkpt lat="44.47032081481021" lon="10.545759509816667"><ele>576.0</ele><time>2026-04-19T10:37:02.999Z</time></trkpt><trkpt lat="44.47021358976834" lon="10.545872121607271"><ele>582.0</ele><time>2026-04-19T10:37:03.999Z</time></trkpt><trkpt lat="44.47005290436862" lon="10.545988282497131"><ele>588.0</ele><time>2026-04-19T10:37:04.999Z</time></trkpt><trkpt lat="44.46991186168742" lon="10.546136198649"><ele>590.0</ele><time>2026-04-19T10:37:05.999Z</time></trkpt><trkpt lat="44.46977455274186" lon="10.54626621328895"><ele>592.0</ele><time>2026-04-19T10:37:06.999Z</time></trkpt><trkpt lat="44.46963449813192" lon="10.546377414327972"><ele>594.0</ele><time>2026-04-19T10:37:07.999Z</time></trkpt><trkpt lat="44.469512372718334" lon="10.546480918170149"><ele>595.0</ele><time>2026-04-19T10:37:08.999Z</time></trkpt><trkpt lat="44.46934626653874" lon="10.546563892560005"><ele>596.0</ele><time>2026-04-19T10:37:09.999Z</time></trkpt><trkpt lat="44.46916710005166" lon="10.546647894383316"><ele>597.0</ele><time>2026-04-19T10:37:10.999Z</time></trkpt><trkpt lat="44.46902592397385" lon="10.54665802124774"><ele>597.0</ele><time>2026-04-19T10:37:11.999Z</time></trkpt><trkpt lat="44.46895096180565" lon="10.546667565743771"><ele>597.0</ele><time>2026-04-19T10:37:12.999Z</time></trkpt><trkpt lat="44.468995718338974" lon="10.54674166642937"><ele>597.0</ele><time>2026-04-19T10:37:13.999Z</time></trkpt><trkpt lat="44.46896587534741" lon="10.546835722234917"><ele>597.0</ele><time>2026-04-19T10:37:14.999Z</time></trkpt><trkpt lat="44.46891582712581" lon="10.54692345085622"><ele>597.0</ele><time>2026-04-19T10:37:15.999Z</time></trkpt><trkpt lat="44.469011089196556" lon="10.546802821335818"><ele>597.0</ele><time>2026-04-19T10:37:21.001Z</time></trkpt><trkpt lat="44.46906381574384" lon="10.546699120520094"><ele>597.0</ele><time>2026-04-19T10:37:22.001Z</time></trkpt><trkpt lat="44.469112855648746" lon="10.5466233902991"><ele>597.0</ele><time>2026-04-19T10:37:23.001Z</time></trkpt><trkpt lat="44.46917942901166" lon="10.546607401069444"><ele>597.0</ele><time>2026-04-19T10:37:24.001Z</time></trkpt><trkpt lat="44.46929124572921" lon="10.546494283246092"><ele>597.0</ele><time>2026-04-19T10:37:26.001Z</time></trkpt><trkpt lat="44.46938737430773" lon="10.546427086259353"><ele>597.0</ele><time>2026-04-19T10:37:27.001Z</time></trkpt><trkpt lat="44.46950618337422" lon="10.546378888938674"><ele>596.4</ele><time>2026-04-19T10:37:28.001Z</time></trkpt><trkpt lat="44.46962123577462" lon="10.54632936412605"><ele>595.8000000000001</ele><time>2026-04-19T10:37:29.001Z</time></trkpt><trkpt lat="44.469708023391036" lon="10.546268193393999"><ele>595.2</ele><time>2026-04-19T10:37:30.001Z</time></trkpt><trkpt lat="44.46979435033433" lon="10.546178517191848"><ele>594.6</ele><time>2026-04-19T10:37:31.001Z</time></trkpt><trkpt lat="44.46989789282607" lon="10.546083076027264"><ele>594.0</ele><time>2026-04-19T10:37:32Z</time></trkpt><trkpt lat="44.46999720283376" lon="10.545988135038256"><ele>593.0</ele><time>2026-04-19T10:37:33Z</time></trkpt><trkpt lat="44.4700699839303" lon="10.545942155589234"><ele>592.0</ele><time>2026-04-19T10:37:34Z</time></trkpt><trkpt lat="44.47016185644822" lon="10.545848790926595"><ele>591.0</ele><time>2026-04-19T10:37:35Z</time></trkpt><trkpt lat="44.47023588335056" lon="10.545787402779219"><ele>590.0</ele><time>2026-04-19T10:37:36Z</time></trkpt><trkpt lat="44.47031020972319" lon="10.545721320838732"><ele>589.0</ele><time>2026-04-19T10:37:37Z</time></trkpt><trkpt lat="44.47037235311621" lon="10.545688004850156"><ele>588.0</ele><time>2026-04-19T10:37:38Z</time></trkpt><trkpt lat="44.470446137722824" lon="10.545659086840198"><ele>584.4</ele><time>2026-04-19T10:37:44Z</time></trkpt><trkpt lat="44.470534770852545" lon="10.545635529865686"><ele>580.8</ele><time>2026-04-19T10:37:49Z</time></trkpt><trkpt lat="44.470644391344344" lon="10.545613421212932"><ele>577.2</ele><time>2026-04-19T10:37:50Z</time></trkpt><trkpt lat="44.470760056556564" lon="10.545563642831228"><ele>573.6</ele><time>2026-04-19T10:37:51Z</time></trkpt><trkpt lat="44.47086558659639" lon="10.545482752184371"><ele>570.0</ele><time>2026-04-19T10:37:52Z</time></trkpt><trkpt lat="44.47099451622959" lon="10.545427237526303"><ele>569.5</ele><time>2026-04-19T10:37:53Z</time></trkpt><trkpt lat="44.47109204374866" lon="10.545366383838186"><ele>569.0</ele><time>2026-04-19T10:37:54Z</time></trkpt><trkpt lat="44.4711697779062" lon="10.545300087513171"><ele>568.5</ele><time>2026-04-19T10:37:55Z</time></trkpt><trkpt lat="44.47125380523437" lon="10.545221142024728"><ele>568.0</ele><time>2026-04-19T10:37:56Z</time></trkpt><trkpt lat="44.471310435856765" lon="10.545140980053782"><ele>567.5</ele><time>2026-04-19T10:37:57Z</time></trkpt><trkpt lat="44.47137196103823" lon="10.545120847387729"><ele>567.0</ele><time>2026-04-19T10:37:58Z</time></trkpt><trkpt lat="44.47145973553292" lon="10.54513387697707"><ele>566.5</ele><time>2026-04-19T10:37:59Z</time></trkpt><trkpt lat="44.471548286703175" lon="10.545168163488107"><ele>566.0</ele><time>2026-04-19T10:38:00Z</time></trkpt><trkpt lat="44.47162437345014" lon="10.54517260464154"><ele>565.5</ele><time>2026-04-19T10:38:01Z</time></trkpt><trkpt lat="44.4716961776916" lon="10.545127335345281"><ele>565.0</ele><time>2026-04-19T10:38:03Z</time></trkpt><trkpt lat="44.47176099287286" lon="10.545121261335199"><ele>564.5</ele><time>2026-04-19T10:38:07Z</time></trkpt><trkpt lat="44.471658545692584" lon="10.545183226059516"><ele>564.0</ele><time>2026-04-19T10:38:14Z</time></trkpt><trkpt lat="44.4715280147079" lon="10.54519706857778"><ele>564.0</ele><time>2026-04-19T10:38:15Z</time></trkpt><trkpt lat="44.471404372374344" lon="10.545141873397307"><ele>564.0</ele><time>2026-04-19T10:38:16Z</time></trkpt><trkpt lat="44.47130044847056" lon="10.545116158392666"><ele>564.0</ele><time>2026-04-19T10:38:17Z</time></trkpt><trkpt lat="44.47125355099462" lon="10.545227814527143"><ele>564.0</ele><time>2026-04-19T10:38:18Z</time></trkpt><trkpt lat="44.47117418165296" lon="10.545356385335058"><ele>564.0</ele><time>2026-04-19T10:38:19Z</time></trkpt><trkpt lat="44.47102495198963" lon="10.545458874033306"><ele>566.0</ele><time>2026-04-19T10:38:20Z</time></trkpt><trkpt lat="44.470846682497985" lon="10.545535024399292"><ele>568.0</ele><time>2026-04-19T10:38:21Z</time></trkpt><trkpt lat="44.47069965673425" lon="10.54559271995459"><ele>570.0</ele><time>2026-04-19T10:38:22Z</time></trkpt><trkpt lat="44.4705628281253" lon="10.545644867907727"><ele>574.5</ele><time>2026-04-19T10:38:23Z</time></trkpt><trkpt lat="44.47041910736647" lon="10.545705179966417"><ele>579.0</ele><time>2026-04-19T10:38:24Z</time></trkpt><trkpt lat="44.47031848642435" lon="10.545760973995694"><ele>583.5</ele><time>2026-04-19T10:38:25Z</time></trkpt><trkpt lat="44.47021168356059" lon="10.545848624931383"><ele>588.0</ele><time>2026-04-19T10:38:26Z</time></trkpt><trkpt lat="44.47005813774684" lon="10.546001280969294"><ele>588.0</ele><time>2026-04-19T10:38:27Z</time></trkpt><trkpt lat="44.46988610096696" lon="10.546176145033753"><ele>588.0</ele><time>2026-04-19T10:38:28Z</time></trkpt><trkpt lat="44.46970982664236" lon="10.546288589071901"><ele>588.0</ele><time>2026-04-19T10:38:29Z</time></trkpt><trkpt lat="44.46959053954122" lon="10.546395306369169"><ele>591.0</ele><time>2026-04-19T10:38:30Z</time></trkpt><trkpt lat="44.46948333890861" lon="10.546463009173197"><ele>594.0</ele><time>2026-04-19T10:38:31Z</time></trkpt><trkpt lat="44.469306804239096" lon="10.546537569242608"><ele>597.0</ele><time>2026-04-19T10:38:32Z</time></trkpt><trkpt lat="44.46915848699912" lon="10.546629878635938"><ele>597.0</ele><time>2026-04-19T10:38:33Z</time></trkpt><trkpt lat="44.46907232754681" lon="10.546633781582743"><ele>597.0</ele><time>2026-04-19T10:38:34Z</time></trkpt><trkpt lat="44.46901987190757" lon="10.546705176154575"><ele>597.0</ele><time>2026-04-19T10:38:36Z</time></trkpt><trkpt lat="44.468980327924555" lon="10.546802716563848"><ele>597.0</ele><time>2026-04-19T10:38:37Z</time></trkpt><trkpt lat="44.468929047313296" lon="10.546893561741074"><ele>597.0</ele><time>2026-04-19T10:38:38Z</time></trkpt><trkpt lat="44.46896948954944" lon="10.546786882967385"><ele>597.0</ele><time>2026-04-19T10:38:43Z</time></trkpt><trkpt lat="44.4690544798511" lon="10.546673661180332"><ele>597.0</ele><time>2026-04-19T10:38:44Z</time></trkpt><trkpt lat="44.46910007311663" lon="10.546605681346925"><ele>597.0</ele><time>2026-04-19T10:38:45Z</time></trkpt><trkpt lat="44.469160971025566" lon="10.54656330112725"><ele>597.0</ele><time>2026-04-19T10:38:46Z</time></trkpt><trkpt lat="44.469256421364655" lon="10.546529738513962"><ele>597.0</ele><time>2026-04-19T10:38:47Z</time></trkpt><trkpt lat="44.46935447796324" lon="10.546474316983394"><ele>597.0</ele><time>2026-04-19T10:38:48Z</time></trkpt><trkpt lat="44.46947434777832" lon="10.546440938637307"><ele>597.0</ele><time>2026-04-19T10:38:49Z</time></trkpt><trkpt lat="44.46957910601977" lon="10.546388821972492"><ele>597.0</ele><time>2026-04-19T10:38:50Z</time></trkpt><trkpt lat="44.46966187437853" lon="10.54633724437036"><ele>597.0</ele><time>2026-04-19T10:38:51Z</time></trkpt><trkpt lat="44.469745887966894" lon="10.54628969660631"><ele>597.0</ele><time>2026-04-19T10:38:52Z</time></trkpt><trkpt lat="44.46982132362223" lon="10.546238089547645"><ele>597.0</ele><time>2026-04-19T10:38:53Z</time></trkpt><trkpt lat="44.46990115315432" lon="10.546144663375872"><ele>595.2</ele><time>2026-04-19T10:38:54Z</time></trkpt><trkpt lat="44.46998451318906" lon="10.546049024237538"><ele>593.4000000000001</ele><time>2026-04-19T10:38:55Z</time></trkpt><trkpt lat="44.47006477738353" lon="10.545973275550839"><ele>591.5999999999999</ele><time>2026-04-19T10:38:56Z</time></trkpt><trkpt lat="44.47013865315474" lon="10.54591732118484"><ele>589.8</ele><time>2026-04-19T10:38:57Z</time></trkpt><trkpt lat="44.47022001112086" lon="10.545843134161009"><ele>588.0</ele><time>2026-04-19T10:38:57.999Z</time></trkpt><trkpt lat="44.470289746165484" lon="10.545772348759932"><ele>588.0</ele><time>2026-04-19T10:38:58.999Z</time></trkpt><trkpt lat="44.470368186959256" lon="10.545667617177537"><ele>588.0</ele><time>2026-04-19T10:39:00.999Z</time></trkpt><trkpt lat="44.47044975225568" lon="10.545683086882882"><ele>588.0</ele><time>2026-04-19T10:39:24.001Z</time></trkpt><trkpt lat="44.47038032657685" lon="10.545716186096925"><ele>588.0</ele><time>2026-04-19T10:39:29.001Z</time></trkpt><trkpt lat="44.47028719323314" lon="10.545781317281195"><ele>588.0</ele><time>2026-04-19T10:39:31.001Z</time></trkpt><trkpt lat="44.47021600605254" lon="10.545842227866709"><ele>588.0</ele><time>2026-04-19T10:39:32.001Z</time></trkpt><trkpt lat="44.47014876640786" lon="10.545909202073505"><ele>588.0</ele><time>2026-04-19T10:39:33.001Z</time></trkpt><trkpt lat="44.47007897885416" lon="10.545979158183359"><ele>588.0</ele><time>2026-04-19T10:39:34.001Z</time></trkpt><trkpt lat="44.46999247461816" lon="10.546052438954387"><ele>588.0</ele><time>2026-04-19T10:39:35.001Z</time></trkpt><trkpt lat="44.46990409078154" lon="10.546133240959803"><ele>588.0</ele><time>2026-04-19T10:39:36.001Z</time></trkpt><trkpt lat="44.46978963694807" lon="10.54624667288517"><ele>589.5</ele><time>2026-04-19T10:39:37.001Z</time></trkpt><trkpt lat="44.46967107581891" lon="10.546375686587599"><ele>591.0</ele><time>2026-04-19T10:39:38.001Z</time></trkpt><trkpt lat="44.469551942202564" lon="10.546459993869664"><ele>592.5</ele><time>2026-04-19T10:39:39Z</time></trkpt><trkpt lat="44.46946264328421" lon="10.546523735618994"><ele>594.0</ele><time>2026-04-19T10:39:40Z</time></trkpt><trkpt lat="44.469351750329395" lon="10.546557693235282"><ele>594.6</ele><time>2026-04-19T10:39:41Z</time></trkpt><trkpt lat="44.469241998647995" lon="10.546567447980275"><ele>595.2</ele><time>2026-04-19T10:39:42Z</time></trkpt><trkpt lat="44.46914033178893" lon="10.54658404667804"><ele>595.8000000000001</ele><time>2026-04-19T10:39:43Z</time></trkpt><trkpt lat="44.46908016668782" lon="10.546644666904328"><ele>596.4</ele><time>2026-04-19T10:39:44Z</time></trkpt><trkpt lat="44.46898455222081" lon="10.546780578150445"><ele>597.0</ele><time>2026-04-19T10:39:46Z</time></trkpt><trkpt lat="44.46891089306425" lon="10.546890868613268"><ele>597.0</ele><time>2026-04-19T10:39:47Z</time></trkpt><trkpt lat="44.46884525584916" lon="10.54702651575148"><ele>597.0</ele><time>2026-04-19T10:39:48Z</time></trkpt><trkpt lat="44.468764969723836" lon="10.547089507119185"><ele>597.0</ele><time>2026-04-19T10:39:49Z</time></trkpt><trkpt lat="44.46872329625" lon="10.547181741952834"><ele>597.0</ele><time>2026-04-19T10:39:50Z</time></trkpt><trkpt lat="44.46866890417083" lon="10.547246860591521"><ele>597.0</ele><time>2026-04-19T10:39:51Z</time></trkpt><trkpt lat="44.46861021208725" lon="10.547300363702513"><ele>597.0</ele><time>2026-04-19T10:39:52Z</time></trkpt><trkpt lat="44.468586043224335" lon="10.547400690820783"><ele>594.2</ele><time>2026-04-19T10:39:53Z</time></trkpt><trkpt lat="44.46853607208251" lon="10.547539149827735"><ele>591.4000000000001</ele><time>2026-04-19T10:39:55Z</time></trkpt><trkpt lat="44.46847803313011" lon="10.547617202590967"><ele>588.5999999999999</ele><time>2026-04-19T10:39:56Z</time></trkpt><trkpt lat="44.4684172780573" lon="10.547736146333381"><ele>585.8</ele><time>2026-04-19T10:39:57Z</time></trkpt><trkpt lat="44.46835417968779" lon="10.547842873948515"><ele>583.0</ele><time>2026-04-19T10:39:58Z</time></trkpt><trkpt lat="44.46833585209599" lon="10.54794221545865"><ele>582.6666666666667</ele><time>2026-04-19T10:39:59Z</time></trkpt><trkpt lat="44.46832331346682" lon="10.54804774613768"><ele>582.3333333333334</ele><time>2026-04-19T10:40:00Z</time></trkpt><trkpt lat="44.46830654952719" lon="10.548144081417014"><ele>582.0</ele><time>2026-04-19T10:40:01Z</time></trkpt><trkpt lat="44.4682575444398" lon="10.548271245091499"><ele>581.6666666666666</ele><time>2026-04-19T10:40:03Z</time></trkpt><trkpt lat="44.468192106457984" lon="10.548297936505579"><ele>581.3333333333333</ele><time>2026-04-19T10:40:07Z</time></trkpt><trkpt lat="44.468100444661744" lon="10.54839315095909"><ele>581.0</ele><time>2026-04-19T10:40:19Z</time></trkpt><trkpt lat="44.46804679652246" lon="10.548450026839364"><ele>581.0</ele><time>2026-04-19T10:40:20Z</time></trkpt><trkpt lat="44.46796835230079" lon="10.548477685772337"><ele>581.0</ele><time>2026-04-19T10:40:21Z</time></trkpt><trkpt lat="44.4679044334774" lon="10.548543304608787"><ele>581.0</ele><time>2026-04-19T10:40:22Z</time></trkpt><trkpt lat="44.46801733778535" lon="10.548998739274065"><ele>579.0</ele><time>2026-04-19T10:40:23Z</time></trkpt><trkpt lat="44.46800027859107" lon="10.549134438946163"><ele>577.0</ele><time>2026-04-19T10:40:24Z</time></trkpt><trkpt lat="44.4679796319325" lon="10.549275775063439"><ele>575.0</ele><time>2026-04-19T10:40:25Z</time></trkpt><trkpt lat="44.467959602717315" lon="10.549410867889913"><ele>573.0</ele><time>2026-04-19T10:40:26Z</time></trkpt><trkpt lat="44.46795013980382" lon="10.549532944515647"><ele>571.0</ele><time>2026-04-19T10:40:27Z</time></trkpt><trkpt lat="44.46794644897599" lon="10.549662559846658"><ele>568.6</ele><time>2026-04-19T10:40:28Z</time></trkpt><trkpt lat="44.46794594495223" lon="10.54979405785041"><ele>566.2</ele><time>2026-04-19T10:40:29Z</time></trkpt><trkpt lat="44.46795378838593" lon="10.549922655233503"><ele>563.8</ele><time>2026-04-19T10:40:30Z</time></trkpt><trkpt lat="44.46798200619315" lon="10.550062065601546"><ele>561.4</ele><time>2026-04-19T10:40:31Z</time></trkpt><trkpt lat="44.468016099088864" lon="10.550180493067105"><ele>559.0</ele><time>2026-04-19T10:40:32Z</time></trkpt><trkpt lat="44.46804310962153" lon="10.55030963156745"><ele>556.8</ele><time>2026-04-19T10:40:33Z</time></trkpt><trkpt lat="44.4680539905997" lon="10.550437923234094"><ele>554.5999999999999</ele><time>2026-04-19T10:40:34Z</time></trkpt><trkpt lat="44.468062707746334" lon="10.550560953635351"><ele>552.4</ele><time>2026-04-19T10:40:35Z</time></trkpt><trkpt lat="44.468066003253554" lon="10.550681704680871"><ele>550.1999999999999</ele><time>2026-04-19T10:40:36Z</time></trkpt><trkpt lat="44.46797175412846" lon="10.550791642433062"><ele>548.0</ele><time>2026-04-19T10:40:38Z</time></trkpt><trkpt lat="44.46787836802309" lon="10.550812961607322"><ele>550.0</ele><time>2026-04-19T10:40:39Z</time></trkpt><trkpt lat="44.46778458290656" lon="10.550922460951448"><ele>552.0</ele><time>2026-04-19T10:40:41Z</time></trkpt><trkpt lat="44.46778307208565" lon="10.551016660106585"><ele>554.0</ele><time>2026-04-19T10:40:42Z</time></trkpt><trkpt lat="44.46775244854141" lon="10.55116883641322"><ele>556.0</ele><time>2026-04-19T10:40:43Z</time></trkpt><trkpt lat="44.467681052404785" lon="10.551315969477278"><ele>558.0</ele><time>2026-04-19T10:40:44Z</time></trkpt><trkpt lat="44.46760683570959" lon="10.551430162019793"><ele>558.0</ele><time>2026-04-19T10:40:45Z</time></trkpt><trkpt lat="44.46756835072481" lon="10.551526436776191"><ele>558.0</ele><time>2026-04-19T10:40:46Z</time></trkpt><trkpt lat="44.46753977578065" lon="10.551608781910604"><ele>558.0</ele><time>2026-04-19T10:40:47Z</time></trkpt><trkpt lat="44.467508769923754" lon="10.551711304427375"><ele>558.0</ele><time>2026-04-19T10:40:48Z</time></trkpt><trkpt lat="44.46747437994655" lon="10.551801229011637"><ele>558.0</ele><time>2026-04-19T10:40:49Z</time></trkpt><trkpt lat="44.46742902388805" lon="10.551868226908292"><ele>558.0</ele><time>2026-04-19T10:40:50Z</time></trkpt><trkpt lat="44.46738851837681" lon="10.552018587785314"><ele>556.3333333333334</ele><time>2026-04-19T10:40:52Z</time></trkpt><trkpt lat="44.46734163130598" lon="10.552083042971262"><ele>554.6666666666666</ele><time>2026-04-19T10:40:53Z</time></trkpt><trkpt lat="44.46722693015334" lon="10.552195650169008"><ele>553.0</ele><time>2026-04-19T10:40:55Z</time></trkpt><trkpt lat="44.46715688664127" lon="10.552280520146319"><ele>551.3333333333333</ele><time>2026-04-19T10:40:56Z</time></trkpt><trkpt lat="44.46712361022566" lon="10.552360569239811"><ele>549.6666666666666</ele><time>2026-04-19T10:40:57Z</time></trkpt><trkpt lat="44.46710142090921" lon="10.552454276462319"><ele>548.0</ele><time>2026-04-19T10:41:05.999Z</time></trkpt><trkpt lat="44.467096627623114" lon="10.552587165590339"><ele>546.0</ele><time>2026-04-19T10:41:07.999Z</time></trkpt><trkpt lat="44.46714557035455" lon="10.55268248967277"><ele>544.0</ele><time>2026-04-19T10:41:09.999Z</time></trkpt><trkpt lat="44.46721073886051" lon="10.552712154293783"><ele>542.0</ele><time>2026-04-19T10:41:11.999Z</time></trkpt><trkpt lat="44.46714170696663" lon="10.55281396598064"><ele>540.0</ele><time>2026-04-19T10:41:13.999Z</time></trkpt><trkpt lat="44.46709319438771" lon="10.552917573492733"><ele>538.0</ele><time>2026-04-19T10:41:14.999Z</time></trkpt><trkpt lat="44.46703019668683" lon="10.552986982470705"><ele>536.0</ele><time>2026-04-19T10:41:16.999Z</time></trkpt><trkpt lat="44.466912220946504" lon="10.55293272151923"><ele>532.6666666666666</ele><time>2026-04-19T10:41:18.999Z</time></trkpt><trkpt lat="44.46684967527902" lon="10.55297046081035"><ele>529.3333333333333</ele><time>2026-04-19T10:41:20.999Z</time></trkpt><trkpt lat="44.46686644908719" lon="10.553148190449386"><ele>526.0</ele><time>2026-04-19T10:41:22.999Z</time></trkpt><trkpt lat="44.46689525689728" lon="10.553258459496343"><ele>522.6666666666666</ele><time>2026-04-19T10:41:23.999Z</time></trkpt><trkpt lat="44.46689812662401" lon="10.553363403738826"><ele>519.3333333333334</ele><time>2026-04-19T10:41:24.999Z</time></trkpt><trkpt lat="44.46686321609406" lon="10.553442056185649"><ele>516.0</ele><time>2026-04-19T10:41:25.999Z</time></trkpt><trkpt lat="44.466796495344354" lon="10.553485453467175"><ele>516.0</ele><time>2026-04-19T10:41:27.999Z</time></trkpt><trkpt lat="44.466889917438486" lon="10.55354443292541"><ele>516.0</ele><time>2026-04-19T10:41:30Z</time></trkpt><trkpt lat="44.466982224817336" lon="10.553540117323248"><ele>516.0</ele><time>2026-04-19T10:41:31Z</time></trkpt><trkpt lat="44.46709887211157" lon="10.55357062828267"><ele>516.0</ele><time>2026-04-19T10:41:32Z</time></trkpt><trkpt lat="44.46717716587907" lon="10.553619012791293"><ele>516.0</ele><time>2026-04-19T10:41:33Z</time></trkpt><trkpt lat="44.4671960763119" lon="10.55374834972627"><ele>511.6666666666667</ele><time>2026-04-19T10:41:35Z</time></trkpt><trkpt lat="44.46723808316311" lon="10.553878641016851"><ele>507.33333333333337</ele><time>2026-04-19T10:41:37Z</time></trkpt><trkpt lat="44.467284843321245" lon="10.5539438095059"><ele>503.0</ele><time>2026-04-19T10:41:38Z</time></trkpt><trkpt lat="44.4673287514731" lon="10.55402270337001"><ele>498.6666666666667</ele><time>2026-04-19T10:41:39Z</time></trkpt><trkpt lat="44.4673441178585" lon="10.554108530831792"><ele>494.33333333333337</ele><time>2026-04-19T10:41:40Z</time></trkpt><trkpt lat="44.46730777746459" lon="10.554199863595542"><ele>490.0</ele><time>2026-04-19T10:41:41Z</time></trkpt><trkpt lat="44.46725410749316" lon="10.554279800509681"><ele>490.00000000000006</ele><time>2026-04-19T10:41:42Z</time></trkpt><trkpt lat="44.46719558853569" lon="10.554385667791733"><ele>490.0</ele><time>2026-04-19T10:41:43Z</time></trkpt><trkpt lat="44.46713694374492" lon="10.554457963432034"><ele>490.0</ele><time>2026-04-19T10:41:44Z</time></trkpt><trkpt lat="44.467063786553155" lon="10.554508259543546"><ele>490.0</ele><time>2026-04-19T10:41:45Z</time></trkpt><trkpt lat="44.46697886178205" lon="10.55454226774818"><ele>490.00000000000006</ele><time>2026-04-19T10:41:46Z</time></trkpt><trkpt lat="44.46690033734572" lon="10.554558493908223"><ele>490.0</ele><time>2026-04-19T10:41:47Z</time></trkpt><trkpt lat="44.46682187915029" lon="10.554610048849758"><ele>486.25</ele><time>2026-04-19T10:41:48Z</time></trkpt><trkpt lat="44.46674357135195" lon="10.554749904971624"><ele>482.5</ele><time>2026-04-19T10:41:50Z</time></trkpt><trkpt lat="44.46666127056976" lon="10.554877221902178"><ele>478.75</ele><time>2026-04-19T10:41:52Z</time></trkpt><trkpt lat="44.46659464813289" lon="10.554965416930552"><ele>475.0</ele><time>2026-04-19T10:41:54Z</time></trkpt><trkpt lat="44.466482831981686" lon="10.55492413892639"><ele>475.00000000000006</ele><time>2026-04-19T10:42:01Z</time></trkpt><trkpt lat="44.46639613728362" lon="10.554903439058219"><ele>475.0</ele><time>2026-04-19T10:42:02Z</time></trkpt><trkpt lat="44.466314090453615" lon="10.554874638220804"><ele>475.0</ele><time>2026-04-19T10:42:03Z</time></trkpt><trkpt lat="44.46623868942351" lon="10.554852279843933"><ele>475.0</ele><time>2026-04-19T10:42:04Z</time></trkpt><trkpt lat="44.46616722986351" lon="10.554834537856097"><ele>475.00000000000006</ele><time>2026-04-19T10:42:05Z</time></trkpt><trkpt lat="44.46609126615552" lon="10.55484011699707"><ele>475.0</ele><time>2026-04-19T10:42:06Z</time></trkpt><trkpt lat="44.465983448968224" lon="10.554884533001855"><ele>475.4</ele><time>2026-04-19T10:42:08Z</time></trkpt><trkpt lat="44.46585415581025" lon="10.554918723908875"><ele>475.8</ele><time>2026-04-19T10:42:10Z</time></trkpt><trkpt lat="44.465768969855134" lon="10.55489805313274"><ele>476.20000000000005</ele><time>2026-04-19T10:42:11Z</time></trkpt><trkpt lat="44.46568351001517" lon="10.554886320393173"><ele>476.6</ele><time>2026-04-19T10:42:12Z</time></trkpt><trkpt lat="44.465596003224746" lon="10.554876555520762"><ele>477.0</ele><time>2026-04-19T10:42:13Z</time></trkpt><trkpt lat="44.46551676866162" lon="10.55487106026977"><ele>476.6</ele><time>2026-04-19T10:42:14Z</time></trkpt><trkpt lat="44.46542734920134" lon="10.554864858670179"><ele>476.20000000000005</ele><time>2026-04-19T10:42:15Z</time></trkpt><trkpt lat="44.46532885358908" lon="10.55485478992717"><ele>475.8</ele><time>2026-04-19T10:42:16Z</time></trkpt><trkpt lat="44.46522486774581" lon="10.554841556994331"><ele>475.4</ele><time>2026-04-19T10:42:17Z</time></trkpt><trkpt lat="44.46511097726532" lon="10.55482662620711"><ele>475.0</ele><time>2026-04-19T10:42:18Z</time></trkpt><trkpt lat="44.46499988432562" lon="10.554808790357699"><ele>475.0</ele><time>2026-04-19T10:42:19Z</time></trkpt><trkpt lat="44.46488714169393" lon="10.554801618371421"><ele>475.0</ele><time>2026-04-19T10:42:20Z</time></trkpt><trkpt lat="44.46474827223736" lon="10.55475608544979"><ele>475.0</ele><time>2026-04-19T10:42:21Z</time></trkpt><trkpt lat="44.46459978276508" lon="10.554687057119612"><ele>475.0</ele><time>2026-04-19T10:42:22Z</time></trkpt><trkpt lat="44.4644790001126" lon="10.554642717451197"><ele>474.0</ele><time>2026-04-19T10:42:23Z</time></trkpt><trkpt lat="44.46438225968226" lon="10.554578289987283"><ele>473.0</ele><time>2026-04-19T10:42:24Z</time></trkpt><trkpt lat="44.464280604525015" lon="10.554514896126005"><ele>472.0</ele><time>2026-04-19T10:42:25Z</time></trkpt><trkpt lat="44.464200820613314" lon="10.554447214900804"><ele>471.0</ele><time>2026-04-19T10:42:26Z</time></trkpt><trkpt lat="44.46413925728838" lon="10.554371805029811"><ele>470.0</ele><time>2026-04-19T10:42:27Z</time></trkpt><trkpt lat="44.4640743945528" lon="10.554283809778333"><ele>473.0</ele><time>2026-04-19T10:42:28Z</time></trkpt><trkpt lat="44.46401553126123" lon="10.554198061551025"><ele>476.0</ele><time>2026-04-19T10:42:29Z</time></trkpt><trkpt lat="44.46395420799835" lon="10.554101238188478"><ele>479.0</ele><time>2026-04-19T10:42:30Z</time></trkpt><trkpt lat="44.463883146378464" lon="10.554008766738693"><ele>482.0</ele><time>2026-04-19T10:42:31Z</time></trkpt><trkpt lat="44.46382535850513" lon="10.55389656413247"><ele>485.0</ele><time>2026-04-19T10:42:32Z</time></trkpt><trkpt lat="44.463797646373976" lon="10.553780662756004"><ele>484.16666666666663</ele><time>2026-04-19T10:42:33Z</time></trkpt><trkpt lat="44.46377634133253" lon="10.553670504700445"><ele>483.3333333333333</ele><time>2026-04-19T10:42:34Z</time></trkpt><trkpt lat="44.46376634549188" lon="10.55354845110761"><ele>482.5</ele><time>2026-04-19T10:42:35Z</time></trkpt><trkpt lat="44.463776672591415" lon="10.553441391270233"><ele>481.66666666666663</ele><time>2026-04-19T10:42:36Z</time></trkpt><trkpt lat="44.46377802868286" lon="10.553299070079508"><ele>480.8333333333333</ele><time>2026-04-19T10:42:37Z</time></trkpt><trkpt lat="44.46379955673522" lon="10.55317894376315"><ele>480.0</ele><time>2026-04-19T10:42:38Z</time></trkpt><trkpt lat="44.46374297531257" lon="10.55302075802417"><ele>480.0</ele><time>2026-04-19T10:42:40Z</time></trkpt><trkpt lat="44.46367203978897" lon="10.552988749345289"><ele>480.0</ele><time>2026-04-19T10:42:41Z</time></trkpt><trkpt lat="44.463594936057085" lon="10.552993898542205"><ele>480.0</ele><time>2026-04-19T10:42:42Z</time></trkpt><trkpt lat="44.46349145475301" lon="10.553106679850798"><ele>480.0</ele><time>2026-04-19T10:42:44Z</time></trkpt><trkpt lat="44.463421393141765" lon="10.553200735689604"><ele>480.0</ele><time>2026-04-19T10:42:46Z</time></trkpt><trkpt lat="44.46337259117789" lon="10.553280429547838"><ele>480.0</ele><time>2026-04-19T10:42:47Z</time></trkpt><trkpt lat="44.46331583352868" lon="10.553350677189457"><ele>480.0</ele><time>2026-04-19T10:42:48Z</time></trkpt><trkpt lat="44.46325828354524" lon="10.55339616316212"><ele>480.0</ele><time>2026-04-19T10:42:50Z</time></trkpt><trkpt lat="44.463174522357875" lon="10.553392431446168"><ele>480.0</ele><time>2026-04-19T10:42:52Z</time></trkpt><trkpt lat="44.46306743112136" lon="10.553333263205023"><ele>480.0</ele><time>2026-04-19T10:42:55Z</time></trkpt><trkpt lat="44.46298084512418" lon="10.55334955982786"><ele>480.0</ele><time>2026-04-19T10:42:57Z</time></trkpt><trkpt lat="44.462881856247954" lon="10.553346163890179"><ele>480.6666666666667</ele><time>2026-04-19T10:42:59Z</time></trkpt><trkpt lat="44.46275834275855" lon="10.553357365182688"><ele>481.33333333333337</ele><time>2026-04-19T10:43:01Z</time></trkpt><trkpt lat="44.462685568252915" lon="10.55332590928395"><ele>482.0</ele><time>2026-04-19T10:43:01.999Z</time></trkpt><trkpt lat="44.4626072328712" lon="10.553287790332192"><ele>482.6666666666667</ele><time>2026-04-19T10:43:02.999Z</time></trkpt><trkpt lat="44.462529820422795" lon="10.55324708683593"><ele>483.33333333333337</ele><time>2026-04-19T10:43:03.999Z</time></trkpt><trkpt lat="44.46244838508194" lon="10.553222967174268"><ele>484.0</ele><time>2026-04-19T10:43:04.999Z</time></trkpt><trkpt lat="44.46236890812454" lon="10.553168720221"><ele>484.0</ele><time>2026-04-19T10:43:05.999Z</time></trkpt><trkpt lat="44.4622772958286" lon="10.55311535413414"><ele>484.0</ele><time>2026-04-19T10:43:06.999Z</time></trkpt><trkpt lat="44.46217729976834" lon="10.5530590868517"><ele>484.0</ele><time>2026-04-19T10:43:07.999Z</time></trkpt><trkpt lat="44.462087664469756" lon="10.552982592497031"><ele>484.0</ele><time>2026-04-19T10:43:08.999Z</time></trkpt><trkpt lat="44.46199117526158" lon="10.552926295891313"><ele>484.0</ele><time>2026-04-19T10:43:09.999Z</time></trkpt><trkpt lat="44.4618993478369" lon="10.552874046659863"><ele>490.79999999999995</ele><time>2026-04-19T10:43:10.999Z</time></trkpt><trkpt lat="44.461805233593054" lon="10.552825467870678"><ele>497.59999999999997</ele><time>2026-04-19T10:43:11.999Z</time></trkpt><trkpt lat="44.4617160076919" lon="10.552790711368425"><ele>504.4</ele><time>2026-04-19T10:43:12.999Z</time></trkpt><trkpt lat="44.46162218468576" lon="10.5528043570582"><ele>511.2</ele><time>2026-04-19T10:43:13.999Z</time></trkpt><trkpt lat="44.46152666963882" lon="10.55278423639627"><ele>518.0</ele><time>2026-04-19T10:43:14.999Z</time></trkpt><trkpt lat="44.461429639953494" lon="10.552811847420202"><ele>518.0</ele><time>2026-04-19T10:43:15.999Z</time></trkpt><trkpt lat="44.461338764305374" lon="10.552831501026956"><ele>518.0</ele><time>2026-04-19T10:43:16.999Z</time></trkpt><trkpt lat="44.46124160484893" lon="10.552864715518528"><ele>518.0</ele><time>2026-04-19T10:43:17.999Z</time></trkpt><trkpt lat="44.46113849840251" lon="10.552907602559753"><ele>518.0</ele><time>2026-04-19T10:43:18.999Z</time></trkpt><trkpt lat="44.46104093177648" lon="10.552953445359922"><ele>518.0</ele><time>2026-04-19T10:43:19.999Z</time></trkpt><trkpt lat="44.46094824535259" lon="10.553016408709"><ele>516.8</ele><time>2026-04-19T10:43:20.999Z</time></trkpt><trkpt lat="44.46085271330793" lon="10.553089789912365"><ele>515.5999999999999</ele><time>2026-04-19T10:43:21.999Z</time></trkpt><trkpt lat="44.46075179587052" lon="10.553166178706046"><ele>514.4000000000001</ele><time>2026-04-19T10:43:22.999Z</time></trkpt><trkpt lat="44.46065198564753" lon="10.553238030972386"><ele>513.2</ele><time>2026-04-19T10:43:23.999Z</time></trkpt><trkpt lat="44.460550809914665" lon="10.553301274578153"><ele>512.0</ele><time>2026-04-19T10:43:24.999Z</time></trkpt><trkpt lat="44.4604451948638" lon="10.553378884361113"><ele>518.25</ele><time>2026-04-19T10:43:25.999Z</time></trkpt><trkpt lat="44.460357432605605" lon="10.553472100156965"><ele>524.5</ele><time>2026-04-19T10:43:26.999Z</time></trkpt><trkpt lat="44.46029297904463" lon="10.55360674440744"><ele>530.75</ele><time>2026-04-19T10:43:27.999Z</time></trkpt><trkpt lat="44.46025345530933" lon="10.553750373816602"><ele>537.0</ele><time>2026-04-19T10:43:28.999Z</time></trkpt><trkpt lat="44.46021609988143" lon="10.553906787298715"><ele>537.0</ele><time>2026-04-19T10:43:29.999Z</time></trkpt><trkpt lat="44.46018346651026" lon="10.554061252640535"><ele>537.0</ele><time>2026-04-19T10:43:30.999Z</time></trkpt><trkpt lat="44.460157906291215" lon="10.554212494373973"><ele>537.0</ele><time>2026-04-19T10:43:31.999Z</time></trkpt><trkpt lat="44.4601383911861" lon="10.55435123369552"><ele>537.0</ele><time>2026-04-19T10:43:32.999Z</time></trkpt><trkpt lat="44.46011066090394" lon="10.55445796499665"><ele>537.0</ele><time>2026-04-19T10:43:33.999Z</time></trkpt><trkpt lat="44.46005222235508" lon="10.554521684542161"><ele>537.0</ele><time>2026-04-19T10:43:34.999Z</time></trkpt><trkpt lat="44.45995790314054" lon="10.554513810271981"><ele>537.0</ele><time>2026-04-19T10:43:36Z</time></trkpt><trkpt lat="44.45986460681942" lon="10.554529241028842"><ele>537.0</ele><time>2026-04-19T10:43:37Z</time></trkpt><trkpt lat="44.45978545850943" lon="10.554499031262353"><ele>537.0</ele><time>2026-04-19T10:43:38Z</time></trkpt><trkpt lat="44.45970852751605" lon="10.554486291295012"><ele>537.0</ele><time>2026-04-19T10:43:40Z</time></trkpt><trkpt lat="44.45962591372092" lon="10.554468720521303"><ele>537.0</ele><time>2026-04-19T10:44:29Z</time></trkpt><trkpt lat="44.459712932955036" lon="10.554443465479784"><ele>537.0</ele><time>2026-04-19T10:44:32Z</time></trkpt><trkpt lat="44.45977140247016" lon="10.554345570981551"><ele>537.0</ele><time>2026-04-19T10:44:33Z</time></trkpt><trkpt lat="44.459838272862456" lon="10.554275082190596"><ele>537.0</ele><time>2026-04-19T10:44:34Z</time></trkpt><trkpt lat="44.45989827629389" lon="10.554182431821085"><ele>537.0</ele><time>2026-04-19T10:44:35Z</time></trkpt><trkpt lat="44.459964067753276" lon="10.554075363085826"><ele>537.0</ele><time>2026-04-19T10:44:36Z</time></trkpt><trkpt lat="44.459990742452696" lon="10.553928497840118"><ele>537.0</ele><time>2026-04-19T10:44:37Z</time></trkpt><trkpt lat="44.460010543459596" lon="10.553772421241208"><ele>537.0</ele><time>2026-04-19T10:44:38Z</time></trkpt><trkpt lat="44.46002514180529" lon="10.553617015517462"><ele>537.0</ele><time>2026-04-19T10:44:39Z</time></trkpt><trkpt lat="44.460036681348534" lon="10.55346469910401"><ele>537.0</ele><time>2026-04-19T10:44:40Z</time></trkpt><trkpt lat="44.46004504348057" lon="10.55331499637953"><ele>537.0</ele><time>2026-04-19T10:44:41Z</time></trkpt><trkpt lat="44.46005145444352" lon="10.553177263170417"><ele>539.6</ele><time>2026-04-19T10:44:42Z</time></trkpt><trkpt lat="44.46008231795833" lon="10.553069065358638"><ele>542.2</ele><time>2026-04-19T10:44:43Z</time></trkpt><trkpt lat="44.46013402139457" lon="10.55293698763099"><ele>544.8</ele><time>2026-04-19T10:44:44Z</time></trkpt><trkpt lat="44.46020456271027" lon="10.55281528784745"><ele>547.4</ele><time>2026-04-19T10:44:45Z</time></trkpt><trkpt lat="44.46029076663492" lon="10.552708629690855"><ele>550.0</ele><time>2026-04-19T10:44:46Z</time></trkpt><trkpt lat="44.46037258137209" lon="10.55259964165576"><ele>548.25</ele><time>2026-04-19T10:44:47Z</time></trkpt><trkpt lat="44.46043956234643" lon="10.552466086588563"><ele>546.5</ele><time>2026-04-19T10:44:48Z</time></trkpt><trkpt lat="44.46049892664037" lon="10.552326126887113"><ele>544.75</ele><time>2026-04-19T10:44:49Z</time></trkpt><trkpt lat="44.46056376954802" lon="10.552186081373312"><ele>543.0</ele><time>2026-04-19T10:44:50Z</time></trkpt><trkpt lat="44.46062124864423" lon="10.552051937910186"><ele>544.8333333333334</ele><time>2026-04-19T10:44:51Z</time></trkpt><trkpt lat="44.46067448909128" lon="10.551930673290656"><ele>546.6666666666666</ele><time>2026-04-19T10:44:52Z</time></trkpt><trkpt lat="44.460723664975305" lon="10.551842930495164"><ele>548.5</ele><time>2026-04-19T10:44:53Z</time></trkpt><trkpt lat="44.46075787675759" lon="10.551699727681939"><ele>550.3333333333333</ele><time>2026-04-19T10:44:55Z</time></trkpt><trkpt lat="44.46070665953599" lon="10.551647697521135"><ele>552.1666666666666</ele><time>2026-04-19T10:44:56Z</time></trkpt><trkpt lat="44.46062803626436" lon="10.551652155359426"><ele>554.0</ele><time>2026-04-19T10:44:57Z</time></trkpt><trkpt lat="44.4605656953723" lon="10.551746137495842"><ele>554.0</ele><time>2026-04-19T10:44:59Z</time></trkpt><trkpt lat="44.46049479245027" lon="10.55183032105889"><ele>554.0</ele><time>2026-04-19T10:45:01Z</time></trkpt><trkpt lat="44.46043020975051" lon="10.552129105835693"><ele>554.0</ele><time>2026-04-19T10:45:02Z</time></trkpt><trkpt lat="44.46034896079504" lon="10.552175412753746"><ele>554.0</ele><time>2026-04-19T10:45:03Z</time></trkpt><trkpt lat="44.46028216020654" lon="10.552213483964213"><ele>557.0</ele><time>2026-04-19T10:45:04Z</time></trkpt><trkpt lat="44.460191858453655" lon="10.55223672359351"><ele>560.0</ele><time>2026-04-19T10:45:05.999Z</time></trkpt><trkpt lat="44.45994595121787" lon="10.551603748682668"><ele>560.0</ele><time>2026-04-19T10:45:06.999Z</time></trkpt><trkpt lat="44.45985188725183" lon="10.551619452195908"><ele>560.0</ele><time>2026-04-19T10:45:08.999Z</time></trkpt><trkpt lat="44.45979857081499" lon="10.551674801069153"><ele>560.0</ele><time>2026-04-19T10:45:09.999Z</time></trkpt><trkpt lat="44.459749188516184" lon="10.551758857686217"><ele>560.0</ele><time>2026-04-19T10:45:10.999Z</time></trkpt><trkpt lat="44.45969819226972" lon="10.55181646371048"><ele>560.0</ele><time>2026-04-19T10:45:11.999Z</time></trkpt><trkpt lat="44.45957795295158" lon="10.551835407126728"><ele>560.0</ele><time>2026-04-19T10:45:13.999Z</time></trkpt><trkpt lat="44.45950262387644" lon="10.55181129124491"><ele>560.8333333333333</ele><time>2026-04-19T10:45:14.999Z</time></trkpt><trkpt lat="44.45942163480736" lon="10.551793553834333"><ele>561.6666666666666</ele><time>2026-04-19T10:45:15.999Z</time></trkpt><trkpt lat="44.459329676868336" lon="10.551773832976947"><ele>562.5</ele><time>2026-04-19T10:45:16.999Z</time></trkpt><trkpt lat="44.45922874051229" lon="10.551771750291621"><ele>563.3333333333334</ele><time>2026-04-19T10:45:17.999Z</time></trkpt><trkpt lat="44.45914366917225" lon="10.551783658058534"><ele>564.1666666666667</ele><time>2026-04-19T10:45:18.999Z</time></trkpt><trkpt lat="44.45907952301046" lon="10.551775641416269"><ele>565.0</ele><time>2026-04-19T10:45:19.999Z</time></trkpt><trkpt lat="44.45902781391858" lon="10.551687715396993"><ele>565.0</ele><time>2026-04-19T10:45:21.999Z</time></trkpt><trkpt lat="44.459042095120346" lon="10.551558206619854"><ele>565.0</ele><time>2026-04-19T10:45:23.999Z</time></trkpt><trkpt lat="44.459088716251465" lon="10.551466147901001"><ele>565.0</ele><time>2026-04-19T10:45:24.999Z</time></trkpt><trkpt lat="44.45914211350716" lon="10.551348114840165"><ele>565.0</ele><time>2026-04-19T10:45:25.999Z</time></trkpt><trkpt lat="44.45919073448906" lon="10.551231273927579"><ele>565.0</ele><time>2026-04-19T10:45:26.999Z</time></trkpt><trkpt lat="44.459237584937604" lon="10.55113274347129"><ele>567.3333333333334</ele><time>2026-04-19T10:45:27.999Z</time></trkpt><trkpt lat="44.45929096099421" lon="10.551043693058535"><ele>569.6666666666667</ele><time>2026-04-19T10:45:28.999Z</time></trkpt><trkpt lat="44.45935022244285" lon="10.550946152100176"><ele>572.0</ele><time>2026-04-19T10:45:29.999Z</time></trkpt><trkpt lat="44.45938273549575" lon="10.550855428007845"><ele>574.3333333333334</ele><time>2026-04-19T10:45:30.999Z</time></trkpt><trkpt lat="44.459412625673735" lon="10.550775079789952"><ele>576.6666666666666</ele><time>2026-04-19T10:45:31.999Z</time></trkpt><trkpt lat="44.45948804263752" lon="10.550630001507107"><ele>579.0</ele><time>2026-04-19T10:45:33.999Z</time></trkpt><trkpt lat="44.459539372713934" lon="10.55056433764028"><ele>579.0</ele><time>2026-04-19T10:45:34.999Z</time></trkpt><trkpt lat="44.45959810311763" lon="10.550485839725038"><ele>579.0</ele><time>2026-04-19T10:45:35.999Z</time></trkpt><trkpt lat="44.45966016027855" lon="10.550401136929962"><ele>579.0</ele><time>2026-04-19T10:45:36.999Z</time></trkpt><trkpt lat="44.459729216821344" lon="10.550298869171831"><ele>579.0</ele><time>2026-04-19T10:45:37.999Z</time></trkpt><trkpt lat="44.45980049735748" lon="10.550186395542895"><ele>579.0</ele><time>2026-04-19T10:45:38.999Z</time></trkpt><trkpt lat="44.45984253539367" lon="10.5501001688023"><ele>580.6</ele><time>2026-04-19T10:45:39.999Z</time></trkpt><trkpt lat="44.45987138206822" lon="10.549971752063884"><ele>582.2</ele><time>2026-04-19T10:45:40.999Z</time></trkpt><trkpt lat="44.45991884426848" lon="10.549848118472545"><ele>583.8000000000001</ele><time>2026-04-19T10:45:42Z</time></trkpt><trkpt lat="44.45997393169751" lon="10.549727108251085"><ele>585.4</ele><time>2026-04-19T10:45:43Z</time></trkpt><trkpt lat="44.46003723623039" lon="10.549644904126543"><ele>587.0</ele><time>2026-04-19T10:45:44Z</time></trkpt><trkpt lat="44.459957440113676" lon="10.549563491929401"><ele>587.0</ele><time>2026-04-19T10:45:46Z</time></trkpt><trkpt lat="44.45989480241013" lon="10.549618568958469"><ele>587.0</ele><time>2026-04-19T10:45:47Z</time></trkpt><trkpt lat="44.45984367406335" lon="10.54970956241938"><ele>587.0</ele><time>2026-04-19T10:45:48Z</time></trkpt><trkpt lat="44.45975759667259" lon="10.549764741480601"><ele>587.0</ele><time>2026-04-19T10:45:49Z</time></trkpt><trkpt lat="44.459676309605534" lon="10.54983004191657"><ele>587.0</ele><time>2026-04-19T10:45:50Z</time></trkpt><trkpt lat="44.459588669945504" lon="10.549912333354587"><ele>589.6</ele><time>2026-04-19T10:45:51Z</time></trkpt><trkpt lat="44.45952042114351" lon="10.549960125972301"><ele>592.2</ele><time>2026-04-19T10:45:52Z</time></trkpt><trkpt lat="44.459379441439424" lon="10.549897008001288"><ele>594.8</ele><time>2026-04-19T10:45:54Z</time></trkpt><trkpt lat="44.459311940812206" lon="10.549875376846074"><ele>597.4</ele><time>2026-04-19T10:45:55Z</time></trkpt><trkpt lat="44.459227013656715" lon="10.549812389849013"><ele>600.0</ele><time>2026-04-19T10:45:56Z</time></trkpt><trkpt lat="44.45915663083632" lon="10.549733080866991"><ele>600.0</ele><time>2026-04-19T10:45:57Z</time></trkpt><trkpt lat="44.45905372528911" lon="10.549748308646816"><ele>600.0</ele><time>2026-04-19T10:45:59Z</time></trkpt><trkpt lat="44.458961476021116" lon="10.549762314007507"><ele>600.0</ele><time>2026-04-19T10:46:00Z</time></trkpt><trkpt lat="44.458879924037454" lon="10.549760724525498"><ele>600.0</ele><time>2026-04-19T10:46:01Z</time></trkpt><trkpt lat="44.45875490285115" lon="10.549691959390387"><ele>600.0</ele><time>2026-04-19T10:46:03Z</time></trkpt><trkpt lat="44.45870697186279" lon="10.549624937784815"><ele>603.0</ele><time>2026-04-19T10:46:04Z</time></trkpt><trkpt lat="44.45861477798613" lon="10.54950143998648"><ele>606.0</ele><time>2026-04-19T10:46:06Z</time></trkpt><trkpt lat="44.45853049925705" lon="10.549434415617345"><ele>609.0</ele><time>2026-04-19T10:46:07Z</time></trkpt><trkpt lat="44.45844628206681" lon="10.549434870264053"><ele>612.0</ele><time>2026-04-19T10:46:08Z</time></trkpt><trkpt lat="44.45837206811179" lon="10.54940134070518"><ele>615.0</ele><time>2026-04-19T10:46:09Z</time></trkpt><trkpt lat="44.45829687645037" lon="10.549305603757558"><ele>615.0</ele><time>2026-04-19T10:46:10Z</time></trkpt><trkpt lat="44.45820717579377" lon="10.549169595046028"><ele>615.0</ele><time>2026-04-19T10:46:11Z</time></trkpt><trkpt lat="44.45814883365839" lon="10.54905626199316"><ele>615.0</ele><time>2026-04-19T10:46:12Z</time></trkpt><trkpt lat="44.45809860325063" lon="10.548967942962605"><ele>615.0</ele><time>2026-04-19T10:46:13Z</time></trkpt><trkpt lat="44.458055266909206" lon="10.54885187435144"><ele>615.0</ele><time>2026-04-19T10:46:14Z</time></trkpt><trkpt lat="44.458034047227926" lon="10.548721382630704"><ele>616.4</ele><time>2026-04-19T10:46:15Z</time></trkpt><trkpt lat="44.45801534890805" lon="10.548569326941102"><ele>617.8</ele><time>2026-04-19T10:46:16Z</time></trkpt><trkpt lat="44.45799951259751" lon="10.548420684960771"><ele>619.2</ele><time>2026-04-19T10:46:17Z</time></trkpt><trkpt lat="44.457989538900584" lon="10.548295913898606"><ele>620.6</ele><time>2026-04-19T10:46:18Z</time></trkpt><trkpt lat="44.45798552867462" lon="10.548163502920895"><ele>622.0</ele><time>2026-04-19T10:46:19Z</time></trkpt><trkpt lat="44.458011248888475" lon="10.548045020497916"><ele>622.0</ele><time>2026-04-19T10:46:20Z</time></trkpt><trkpt lat="44.457985247096275" lon="10.547917114412149"><ele>622.0</ele><time>2026-04-19T10:46:23Z</time></trkpt><trkpt lat="44.457911212786776" lon="10.547815474664919"><ele>622.0</ele><time>2026-04-19T10:46:24Z</time></trkpt><trkpt lat="44.45783601176046" lon="10.547736099041929"><ele>622.0</ele><time>2026-04-19T10:46:25Z</time></trkpt><trkpt lat="44.45775297443315" lon="10.547645150434333"><ele>622.0</ele><time>2026-04-19T10:46:26Z</time></trkpt><trkpt lat="44.457670845167044" lon="10.547551082253559"><ele>625.0</ele><time>2026-04-19T10:46:27Z</time></trkpt><trkpt lat="44.45758911487393" lon="10.547454579605704"><ele>628.0</ele><time>2026-04-19T10:46:28Z</time></trkpt><trkpt lat="44.45752897629209" lon="10.547383235409065"><ele>631.0</ele><time>2026-04-19T10:46:29Z</time></trkpt><trkpt lat="44.457467530222196" lon="10.547308511042928"><ele>634.0</ele><time>2026-04-19T10:46:30Z</time></trkpt><trkpt lat="44.457382596454416" lon="10.547216251264748"><ele>637.0</ele><time>2026-04-19T10:46:31Z</time></trkpt><trkpt lat="44.45729787580894" lon="10.547132446965154"><ele>637.0</ele><time>2026-04-19T10:46:32Z</time></trkpt><trkpt lat="44.45721790087299" lon="10.547039671198089"><ele>637.0</ele><time>2026-04-19T10:46:33Z</time></trkpt><trkpt lat="44.45714765881265" lon="10.546928707394068"><ele>637.0</ele><time>2026-04-19T10:46:34Z</time></trkpt><trkpt lat="44.45707835585331" lon="10.54680606076077"><ele>637.0</ele><time>2026-04-19T10:46:35Z</time></trkpt><trkpt lat="44.45700672156317" lon="10.54668194941456"><ele>637.0</ele><time>2026-04-19T10:46:36Z</time></trkpt><trkpt lat="44.456947891770525" lon="10.546585265827513"><ele>637.0</ele><time>2026-04-19T10:46:37Z</time></trkpt><trkpt lat="44.45687426735668" lon="10.546481912504083"><ele>637.0</ele><time>2026-04-19T10:46:39Z</time></trkpt><trkpt lat="44.45681600257805" lon="10.54652655126208"><ele>637.0</ele><time>2026-04-19T10:46:41Z</time></trkpt><trkpt lat="44.4567845011636" lon="10.5466081391488"><ele>637.0</ele><time>2026-04-19T10:47:05Z</time></trkpt><trkpt lat="44.456702744776564" lon="10.546693874899537"><ele>637.0</ele><time>2026-04-19T10:47:06.999Z</time></trkpt><trkpt lat="44.45663811180047" lon="10.546776988516077"><ele>637.0</ele><time>2026-04-19T10:47:07.999Z</time></trkpt><trkpt lat="44.45656536954408" lon="10.546865825556432"><ele>637.0</ele><time>2026-04-19T10:47:08.999Z</time></trkpt><trkpt lat="44.45648531345343" lon="10.54696252206677"><ele>637.0</ele><time>2026-04-19T10:47:09.999Z</time></trkpt><trkpt lat="44.45639921882452" lon="10.547063593297501"><ele>637.0</ele><time>2026-04-19T10:47:10.999Z</time></trkpt><trkpt lat="44.45630457681784" lon="10.547160420560495"><ele>637.0</ele><time>2026-04-19T10:47:11.999Z</time></trkpt><trkpt lat="44.45620201697569" lon="10.547234322172791"><ele>639.8</ele><time>2026-04-19T10:47:12.999Z</time></trkpt><trkpt lat="44.45609126060369" lon="10.547245047460994"><ele>642.6</ele><time>2026-04-19T10:47:13.999Z</time></trkpt><trkpt lat="44.455983856848675" lon="10.547290139987968"><ele>645.4</ele><time>2026-04-19T10:47:14.999Z</time></trkpt><trkpt lat="44.45589128561311" lon="10.547317492203724"><ele>648.1999999999999</ele><time>2026-04-19T10:47:15.999Z</time></trkpt><trkpt lat="44.45581056367679" lon="10.547368080120286"><ele>651.0</ele><time>2026-04-19T10:47:16.999Z</time></trkpt><trkpt lat="44.45572451539412" lon="10.547447396360415"><ele>651.0</ele><time>2026-04-19T10:47:17.999Z</time></trkpt><trkpt lat="44.455628855819285" lon="10.547535383854788"><ele>651.0</ele><time>2026-04-19T10:47:18.999Z</time></trkpt><trkpt lat="44.45553446204974" lon="10.54762257563432"><ele>651.0</ele><time>2026-04-19T10:47:19.999Z</time></trkpt><trkpt lat="44.45545744360168" lon="10.547701783821694"><ele>651.0</ele><time>2026-04-19T10:47:20.999Z</time></trkpt><trkpt lat="44.45539065724846" lon="10.547775965309095"><ele>651.0</ele><time>2026-04-19T10:47:21.999Z</time></trkpt><trkpt lat="44.45532799355834" lon="10.5478459802739"><ele>651.3333333333334</ele><time>2026-04-19T10:47:22.999Z</time></trkpt><trkpt lat="44.4552665852753" lon="10.547917463700008"><ele>651.6666666666666</ele><time>2026-04-19T10:47:23.999Z</time></trkpt><trkpt lat="44.45520589438746" lon="10.547969342191617"><ele>652.0</ele><time>2026-04-19T10:47:24.999Z</time></trkpt><trkpt lat="44.45513854650793" lon="10.548033518260926"><ele>652.3333333333333</ele><time>2026-04-19T10:47:26.999Z</time></trkpt><trkpt lat="44.455072674307004" lon="10.548023898239208"><ele>652.6666666666666</ele><time>2026-04-19T10:47:38.999Z</time></trkpt><trkpt lat="44.455066189113815" lon="10.547888323303429"><ele>653.0</ele><time>2026-04-19T10:47:39.999Z</time></trkpt><trkpt lat="44.45504857522624" lon="10.547779157037898"><ele>653.0</ele><time>2026-04-19T10:47:40.999Z</time></trkpt><trkpt lat="44.455030805100094" lon="10.547669022253851"><ele>653.0</ele><time>2026-04-19T10:47:41.999Z</time></trkpt><trkpt lat="44.45499458194303" lon="10.547543875282607"><ele>653.0</ele><time>2026-04-19T10:47:42.999Z</time></trkpt><trkpt lat="44.45497450502808" lon="10.547405013715874"><ele>653.0</ele><time>2026-04-19T10:47:43.999Z</time></trkpt><trkpt lat="44.45495510675194" lon="10.54725065384636"><ele>653.0</ele><time>2026-04-19T10:47:44.999Z</time></trkpt><trkpt lat="44.454935108318274" lon="10.547086556162808"><ele>650.0</ele><time>2026-04-19T10:47:45.999Z</time></trkpt><trkpt lat="44.45492655727256" lon="10.546914379290161"><ele>647.0</ele><time>2026-04-19T10:47:46.999Z</time></trkpt><trkpt lat="44.45490275060092" lon="10.546741039353046"><ele>644.0</ele><time>2026-04-19T10:47:48Z</time></trkpt><trkpt lat="44.45485634089243" lon="10.546578794853293"><ele>641.0</ele><time>2026-04-19T10:47:49Z</time></trkpt><trkpt lat="44.45481108341919" lon="10.546430152040049"><ele>641.0</ele><time>2026-04-19T10:47:50Z</time></trkpt><trkpt lat="44.45474718030858" lon="10.546294481910923"><ele>641.0</ele><time>2026-04-19T10:47:51Z</time></trkpt><trkpt lat="44.454676232807444" lon="10.546168879528189"><ele>641.0</ele><time>2026-04-19T10:47:52Z</time></trkpt><trkpt lat="44.45462856927676" lon="10.546048047434596"><ele>641.0</ele><time>2026-04-19T10:47:53Z</time></trkpt><trkpt lat="44.4546133291621" lon="10.545917429025781"><ele>641.0</ele><time>2026-04-19T10:47:54Z</time></trkpt><trkpt lat="44.45463769027392" lon="10.545801902928545"><ele>639.5</ele><time>2026-04-19T10:47:55Z</time></trkpt><trkpt lat="44.45463839058334" lon="10.545691472996912"><ele>638.0</ele><time>2026-04-19T10:47:56Z</time></trkpt><trkpt lat="44.45461475131054" lon="10.5455961227677"><ele>636.5</ele><time>2026-04-19T10:47:57Z</time></trkpt><trkpt lat="44.45459880455848" lon="10.545500837047369"><ele>635.0</ele><time>2026-04-19T10:47:58Z</time></trkpt><trkpt lat="44.454552835533704" lon="10.545404252077363"><ele>633.5</ele><time>2026-04-19T10:48:00Z</time></trkpt><trkpt lat="44.4545861675855" lon="10.545495600575176"><ele>632.0</ele><time>2026-04-19T10:48:03Z</time></trkpt><trkpt lat="44.45453288383022" lon="10.545670461715314"><ele>636.5</ele><time>2026-04-19T10:48:04Z</time></trkpt><trkpt lat="44.45451080747967" lon="10.545769919213921"><ele>641.0</ele><time>2026-04-19T10:48:05Z</time></trkpt><trkpt lat="44.454440414516824" lon="10.545807411218426"><ele>645.5</ele><time>2026-04-19T10:48:06Z</time></trkpt><trkpt lat="44.45435472110767" lon="10.545826157741073"><ele>650.0</ele><time>2026-04-19T10:48:07Z</time></trkpt><trkpt lat="44.45428385453032" lon="10.545881525112947"><ele>654.5</ele><time>2026-04-19T10:48:08Z</time></trkpt><trkpt lat="44.45423969056995" lon="10.545970385971419"><ele>659.0</ele><time>2026-04-19T10:48:09Z</time></trkpt><trkpt lat="44.454195798427406" lon="10.546093886994475"><ele>661.4000000000001</ele><time>2026-04-19T10:48:10Z</time></trkpt><trkpt lat="44.45416573178838" lon="10.54621279235465"><ele>663.8</ele><time>2026-04-19T10:48:11Z</time></trkpt><trkpt lat="44.45408134715399" lon="10.546323937136089"><ele>666.2</ele><time>2026-04-19T10:48:13Z</time></trkpt><trkpt lat="44.45398544823873" lon="10.546305732405397"><ele>668.5999999999999</ele><time>2026-04-19T10:48:14Z</time></trkpt><trkpt lat="44.453905467402386" lon="10.546288151022424"><ele>671.0</ele><time>2026-04-19T10:48:15Z</time></trkpt><trkpt lat="44.45382608718855" lon="10.546305021769612"><ele>674.5999999999999</ele><time>2026-04-19T10:48:16Z</time></trkpt><trkpt lat="44.4537016550859" lon="10.546353184091512"><ele>678.2</ele><time>2026-04-19T10:48:18Z</time></trkpt><trkpt lat="44.45360442569828" lon="10.546345041505715"><ele>681.8</ele><time>2026-04-19T10:48:19Z</time></trkpt><trkpt lat="44.453524470512406" lon="10.546242904334933"><ele>685.4000000000001</ele><time>2026-04-19T10:48:20Z</time></trkpt><trkpt lat="44.453448612315064" lon="10.546157013747644"><ele>689.0</ele><time>2026-04-19T10:48:21Z</time></trkpt><trkpt lat="44.453496964200085" lon="10.546057364039513"><ele>689.0</ele><time>2026-04-19T10:48:22Z</time></trkpt><trkpt lat="44.45342677135946" lon="10.545985642957271"><ele>689.0</ele><time>2026-04-19T10:48:23Z</time></trkpt><trkpt lat="44.45332188112447" lon="10.54589243648036"><ele>689.0</ele><time>2026-04-19T10:48:24Z</time></trkpt><trkpt lat="44.45324777957319" lon="10.545789949996005"><ele>689.0</ele><time>2026-04-19T10:48:25Z</time></trkpt><trkpt lat="44.45322026709237" lon="10.545680480741133"><ele>689.0</ele><time>2026-04-19T10:48:26Z</time></trkpt><trkpt lat="44.45323545355588" lon="10.54555661062815"><ele>689.0</ele><time>2026-04-19T10:48:28Z</time></trkpt><trkpt lat="44.45323295923181" lon="10.545440881146792"><ele>689.0</ele><time>2026-04-19T10:48:29Z</time></trkpt><trkpt lat="44.45323167290577" lon="10.54533616339273"><ele>689.0</ele><time>2026-04-19T10:48:31Z</time></trkpt><trkpt lat="44.45316282429745" lon="10.54524838915056"><ele>689.0</ele><time>2026-04-19T10:48:33Z</time></trkpt><trkpt lat="44.45310264467622" lon="10.54518548359457"><ele>689.0</ele><time>2026-04-19T10:48:35Z</time></trkpt><trkpt lat="44.453042638107455" lon="10.54522262657252"><ele>689.0</ele><time>2026-04-19T10:48:36Z</time></trkpt><trkpt lat="44.452953239574086" lon="10.545204225259912"><ele>692.25</ele><time>2026-04-19T10:48:38Z</time></trkpt><trkpt lat="44.45287055929145" lon="10.545145964480296"><ele>695.5</ele><time>2026-04-19T10:48:40Z</time></trkpt><trkpt lat="44.45279467334705" lon="10.545103920253085"><ele>698.75</ele><time>2026-04-19T10:48:41Z</time></trkpt><trkpt lat="44.45252507365506" lon="10.54514974132664"><ele>702.0</ele><time>2026-04-19T10:48:42Z</time></trkpt><trkpt lat="44.45256649581774" lon="10.545252940208147"><ele>704.6</ele><time>2026-04-19T10:48:57Z</time></trkpt><trkpt lat="44.45262256502182" lon="10.545423117460171"><ele>707.2</ele><time>2026-04-19T10:48:59Z</time></trkpt><trkpt lat="44.45266305158397" lon="10.545556622830965"><ele>709.8</ele><time>2026-04-19T10:49:00Z</time></trkpt><trkpt lat="44.452687340880736" lon="10.545695344328765"><ele>712.4</ele><time>2026-04-19T10:49:01Z</time></trkpt><trkpt lat="44.45267591181547" lon="10.545809235814248"><ele>715.0</ele><time>2026-04-19T10:49:02Z</time></trkpt><trkpt lat="44.452617341090004" lon="10.545928865714686"><ele>715.0</ele><time>2026-04-19T10:49:03Z</time></trkpt><trkpt lat="44.452602430084575" lon="10.546091431153592"><ele>715.0</ele><time>2026-04-19T10:49:04Z</time></trkpt><trkpt lat="44.45261137797974" lon="10.546234199471677"><ele>715.0</ele><time>2026-04-19T10:49:05Z</time></trkpt><trkpt lat="44.45258919700534" lon="10.546397469051936"><ele>715.0</ele><time>2026-04-19T10:49:06Z</time></trkpt><trkpt lat="44.45251659585451" lon="10.546606075680405"><ele>715.8</ele><time>2026-04-19T10:49:07Z</time></trkpt><trkpt lat="44.45246262540702" lon="10.546792267933638"><ele>716.6</ele><time>2026-04-19T10:49:08Z</time></trkpt><trkpt lat="44.452442118523344" lon="10.546958228274919"><ele>717.4000000000001</ele><time>2026-04-19T10:49:09Z</time></trkpt><trkpt lat="44.45242934970758" lon="10.547092049039849"><ele>718.2</ele><time>2026-04-19T10:49:09.999Z</time></trkpt><trkpt lat="44.45245142416505" lon="10.547197416822625"><ele>719.0</ele><time>2026-04-19T10:49:10.999Z</time></trkpt><trkpt lat="44.45249533745401" lon="10.547320922001793"><ele>721.2</ele><time>2026-04-19T10:49:11.999Z</time></trkpt><trkpt lat="44.45256539380964" lon="10.547434722067319"><ele>723.4000000000001</ele><time>2026-04-19T10:49:12.999Z</time></trkpt><trkpt lat="44.45264794723673" lon="10.547522597539944"><ele>725.6</ele><time>2026-04-19T10:49:13.999Z</time></trkpt><trkpt lat="44.452724923861965" lon="10.547611074070181"><ele>727.8</ele><time>2026-04-19T10:49:14.999Z</time></trkpt><trkpt lat="44.452795392216544" lon="10.54768820278402"><ele>730.0</ele><time>2026-04-19T10:49:15.999Z</time></trkpt><trkpt lat="44.452861757743" lon="10.54776899317476"><ele>730.0</ele><time>2026-04-19T10:49:16.999Z</time></trkpt><trkpt lat="44.45293224308875" lon="10.547868361928105"><ele>730.0</ele><time>2026-04-19T10:49:17.999Z</time></trkpt><trkpt lat="44.45300011037043" lon="10.547954635864201"><ele>730.0</ele><time>2026-04-19T10:49:18.999Z</time></trkpt><trkpt lat="44.453061979909236" lon="10.548026351324781"><ele>730.0</ele><time>2026-04-19T10:49:19.999Z</time></trkpt><trkpt lat="44.45299429512068" lon="10.548170058566305"><ele>730.0</ele><time>2026-04-19T10:49:21.999Z</time></trkpt><trkpt lat="44.45293140841187" lon="10.548205197265972"><ele>732.6</ele><time>2026-04-19T10:49:22.999Z</time></trkpt><trkpt lat="44.45289116455345" lon="10.54827369876706"><ele>735.2</ele><time>2026-04-19T10:49:28.999Z</time></trkpt><trkpt lat="44.45281346315735" lon="10.54835074148185"><ele>737.8</ele><time>2026-04-19T10:49:32.999Z</time></trkpt><trkpt lat="44.45277452697731" lon="10.548448265560948"><ele>740.4</ele><time>2026-04-19T10:49:33.999Z</time></trkpt><trkpt lat="44.4527276644754" lon="10.548575958593169"><ele>743.0</ele><time>2026-04-19T10:49:34.999Z</time></trkpt><trkpt lat="44.452669000555645" lon="10.54870473940719"><ele>741.8</ele><time>2026-04-19T10:49:35.999Z</time></trkpt><trkpt lat="44.452662891113604" lon="10.548840863240395"><ele>740.5999999999999</ele><time>2026-04-19T10:49:36.999Z</time></trkpt><trkpt lat="44.45264345226112" lon="10.548993324695466"><ele>739.4000000000001</ele><time>2026-04-19T10:49:37.999Z</time></trkpt><trkpt lat="44.45263320387325" lon="10.549108983675046"><ele>738.2</ele><time>2026-04-19T10:49:38.999Z</time></trkpt><trkpt lat="44.45258369521687" lon="10.549180975990549"><ele>737.0</ele><time>2026-04-19T10:49:39.999Z</time></trkpt><trkpt lat="44.452556918725314" lon="10.549311209596567"><ele>737.0</ele><time>2026-04-19T10:49:40.999Z</time></trkpt><trkpt lat="44.45251783216408" lon="10.54944974985949"><ele>737.0</ele><time>2026-04-19T10:49:41.999Z</time></trkpt><trkpt lat="44.45253065654303" lon="10.549629359401992"><ele>737.0</ele><time>2026-04-19T10:49:42.999Z</time></trkpt><trkpt lat="44.45254798565436" lon="10.54978884150585"><ele>737.0</ele><time>2026-04-19T10:49:43.999Z</time></trkpt><trkpt lat="44.45257685088734" lon="10.549921248663894"><ele>737.0</ele><time>2026-04-19T10:49:44.999Z</time></trkpt><trkpt lat="44.452578995892296" lon="10.550030245717773"><ele>735.2</ele><time>2026-04-19T10:49:45.999Z</time></trkpt><trkpt lat="44.452539367417195" lon="10.550203146271937"><ele>733.4000000000001</ele><time>2026-04-19T10:49:47.999Z</time></trkpt><trkpt lat="44.45247535467752" lon="10.550277574585486"><ele>731.5999999999999</ele><time>2026-04-19T10:49:48.999Z</time></trkpt><trkpt lat="44.45241831509861" lon="10.550376612769986"><ele>729.8</ele><time>2026-04-19T10:49:49.999Z</time></trkpt><trkpt lat="44.45237874337964" lon="10.550448250196535"><ele>728.0</ele><time>2026-04-19T10:49:50.999Z</time></trkpt><trkpt lat="44.45231731051099" lon="10.550588367924517"><ele>725.5999999999999</ele><time>2026-04-19T10:49:52.999Z</time></trkpt><trkpt lat="44.45240780881773" lon="10.550784209487398"><ele>723.1999999999999</ele><time>2026-04-19T10:49:55Z</time></trkpt><trkpt lat="44.4524681701455" lon="10.550827243818821"><ele>720.8</ele><time>2026-04-19T10:49:56Z</time></trkpt><trkpt lat="44.452565266608545" lon="10.550889642516896"><ele>718.4</ele><time>2026-04-19T10:49:57Z</time></trkpt><trkpt lat="44.452661369598566" lon="10.550932581933388"><ele>716.0</ele><time>2026-04-19T10:49:58Z</time></trkpt><trkpt lat="44.45276762754448" lon="10.550958415116247"><ele>716.0</ele><time>2026-04-19T10:49:59Z</time></trkpt><trkpt lat="44.45286616727215" lon="10.551008799995506"><ele>716.0</ele><time>2026-04-19T10:50:00Z</time></trkpt><trkpt lat="44.45296448141084" lon="10.55107607927801"><ele>716.0</ele><time>2026-04-19T10:50:01Z</time></trkpt><trkpt lat="44.453054527539294" lon="10.55116510393199"><ele>716.0</ele><time>2026-04-19T10:50:02Z</time></trkpt><trkpt lat="44.453135571366815" lon="10.551270373088071"><ele>716.0</ele><time>2026-04-19T10:50:03Z</time></trkpt><trkpt lat="44.45320525498614" lon="10.551390434000348"><ele>714.75</ele><time>2026-04-19T10:50:04Z</time></trkpt><trkpt lat="44.45326365728973" lon="10.551535241259224"><ele>713.5</ele><time>2026-04-19T10:50:05Z</time></trkpt><trkpt lat="44.453323711294544" lon="10.551685935108138"><ele>712.25</ele><time>2026-04-19T10:50:06Z</time></trkpt><trkpt lat="44.453385261461094" lon="10.551833704716135"><ele>711.0</ele><time>2026-04-19T10:50:07Z</time></trkpt><trkpt lat="44.45343946290323" lon="10.55197477512409"><ele>709.5999999999999</ele><time>2026-04-19T10:50:08Z</time></trkpt><trkpt lat="44.45349328411347" lon="10.55211254503706"><ele>708.2</ele><time>2026-04-19T10:50:09Z</time></trkpt><trkpt lat="44.45353327346648" lon="10.552241224105678"><ele>706.8</ele><time>2026-04-19T10:50:10Z</time></trkpt><trkpt lat="44.453542670751816" lon="10.55237517875641"><ele>705.4000000000001</ele><time>2026-04-19T10:50:11Z</time></trkpt><trkpt lat="44.45347199669898" lon="10.552513820194362"><ele>704.0</ele><time>2026-04-19T10:50:12Z</time></trkpt><trkpt lat="44.45345688925521" lon="10.552698325690953"><ele>701.0</ele><time>2026-04-19T10:50:13Z</time></trkpt><trkpt lat="44.453441290133554" lon="10.552903961875943"><ele>698.0</ele><time>2026-04-19T10:50:14Z</time></trkpt><trkpt lat="44.453439014499835" lon="10.553090922795812"><ele>695.0</ele><time>2026-04-19T10:50:15Z</time></trkpt><trkpt lat="44.453418802088144" lon="10.553242759588503"><ele>692.0</ele><time>2026-04-19T10:50:16Z</time></trkpt><trkpt lat="44.4533898844204" lon="10.553388848778296"><ele>692.0</ele><time>2026-04-19T10:50:17Z</time></trkpt><trkpt lat="44.4533681401491" lon="10.55352110084854"><ele>692.0</ele><time>2026-04-19T10:50:18Z</time></trkpt><trkpt lat="44.45339338609673" lon="10.553653747929658"><ele>692.0</ele><time>2026-04-19T10:50:19Z</time></trkpt><trkpt lat="44.45345449644729" lon="10.553794201730105"><ele>692.0</ele><time>2026-04-19T10:50:20Z</time></trkpt><trkpt lat="44.45354392984257" lon="10.553929833142433"><ele>692.0</ele><time>2026-04-19T10:50:21Z</time></trkpt><trkpt lat="44.453620140711074" lon="10.554063393542"><ele>691.5</ele><time>2026-04-19T10:50:22Z</time></trkpt><trkpt lat="44.453657885271625" lon="10.554211639465159"><ele>691.0</ele><time>2026-04-19T10:50:23Z</time></trkpt><trkpt lat="44.453678186513045" lon="10.554373514553188"><ele>690.5</ele><time>2026-04-19T10:50:24Z</time></trkpt><trkpt lat="44.45367218086007" lon="10.554548973504351"><ele>690.0</ele><time>2026-04-19T10:50:25Z</time></trkpt><trkpt lat="44.453662798057785" lon="10.554721098739082"><ele>690.0</ele><time>2026-04-19T10:50:26Z</time></trkpt><trkpt lat="44.453639669840754" lon="10.554867814006428"><ele>690.0</ele><time>2026-04-19T10:50:27Z</time></trkpt><trkpt lat="44.45357032258556" lon="10.554992604759182"><ele>690.0</ele><time>2026-04-19T10:50:28Z</time></trkpt><trkpt lat="44.45353139714754" lon="10.555154665766258"><ele>690.0</ele><time>2026-04-19T10:50:29Z</time></trkpt><trkpt lat="44.45350048808966" lon="10.555322422315465"><ele>689.25</ele><time>2026-04-19T10:50:30Z</time></trkpt><trkpt lat="44.45349802017503" lon="10.5555060063609"><ele>688.5</ele><time>2026-04-19T10:50:31Z</time></trkpt><trkpt lat="44.45350141843024" lon="10.555686599886346"><ele>687.75</ele><time>2026-04-19T10:50:32Z</time></trkpt><trkpt lat="44.45349820019408" lon="10.555862220943778"><ele>687.0</ele><time>2026-04-19T10:50:33Z</time></trkpt><trkpt lat="44.45349349749562" lon="10.55603302177924"><ele>687.0</ele><time>2026-04-19T10:50:34Z</time></trkpt><trkpt lat="44.45347986921053" lon="10.556199490428426"><ele>687.0</ele><time>2026-04-19T10:50:35Z</time></trkpt><trkpt lat="44.45345085771419" lon="10.556364731231689"><ele>687.0</ele><time>2026-04-19T10:50:36Z</time></trkpt><trkpt lat="44.453415424749224" lon="10.556529519465888"><ele>687.0</ele><time>2026-04-19T10:50:37Z</time></trkpt><trkpt lat="44.453371688167884" lon="10.556688546279112"><ele>688.25</ele><time>2026-04-19T10:50:38Z</time></trkpt><trkpt lat="44.45331153503969" lon="10.556834457477716"><ele>689.5</ele><time>2026-04-19T10:50:39Z</time></trkpt><trkpt lat="44.45324263570224" lon="10.556970391377124"><ele>690.75</ele><time>2026-04-19T10:50:40Z</time></trkpt><trkpt lat="44.453193547223535" lon="10.557115591421237"><ele>692.0</ele><time>2026-04-19T10:50:41Z</time></trkpt><trkpt lat="44.453170982875356" lon="10.557280881787031"><ele>694.0</ele><time>2026-04-19T10:50:42Z</time></trkpt><trkpt lat="44.4531744650992" lon="10.557436219677879"><ele>696.0</ele><time>2026-04-19T10:50:43Z</time></trkpt><trkpt lat="44.45320730325172" lon="10.557568592583817"><ele>698.0</ele><time>2026-04-19T10:50:44Z</time></trkpt><trkpt lat="44.45327819435867" lon="10.557679458723152"><ele>700.0</ele><time>2026-04-19T10:50:45Z</time></trkpt><trkpt lat="44.453356993098154" lon="10.557787858957044"><ele>702.0</ele><time>2026-04-19T10:50:46Z</time></trkpt><trkpt lat="44.453410704779316" lon="10.557909323594489"><ele>703.5</ele><time>2026-04-19T10:50:47Z</time></trkpt><trkpt lat="44.45342893111679" lon="10.558044575106635"><ele>705.0</ele><time>2026-04-19T10:50:48Z</time></trkpt><trkpt lat="44.45335717056" lon="10.558185834813816"><ele>706.5</ele><time>2026-04-19T10:50:49Z</time></trkpt><trkpt lat="44.45328033927977" lon="10.558331738706793"><ele>708.0</ele><time>2026-04-19T10:50:50Z</time></trkpt><trkpt lat="44.45321552914771" lon="10.558448218839727"><ele>708.0</ele><time>2026-04-19T10:50:51Z</time></trkpt><trkpt lat="44.453191874588754" lon="10.558601240593532"><ele>708.0</ele><time>2026-04-19T10:50:52Z</time></trkpt><trkpt lat="44.45316621236045" lon="10.558748287094003"><ele>708.0</ele><time>2026-04-19T10:50:53Z</time></trkpt><trkpt lat="44.45313146850426" lon="10.558880784344952"><ele>708.0</ele><time>2026-04-19T10:50:54Z</time></trkpt><trkpt lat="44.45309860697181" lon="10.55899576350785"><ele>708.0</ele><time>2026-04-19T10:50:55Z</time></trkpt><trkpt lat="44.45307867167696" lon="10.559102780606823"><ele>709.8333333333334</ele><time>2026-04-19T10:50:56Z</time></trkpt><trkpt lat="44.45306529882179" lon="10.559196736386214"><ele>711.6666666666666</ele><time>2026-04-19T10:50:57Z</time></trkpt><trkpt lat="44.453065397554084" lon="10.55929100465258"><ele>713.5</ele><time>2026-04-19T10:51:01Z</time></trkpt><trkpt lat="44.453190268121" lon="10.559350423761693"><ele>715.3333333333333</ele><time>2026-04-19T10:52:03Z</time></trkpt><trkpt lat="44.45326055062758" lon="10.559418449530574"><ele>717.1666666666666</ele><time>2026-04-19T10:52:06Z</time></trkpt><trkpt lat="44.45324582822179" lon="10.559507996254581"><ele>719.0</ele><time>2026-04-19T10:52:08Z</time></trkpt><trkpt lat="44.45325502357306" lon="10.559643760371014"><ele>720.6</ele><time>2026-04-19T10:52:10Z</time></trkpt><trkpt lat="44.45324179735994" lon="10.55973019417484"><ele>722.2</ele><time>2026-04-19T10:52:11Z</time></trkpt><trkpt lat="44.45321929579718" lon="10.559827730868323"><ele>723.8000000000001</ele><time>2026-04-19T10:52:12Z</time></trkpt><trkpt lat="44.45318250936481" lon="10.559938355090756"><ele>725.4000000000001</ele><time>2026-04-19T10:52:13Z</time></trkpt><trkpt lat="44.45316284473144" lon="10.560099188858793"><ele>727.0</ele><time>2026-04-19T10:52:15Z</time></trkpt><trkpt lat="44.453181871403494" lon="10.56026025606994"><ele>730.6</ele><time>2026-04-19T10:52:17Z</time></trkpt><trkpt lat="44.4531583300634" lon="10.560428710159076"><ele>734.2</ele><time>2026-04-19T10:52:19Z</time></trkpt><trkpt lat="44.45313353693029" lon="10.56052895032281"><ele>737.8</ele><time>2026-04-19T10:52:20Z</time></trkpt><trkpt lat="44.4531081894485" lon="10.56062080063974"><ele>741.4</ele><time>2026-04-19T10:52:21Z</time></trkpt><trkpt lat="44.45306559796257" lon="10.560693552677535"><ele>745.0</ele><time>2026-04-19T10:52:22Z</time></trkpt><trkpt lat="44.453051312329734" lon="10.560875715248892"><ele>745.0</ele><time>2026-04-19T10:52:24Z</time></trkpt><trkpt lat="44.453034871243744" lon="10.560993666319057"><ele>745.0</ele><time>2026-04-19T10:52:25Z</time></trkpt><trkpt lat="44.45303022163956" lon="10.561091129110173"><ele>745.0</ele><time>2026-04-19T10:52:26Z</time></trkpt><trkpt lat="44.453033861149315" lon="10.5611801285951"><ele>745.0</ele><time>2026-04-19T10:52:27Z</time></trkpt><trkpt lat="44.45304470843051" lon="10.561289781071272"><ele>745.0</ele><time>2026-04-19T10:52:28Z</time></trkpt><trkpt lat="44.453049315397024" lon="10.561403040777929"><ele>745.0</ele><time>2026-04-19T10:52:29Z</time></trkpt><trkpt lat="44.453065869279236" lon="10.561499451946686"><ele>746.6666666666667</ele><time>2026-04-19T10:52:30Z</time></trkpt><trkpt lat="44.45308907280814" lon="10.56164464320489"><ele>748.3333333333334</ele><time>2026-04-19T10:52:32Z</time></trkpt><trkpt lat="44.45307751256318" lon="10.561741139699352"><ele>750.0</ele><time>2026-04-19T10:52:33Z</time></trkpt><trkpt lat="44.45307112371093" lon="10.561855858897173"><ele>751.6666666666666</ele><time>2026-04-19T10:52:34Z</time></trkpt><trkpt lat="44.45305777483371" lon="10.561961284434524"><ele>753.3333333333333</ele><time>2026-04-19T10:52:35Z</time></trkpt><trkpt lat="44.45304517705363" lon="10.562053131039011"><ele>755.0</ele><time>2026-04-19T10:52:36Z</time></trkpt><trkpt lat="44.453046541808085" lon="10.562150864972441"><ele>755.1428571428571</ele><time>2026-04-19T10:52:37Z</time></trkpt><trkpt lat="44.45303985280819" lon="10.562239394801715"><ele>755.2857142857143</ele><time>2026-04-19T10:52:38Z</time></trkpt><trkpt lat="44.45296617800205" lon="10.562172696446591"><ele>755.4285714285714</ele><time>2026-04-19T10:52:45Z</time></trkpt><trkpt lat="44.45292028220184" lon="10.562272630541086"><ele>755.5714285714286</ele><time>2026-04-19T10:54:40Z</time></trkpt><trkpt lat="44.452921939427874" lon="10.562372307581136"><ele>755.7142857142858</ele><time>2026-04-19T10:54:41Z</time></trkpt><trkpt lat="44.452928826746316" lon="10.562462569798255"><ele>755.8571428571429</ele><time>2026-04-19T10:54:42Z</time></trkpt><trkpt lat="44.45294006343096" lon="10.562567854902683"><ele>756.0</ele><time>2026-04-19T10:54:43Z</time></trkpt><trkpt lat="44.45293710275021" lon="10.562672033126175"><ele>756.0</ele><time>2026-04-19T10:54:44Z</time></trkpt><trkpt lat="44.452938328458885" lon="10.562791626324495"><ele>756.0</ele><time>2026-04-19T10:54:45Z</time></trkpt><trkpt lat="44.45294744766915" lon="10.562915974954562"><ele>756.0</ele><time>2026-04-19T10:54:46Z</time></trkpt><trkpt lat="44.452958764980316" lon="10.563076967296244"><ele>756.0</ele><time>2026-04-19T10:54:47Z</time></trkpt><trkpt lat="44.45295005786292" lon="10.563289313260263"><ele>756.0</ele><time>2026-04-19T10:54:48Z</time></trkpt><trkpt lat="44.4529369742376" lon="10.56345101677353"><ele>758.5999999999999</ele><time>2026-04-19T10:54:49Z</time></trkpt><trkpt lat="44.45291878005137" lon="10.563565664008491"><ele>761.2</ele><time>2026-04-19T10:54:50Z</time></trkpt><trkpt lat="44.452885926671755" lon="10.563706659516047"><ele>763.8</ele><time>2026-04-19T10:54:51Z</time></trkpt><trkpt lat="44.45284483518693" lon="10.56386029431268"><ele>766.4000000000001</ele><time>2026-04-19T10:54:52Z</time></trkpt><trkpt lat="44.45280930994305" lon="10.563983204358756"><ele>769.0</ele><time>2026-04-19T10:54:53Z</time></trkpt><trkpt lat="44.452792098276646" lon="10.564106632005029"><ele>770.8000000000001</ele><time>2026-04-19T10:54:54Z</time></trkpt><trkpt lat="44.45279960716488" lon="10.564202805408184"><ele>772.6</ele><time>2026-04-19T10:54:55Z</time></trkpt><trkpt lat="44.452841479478835" lon="10.564299718824186"><ele>774.4</ele><time>2026-04-19T10:54:56Z</time></trkpt><trkpt lat="44.45288071777711" lon="10.564461702134317"><ele>776.2</ele><time>2026-04-19T10:54:57Z</time></trkpt><trkpt lat="44.45290326314518" lon="10.564621475357802"><ele>778.0</ele><time>2026-04-19T10:54:58Z</time></trkpt><trkpt lat="44.45291343452842" lon="10.564768423666605"><ele>778.0</ele><time>2026-04-19T10:54:59Z</time></trkpt><trkpt lat="44.45292233768607" lon="10.564917925252038"><ele>778.0</ele><time>2026-04-19T10:55:00Z</time></trkpt><trkpt lat="44.45291994664667" lon="10.565075895691878"><ele>778.0</ele><time>2026-04-19T10:55:01Z</time></trkpt><trkpt lat="44.452886639274254" lon="10.565214660950287"><ele>778.0</ele><time>2026-04-19T10:55:02Z</time></trkpt><trkpt lat="44.45289472782445" lon="10.565341235908976"><ele>778.0</ele><time>2026-04-19T10:55:03Z</time></trkpt><trkpt lat="44.45293694626874" lon="10.565487919494133"><ele>780.25</ele><time>2026-04-19T10:55:04Z</time></trkpt><trkpt lat="44.45297440945867" lon="10.5656749571558"><ele>782.5</ele><time>2026-04-19T10:55:05Z</time></trkpt><trkpt lat="44.45300202171496" lon="10.565857099785832"><ele>784.75</ele><time>2026-04-19T10:55:06Z</time></trkpt><trkpt lat="44.45298501590998" lon="10.565986015587052"><ele>787.0</ele><time>2026-04-19T10:55:07Z</time></trkpt><trkpt lat="44.4530153948163" lon="10.566137721410165"><ele>787.25</ele><time>2026-04-19T10:55:08Z</time></trkpt><trkpt lat="44.45301926941291" lon="10.566326244887758"><ele>787.5</ele><time>2026-04-19T10:55:09Z</time></trkpt><trkpt lat="44.4529787459415" lon="10.566506762736545"><ele>787.75</ele><time>2026-04-19T10:55:10Z</time></trkpt><trkpt lat="44.45296315955822" lon="10.566647872816592"><ele>788.0</ele><time>2026-04-19T10:55:11Z</time></trkpt><trkpt lat="44.45297390808674" lon="10.566762123952968"><ele>788.0</ele><time>2026-04-19T10:55:12Z</time></trkpt><trkpt lat="44.45301475243861" lon="10.566890757880252"><ele>788.0</ele><time>2026-04-19T10:55:12.999Z</time></trkpt><trkpt lat="44.453060271032264" lon="10.567046099027904"><ele>788.0</ele><time>2026-04-19T10:55:13.999Z</time></trkpt><trkpt lat="44.45313119269401" lon="10.567202513312623"><ele>788.0</ele><time>2026-04-19T10:55:14.999Z</time></trkpt><trkpt lat="44.453214407931135" lon="10.567359451465206"><ele>789.4</ele><time>2026-04-19T10:55:15.999Z</time></trkpt><trkpt lat="44.45328836967187" lon="10.567503139167894"><ele>790.8</ele><time>2026-04-19T10:55:16.999Z</time></trkpt><trkpt lat="44.45335772781476" lon="10.56761761694192"><ele>792.2</ele><time>2026-04-19T10:55:17.999Z</time></trkpt><trkpt lat="44.45342241690747" lon="10.567689918247055"><ele>793.6</ele><time>2026-04-19T10:55:18.999Z</time></trkpt><trkpt lat="44.45340227061452" lon="10.567844718469594"><ele>795.0</ele><time>2026-04-19T10:55:20.999Z</time></trkpt><trkpt lat="44.453377181872284" lon="10.567966822632954"><ele>796.75</ele><time>2026-04-19T10:55:21.999Z</time></trkpt><trkpt lat="44.453370028316876" lon="10.568082284346335"><ele>798.5</ele><time>2026-04-19T10:55:22.999Z</time></trkpt><trkpt lat="44.453379828989156" lon="10.568219985992465"><ele>800.25</ele><time>2026-04-19T10:55:23.999Z</time></trkpt><trkpt lat="44.45339763471688" lon="10.56838853806378"><ele>802.0</ele><time>2026-04-19T10:55:24.999Z</time></trkpt><trkpt lat="44.453399896834455" lon="10.568598754630289"><ele>801.25</ele><time>2026-04-19T10:55:25.999Z</time></trkpt><trkpt lat="44.453387290516716" lon="10.568775820481639"><ele>800.5</ele><time>2026-04-19T10:55:26.999Z</time></trkpt><trkpt lat="44.45338405195354" lon="10.568946050941218"><ele>799.75</ele><time>2026-04-19T10:55:27.999Z</time></trkpt><trkpt lat="44.45338334784775" lon="10.56909122197627"><ele>799.0</ele><time>2026-04-19T10:55:28.999Z</time></trkpt><trkpt lat="44.453383844192516" lon="10.569247523618722"><ele>799.0</ele><time>2026-04-19T10:55:29.999Z</time></trkpt><trkpt lat="44.45338651822465" lon="10.569406494389616"><ele>799.0</ele><time>2026-04-19T10:55:30.999Z</time></trkpt><trkpt lat="44.45334809196372" lon="10.569543851404257"><ele>799.0</ele><time>2026-04-19T10:55:31.999Z</time></trkpt><trkpt lat="44.45332664728449" lon="10.569633571734911"><ele>799.0</ele><time>2026-04-19T10:55:32.999Z</time></trkpt><trkpt lat="44.45334139807399" lon="10.56977374468846"><ele>799.0</ele><time>2026-04-19T10:55:33.999Z</time></trkpt><trkpt lat="44.45339050873348" lon="10.569896066220625"><ele>798.8000000000001</ele><time>2026-04-19T10:55:34.999Z</time></trkpt><trkpt lat="44.45345782195227" lon="10.570026256492245"><ele>798.6</ele><time>2026-04-19T10:55:35.999Z</time></trkpt><trkpt lat="44.45354710777482" lon="10.570149015246415"><ele>798.4</ele><time>2026-04-19T10:55:36.999Z</time></trkpt><trkpt lat="44.45363469609414" lon="10.570275319123896"><ele>798.2</ele><time>2026-04-19T10:55:37.999Z</time></trkpt><trkpt lat="44.45369011188105" lon="10.570343408426066"><ele>798.0</ele><time>2026-04-19T10:55:38.999Z</time></trkpt><trkpt lat="44.45374860654301" lon="10.570440777271916"><ele>802.0</ele><time>2026-04-19T10:55:40.999Z</time></trkpt><trkpt lat="44.45380314109529" lon="10.570502780241034"><ele>806.0</ele><time>2026-04-19T10:55:41.999Z</time></trkpt><trkpt lat="44.45386543596193" lon="10.570527634626512"><ele>810.0</ele><time>2026-04-19T10:55:42.999Z</time></trkpt><trkpt lat="44.453883826525285" lon="10.570621463193369"><ele>814.0</ele><time>2026-04-19T10:55:45.999Z</time></trkpt><trkpt lat="44.45388588199136" lon="10.570714994487457"><ele>818.0</ele><time>2026-04-19T10:55:48.999Z</time></trkpt><trkpt lat="44.45390238599036" lon="10.570825267281073"><ele>822.0</ele><time>2026-04-19T10:56:21Z</time></trkpt><trkpt lat="44.45390307941262" lon="10.570927895082377"><ele>826.0</ele><time>2026-04-19T10:56:22Z</time></trkpt><trkpt lat="44.45390587057006" lon="10.571022894737418"><ele>825.9999999999999</ele><time>2026-04-19T10:56:24Z</time></trkpt><trkpt lat="44.453960808566265" lon="10.571131497877202"><ele>826.0</ele><time>2026-04-19T10:56:26Z</time></trkpt><trkpt lat="44.453996621750406" lon="10.571204980804513"><ele>826.0</ele><time>2026-04-19T10:56:27Z</time></trkpt><trkpt lat="44.45404368116041" lon="10.571320274021836"><ele>826.0</ele><time>2026-04-19T10:56:29Z</time></trkpt><trkpt lat="44.45403036522124" lon="10.571435886613939"><ele>825.9999999999999</ele><time>2026-04-19T10:56:32Z</time></trkpt><trkpt lat="44.45405978698154" lon="10.571519985475371"><ele>826.0</ele><time>2026-04-19T10:56:33Z</time></trkpt><trkpt lat="44.454083767595534" lon="10.571603817908352"><ele>828.8333333333333</ele><time>2026-04-19T10:56:34Z</time></trkpt><trkpt lat="44.45410263400618" lon="10.571696923469737"><ele>831.6666666666666</ele><time>2026-04-19T10:56:35Z</time></trkpt><trkpt lat="44.454124887705504" lon="10.57178064318421"><ele>834.5</ele><time>2026-04-19T10:56:36Z</time></trkpt><trkpt lat="44.45415901299437" lon="10.571866959293937"><ele>837.3333333333333</ele><time>2026-04-19T10:56:37Z</time></trkpt><trkpt lat="44.45418631408127" lon="10.571987537713847"><ele>840.1666666666666</ele><time>2026-04-19T10:56:39Z</time></trkpt><trkpt lat="44.454243728795504" lon="10.572144941745199"><ele>843.0</ele><time>2026-04-19T10:56:41Z</time></trkpt><trkpt lat="44.45428578110534" lon="10.572225200230713"><ele>843.8333333333334</ele><time>2026-04-19T10:56:43Z</time></trkpt><trkpt lat="44.45436379066653" lon="10.57226659784668"><ele>844.6666666666667</ele><time>2026-04-19T10:57:25.999Z</time></trkpt><trkpt lat="44.454439291112024" lon="10.572354003736166"><ele>845.5</ele><time>2026-04-19T10:57:27.999Z</time></trkpt><trkpt lat="44.45447221465364" lon="10.572442755905252"><ele>846.3333333333334</ele><time>2026-04-19T10:57:29.999Z</time></trkpt><trkpt lat="44.454506037697456" lon="10.57251760663407"><ele>847.1666666666667</ele><time>2026-04-19T10:57:33.999Z</time></trkpt><trkpt lat="44.45453263694023" lon="10.572611827975303"><ele>848.0</ele><time>2026-04-19T10:57:35.999Z</time></trkpt><trkpt lat="44.454578466201355" lon="10.57270843539941"><ele>848.0000000000001</ele><time>2026-04-19T10:57:37.999Z</time></trkpt><trkpt lat="44.45458447353133" lon="10.572801828721133"><ele>848.0</ele><time>2026-04-19T10:57:42.999Z</time></trkpt><trkpt lat="44.454614227023285" lon="10.572900404255408"><ele>848.0</ele><time>2026-04-19T10:57:53.999Z</time></trkpt><trkpt lat="44.45464935761549" lon="10.573040620831232"><ele>848.0</ele><time>2026-04-19T10:57:55.999Z</time></trkpt><trkpt lat="44.454698677005425" lon="10.573166271868411"><ele>848.0000000000001</ele><time>2026-04-19T10:57:57.999Z</time></trkpt><trkpt lat="44.45476780711515" lon="10.573228162979081"><ele>848.0</ele><time>2026-04-19T10:57:59.999Z</time></trkpt><trkpt lat="44.45481880207347" lon="10.57331810428738"><ele>853.5000000000001</ele><time>2026-04-19T10:58:01.999Z</time></trkpt><trkpt lat="44.454862728157316" lon="10.573389354879797"><ele>859.0</ele><time>2026-04-19T10:58:02.999Z</time></trkpt><trkpt lat="44.45489746826413" lon="10.57346972635413"><ele>864.5</ele><time>2026-04-19T10:58:03.999Z</time></trkpt><trkpt lat="44.45495280088138" lon="10.57357606895913"><ele>870.0</ele><time>2026-04-19T10:58:05.999Z</time></trkpt><trkpt lat="44.454987011754945" lon="10.573684035419028"><ele>875.5000000000001</ele><time>2026-04-19T10:58:07.999Z</time></trkpt><trkpt lat="44.45498377951908" lon="10.573782663696374"><ele>881.0</ele><time>2026-04-19T10:58:08.999Z</time></trkpt><trkpt lat="44.454991069198684" lon="10.57388826792928"><ele>881.0000000000001</ele><time>2026-04-19T10:58:09.999Z</time></trkpt><trkpt lat="44.45504473004262" lon="10.573991151469297"><ele>881.0</ele><time>2026-04-19T10:58:11.999Z</time></trkpt><trkpt lat="44.45511195555915" lon="10.57404393085439"><ele>881.0</ele><time>2026-04-19T10:58:12.999Z</time></trkpt><trkpt lat="44.45517577891827" lon="10.574130301819288"><ele>881.0</ele><time>2026-04-19T10:58:13.999Z</time></trkpt><trkpt lat="44.45523481785074" lon="10.574204131009438"><ele>881.0000000000001</ele><time>2026-04-19T10:58:14.999Z</time></trkpt><trkpt lat="44.455297994174984" lon="10.57428105101747"><ele>881.0</ele><time>2026-04-19T10:58:15.999Z</time></trkpt><trkpt lat="44.45534145153209" lon="10.574370350029762"><ele>881.0000000000001</ele><time>2026-04-19T10:58:17Z</time></trkpt><trkpt lat="44.4553861248306" lon="10.57444158274268"><ele>881.0</ele><time>2026-04-19T10:58:18Z</time></trkpt><trkpt lat="44.45545152557556" lon="10.574496319915028"><ele>881.0</ele><time>2026-04-19T10:58:19Z</time></trkpt><trkpt lat="44.455530439005734" lon="10.574508462860747"><ele>881.0</ele><time>2026-04-19T10:58:20Z</time></trkpt><trkpt lat="44.45562953048213" lon="10.574532726330876"><ele>881.0000000000001</ele><time>2026-04-19T10:58:21Z</time></trkpt><trkpt lat="44.455708937371156" lon="10.574580938416679"><ele>881.0</ele><time>2026-04-19T10:58:22Z</time></trkpt><trkpt lat="44.45577607762371" lon="10.574685229769377"><ele>884.1666666666667</ele><time>2026-04-19T10:58:24Z</time></trkpt><trkpt lat="44.45588402425398" lon="10.574687853764491"><ele>887.3333333333334</ele><time>2026-04-19T10:58:26Z</time></trkpt><trkpt lat="44.4559692503225" lon="10.574709832743304"><ele>890.5</ele><time>2026-04-19T10:58:27Z</time></trkpt><trkpt lat="44.45603005032743" lon="10.5747676573426"><ele>893.6666666666667</ele><time>2026-04-19T10:58:28Z</time></trkpt><trkpt lat="44.45611577125688" lon="10.574860332700524"><ele>896.8333333333334</ele><time>2026-04-19T10:58:30Z</time></trkpt><trkpt lat="44.45616232431826" lon="10.574929055933213"><ele>900.0</ele><time>2026-04-19T10:58:31Z</time></trkpt><trkpt lat="44.45619372901894" lon="10.575031107004264"><ele>900.0</ele><time>2026-04-19T10:58:32Z</time></trkpt><trkpt lat="44.45624076853854" lon="10.57512307439142"><ele>900.0</ele><time>2026-04-19T10:58:34Z</time></trkpt><trkpt lat="44.45629031320292" lon="10.575190572739665"><ele>900.0</ele><time>2026-04-19T10:58:35Z</time></trkpt><trkpt lat="44.45639088047603" lon="10.575286884759507"><ele>900.0</ele><time>2026-04-19T10:58:37Z</time></trkpt><trkpt lat="44.456485698331385" lon="10.575339229278377"><ele>900.0</ele><time>2026-04-19T10:58:38Z</time></trkpt><trkpt lat="44.456578900083755" lon="10.575389774200664"><ele>902.0</ele><time>2026-04-19T10:58:39Z</time></trkpt><trkpt lat="44.45665807461688" lon="10.57544273067368"><ele>904.0</ele><time>2026-04-19T10:58:40Z</time></trkpt><trkpt lat="44.456713330620666" lon="10.57548687614203"><ele>906.0</ele><time>2026-04-19T10:58:41Z</time></trkpt><trkpt lat="44.45677189324528" lon="10.575543527440596"><ele>908.0</ele><time>2026-04-19T10:58:42Z</time></trkpt><trkpt lat="44.456834395590384" lon="10.57560528305905"><ele>910.0</ele><time>2026-04-19T10:58:43Z</time></trkpt><trkpt lat="44.4569135603265" lon="10.575641460538048"><ele>912.0</ele><time>2026-04-19T10:58:45Z</time></trkpt><trkpt lat="44.45700672746817" lon="10.575738283631301"><ele>912.0</ele><time>2026-04-19T10:58:47Z</time></trkpt><trkpt lat="44.45705544644021" lon="10.575811019496888"><ele>912.0</ele><time>2026-04-19T10:58:48Z</time></trkpt><trkpt lat="44.457117731643066" lon="10.57583788209484"><ele>912.0</ele><time>2026-04-19T10:58:51Z</time></trkpt><trkpt lat="44.457194383827606" lon="10.575832008603086"><ele>912.0</ele><time>2026-04-19T10:59:21Z</time></trkpt><trkpt lat="44.45727852743069" lon="10.57589618223277"><ele>912.0</ele><time>2026-04-19T10:59:23.999Z</time></trkpt><trkpt lat="44.45733879151654" lon="10.575957226183787"><ele>912.0</ele><time>2026-04-19T10:59:26.999Z</time></trkpt><trkpt lat="44.45739762827912" lon="10.576016137048756"><ele>910.8333333333334</ele><time>2026-04-19T10:59:28.999Z</time></trkpt><trkpt lat="44.45746075407904" lon="10.57603294510012"><ele>909.6666666666667</ele><time>2026-04-19T10:59:29.999Z</time></trkpt><trkpt lat="44.45755428514611" lon="10.576114496288515"><ele>908.5</ele><time>2026-04-19T10:59:31.999Z</time></trkpt><trkpt lat="44.45760184775807" lon="10.576194917879675"><ele>907.3333333333334</ele><time>2026-04-19T10:59:33.999Z</time></trkpt><trkpt lat="44.45769572753107" lon="10.576258283754274"><ele>906.1666666666667</ele><time>2026-04-19T10:59:35.999Z</time></trkpt><trkpt lat="44.457763241349475" lon="10.576222496426794"><ele>905.0</ele><time>2026-04-19T10:59:37.999Z</time></trkpt><trkpt lat="44.45788132853101" lon="10.57616482678442"><ele>905.4</ele><time>2026-04-19T10:59:39.999Z</time></trkpt><trkpt lat="44.45798744130511" lon="10.576138586287126"><ele>905.8</ele><time>2026-04-19T10:59:41.999Z</time></trkpt><trkpt lat="44.45806917147745" lon="10.576179869898205"><ele>906.2</ele><time>2026-04-19T10:59:42.999Z</time></trkpt><trkpt lat="44.45815008538802" lon="10.576238497400388"><ele>906.6</ele><time>2026-04-19T10:59:43.999Z</time></trkpt><trkpt lat="44.45823493064826" lon="10.57626864662085"><ele>907.0</ele><time>2026-04-19T10:59:45.999Z</time></trkpt><trkpt lat="44.45826074607917" lon="10.576161905951587"><ele>906.9999999999999</ele><time>2026-04-19T10:59:49.999Z</time></trkpt><trkpt lat="44.45829207268996" lon="10.576082249568865"><ele>907.0</ele><time>2026-04-19T10:59:52.999Z</time></trkpt><trkpt lat="44.45835980605082" lon="10.576128867820799"><ele>907.0</ele><time>2026-04-19T10:59:54.999Z</time></trkpt><trkpt lat="44.45845020290692" lon="10.576172899657891"><ele>907.0</ele><time>2026-04-19T10:59:56.999Z</time></trkpt><trkpt lat="44.458523950303" lon="10.576242823926878"><ele>906.9999999999999</ele><time>2026-04-19T10:59:57.999Z</time></trkpt><trkpt lat="44.4585919585419" lon="10.576297913326425"><ele>907.0</ele><time>2026-04-19T10:59:58.999Z</time></trkpt><trkpt lat="44.45865363628823" lon="10.576351587390928"><ele>907.0000000000001</ele><time>2026-04-19T10:59:59.999Z</time></trkpt><trkpt lat="44.458709656665654" lon="10.576415883530151"><ele>907.0</ele><time>2026-04-19T11:00:00.999Z</time></trkpt><trkpt lat="44.45875020888574" lon="10.57649028936492"><ele>907.0000000000001</ele><time>2026-04-19T11:00:01.999Z</time></trkpt><trkpt lat="44.45876560732273" lon="10.576588920294098"><ele>907.0000000000001</ele><time>2026-04-19T11:00:02.999Z</time></trkpt><trkpt lat="44.4587604322044" lon="10.576691433275494"><ele>907.0</ele><time>2026-04-19T11:00:03.999Z</time></trkpt><trkpt lat="44.458761146274" lon="10.576808237044386"><ele>907.0000000000001</ele><time>2026-04-19T11:00:05.999Z</time></trkpt><trkpt lat="44.45879894378163" lon="10.57689930489316"><ele>907.0000000000001</ele><time>2026-04-19T11:00:10.999Z</time></trkpt><trkpt lat="44.4588522120654" lon="10.576955630157324"><ele>899.5</ele><time>2026-04-19T11:00:16.999Z</time></trkpt><trkpt lat="44.458929186797164" lon="10.577028708709262"><ele>892.0</ele><time>2026-04-19T11:00:26Z</time></trkpt><trkpt lat="44.45909004979469" lon="10.577131325211223"><ele>884.5</ele><time>2026-04-19T11:00:28Z</time></trkpt><trkpt lat="44.45922276866546" lon="10.57713201171859"><ele>877.0</ele><time>2026-04-19T11:00:30Z</time></trkpt><trkpt lat="44.45934040021256" lon="10.577110044112379"><ele>877.0</ele><time>2026-04-19T11:00:32Z</time></trkpt><trkpt lat="44.459434855781026" lon="10.577042029055612"><ele>877.0</ele><time>2026-04-19T11:00:34Z</time></trkpt><trkpt lat="44.45949165893105" lon="10.577080963217284"><ele>877.0</ele><time>2026-04-19T11:00:36Z</time></trkpt><trkpt lat="44.45954165392555" lon="10.577173433904667"><ele>877.0</ele><time>2026-04-19T11:00:38Z</time></trkpt><trkpt lat="44.45959703568529" lon="10.577286187971977"><ele>877.0</ele><time>2026-04-19T11:00:40Z</time></trkpt><trkpt lat="44.45967403525932" lon="10.57748294686266"><ele>872.25</ele><time>2026-04-19T11:00:42Z</time></trkpt><trkpt lat="44.45970944363988" lon="10.577607126850612"><ele>867.5</ele><time>2026-04-19T11:00:44Z</time></trkpt><trkpt lat="44.459883467226604" lon="10.577693910689542"><ele>862.75</ele><time>2026-04-19T11:00:47Z</time></trkpt><trkpt lat="44.459947366832296" lon="10.577531779398148"><ele>858.0</ele><time>2026-04-19T11:00:50Z</time></trkpt><trkpt lat="44.459971271915386" lon="10.577438849700021"><ele>858.0</ele><time>2026-04-19T11:00:52Z</time></trkpt><trkpt lat="44.45998652962401" lon="10.57725701781263"><ele>858.0</ele><time>2026-04-19T11:00:54Z</time></trkpt><trkpt lat="44.45999533889923" lon="10.577158946459171"><ele>858.0</ele><time>2026-04-19T11:00:55Z</time></trkpt><trkpt lat="44.46000072635278" lon="10.577054368173316"><ele>858.0</ele><time>2026-04-19T11:00:56Z</time></trkpt><trkpt lat="44.460010112322365" lon="10.576961514690657"><ele>858.0</ele><time>2026-04-19T11:00:57Z</time></trkpt><trkpt lat="44.460028703789064" lon="10.576865204089424"><ele>858.0</ele><time>2026-04-19T11:00:58Z</time></trkpt><trkpt lat="44.460046129848195" lon="10.57677639747641"><ele>857.5999999999999</ele><time>2026-04-19T11:00:59Z</time></trkpt><trkpt lat="44.460142472055345" lon="10.576654009747466"><ele>857.1999999999999</ele><time>2026-04-19T11:01:00Z</time></trkpt><trkpt lat="44.460171188728104" lon="10.576566521589891"><ele>856.8</ele><time>2026-04-19T11:01:01Z</time></trkpt><trkpt lat="44.46022738241519" lon="10.57637930894749"><ele>856.4</ele><time>2026-04-19T11:01:03Z</time></trkpt><trkpt lat="44.460290493296334" lon="10.576293375974366"><ele>856.0</ele><time>2026-04-19T11:01:04Z</time></trkpt><trkpt lat="44.460338883425344" lon="10.576225268293353"><ele>854.3333333333333</ele><time>2026-04-19T11:01:05Z</time></trkpt><trkpt lat="44.46040038271729" lon="10.576079871878784"><ele>852.6666666666666</ele><time>2026-04-19T11:01:07Z</time></trkpt><trkpt lat="44.460419764915734" lon="10.5759956215765"><ele>851.0</ele><time>2026-04-19T11:01:08Z</time></trkpt><trkpt lat="44.46044340319081" lon="10.57590894125719"><ele>849.3333333333333</ele><time>2026-04-19T11:01:10Z</time></trkpt><trkpt lat="44.4605100292325" lon="10.575934026258842"><ele>847.6666666666666</ele><time>2026-04-19T11:01:14Z</time></trkpt><trkpt lat="44.460570243486714" lon="10.576054205390044"><ele>846.0</ele><time>2026-04-19T11:01:18Z</time></trkpt><trkpt lat="44.46066595219581" lon="10.576241772324211"><ele>842.0</ele><time>2026-04-19T11:01:20Z</time></trkpt><trkpt lat="44.460696008020506" lon="10.576331338402117"><ele>838.0</ele><time>2026-04-19T11:01:21Z</time></trkpt><trkpt lat="44.460749563661366" lon="10.576404167540876"><ele>834.0</ele><time>2026-04-19T11:01:22Z</time></trkpt><trkpt lat="44.460796837596696" lon="10.576482680105398"><ele>830.0</ele><time>2026-04-19T11:01:23Z</time></trkpt><trkpt lat="44.46083428798751" lon="10.57662922133774"><ele>826.0</ele><time>2026-04-19T11:01:25Z</time></trkpt><trkpt lat="44.460858566287285" lon="10.576716371772424"><ele>822.0</ele><time>2026-04-19T11:01:26Z</time></trkpt><trkpt lat="44.46091219992316" lon="10.57677588135989"><ele>822.0</ele><time>2026-04-19T11:01:27.999Z</time></trkpt><trkpt lat="44.46095926602909" lon="10.576852169937377"><ele>822.0</ele><time>2026-04-19T11:01:31.999Z</time></trkpt><trkpt lat="44.46098846639214" lon="10.576942009750827"><ele>822.0</ele><time>2026-04-19T11:01:40.999Z</time></trkpt><trkpt lat="44.461050569287515" lon="10.576966508111328"><ele>822.0</ele><time>2026-04-19T11:02:08.999Z</time></trkpt><trkpt lat="44.46114275182106" lon="10.577022995384809"><ele>822.0</ele><time>2026-04-19T11:02:10.999Z</time></trkpt><trkpt lat="44.46121081661778" lon="10.577074870508062"><ele>822.0</ele><time>2026-04-19T11:02:11.999Z</time></trkpt><trkpt lat="44.46130422407265" lon="10.577141272021493"><ele>816.1666666666666</ele><time>2026-04-19T11:02:12.999Z</time></trkpt><trkpt lat="44.46137262774217" lon="10.577216778265296"><ele>810.3333333333333</ele><time>2026-04-19T11:02:13.999Z</time></trkpt><trkpt lat="44.461428894404754" lon="10.577264795788933"><ele>804.5</ele><time>2026-04-19T11:02:14.999Z</time></trkpt><trkpt lat="44.46147144831038" lon="10.57736809561487"><ele>798.6666666666666</ele><time>2026-04-19T11:02:17.999Z</time></trkpt><trkpt lat="44.46144812564979" lon="10.577564255827337"><ele>792.8333333333333</ele><time>2026-04-19T11:02:19.999Z</time></trkpt><trkpt lat="44.46142655384997" lon="10.577652272095845"><ele>787.0</ele><time>2026-04-19T11:02:21.999Z</time></trkpt><trkpt lat="44.461360715456735" lon="10.577752224684822"><ele>786.9999999999999</ele><time>2026-04-19T11:02:23.999Z</time></trkpt><trkpt lat="44.461315479564114" lon="10.57781960627088"><ele>787.0</ele><time>2026-04-19T11:02:24.999Z</time></trkpt><trkpt lat="44.461248363332174" lon="10.577880744628176"><ele>787.0</ele><time>2026-04-19T11:02:25.999Z</time></trkpt><trkpt lat="44.46118099547624" lon="10.577989360403022"><ele>787.0</ele><time>2026-04-19T11:02:26.999Z</time></trkpt><trkpt lat="44.46113064556062" lon="10.578069963381841"><ele>786.9999999999999</ele><time>2026-04-19T11:02:28Z</time></trkpt><trkpt lat="44.46106637731178" lon="10.578176563833072"><ele>787.0</ele><time>2026-04-19T11:02:29Z</time></trkpt><trkpt lat="44.46099966776356" lon="10.578266623838548"><ele>789.6</ele><time>2026-04-19T11:02:30Z</time></trkpt><trkpt lat="44.46091842396376" lon="10.578384553874058"><ele>792.2</ele><time>2026-04-19T11:02:31Z</time></trkpt><trkpt lat="44.4608321309795" lon="10.578483424096374"><ele>794.8</ele><time>2026-04-19T11:02:32Z</time></trkpt><trkpt lat="44.460757789245136" lon="10.578535968399855"><ele>797.4</ele><time>2026-04-19T11:02:33Z</time></trkpt><trkpt lat="44.460708186529764" lon="10.578614888194567"><ele>800.0</ele><time>2026-04-19T11:02:34Z</time></trkpt><trkpt lat="44.46065766374042" lon="10.578683794586901"><ele>796.2</ele><time>2026-04-19T11:02:35Z</time></trkpt><trkpt lat="44.46060756533246" lon="10.578761808404995"><ele>792.4</ele><time>2026-04-19T11:02:36Z</time></trkpt><trkpt lat="44.460545796429535" lon="10.578893260075953"><ele>788.5999999999999</ele><time>2026-04-19T11:02:38Z</time></trkpt><trkpt lat="44.460503618250826" lon="10.579014606331736"><ele>784.8</ele><time>2026-04-19T11:02:39Z</time></trkpt><trkpt lat="44.46045127572024" lon="10.579078759195648"><ele>781.0</ele><time>2026-04-19T11:02:40Z</time></trkpt><trkpt lat="44.46036411871766" lon="10.579137711014583"><ele>780.9999999999999</ele><time>2026-04-19T11:02:42Z</time></trkpt><trkpt lat="44.46027441866779" lon="10.579193732830818"><ele>781.0</ele><time>2026-04-19T11:02:44Z</time></trkpt><trkpt lat="44.460205651869295" lon="10.579212345290799"><ele>781.0</ele><time>2026-04-19T11:02:47Z</time></trkpt><trkpt lat="44.460085075048944" lon="10.579254150560997"><ele>781.0</ele><time>2026-04-19T11:02:49Z</time></trkpt><trkpt lat="44.45999549444006" lon="10.57928101498713"><ele>780.9999999999999</ele><time>2026-04-19T11:02:51Z</time></trkpt><trkpt lat="44.45993195342114" lon="10.579299015956208"><ele>781.0</ele><time>2026-04-19T11:02:54Z</time></trkpt><trkpt lat="44.45987385954609" lon="10.579359021876295"><ele>781.0</ele><time>2026-04-19T11:02:56Z</time></trkpt><trkpt lat="44.45965024298825" lon="10.579476183331263"><ele>781.0</ele><time>2026-04-19T11:02:59Z</time></trkpt><trkpt lat="44.4595822947683" lon="10.579528505135633"><ele>781.0</ele><time>2026-04-19T11:03:00Z</time></trkpt><trkpt lat="44.45953346208041" lon="10.579588276811037"><ele>781.0</ele><time>2026-04-19T11:03:01Z</time></trkpt><trkpt lat="44.45947328174269" lon="10.579629131679892"><ele>781.0</ele><time>2026-04-19T11:03:02Z</time></trkpt><trkpt lat="44.459361281558614" lon="10.57968553811198"><ele>770.0</ele><time>2026-04-19T11:03:03Z</time></trkpt><trkpt lat="44.45923628500535" lon="10.579699645819822"><ele>759.0</ele><time>2026-04-19T11:03:04Z</time></trkpt><trkpt lat="44.45916229745421" lon="10.57975160012281"><ele>748.0</ele><time>2026-04-19T11:03:05Z</time></trkpt><trkpt lat="44.45909893022184" lon="10.579779825654901"><ele>737.0</ele><time>2026-04-19T11:03:06Z</time></trkpt><trkpt lat="44.459035466027146" lon="10.579809036107974"><ele>726.0</ele><time>2026-04-19T11:03:07Z</time></trkpt><trkpt lat="44.458906424290674" lon="10.57988489698663"><ele>726.0</ele><time>2026-04-19T11:03:08Z</time></trkpt><trkpt lat="44.45881740560915" lon="10.579899054825578"><ele>726.0</ele><time>2026-04-19T11:03:09Z</time></trkpt><trkpt lat="44.45871042729259" lon="10.579909159289121"><ele>726.0</ele><time>2026-04-19T11:03:11Z</time></trkpt><trkpt lat="44.458646631164676" lon="10.579952997858781"><ele>726.0</ele><time>2026-04-19T11:03:13Z</time></trkpt><trkpt lat="44.45860617547638" lon="10.580046325542716"><ele>726.0</ele><time>2026-04-19T11:03:16Z</time></trkpt><trkpt lat="44.458536318772396" lon="10.580098160801088"><ele>726.0</ele><time>2026-04-19T11:03:18Z</time></trkpt><trkpt lat="44.458459549425" lon="10.580143560612978"><ele>726.8333333333334</ele><time>2026-04-19T11:03:20Z</time></trkpt><trkpt lat="44.458382609294986" lon="10.580170412322982"><ele>727.6666666666666</ele><time>2026-04-19T11:03:21Z</time></trkpt><trkpt lat="44.45828496227887" lon="10.580209947360402"><ele>728.5</ele><time>2026-04-19T11:03:22Z</time></trkpt><trkpt lat="44.45819428697422" lon="10.58024525967741"><ele>729.3333333333333</ele><time>2026-04-19T11:03:23Z</time></trkpt><trkpt lat="44.458111149931504" lon="10.580275558720865"><ele>730.1666666666666</ele><time>2026-04-19T11:03:24Z</time></trkpt><trkpt lat="44.458032201110385" lon="10.580328853143392"><ele>731.0</ele><time>2026-04-19T11:03:25Z</time></trkpt><trkpt lat="44.4579705616631" lon="10.580394111911477"><ele>730.5</ele><time>2026-04-19T11:03:26Z</time></trkpt><trkpt lat="44.45792270872446" lon="10.580479748409639"><ele>730.0</ele><time>2026-04-19T11:03:27Z</time></trkpt><trkpt lat="44.4579140028588" lon="10.580611568947566"><ele>729.5</ele><time>2026-04-19T11:03:28Z</time></trkpt><trkpt lat="44.45786221233299" lon="10.580724940865728"><ele>729.0</ele><time>2026-04-19T11:03:29Z</time></trkpt><trkpt lat="44.45781298581657" lon="10.580830101460556"><ele>728.5</ele><time>2026-04-19T11:03:30Z</time></trkpt><trkpt lat="44.457765400405954" lon="10.580908914659036"><ele>728.0</ele><time>2026-04-19T11:03:30.999Z</time></trkpt><trkpt lat="44.457720124825805" lon="10.581012352246516"><ele>728.0</ele><time>2026-04-19T11:03:34.999Z</time></trkpt><trkpt lat="44.45768583368982" lon="10.581087768514845"><ele>728.0</ele><time>2026-04-19T11:04:16.999Z</time></trkpt><trkpt lat="44.457740218173946" lon="10.581220534949844"><ele>728.0</ele><time>2026-04-19T11:04:19.999Z</time></trkpt><trkpt lat="44.457811760726486" lon="10.581292028129067"><ele>728.0</ele><time>2026-04-19T11:04:20.999Z</time></trkpt><trkpt lat="44.45786748804848" lon="10.581367692814682"><ele>728.0</ele><time>2026-04-19T11:04:21.999Z</time></trkpt><trkpt lat="44.4579027336427" lon="10.581443572823249"><ele>728.0</ele><time>2026-04-19T11:04:22.999Z</time></trkpt><trkpt lat="44.45795037267853" lon="10.581520616019938"><ele>726.75</ele><time>2026-04-19T11:04:24.999Z</time></trkpt><trkpt lat="44.45800330504905" lon="10.581605160481487"><ele>725.5</ele><time>2026-04-19T11:04:26.999Z</time></trkpt><trkpt lat="44.45788767665382" lon="10.581814778995486"><ele>724.25</ele><time>2026-04-19T11:04:27.999Z</time></trkpt><trkpt lat="44.45783255548939" lon="10.581951875048977"><ele>723.0</ele><time>2026-04-19T11:04:28.999Z</time></trkpt><trkpt lat="44.45777985324244" lon="10.582096436553629"><ele>720.5</ele><time>2026-04-19T11:04:29.999Z</time></trkpt><trkpt lat="44.45772377918627" lon="10.582241414230706"><ele>718.0</ele><time>2026-04-19T11:04:30.999Z</time></trkpt><trkpt lat="44.457659659291835" lon="10.582380880516054"><ele>715.5</ele><time>2026-04-19T11:04:31.999Z</time></trkpt><trkpt lat="44.45758803366312" lon="10.582506139832256"><ele>713.0</ele><time>2026-04-19T11:04:32.999Z</time></trkpt><trkpt lat="44.45751217542571" lon="10.582611556316674"><ele>713.0</ele><time>2026-04-19T11:04:34Z</time></trkpt><trkpt lat="44.457423793748156" lon="10.582709185922214"><ele>713.0</ele><time>2026-04-19T11:04:35Z</time></trkpt><trkpt lat="44.45732272105392" lon="10.582804366524082"><ele>713.0</ele><time>2026-04-19T11:04:36Z</time></trkpt><trkpt lat="44.45722163974563" lon="10.582905973230599"><ele>713.0</ele><time>2026-04-19T11:04:37Z</time></trkpt><trkpt lat="44.45711891486166" lon="10.5830075069784"><ele>708.5</ele><time>2026-04-19T11:04:38Z</time></trkpt><trkpt lat="44.457013754819954" lon="10.583113465858352"><ele>704.0</ele><time>2026-04-19T11:04:39Z</time></trkpt><trkpt lat="44.45691798294616" lon="10.583202308388387"><ele>699.5</ele><time>2026-04-19T11:04:40Z</time></trkpt><trkpt lat="44.45682189537728" lon="10.583271221190836"><ele>695.0</ele><time>2026-04-19T11:04:41Z</time></trkpt><trkpt lat="44.4567125967871" lon="10.58326791709159"><ele>695.0</ele><time>2026-04-19T11:04:42Z</time></trkpt><trkpt lat="44.45659761414462" lon="10.58323555819606"><ele>695.0</ele><time>2026-04-19T11:04:43Z</time></trkpt><trkpt lat="44.456474590103056" lon="10.583194919599896"><ele>695.0</ele><time>2026-04-19T11:04:44Z</time></trkpt><trkpt lat="44.456348943322006" lon="10.583160094169676"><ele>695.0</ele><time>2026-04-19T11:04:45Z</time></trkpt><trkpt lat="44.456268388481604" lon="10.583079949203682"><ele>693.5</ele><time>2026-04-19T11:04:46Z</time></trkpt><trkpt lat="44.456198525855754" lon="10.583060219007086"><ele>692.0</ele><time>2026-04-19T11:04:47Z</time></trkpt><trkpt lat="44.45608242681155" lon="10.583072594409552"><ele>690.5</ele><time>2026-04-19T11:04:49Z</time></trkpt><trkpt lat="44.45605240439007" lon="10.583155320642788"><ele>689.0</ele><time>2026-04-19T11:04:50Z</time></trkpt><trkpt lat="44.45606630785655" lon="10.583261077862387"><ele>687.5</ele><time>2026-04-19T11:04:51Z</time></trkpt><trkpt lat="44.45613573734405" lon="10.583360038107413"><ele>686.0</ele><time>2026-04-19T11:04:52Z</time></trkpt><trkpt lat="44.4561882100253" lon="10.583501307571552"><ele>686.0</ele><time>2026-04-19T11:04:53Z</time></trkpt><trkpt lat="44.456229848807546" lon="10.583638503977046"><ele>686.0</ele><time>2026-04-19T11:04:54Z</time></trkpt><trkpt lat="44.45623071054922" lon="10.583794417469779"><ele>686.0</ele><time>2026-04-19T11:04:55Z</time></trkpt><trkpt lat="44.45622833050773" lon="10.58394814992597"><ele>686.0</ele><time>2026-04-19T11:04:56Z</time></trkpt><trkpt lat="44.456247281085204" lon="10.584106051224467"><ele>686.0</ele><time>2026-04-19T11:04:57Z</time></trkpt><trkpt lat="44.45625862322842" lon="10.58426284522228"><ele>685.4</ele><time>2026-04-19T11:04:58Z</time></trkpt><trkpt lat="44.45627324051803" lon="10.584412513088582"><ele>684.8</ele><time>2026-04-19T11:04:59Z</time></trkpt><trkpt lat="44.4562907094628" lon="10.584556804158131"><ele>684.1999999999999</ele><time>2026-04-19T11:05:00Z</time></trkpt><trkpt lat="44.456296095869625" lon="10.584698138015817"><ele>683.5999999999999</ele><time>2026-04-19T11:05:01Z</time></trkpt><trkpt lat="44.45628759869295" lon="10.584854422198045"><ele>683.0</ele><time>2026-04-19T11:05:02Z</time></trkpt><trkpt lat="44.45626817687532" lon="10.585003969207818"><ele>682.8</ele><time>2026-04-19T11:05:03Z</time></trkpt><trkpt lat="44.45624474327977" lon="10.58514209342384"><ele>682.5999999999999</ele><time>2026-04-19T11:05:04Z</time></trkpt><trkpt lat="44.45622865280654" lon="10.58524081039582"><ele>682.4000000000001</ele><time>2026-04-19T11:05:05Z</time></trkpt><trkpt lat="44.45622453572913" lon="10.585330440251314"><ele>682.2</ele><time>2026-04-19T11:05:06Z</time></trkpt><trkpt lat="44.45629816003776" lon="10.585529431721321"><ele>682.0</ele><time>2026-04-19T11:05:08Z</time></trkpt><trkpt lat="44.45633332627" lon="10.585674956701146"><ele>680.5</ele><time>2026-04-19T11:05:09Z</time></trkpt><trkpt lat="44.456354537352546" lon="10.585834548192599"><ele>679.0</ele><time>2026-04-19T11:05:10Z</time></trkpt><trkpt lat="44.456377524465545" lon="10.586000634990457"><ele>677.5</ele><time>2026-04-19T11:05:11Z</time></trkpt><trkpt lat="44.45640501305469" lon="10.586177439630438"><ele>676.0</ele><time>2026-04-19T11:05:12Z</time></trkpt><trkpt lat="44.45644376116789" lon="10.58636732084181"><ele>675.75</ele><time>2026-04-19T11:05:13Z</time></trkpt><trkpt lat="44.45649090280144" lon="10.586558769809068"><ele>675.5</ele><time>2026-04-19T11:05:14Z</time></trkpt><trkpt lat="44.45653825485737" lon="10.5867247735608"><ele>675.25</ele><time>2026-04-19T11:05:15Z</time></trkpt><trkpt lat="44.45657673231275" lon="10.586866149567886"><ele>675.0</ele><time>2026-04-19T11:05:16Z</time></trkpt><trkpt lat="44.45659141930832" lon="10.586997446580089"><ele>673.5</ele><time>2026-04-19T11:05:17Z</time></trkpt><trkpt lat="44.45657413632562" lon="10.587140764931881"><ele>672.0</ele><time>2026-04-19T11:05:18Z</time></trkpt><trkpt lat="44.45652396663721" lon="10.58730717141847"><ele>670.5</ele><time>2026-04-19T11:05:19Z</time></trkpt><trkpt lat="44.4564989822747" lon="10.587508893417544"><ele>669.0</ele><time>2026-04-19T11:05:20Z</time></trkpt><trkpt lat="44.45650680518207" lon="10.587714612401127"><ele>668.5</ele><time>2026-04-19T11:05:21Z</time></trkpt><trkpt lat="44.45652808261556" lon="10.587880117001335"><ele>668.0</ele><time>2026-04-19T11:05:22Z</time></trkpt><trkpt lat="44.45655851099739" lon="10.588024684288952"><ele>667.5</ele><time>2026-04-19T11:05:23Z</time></trkpt><trkpt lat="44.45661117548795" lon="10.588159083265841"><ele>667.0</ele><time>2026-04-19T11:05:24Z</time></trkpt><trkpt lat="44.45669964490674" lon="10.588270660737178"><ele>667.0</ele><time>2026-04-19T11:05:25Z</time></trkpt><trkpt lat="44.45682299257817" lon="10.58835648279747"><ele>667.0</ele><time>2026-04-19T11:05:26Z</time></trkpt><trkpt lat="44.45694991133275" lon="10.588429632724791"><ele>667.0</ele><time>2026-04-19T11:05:27Z</time></trkpt><trkpt lat="44.45707949407814" lon="10.588495374237748"><ele>667.0</ele><time>2026-04-19T11:05:28Z</time></trkpt><trkpt lat="44.45721233120197" lon="10.588556542161482"><ele>663.5</ele><time>2026-04-19T11:05:29Z</time></trkpt><trkpt lat="44.45734083904012" lon="10.588631457001787"><ele>660.0</ele><time>2026-04-19T11:05:30Z</time></trkpt><trkpt lat="44.45746389914103" lon="10.588717411566943"><ele>656.5</ele><time>2026-04-19T11:05:31Z</time></trkpt><trkpt lat="44.4575870141569" lon="10.588805305376587"><ele>653.0</ele><time>2026-04-19T11:05:31.999Z</time></trkpt><trkpt lat="44.4576923615435" lon="10.588921865217792"><ele>652.75</ele><time>2026-04-19T11:05:32.999Z</time></trkpt><trkpt lat="44.45777921707695" lon="10.58906638119828"><ele>652.5</ele><time>2026-04-19T11:05:33.999Z</time></trkpt><trkpt lat="44.45786471599524" lon="10.589196155907675"><ele>652.25</ele><time>2026-04-19T11:05:34.999Z</time></trkpt><trkpt lat="44.457949292469934" lon="10.589285576140007"><ele>652.0</ele><time>2026-04-19T11:05:35.999Z</time></trkpt><trkpt lat="44.4580532124794" lon="10.589343852475743"><ele>649.8</ele><time>2026-04-19T11:05:36.999Z</time></trkpt><trkpt lat="44.4581698798431" lon="10.58935192463243"><ele>647.6</ele><time>2026-04-19T11:05:37.999Z</time></trkpt><trkpt lat="44.45825517631296" lon="10.589377182057694"><ele>645.4</ele><time>2026-04-19T11:05:38.999Z</time></trkpt><trkpt lat="44.45832938623252" lon="10.589426612091971"><ele>643.1999999999999</ele><time>2026-04-19T11:05:39.999Z</time></trkpt><trkpt lat="44.45839291753354" lon="10.589525564680542"><ele>641.0</ele><time>2026-04-19T11:05:40.999Z</time></trkpt><trkpt lat="44.45844119307727" lon="10.589650023616151"><ele>640.3333333333333</ele><time>2026-04-19T11:05:41.999Z</time></trkpt><trkpt lat="44.458495932383876" lon="10.589737019775008"><ele>639.6666666666666</ele><time>2026-04-19T11:05:42.999Z</time></trkpt><trkpt lat="44.45853319599549" lon="10.589810074101624"><ele>639.0</ele><time>2026-04-19T11:05:43.999Z</time></trkpt><trkpt lat="44.45860193071794" lon="10.589799802974952"><ele>638.3333333333334</ele><time>2026-04-19T11:05:44.999Z</time></trkpt><trkpt lat="44.45867236993091" lon="10.589748368533831"><ele>637.6666666666667</ele><time>2026-04-19T11:05:45.999Z</time></trkpt><trkpt lat="44.45872457444132" lon="10.58964116740836"><ele>637.0</ele><time>2026-04-19T11:05:46.999Z</time></trkpt><trkpt lat="44.458772131799066" lon="10.58955243773214"><ele>633.2</ele><time>2026-04-19T11:05:47.999Z</time></trkpt><trkpt lat="44.45881901723587" lon="10.589474861836672"><ele>629.4000000000001</ele><time>2026-04-19T11:05:48.999Z</time></trkpt><trkpt lat="44.45888917300781" lon="10.589472754823866"><ele>625.5999999999999</ele><time>2026-04-19T11:05:49.999Z</time></trkpt><trkpt lat="44.45895393202647" lon="10.589550433692207"><ele>621.8</ele><time>2026-04-19T11:05:50.999Z</time></trkpt><trkpt lat="44.45899253016986" lon="10.58967479853771"><ele>618.0</ele><time>2026-04-19T11:05:51.999Z</time></trkpt><trkpt lat="44.45902512164267" lon="10.589847875116591"><ele>618.0</ele><time>2026-04-19T11:05:52.999Z</time></trkpt><trkpt lat="44.45909588341939" lon="10.590059594860948"><ele>618.0</ele><time>2026-04-19T11:05:53.999Z</time></trkpt><trkpt lat="44.45917694889635" lon="10.590222273481356"><ele>618.0</ele><time>2026-04-19T11:05:54.999Z</time></trkpt><trkpt lat="44.45926146169451" lon="10.590409776302469"><ele>616.0</ele><time>2026-04-19T11:05:55.999Z</time></trkpt><trkpt lat="44.45935025417531" lon="10.590600229689112"><ele>614.0</ele><time>2026-04-19T11:05:56.999Z</time></trkpt><trkpt lat="44.45944114506021" lon="10.590778698340404"><ele>612.0</ele><time>2026-04-19T11:05:57.999Z</time></trkpt><trkpt lat="44.4595106431764" lon="10.590930360743675"><ele>610.0</ele><time>2026-04-19T11:05:58.999Z</time></trkpt><trkpt lat="44.45957570502544" lon="10.591092964277376"><ele>606.25</ele><time>2026-04-19T11:05:59.999Z</time></trkpt><trkpt lat="44.45963792447625" lon="10.591246966354012"><ele>602.5</ele><time>2026-04-19T11:06:00.999Z</time></trkpt><trkpt lat="44.4596854095635" lon="10.591394962061782"><ele>598.75</ele><time>2026-04-19T11:06:01.999Z</time></trkpt><trkpt lat="44.45971552318436" lon="10.591546156616696"><ele>595.0</ele><time>2026-04-19T11:06:02.999Z</time></trkpt><trkpt lat="44.45974750673552" lon="10.591690034636002"><ele>595.0</ele><time>2026-04-19T11:06:03.999Z</time></trkpt><trkpt lat="44.45979380049877" lon="10.591825231907183"><ele>595.0</ele><time>2026-04-19T11:06:04.999Z</time></trkpt><trkpt lat="44.45984127626929" lon="10.591958767705217"><ele>595.0</ele><time>2026-04-19T11:06:05.999Z</time></trkpt><trkpt lat="44.4598929441186" lon="10.592106572920011"><ele>595.0</ele><time>2026-04-19T11:06:06.999Z</time></trkpt><trkpt lat="44.45994315230613" lon="10.59223358172975"><ele>595.0</ele><time>2026-04-19T11:06:07.999Z</time></trkpt><trkpt lat="44.45998649867467" lon="10.59233635356129"><ele>593.2</ele><time>2026-04-19T11:06:08.999Z</time></trkpt><trkpt lat="44.460052202059146" lon="10.592410322411514"><ele>591.4</ele><time>2026-04-19T11:06:09.999Z</time></trkpt><trkpt lat="44.46014687707275" lon="10.592447920107796"><ele>589.6</ele><time>2026-04-19T11:06:10.999Z</time></trkpt><trkpt lat="44.46025177044538" lon="10.592451154522887"><ele>587.8</ele><time>2026-04-19T11:06:11.999Z</time></trkpt><trkpt lat="44.46035133892753" lon="10.592403928307226"><ele>586.0</ele><time>2026-04-19T11:06:12.999Z</time></trkpt><trkpt lat="44.46044474634475" lon="10.592368649084749"><ele>582.25</ele><time>2026-04-19T11:06:13.999Z</time></trkpt><trkpt lat="44.46055628581391" lon="10.592436973992426"><ele>578.5</ele><time>2026-04-19T11:06:14.999Z</time></trkpt><trkpt lat="44.46064875529402" lon="10.592549760030074"><ele>574.75</ele><time>2026-04-19T11:06:15.999Z</time></trkpt><trkpt lat="44.460728875874686" lon="10.592673629069388"><ele>571.0</ele><time>2026-04-19T11:06:16.999Z</time></trkpt><trkpt lat="44.460815883665056" lon="10.592809117682146"><ele>569.5</ele><time>2026-04-19T11:06:17.999Z</time></trkpt><trkpt lat="44.46090678036089" lon="10.592950570580411"><ele>568.0</ele><time>2026-04-19T11:06:18.999Z</time></trkpt><trkpt lat="44.4610063045102" lon="10.593092528220875"><ele>566.5</ele><time>2026-04-19T11:06:19.999Z</time></trkpt><trkpt lat="44.461111171119875" lon="10.59322803010858"><ele>565.0</ele><time>2026-04-19T11:06:20.999Z</time></trkpt><trkpt lat="44.46121889214143" lon="10.593368123019085"><ele>562.0</ele><time>2026-04-19T11:06:21.999Z</time></trkpt><trkpt lat="44.46132377412209" lon="10.593510056511615"><ele>559.0</ele><time>2026-04-19T11:06:22.999Z</time></trkpt><trkpt lat="44.46143302888844" lon="10.593639070502674"><ele>556.0</ele><time>2026-04-19T11:06:23.999Z</time></trkpt><trkpt lat="44.461553097658324" lon="10.593757439809108"><ele>553.0</ele><time>2026-04-19T11:06:24.999Z</time></trkpt><trkpt lat="44.46167673255642" lon="10.5938621442406"><ele>551.0</ele><time>2026-04-19T11:06:25.999Z</time></trkpt><trkpt lat="44.461807204778474" lon="10.593951851992353"><ele>549.0</ele><time>2026-04-19T11:06:26.999Z</time></trkpt><trkpt lat="44.46193880180819" lon="10.594038393930406"><ele>547.0</ele><time>2026-04-19T11:06:27.999Z</time></trkpt><trkpt lat="44.46204636985998" lon="10.594136209340604"><ele>545.0</ele><time>2026-04-19T11:06:28.999Z</time></trkpt><trkpt lat="44.46214006573738" lon="10.594271851312481"><ele>543.0</ele><time>2026-04-19T11:06:29.999Z</time></trkpt><trkpt lat="44.46223275626068" lon="10.594399318188588"><ele>541.0</ele><time>2026-04-19T11:06:30.999Z</time></trkpt><trkpt lat="44.46234464331913" lon="10.594502975748485"><ele>539.0</ele><time>2026-04-19T11:06:31.999Z</time></trkpt><trkpt lat="44.46247730914571" lon="10.5945864716235"><ele>537.0</ele><time>2026-04-19T11:06:32.999Z</time></trkpt><trkpt lat="44.462615010454044" lon="10.594658038009964"><ele>535.25</ele><time>2026-04-19T11:06:33.999Z</time></trkpt><trkpt lat="44.462759593202826" lon="10.594696975663641"><ele>533.5</ele><time>2026-04-19T11:06:34.999Z</time></trkpt><trkpt lat="44.462903930577426" lon="10.59474592722475"><ele>531.75</ele><time>2026-04-19T11:06:35.999Z</time></trkpt><trkpt lat="44.46303797427586" lon="10.594752676116729"><ele>530.0</ele><time>2026-04-19T11:06:36.999Z</time></trkpt><trkpt lat="44.4631473056997" lon="10.594735577248017"><ele>526.75</ele><time>2026-04-19T11:06:37.999Z</time></trkpt><trkpt lat="44.4632439419257" lon="10.594788810418402"><ele>523.5</ele><time>2026-04-19T11:06:38.999Z</time></trkpt><trkpt lat="44.46334045363034" lon="10.594888942849057"><ele>520.25</ele><time>2026-04-19T11:06:40Z</time></trkpt><trkpt lat="44.46342493901422" lon="10.595030625123321"><ele>517.0</ele><time>2026-04-19T11:06:41Z</time></trkpt><trkpt lat="44.46351543871716" lon="10.59517567585945"><ele>517.0</ele><time>2026-04-19T11:06:42Z</time></trkpt><trkpt lat="44.46361151961872" lon="10.59532227274799"><ele>517.0</ele><time>2026-04-19T11:06:43Z</time></trkpt><trkpt lat="44.46371695593533" lon="10.595466984102853"><ele>517.0</ele><time>2026-04-19T11:06:44Z</time></trkpt><trkpt lat="44.46383394086378" lon="10.595595834985204"><ele>517.0</ele><time>2026-04-19T11:06:45Z</time></trkpt><trkpt lat="44.46394110271057" lon="10.595688478099628"><ele>511.25</ele><time>2026-04-19T11:06:46Z</time></trkpt><trkpt lat="44.46403491105836" lon="10.59576764836712"><ele>505.5</ele><time>2026-04-19T11:06:47Z</time></trkpt><trkpt lat="44.46411099235096" lon="10.59587978845177"><ele>499.75</ele><time>2026-04-19T11:06:48Z</time></trkpt><trkpt lat="44.46416111878917" lon="10.596031956455482"><ele>494.0</ele><time>2026-04-19T11:06:49Z</time></trkpt><trkpt lat="44.464216284839466" lon="10.59618619504004"><ele>491.75</ele><time>2026-04-19T11:06:50Z</time></trkpt><trkpt lat="44.46430438919319" lon="10.596316530751174"><ele>489.5</ele><time>2026-04-19T11:06:51Z</time></trkpt><trkpt lat="44.46440239494257" lon="10.59642244171511"><ele>487.25</ele><time>2026-04-19T11:06:52Z</time></trkpt><trkpt lat="44.46450901594351" lon="10.5965259328512"><ele>485.0</ele><time>2026-04-19T11:06:53Z</time></trkpt><trkpt lat="44.464610185145176" lon="10.596620481573467"><ele>484.16666666666663</ele><time>2026-04-19T11:06:54Z</time></trkpt><trkpt lat="44.46469345132238" lon="10.596688451995828"><ele>483.3333333333333</ele><time>2026-04-19T11:06:55Z</time></trkpt><trkpt lat="44.4647375838806" lon="10.596773568803313"><ele>482.5</ele><time>2026-04-19T11:06:56Z</time></trkpt><trkpt lat="44.46473835089061" lon="10.596891108806279"><ele>481.66666666666663</ele><time>2026-04-19T11:06:57Z</time></trkpt><trkpt lat="44.46470100804719" lon="10.596996809741158"><ele>480.8333333333333</ele><time>2026-04-19T11:06:58Z</time></trkpt><trkpt lat="44.4646412644368" lon="10.597079278188929"><ele>480.0</ele><time>2026-04-19T11:06:59Z</time></trkpt><trkpt lat="44.464579798426655" lon="10.597160884185097"><ele>480.0</ele><time>2026-04-19T11:07:00Z</time></trkpt><trkpt lat="44.46451942383211" lon="10.597246827153818"><ele>480.0</ele><time>2026-04-19T11:07:01Z</time></trkpt><trkpt lat="44.46445962484462" lon="10.597340635521645"><ele>480.0</ele><time>2026-04-19T11:07:02Z</time></trkpt><trkpt lat="44.46440326748701" lon="10.597443187210692"><ele>480.0</ele><time>2026-04-19T11:07:03Z</time></trkpt><trkpt lat="44.46435178348161" lon="10.597557421799811"><ele>480.0</ele><time>2026-04-19T11:07:04Z</time></trkpt><trkpt lat="44.4643047371808" lon="10.59767917000507"><ele>480.0</ele><time>2026-04-19T11:07:05Z</time></trkpt><trkpt lat="44.464256382453904" lon="10.59780622096238"><ele>480.0</ele><time>2026-04-19T11:07:06Z</time></trkpt><trkpt lat="44.46420335433441" lon="10.597933365082618"><ele>480.0</ele><time>2026-04-19T11:07:07Z</time></trkpt><trkpt lat="44.46414372553167" lon="10.598057274947958"><ele>480.0</ele><time>2026-04-19T11:07:08Z</time></trkpt><trkpt lat="44.464108820753715" lon="10.598146202306479"><ele>480.0</ele><time>2026-04-19T11:07:09Z</time></trkpt><trkpt lat="44.46413073692055" lon="10.598317465296352"><ele>478.2</ele><time>2026-04-19T11:07:11Z</time></trkpt><trkpt lat="44.46418894937273" lon="10.598390842799473"><ele>476.4</ele><time>2026-04-19T11:07:12Z</time></trkpt><trkpt lat="44.46427551827321" lon="10.59843787133635"><ele>474.6</ele><time>2026-04-19T11:07:13Z</time></trkpt><trkpt lat="44.464378709726866" lon="10.598510587875223"><ele>472.8</ele><time>2026-04-19T11:07:14Z</time></trkpt><trkpt lat="44.4644937972606" lon="10.598595797576637"><ele>471.0</ele><time>2026-04-19T11:07:15Z</time></trkpt><trkpt lat="44.464613957686836" lon="10.598689045713764"><ele>468.25</ele><time>2026-04-19T11:07:16Z</time></trkpt><trkpt lat="44.46473769576633" lon="10.598784886401468"><ele>465.5</ele><time>2026-04-19T11:07:17Z</time></trkpt><trkpt lat="44.46484800157625" lon="10.59885870768281"><ele>462.75</ele><time>2026-04-19T11:07:18Z</time></trkpt><trkpt lat="44.46495154714551" lon="10.5989066649606"><ele>460.0</ele><time>2026-04-19T11:07:19Z</time></trkpt><trkpt lat="44.46504532296757" lon="10.598923757061636"><ele>460.0</ele><time>2026-04-19T11:07:20Z</time></trkpt><trkpt lat="44.46513234661894" lon="10.598942592672175"><ele>460.0</ele><time>2026-04-19T11:07:21Z</time></trkpt><trkpt lat="44.4652000650982" lon="10.598929436463308"><ele>460.0</ele><time>2026-04-19T11:07:22Z</time></trkpt><trkpt lat="44.465302848040395" lon="10.59895023374488"><ele>460.0</ele><time>2026-04-19T11:07:24Z</time></trkpt><trkpt lat="44.46536358581175" lon="10.599400348250992"><ele>459.0</ele><time>2026-04-19T11:07:25Z</time></trkpt><trkpt lat="44.46540300153985" lon="10.599603015054239"><ele>458.0</ele><time>2026-04-19T11:07:26Z</time></trkpt><trkpt lat="44.46542279727479" lon="10.599793457675267"><ele>457.0</ele><time>2026-04-19T11:07:27Z</time></trkpt><trkpt lat="44.46543860607216" lon="10.59997747615145"><ele>456.0</ele><time>2026-04-19T11:07:28Z</time></trkpt><trkpt lat="44.46547013896532" lon="10.60016255818042"><ele>454.0</ele><time>2026-04-19T11:07:29Z</time></trkpt><trkpt lat="44.46551782577569" lon="10.600337711590246"><ele>452.0</ele><time>2026-04-19T11:07:30Z</time></trkpt><trkpt lat="44.4655842857229" lon="10.600520819390695"><ele>450.0</ele><time>2026-04-19T11:07:31Z</time></trkpt><trkpt lat="44.465647811667544" lon="10.600725726833295"><ele>448.0</ele><time>2026-04-19T11:07:32Z</time></trkpt><trkpt lat="44.46569268586339" lon="10.60091827607507"><ele>448.0</ele><time>2026-04-19T11:07:33Z</time></trkpt><trkpt lat="44.46574630680136" lon="10.601087797196167"><ele>447.99999999999994</ele><time>2026-04-19T11:07:34Z</time></trkpt><trkpt lat="44.465793306426534" lon="10.601229367114579"><ele>447.99999999999994</ele><time>2026-04-19T11:07:34.999Z</time></trkpt><trkpt lat="44.46584937530235" lon="10.601322911748502"><ele>448.0</ele><time>2026-04-19T11:07:35.999Z</time></trkpt><trkpt lat="44.46592493964544" lon="10.60140872508166"><ele>448.0</ele><time>2026-04-19T11:07:36.999Z</time></trkpt><trkpt lat="44.46600093933646" lon="10.601475542181886"><ele>446.5</ele><time>2026-04-19T11:07:37.999Z</time></trkpt><trkpt lat="44.466021203494215" lon="10.601641237722642"><ele>445.0</ele><time>2026-04-19T11:07:39.999Z</time></trkpt><trkpt lat="44.46597286195939" lon="10.601761964306753"><ele>443.5</ele><time>2026-04-19T11:07:40.999Z</time></trkpt><trkpt lat="44.46588272901611" lon="10.601895396271441"><ele>442.0</ele><time>2026-04-19T11:07:41.999Z</time></trkpt><trkpt lat="44.465780667293394" lon="10.60206002302001"><ele>441.33333333333337</ele><time>2026-04-19T11:07:42.999Z</time></trkpt><trkpt lat="44.46570360215957" lon="10.602170033810118"><ele>440.6666666666667</ele><time>2026-04-19T11:07:43.999Z</time></trkpt><trkpt lat="44.46566788588309" lon="10.60226167545774"><ele>440.0</ele><time>2026-04-19T11:07:44.999Z</time></trkpt><trkpt lat="44.465681559835026" lon="10.6023489594716"><ele>439.33333333333337</ele><time>2026-04-19T11:07:45.999Z</time></trkpt><trkpt lat="44.465739156540344" lon="10.602433276834365"><ele>438.6666666666667</ele><time>2026-04-19T11:07:46.999Z</time></trkpt><trkpt lat="44.46582323338991" lon="10.60249732059345"><ele>438.0</ele><time>2026-04-19T11:07:47.999Z</time></trkpt><trkpt lat="44.465928947876264" lon="10.602542429635088"><ele>438.0</ele><time>2026-04-19T11:07:48.999Z</time></trkpt><trkpt lat="44.46604271144457" lon="10.60258881437097"><ele>437.99999999999994</ele><time>2026-04-19T11:07:49.999Z</time></trkpt><trkpt lat="44.46613613863962" lon="10.602626937228278"><ele>437.99999999999994</ele><time>2026-04-19T11:07:50.999Z</time></trkpt><trkpt lat="44.46622403472272" lon="10.602712344559938"><ele>438.0</ele><time>2026-04-19T11:07:51.999Z</time></trkpt><trkpt lat="44.4663166408387" lon="10.602787362051952"><ele>438.0</ele><time>2026-04-19T11:07:52.999Z</time></trkpt><trkpt lat="44.466392127646486" lon="10.602842033670466"><ele>436.4</ele><time>2026-04-19T11:07:53.999Z</time></trkpt><trkpt lat="44.46646632946993" lon="10.602924056357136"><ele>434.79999999999995</ele><time>2026-04-19T11:07:54.999Z</time></trkpt><trkpt lat="44.46654054703747" lon="10.603007790014118"><ele>433.2</ele><time>2026-04-19T11:07:55.999Z</time></trkpt><trkpt lat="44.46660250015737" lon="10.603082652773377"><ele>431.6</ele><time>2026-04-19T11:07:56.999Z</time></trkpt><trkpt lat="44.4666570136803" lon="10.603184725429056"><ele>430.0</ele><time>2026-04-19T11:07:57.999Z</time></trkpt><trkpt lat="44.46671878887619" lon="10.603336878062533"><ele>430.0</ele><time>2026-04-19T11:07:58.999Z</time></trkpt><trkpt lat="44.466786582832036" lon="10.603480615210366"><ele>430.0</ele><time>2026-04-19T11:07:59.999Z</time></trkpt><trkpt lat="44.4668427422297" lon="10.6036464644447"><ele>430.0</ele><time>2026-04-19T11:08:00.999Z</time></trkpt><trkpt lat="44.46691570158068" lon="10.603795387647395"><ele>430.0</ele><time>2026-04-19T11:08:01.999Z</time></trkpt><trkpt lat="44.466982709933085" lon="10.60390948316144"><ele>430.2</ele><time>2026-04-19T11:08:02.999Z</time></trkpt><trkpt lat="44.46707889246211" lon="10.603951902979242"><ele>430.4</ele><time>2026-04-19T11:08:03.999Z</time></trkpt><trkpt lat="44.467160663288084" lon="10.603970324137205"><ele>430.6</ele><time>2026-04-19T11:08:04.999Z</time></trkpt><trkpt lat="44.46723159819809" lon="10.603980899332043"><ele>430.8</ele><time>2026-04-19T11:08:05.999Z</time></trkpt><trkpt lat="44.46729266920316" lon="10.604008773804848"><ele>431.0</ele><time>2026-04-19T11:08:06.999Z</time></trkpt><trkpt lat="44.46737176349806" lon="10.604154736059705"><ele>429.75</ele><time>2026-04-19T11:08:08.999Z</time></trkpt><trkpt lat="44.46741993201099" lon="10.604309930713157"><ele>428.5</ele><time>2026-04-19T11:08:09.999Z</time></trkpt><trkpt lat="44.467464583839316" lon="10.604459707234229"><ele>427.25</ele><time>2026-04-19T11:08:10.999Z</time></trkpt><trkpt lat="44.467518784515434" lon="10.604635947497458"><ele>426.0</ele><time>2026-04-19T11:08:11.999Z</time></trkpt><trkpt lat="44.46757778021253" lon="10.604826764815956"><ele>426.0</ele><time>2026-04-19T11:08:12.999Z</time></trkpt><trkpt lat="44.467633623161625" lon="10.604995776306986"><ele>426.0</ele><time>2026-04-19T11:08:13.999Z</time></trkpt><trkpt lat="44.46772608039826" lon="10.605105667707587"><ele>426.0</ele><time>2026-04-19T11:08:14.999Z</time></trkpt><trkpt lat="44.46783169859443" lon="10.605202684198396"><ele>426.0</ele><time>2026-04-19T11:08:15.999Z</time></trkpt><trkpt lat="44.467927600954916" lon="10.60532401236817"><ele>424.25</ele><time>2026-04-19T11:08:16.999Z</time></trkpt><trkpt lat="44.468010332895794" lon="10.605433813920039"><ele>422.5</ele><time>2026-04-19T11:08:17.999Z</time></trkpt><trkpt lat="44.468097369892334" lon="10.605548842819967"><ele>420.75</ele><time>2026-04-19T11:08:18.999Z</time></trkpt><trkpt lat="44.468206217965566" lon="10.605644516748901"><ele>419.0</ele><time>2026-04-19T11:08:19.999Z</time></trkpt><trkpt lat="44.46832592919959" lon="10.605738004153054"><ele>419.0</ele><time>2026-04-19T11:08:20.999Z</time></trkpt><trkpt lat="44.468446013002506" lon="10.605839246954408"><ele>419.0</ele><time>2026-04-19T11:08:21.999Z</time></trkpt><trkpt lat="44.46855530384647" lon="10.605932606138332"><ele>419.0</ele><time>2026-04-19T11:08:22.999Z</time></trkpt><trkpt lat="44.46864698392627" lon="10.606019617849315"><ele>419.0</ele><time>2026-04-19T11:08:23.999Z</time></trkpt><trkpt lat="44.46873982280764" lon="10.606128858112502"><ele>417.0</ele><time>2026-04-19T11:08:24.999Z</time></trkpt><trkpt lat="44.468842053265874" lon="10.606262703618784"><ele>415.0</ele><time>2026-04-19T11:08:25.999Z</time></trkpt><trkpt lat="44.468924965174295" lon="10.606356711728303"><ele>413.0</ele><time>2026-04-19T11:08:26.999Z</time></trkpt><trkpt lat="44.46902678371427" lon="10.606417204841648"><ele>411.0</ele><time>2026-04-19T11:08:27.999Z</time></trkpt><trkpt lat="44.4691702247088" lon="10.606489019837086"><ele>411.0</ele><time>2026-04-19T11:08:28.999Z</time></trkpt><trkpt lat="44.469292216065995" lon="10.606572248054599"><ele>411.0</ele><time>2026-04-19T11:08:29.999Z</time></trkpt><trkpt lat="44.46937507651986" lon="10.606673371890821"><ele>411.0</ele><time>2026-04-19T11:08:30.999Z</time></trkpt><trkpt lat="44.46946219864288" lon="10.606773953621406"><ele>411.0</ele><time>2026-04-19T11:08:31.999Z</time></trkpt><trkpt lat="44.46953819080583" lon="10.606924853705953"><ele>409.20000000000005</ele><time>2026-04-19T11:08:32.999Z</time></trkpt><trkpt lat="44.469621117532554" lon="10.607060731216436"><ele>407.40000000000003</ele><time>2026-04-19T11:08:33.999Z</time></trkpt><trkpt lat="44.46970178199308" lon="10.607180494131423"><ele>405.6</ele><time>2026-04-19T11:08:34.999Z</time></trkpt><trkpt lat="44.46978814273202" lon="10.607223096916153"><ele>403.8</ele><time>2026-04-19T11:08:35.999Z</time></trkpt><trkpt lat="44.46989006856191" lon="10.607244249533599"><ele>402.0</ele><time>2026-04-19T11:08:36.999Z</time></trkpt><trkpt lat="44.47002447634633" lon="10.607258725438818"><ele>402.0</ele><time>2026-04-19T11:08:37.999Z</time></trkpt><trkpt lat="44.47012660195487" lon="10.607282210330935"><ele>402.0</ele><time>2026-04-19T11:08:38.999Z</time></trkpt><trkpt lat="44.47020513044712" lon="10.607351130799238"><ele>402.0</ele><time>2026-04-19T11:08:39.999Z</time></trkpt><trkpt lat="44.47030926447499" lon="10.607441518535879"><ele>402.0</ele><time>2026-04-19T11:08:40.999Z</time></trkpt><trkpt lat="44.47041512290217" lon="10.607544876791618"><ele>402.0</ele><time>2026-04-19T11:08:41.999Z</time></trkpt><trkpt lat="44.47051117152297" lon="10.607629131999593"><ele>399.20000000000005</ele><time>2026-04-19T11:08:42.999Z</time></trkpt><trkpt lat="44.47060888494602" lon="10.607702911598006"><ele>396.4</ele><time>2026-04-19T11:08:43.999Z</time></trkpt><trkpt lat="44.4707297990615" lon="10.607767017781372"><ele>393.6</ele><time>2026-04-19T11:08:44.999Z</time></trkpt><trkpt lat="44.47082343428839" lon="10.607798485063983"><ele>390.79999999999995</ele><time>2026-04-19T11:08:46Z</time></trkpt><trkpt lat="44.470918313750346" lon="10.607831981244143"><ele>388.0</ele><time>2026-04-19T11:08:47Z</time></trkpt><trkpt lat="44.47100288706252" lon="10.607904373944658"><ele>386.75</ele><time>2026-04-19T11:08:48Z</time></trkpt><trkpt lat="44.47108090264164" lon="10.60799372240121"><ele>385.5</ele><time>2026-04-19T11:08:49Z</time></trkpt><trkpt lat="44.4711725984709" lon="10.608085278275503"><ele>384.25</ele><time>2026-04-19T11:08:50Z</time></trkpt><trkpt lat="44.471289975771064" lon="10.608166992344954"><ele>383.0</ele><time>2026-04-19T11:08:51Z</time></trkpt><trkpt lat="44.47139946219399" lon="10.608237931196184"><ele>382.0</ele><time>2026-04-19T11:08:52Z</time></trkpt><trkpt lat="44.471501263111" lon="10.608313728262374"><ele>381.0</ele><time>2026-04-19T11:08:53Z</time></trkpt><trkpt lat="44.47159704541691" lon="10.608374080171982"><ele>380.0</ele><time>2026-04-19T11:08:54Z</time></trkpt><trkpt lat="44.471685909794935" lon="10.60843647241556"><ele>379.0</ele><time>2026-04-19T11:08:55Z</time></trkpt><trkpt lat="44.47176062303875" lon="10.608492476643919"><ele>378.0</ele><time>2026-04-19T11:08:56Z</time></trkpt><trkpt lat="44.47182342197991" lon="10.608572450036569"><ele>377.4</ele><time>2026-04-19T11:08:57Z</time></trkpt><trkpt lat="44.47190045227856" lon="10.608680984285654"><ele>376.79999999999995</ele><time>2026-04-19T11:08:58Z</time></trkpt><trkpt lat="44.47196873613717" lon="10.608752492035777"><ele>376.2</ele><time>2026-04-19T11:08:59Z</time></trkpt><trkpt lat="44.47203649761689" lon="10.608787373334554"><ele>375.6</ele><time>2026-04-19T11:09:00Z</time></trkpt><trkpt lat="44.47213583100069" lon="10.60881344444115"><ele>375.0</ele><time>2026-04-19T11:09:01Z</time></trkpt><trkpt lat="44.472232600079685" lon="10.608873573458977"><ele>373.0</ele><time>2026-04-19T11:09:02Z</time></trkpt><trkpt lat="44.472320273605064" lon="10.608977521160341"><ele>371.0</ele><time>2026-04-19T11:09:03Z</time></trkpt><trkpt lat="44.472400180592906" lon="10.60907377864137"><ele>369.0</ele><time>2026-04-19T11:09:04Z</time></trkpt><trkpt lat="44.47248100764413" lon="10.609179316808255"><ele>367.0</ele><time>2026-04-19T11:09:05Z</time></trkpt><trkpt lat="44.47257886796823" lon="10.609303850257964"><ele>367.0</ele><time>2026-04-19T11:09:06Z</time></trkpt><trkpt lat="44.472678234609205" lon="10.609429656464002"><ele>367.0</ele><time>2026-04-19T11:09:07Z</time></trkpt><trkpt lat="44.472750270146946" lon="10.609534669242047"><ele>367.0</ele><time>2026-04-19T11:09:08Z</time></trkpt><trkpt lat="44.47280982539492" lon="10.609613446933357"><ele>367.0</ele><time>2026-04-19T11:09:09Z</time></trkpt><trkpt lat="44.47287158713478" lon="10.609663194675248"><ele>367.0</ele><time>2026-04-19T11:09:10Z</time></trkpt><trkpt lat="44.47301682262659" lon="10.6096942917424"><ele>363.75</ele><time>2026-04-19T11:09:12Z</time></trkpt><trkpt lat="44.47312990230998" lon="10.60969593193687"><ele>360.5</ele><time>2026-04-19T11:09:13Z</time></trkpt><trkpt lat="44.473247853681" lon="10.60969117090927"><ele>357.25</ele><time>2026-04-19T11:09:14Z</time></trkpt><trkpt lat="44.47337879371081" lon="10.609688334905266"><ele>354.0</ele><time>2026-04-19T11:09:15Z</time></trkpt><trkpt lat="44.47351148855534" lon="10.609697600806651"><ele>354.0</ele><time>2026-04-19T11:09:16Z</time></trkpt><trkpt lat="44.47362541312107" lon="10.609708151031212"><ele>354.0</ele><time>2026-04-19T11:09:17Z</time></trkpt><trkpt lat="44.473736109395965" lon="10.60971013037358"><ele>354.0</ele><time>2026-04-19T11:09:18Z</time></trkpt><trkpt lat="44.473855775944976" lon="10.609696713499671"><ele>354.0</ele><time>2026-04-19T11:09:19Z</time></trkpt><trkpt lat="44.473975391162675" lon="10.609723349808657"><ele>352.0</ele><time>2026-04-19T11:09:20Z</time></trkpt><trkpt lat="44.47410588673485" lon="10.609732066498593"><ele>350.0</ele><time>2026-04-19T11:09:21Z</time></trkpt><trkpt lat="44.47422257575615" lon="10.609775036626996"><ele>348.0</ele><time>2026-04-19T11:09:22Z</time></trkpt><trkpt lat="44.47435259895224" lon="10.609773792108207"><ele>346.0</ele><time>2026-04-19T11:09:23Z</time></trkpt><trkpt lat="44.474472854354296" lon="10.609759390045467"><ele>346.0</ele><time>2026-04-19T11:09:24Z</time></trkpt><trkpt lat="44.47458891341099" lon="10.609741295096514"><ele>346.0</ele><time>2026-04-19T11:09:25Z</time></trkpt><trkpt lat="44.47471354536986" lon="10.609716006678124"><ele>346.0</ele><time>2026-04-19T11:09:26Z</time></trkpt><trkpt lat="44.47483874759266" lon="10.609701726647636"><ele>346.0</ele><time>2026-04-19T11:09:27Z</time></trkpt><trkpt lat="44.47497627773112" lon="10.609710248343442"><ele>343.5</ele><time>2026-04-19T11:09:28Z</time></trkpt><trkpt lat="44.47509503832981" lon="10.609738449100288"><ele>341.0</ele><time>2026-04-19T11:09:29Z</time></trkpt><trkpt lat="44.47522214049151" lon="10.609740356617236"><ele>338.5</ele><time>2026-04-19T11:09:30Z</time></trkpt><trkpt lat="44.475345591318785" lon="10.60973408824778"><ele>336.0</ele><time>2026-04-19T11:09:31Z</time></trkpt><trkpt lat="44.47545041347235" lon="10.609766298262505"><ele>334.25</ele><time>2026-04-19T11:09:32Z</time></trkpt><trkpt lat="44.475574976828334" lon="10.609820359749403"><ele>332.5</ele><time>2026-04-19T11:09:33Z</time></trkpt><trkpt lat="44.47568293916058" lon="10.609861666768387"><ele>330.75</ele><time>2026-04-19T11:09:34Z</time></trkpt><trkpt lat="44.47578233751956" lon="10.60987304627491"><ele>329.0</ele><time>2026-04-19T11:09:35Z</time></trkpt><trkpt lat="44.47589013210674" lon="10.609859127721636"><ele>329.0</ele><time>2026-04-19T11:09:36Z</time></trkpt><trkpt lat="44.47600813166053" lon="10.609869820337016"><ele>329.0</ele><time>2026-04-19T11:09:38Z</time></trkpt><trkpt lat="44.47607504867155" lon="10.609941345950645"><ele>329.0</ele><time>2026-04-19T11:09:39Z</time></trkpt><trkpt lat="44.4761439804658" lon="10.61008764180165"><ele>329.0</ele><time>2026-04-19T11:09:40Z</time></trkpt><trkpt lat="44.4762217227173" lon="10.610223099490653"><ele>327.0</ele><time>2026-04-19T11:09:41Z</time></trkpt><trkpt lat="44.476309795042184" lon="10.610290854077384"><ele>325.0</ele><time>2026-04-19T11:09:41.999Z</time></trkpt><trkpt lat="44.47636799329699" lon="10.61036452409273"><ele>323.0</ele><time>2026-04-19T11:09:42.999Z</time></trkpt><trkpt lat="44.47643760226473" lon="10.610399315279176"><ele>321.0</ele><time>2026-04-19T11:09:43.999Z</time></trkpt><trkpt lat="44.476531447011375" lon="10.61043245028506"><ele>319.0</ele><time>2026-04-19T11:09:44.999Z</time></trkpt><trkpt lat="44.47663915044012" lon="10.61045681334404"><ele>318.2</ele><time>2026-04-19T11:09:45.999Z</time></trkpt><trkpt lat="44.476725827871206" lon="10.610475263429324"><ele>317.4</ele><time>2026-04-19T11:09:46.999Z</time></trkpt><trkpt lat="44.4767897292324" lon="10.610511756792535"><ele>316.6</ele><time>2026-04-19T11:09:47.999Z</time></trkpt><trkpt lat="44.47688455184558" lon="10.610642285813618"><ele>315.8</ele><time>2026-04-19T11:09:49.999Z</time></trkpt><trkpt lat="44.47695132304523" lon="10.61068978474165"><ele>315.0</ele><time>2026-04-19T11:09:50.999Z</time></trkpt><trkpt lat="44.47704535137462" lon="10.610733540110392"><ele>313.8333333333333</ele><time>2026-04-19T11:09:51.999Z</time></trkpt><trkpt lat="44.477133647408436" lon="10.61076244467075"><ele>312.6666666666667</ele><time>2026-04-19T11:09:52.999Z</time></trkpt><trkpt lat="44.477176768625505" lon="10.610834530985226"><ele>311.5</ele><time>2026-04-19T11:09:53.999Z</time></trkpt><trkpt lat="44.4772196379084" lon="10.610912055214028"><ele>310.33333333333337</ele><time>2026-04-19T11:09:54.999Z</time></trkpt><trkpt lat="44.47727337778044" lon="10.610965588358894"><ele>309.1666666666667</ele><time>2026-04-19T11:09:55.999Z</time></trkpt><trkpt lat="44.47729997362414" lon="10.611064514151543"><ele>308.0</ele><time>2026-04-19T11:09:56.999Z</time></trkpt><trkpt lat="44.47737815002801" lon="10.611134547709357"><ele>307.2</ele><time>2026-04-19T11:10:23.999Z</time></trkpt><trkpt lat="44.47744686191445" lon="10.611207713989934"><ele>306.4</ele><time>2026-04-19T11:10:24.999Z</time></trkpt><trkpt lat="44.47751865657468" lon="10.611314241092058"><ele>305.59999999999997</ele><time>2026-04-19T11:10:25.999Z</time></trkpt><trkpt lat="44.4775821496624" lon="10.611420139727592"><ele>304.8</ele><time>2026-04-19T11:10:26.999Z</time></trkpt><trkpt lat="44.47764689004883" lon="10.6115207686413"><ele>304.0</ele><time>2026-04-19T11:10:27.999Z</time></trkpt><trkpt lat="44.47771860918557" lon="10.611631354507331"><ele>304.0</ele><time>2026-04-19T11:10:28.999Z</time></trkpt><trkpt lat="44.47780102753942" lon="10.611768682518454"><ele>304.0</ele><time>2026-04-19T11:10:29.999Z</time></trkpt><trkpt lat="44.477859264528156" lon="10.611897868057053"><ele>304.0</ele><time>2026-04-19T11:10:30.999Z</time></trkpt><trkpt lat="44.47789271174833" lon="10.612045880504567"><ele>304.0</ele><time>2026-04-19T11:10:31.999Z</time></trkpt><trkpt lat="44.47788896475294" lon="10.61223070216605"><ele>303.25</ele><time>2026-04-19T11:10:32.999Z</time></trkpt><trkpt lat="44.47786302889326" lon="10.612413852119431"><ele>302.5</ele><time>2026-04-19T11:10:33.999Z</time></trkpt><trkpt lat="44.47785135897913" lon="10.612577034645296"><ele>301.75</ele><time>2026-04-19T11:10:34.999Z</time></trkpt><trkpt lat="44.477865156348265" lon="10.612730805613849"><ele>301.0</ele><time>2026-04-19T11:10:35.999Z</time></trkpt><trkpt lat="44.477905084544794" lon="10.612885204420385"><ele>299.25</ele><time>2026-04-19T11:10:36.999Z</time></trkpt><trkpt lat="44.47797414910384" lon="10.613014707710885"><ele>297.5</ele><time>2026-04-19T11:10:37.999Z</time></trkpt><trkpt lat="44.47808609077096" lon="10.613118592576543"><ele>295.75</ele><time>2026-04-19T11:10:38.999Z</time></trkpt><trkpt lat="44.47820789539615" lon="10.613195447071936"><ele>294.0</ele><time>2026-04-19T11:10:39.999Z</time></trkpt><trkpt lat="44.47831510059696" lon="10.613257291856023"><ele>294.0</ele><time>2026-04-19T11:10:40.999Z</time></trkpt><trkpt lat="44.47839016872939" lon="10.613324758117647"><ele>294.0</ele><time>2026-04-19T11:10:41.999Z</time></trkpt><trkpt lat="44.47845736226566" lon="10.613423002498571"><ele>294.0</ele><time>2026-04-19T11:10:43.999Z</time></trkpt><trkpt lat="44.47843777220386" lon="10.61367269323445"><ele>294.0</ele><time>2026-04-19T11:10:45.999Z</time></trkpt><trkpt lat="44.47838845179759" lon="10.613832877777186"><ele>293.25</ele><time>2026-04-19T11:10:46.999Z</time></trkpt><trkpt lat="44.4783558854832" lon="10.614021001480614"><ele>292.5</ele><time>2026-04-19T11:10:47.999Z</time></trkpt><trkpt lat="44.478334742823364" lon="10.61423051097082"><ele>291.75</ele><time>2026-04-19T11:10:48.999Z</time></trkpt><trkpt lat="44.478323601719154" lon="10.61444882889542"><ele>291.0</ele><time>2026-04-19T11:10:49.999Z</time></trkpt><trkpt lat="44.478322285829876" lon="10.614675196252897"><ele>290.3333333333333</ele><time>2026-04-19T11:10:50.999Z</time></trkpt><trkpt lat="44.478336974578" lon="10.614899519458975"><ele>289.66666666666663</ele><time>2026-04-19T11:10:52Z</time></trkpt><trkpt lat="44.47836964889079" lon="10.615120617084761"><ele>289.0</ele><time>2026-04-19T11:10:53Z</time></trkpt><trkpt lat="44.47841300897719" lon="10.615343420279848"><ele>288.66666666666663</ele><time>2026-04-19T11:10:54Z</time></trkpt><trkpt lat="44.47846321790878" lon="10.615556701884971"><ele>288.3333333333333</ele><time>2026-04-19T11:10:55Z</time></trkpt><trkpt lat="44.47852594891132" lon="10.615759808363348"><ele>288.0</ele><time>2026-04-19T11:10:56Z</time></trkpt><trkpt lat="44.47859352075373" lon="10.615957090359762"><ele>287.3333333333333</ele><time>2026-04-19T11:10:57Z</time></trkpt><trkpt lat="44.478645594723744" lon="10.616161159765333"><ele>286.66666666666663</ele><time>2026-04-19T11:10:58Z</time></trkpt><trkpt lat="44.47867682969168" lon="10.616366539059511"><ele>286.0</ele><time>2026-04-19T11:10:59Z</time></trkpt><trkpt lat="44.478670365213056" lon="10.6165878776368"><ele>286.0</ele><time>2026-04-19T11:11:00Z</time></trkpt><trkpt lat="44.47865697032979" lon="10.616811087968864"><ele>286.0</ele><time>2026-04-19T11:11:01Z</time></trkpt><trkpt lat="44.47863261579781" lon="10.617031891225183"><ele>286.0</ele><time>2026-04-19T11:11:02Z</time></trkpt><trkpt lat="44.47860072175883" lon="10.617247015443436"><ele>285.0</ele><time>2026-04-19T11:11:03Z</time></trkpt><trkpt lat="44.47858618228295" lon="10.61745966759534"><ele>284.0</ele><time>2026-04-19T11:11:04Z</time></trkpt><trkpt lat="44.47858996018418" lon="10.617682188878728"><ele>283.0</ele><time>2026-04-19T11:11:05Z</time></trkpt><trkpt lat="44.478600689484885" lon="10.617909199970436"><ele>282.0</ele><time>2026-04-19T11:11:06Z</time></trkpt><trkpt lat="44.4786145540396" lon="10.618139643843003"><ele>281.0</ele><time>2026-04-19T11:11:07Z</time></trkpt><trkpt lat="44.47862364187674" lon="10.618368611650396"><ele>280.0</ele><time>2026-04-19T11:11:08Z</time></trkpt><trkpt lat="44.47863162988666" lon="10.618600590132175"><ele>279.0</ele><time>2026-04-19T11:11:09Z</time></trkpt><trkpt lat="44.478641092340396" lon="10.618832633458053"><ele>278.0</ele><time>2026-04-19T11:11:10Z</time></trkpt><trkpt lat="44.47865024607798" lon="10.619059641155765"><ele>277.0</ele><time>2026-04-19T11:11:11Z</time></trkpt><trkpt lat="44.47865690210149" lon="10.619285664731757"><ele>276.66666666666663</ele><time>2026-04-19T11:11:12Z</time></trkpt><trkpt lat="44.47866387854355" lon="10.619510676562607"><ele>276.3333333333333</ele><time>2026-04-19T11:11:13Z</time></trkpt><trkpt lat="44.478673649239894" lon="10.619736169393898"><ele>276.0</ele><time>2026-04-19T11:11:14Z</time></trkpt><trkpt lat="44.47868346647743" lon="10.619963236885976"><ele>276.0</ele><time>2026-04-19T11:11:15Z</time></trkpt><trkpt lat="44.47868803867147" lon="10.620188226088993"><ele>276.0</ele><time>2026-04-19T11:11:16Z</time></trkpt><trkpt lat="44.47869436704284" lon="10.62041223596223"><ele>276.0</ele><time>2026-04-19T11:11:17Z</time></trkpt><trkpt lat="44.47870031625611" lon="10.62063126164077"><ele>276.3333333333333</ele><time>2026-04-19T11:11:18Z</time></trkpt><trkpt lat="44.47870594134284" lon="10.620849574852109"><ele>276.66666666666663</ele><time>2026-04-19T11:11:19Z</time></trkpt><trkpt lat="44.47871345247209" lon="10.621062575411536"><ele>277.0</ele><time>2026-04-19T11:11:20Z</time></trkpt><trkpt lat="44.47872682326768" lon="10.621276015535727"><ele>276.3333333333333</ele><time>2026-04-19T11:11:21Z</time></trkpt><trkpt lat="44.47874554399614" lon="10.621483781589303"><ele>275.6666666666667</ele><time>2026-04-19T11:11:22Z</time></trkpt><trkpt lat="44.47876812696331" lon="10.621692951625777"><ele>275.0</ele><time>2026-04-19T11:11:23Z</time></trkpt><trkpt lat="44.47879291464562" lon="10.621903323339938"><ele>274.0</ele><time>2026-04-19T11:11:24Z</time></trkpt><trkpt lat="44.478815624686206" lon="10.622114592503237"><ele>273.0</ele><time>2026-04-19T11:11:25Z</time></trkpt><trkpt lat="44.478837860000525" lon="10.622326121786353"><ele>272.0</ele><time>2026-04-19T11:11:26Z</time></trkpt><trkpt lat="44.47885687139352" lon="10.622538977609755"><ele>272.0</ele><time>2026-04-19T11:11:27Z</time></trkpt><trkpt lat="44.478874008596975" lon="10.62275231763165"><ele>272.0</ele><time>2026-04-19T11:11:28Z</time></trkpt><trkpt lat="44.47889011306882" lon="10.622967508003033"><ele>272.0</ele><time>2026-04-19T11:11:29Z</time></trkpt><trkpt lat="44.47890725956759" lon="10.623182546233135"><ele>271.0</ele><time>2026-04-19T11:11:30Z</time></trkpt><trkpt lat="44.478925841297865" lon="10.623395547857271"><ele>270.0</ele><time>2026-04-19T11:11:31Z</time></trkpt><trkpt lat="44.47894846287801" lon="10.623609524304818"><ele>269.0</ele><time>2026-04-19T11:11:32Z</time></trkpt><trkpt lat="44.47897261057485" lon="10.62382272421424"><ele>268.0</ele><time>2026-04-19T11:11:33Z</time></trkpt><trkpt lat="44.47899217498081" lon="10.624034989935275"><ele>267.0</ele><time>2026-04-19T11:11:34Z</time></trkpt><trkpt lat="44.47901216063135" lon="10.624250672209891"><ele>266.0</ele><time>2026-04-19T11:11:35Z</time></trkpt><trkpt lat="44.47902967354066" lon="10.624464937757793"><ele>267.0</ele><time>2026-04-19T11:11:36Z</time></trkpt><trkpt lat="44.47904444254675" lon="10.62467997438872"><ele>268.0</ele><time>2026-04-19T11:11:37Z</time></trkpt><trkpt lat="44.47905583522" lon="10.624896455731442"><ele>269.0</ele><time>2026-04-19T11:11:38Z</time></trkpt><trkpt lat="44.479068342811935" lon="10.625110009982276"><ele>268.33333333333337</ele><time>2026-04-19T11:11:39Z</time></trkpt><trkpt lat="44.47909344787701" lon="10.625320766605597"><ele>267.6666666666667</ele><time>2026-04-19T11:11:40Z</time></trkpt><trkpt lat="44.47913574094503" lon="10.625533352069281"><ele>267.0</ele><time>2026-04-19T11:11:41Z</time></trkpt><trkpt lat="44.479184051240665" lon="10.625740827489004"><ele>267.0</ele><time>2026-04-19T11:11:42Z</time></trkpt><trkpt lat="44.479238931388636" lon="10.625945599421948"><ele>267.0</ele><time>2026-04-19T11:11:43Z</time></trkpt><trkpt lat="44.47929924517012" lon="10.626147886628223"><ele>267.0</ele><time>2026-04-19T11:11:44Z</time></trkpt><trkpt lat="44.47936369497578" lon="10.626345317800514"><ele>266.3333333333333</ele><time>2026-04-19T11:11:45Z</time></trkpt><trkpt lat="44.479426534901016" lon="10.62654381262252"><ele>265.66666666666663</ele><time>2026-04-19T11:11:45.999Z</time></trkpt><trkpt lat="44.479484474458104" lon="10.62673977894617"><ele>265.0</ele><time>2026-04-19T11:11:46.999Z</time></trkpt><trkpt lat="44.47954050607582" lon="10.626937501276936"><ele>265.66666666666663</ele><time>2026-04-19T11:11:47.999Z</time></trkpt><trkpt lat="44.479597019439574" lon="10.627135556226866"><ele>266.3333333333333</ele><time>2026-04-19T11:11:48.999Z</time></trkpt><trkpt lat="44.479655011963246" lon="10.627329746735915"><ele>267.0</ele><time>2026-04-19T11:11:49.999Z</time></trkpt><trkpt lat="44.47971491299059" lon="10.627523198796252"><ele>267.0</ele><time>2026-04-19T11:11:50.999Z</time></trkpt><trkpt lat="44.479775250652395" lon="10.627715760080136"><ele>267.0</ele><time>2026-04-19T11:11:51.999Z</time></trkpt><trkpt lat="44.4798349223861" lon="10.62790901186284"><ele>267.0</ele><time>2026-04-19T11:11:52.999Z</time></trkpt><trkpt lat="44.47988896596211" lon="10.628104367667326"><ele>265.6666666666667</ele><time>2026-04-19T11:11:53.999Z</time></trkpt><trkpt lat="44.479928850296375" lon="10.628305891311065"><ele>264.33333333333337</ele><time>2026-04-19T11:11:54.999Z</time></trkpt><trkpt lat="44.479950606881566" lon="10.628515075781463"><ele>263.0</ele><time>2026-04-19T11:11:55.999Z</time></trkpt><trkpt lat="44.47994625954986" lon="10.628725671571821"><ele>263.0</ele><time>2026-04-19T11:11:56.999Z</time></trkpt><trkpt lat="44.47991513215127" lon="10.628932037401192"><ele>263.0</ele><time>2026-04-19T11:11:57.999Z</time></trkpt><trkpt lat="44.47987141630213" lon="10.629133137142718"><ele>263.0</ele><time>2026-04-19T11:11:58.999Z</time></trkpt><trkpt lat="44.47981563630682" lon="10.62932499460643"><ele>263.0</ele><time>2026-04-19T11:11:59.999Z</time></trkpt><trkpt lat="44.479758354739545" lon="10.629513152042655"><ele>263.5</ele><time>2026-04-19T11:12:00.999Z</time></trkpt><trkpt lat="44.47970278192386" lon="10.629701470206722"><ele>264.0</ele><time>2026-04-19T11:12:01.999Z</time></trkpt><trkpt lat="44.479655455878415" lon="10.629894905865727"><ele>264.5</ele><time>2026-04-19T11:12:02.999Z</time></trkpt><trkpt lat="44.479615204434864" lon="10.630096959297916"><ele>265.0</ele><time>2026-04-19T11:12:03.999Z</time></trkpt><trkpt lat="44.47959111979616" lon="10.630299469551082"><ele>265.0</ele><time>2026-04-19T11:12:04.999Z</time></trkpt><trkpt lat="44.47958580917496" lon="10.630507645964729"><ele>265.0</ele><time>2026-04-19T11:12:05.999Z</time></trkpt><trkpt lat="44.479592593211095" lon="10.630716006123787"><ele>265.0</ele><time>2026-04-19T11:12:06.999Z</time></trkpt><trkpt lat="44.47960594030523" lon="10.630924638893665"><ele>265.0</ele><time>2026-04-19T11:12:07.999Z</time></trkpt><trkpt lat="44.4796252957871" lon="10.631134012552941"><ele>263.66666666666663</ele><time>2026-04-19T11:12:08.999Z</time></trkpt><trkpt lat="44.47964796291787" lon="10.63134841356303"><ele>262.3333333333333</ele><time>2026-04-19T11:12:09.999Z</time></trkpt><trkpt lat="44.47967884171851" lon="10.631554578132649"><ele>261.0</ele><time>2026-04-19T11:12:10.999Z</time></trkpt><trkpt lat="44.47971917691248" lon="10.631761649653868"><ele>261.0</ele><time>2026-04-19T11:12:11.999Z</time></trkpt><trkpt lat="44.4797730448148" lon="10.631942389604065"><ele>261.0</ele><time>2026-04-19T11:12:12.999Z</time></trkpt><trkpt lat="44.479857617872746" lon="10.632103886437331"><ele>261.0</ele><time>2026-04-19T11:12:13.999Z</time></trkpt><trkpt lat="44.47995601766508" lon="10.63226167856088"><ele>261.0</ele><time>2026-04-19T11:12:14.999Z</time></trkpt><trkpt lat="44.48005882372789" lon="10.632410880492818"><ele>260.5</ele><time>2026-04-19T11:12:15.999Z</time></trkpt><trkpt lat="44.48016186336091" lon="10.63256210860935"><ele>260.0</ele><time>2026-04-19T11:12:16.999Z</time></trkpt><trkpt lat="44.48024843394524" lon="10.63272989438596"><ele>259.5</ele><time>2026-04-19T11:12:17.999Z</time></trkpt><trkpt lat="44.480326435174746" lon="10.632907499973765"><ele>259.0</ele><time>2026-04-19T11:12:18.999Z</time></trkpt><trkpt lat="44.48039447193431" lon="10.633093364764452"><ele>257.75</ele><time>2026-04-19T11:12:19.999Z</time></trkpt><trkpt lat="44.480459903387505" lon="10.633280227081274"><ele>256.5</ele><time>2026-04-19T11:12:20.999Z</time></trkpt><trkpt lat="44.48052166613665" lon="10.633463810961855"><ele>255.25</ele><time>2026-04-19T11:12:21.999Z</time></trkpt><trkpt lat="44.480583702458055" lon="10.633650045721817"><ele>254.0</ele><time>2026-04-19T11:12:22.999Z</time></trkpt><trkpt lat="44.4806573216507" lon="10.633834895411352"><ele>253.66666666666669</ele><time>2026-04-19T11:12:23.999Z</time></trkpt><trkpt lat="44.48073682230506" lon="10.634012006245264"><ele>253.33333333333331</ele><time>2026-04-19T11:12:24.999Z</time></trkpt><trkpt lat="44.48081969266807" lon="10.634189130848382"><ele>253.0</ele><time>2026-04-19T11:12:25.999Z</time></trkpt><trkpt lat="44.480905411043075" lon="10.634360532307836"><ele>253.25</ele><time>2026-04-19T11:12:26.999Z</time></trkpt><trkpt lat="44.48098665810424" lon="10.634531861880735"><ele>253.5</ele><time>2026-04-19T11:12:27.999Z</time></trkpt><trkpt lat="44.48106200795537" lon="10.634701332597805"><ele>253.75</ele><time>2026-04-19T11:12:28.999Z</time></trkpt><trkpt lat="44.4811376152568" lon="10.634874652838361"><ele>254.0</ele><time>2026-04-19T11:12:29.999Z</time></trkpt><trkpt lat="44.481208639381116" lon="10.635062496070935"><ele>254.0</ele><time>2026-04-19T11:12:30.999Z</time></trkpt><trkpt lat="44.48125797041091" lon="10.635264685842955"><ele>254.0</ele><time>2026-04-19T11:12:31.999Z</time></trkpt><trkpt lat="44.48130423097883" lon="10.635484795117863"><ele>254.0</ele><time>2026-04-19T11:12:32.999Z</time></trkpt><trkpt lat="44.481349448613784" lon="10.635693957090547"><ele>252.33333333333334</ele><time>2026-04-19T11:12:33.999Z</time></trkpt><trkpt lat="44.48138660188279" lon="10.635900841614895"><ele>250.66666666666669</ele><time>2026-04-19T11:12:34.999Z</time></trkpt><trkpt lat="44.48141610697017" lon="10.636107091599028"><ele>249.0</ele><time>2026-04-19T11:12:35.999Z</time></trkpt><trkpt lat="44.48143872927716" lon="10.636313592067676"><ele>249.0</ele><time>2026-04-19T11:12:36.999Z</time></trkpt><trkpt lat="44.48145876508298" lon="10.63652115696112"><ele>249.0</ele><time>2026-04-19T11:12:37.999Z</time></trkpt><trkpt lat="44.48146836827063" lon="10.636733466089058"><ele>249.0</ele><time>2026-04-19T11:12:38.999Z</time></trkpt><trkpt lat="44.48146656707284" lon="10.6369471430434"><ele>248.66666666666669</ele><time>2026-04-19T11:12:39.999Z</time></trkpt><trkpt lat="44.48145459891372" lon="10.637160466565502"><ele>248.33333333333334</ele><time>2026-04-19T11:12:40.999Z</time></trkpt><trkpt lat="44.48143078742362" lon="10.637379176048025"><ele>248.0</ele><time>2026-04-19T11:12:41.999Z</time></trkpt><trkpt lat="44.481401099223156" lon="10.637593548819577"><ele>247.0</ele><time>2026-04-19T11:12:42.999Z</time></trkpt><trkpt lat="44.48137568146227" lon="10.637803775502515"><ele>246.0</ele><time>2026-04-19T11:12:43.999Z</time></trkpt><trkpt lat="44.48134201789194" lon="10.638010382146755"><ele>245.0</ele><time>2026-04-19T11:12:44.999Z</time></trkpt><trkpt lat="44.48129209367393" lon="10.638206848176967"><ele>247.0</ele><time>2026-04-19T11:12:45.999Z</time></trkpt><trkpt lat="44.481216639823906" lon="10.63838691570879"><ele>249.0</ele><time>2026-04-19T11:12:46.999Z</time></trkpt><trkpt lat="44.48110405777364" lon="10.638527288855242"><ele>251.0</ele><time>2026-04-19T11:12:47.999Z</time></trkpt><trkpt lat="44.481006212204406" lon="10.638637429060534"><ele>253.0</ele><time>2026-04-19T11:12:48.999Z</time></trkpt><trkpt lat="44.480929049560324" lon="10.63873722667113"><ele>253.0</ele><time>2026-04-19T11:12:49.999Z</time></trkpt><trkpt lat="44.48087473384395" lon="10.638813405095998"><ele>253.0</ele><time>2026-04-19T11:12:50.999Z</time></trkpt><trkpt lat="44.480836929364095" lon="10.638900487378123"><ele>253.0</ele><time>2026-04-19T11:12:51.999Z</time></trkpt><trkpt lat="44.480831713005394" lon="10.639010882924445"><ele>253.0</ele><time>2026-04-19T11:12:52.999Z</time></trkpt><trkpt lat="44.48086191476352" lon="10.63915445600424"><ele>253.0</ele><time>2026-04-19T11:12:53.999Z</time></trkpt><trkpt lat="44.48090825107534" lon="10.639301815647693"><ele>253.0</ele><time>2026-04-19T11:12:54.999Z</time></trkpt><trkpt lat="44.48095387473844" lon="10.639456275121603"><ele>253.0</ele><time>2026-04-19T11:12:55.999Z</time></trkpt><trkpt lat="44.48100153353051" lon="10.639625034358277"><ele>253.0</ele><time>2026-04-19T11:12:56.999Z</time></trkpt><trkpt lat="44.481049899318876" lon="10.639799554598499"><ele>253.0</ele><time>2026-04-19T11:12:58Z</time></trkpt><trkpt lat="44.48109593774711" lon="10.639967962695918"><ele>253.75</ele><time>2026-04-19T11:12:59Z</time></trkpt><trkpt lat="44.481144375381966" lon="10.640108951500826"><ele>254.5</ele><time>2026-04-19T11:13:00Z</time></trkpt><trkpt lat="44.481222923882" lon="10.640217701048988"><ele>255.25</ele><time>2026-04-19T11:13:01Z</time></trkpt><trkpt lat="44.4813339533851" lon="10.640287190733355"><ele>256.0</ele><time>2026-04-19T11:13:02Z</time></trkpt><trkpt lat="44.48146557289255" lon="10.640326121573354"><ele>252.75</ele><time>2026-04-19T11:13:03Z</time></trkpt><trkpt lat="44.48160953919353" lon="10.640350863673955"><ele>249.5</ele><time>2026-04-19T11:13:04Z</time></trkpt><trkpt lat="44.48174367831499" lon="10.640365826551932"><ele>246.25</ele><time>2026-04-19T11:13:05Z</time></trkpt><trkpt lat="44.48188430631828" lon="10.640353131525297"><ele>243.0</ele><time>2026-04-19T11:13:06Z</time></trkpt><trkpt lat="44.482030270665085" lon="10.640314459455142"><ele>243.33333333333331</ele><time>2026-04-19T11:13:07Z</time></trkpt><trkpt lat="44.48217776052485" lon="10.64025678983782"><ele>243.66666666666666</ele><time>2026-04-19T11:13:08Z</time></trkpt><trkpt lat="44.482323417092154" lon="10.640180669992262"><ele>244.0</ele><time>2026-04-19T11:13:09Z</time></trkpt><trkpt lat="44.482466414047344" lon="10.640098214422112"><ele>244.0</ele><time>2026-04-19T11:13:10Z</time></trkpt><trkpt lat="44.482606764525045" lon="10.640014398902533"><ele>244.0</ele><time>2026-04-19T11:13:11Z</time></trkpt><trkpt lat="44.48274598000443" lon="10.639932186962142"><ele>244.0</ele><time>2026-04-19T11:13:12Z</time></trkpt><trkpt lat="44.482888611218115" lon="10.639846296444208"><ele>245.66666666666666</ele><time>2026-04-19T11:13:13Z</time></trkpt><trkpt lat="44.483032422768375" lon="10.639751291870452"><ele>247.33333333333331</ele><time>2026-04-19T11:13:14Z</time></trkpt><trkpt lat="44.48317292339541" lon="10.639655657207348"><ele>249.0</ele><time>2026-04-19T11:13:15Z</time></trkpt><trkpt lat="44.48331391755041" lon="10.639560573781353"><ele>249.0</ele><time>2026-04-19T11:13:16Z</time></trkpt><trkpt lat="44.48343907352733" lon="10.639475161496332"><ele>248.99999999999997</ele><time>2026-04-19T11:13:17Z</time></trkpt><trkpt lat="44.48354892627766" lon="10.639401802178378"><ele>248.99999999999997</ele><time>2026-04-19T11:13:18Z</time></trkpt><trkpt lat="44.48364317751135" lon="10.639341955100496"><ele>249.0</ele><time>2026-04-19T11:13:19Z</time></trkpt><trkpt lat="44.483707489905456" lon="10.639302132359726"><ele>249.0</ele><time>2026-04-19T11:13:20Z</time></trkpt><trkpt lat="44.48381897488934" lon="10.639259903100259"><ele>249.2</ele><time>2026-04-19T11:13:22Z</time></trkpt><trkpt lat="44.4839402526794" lon="10.639343327560663"><ele>249.39999999999998</ele><time>2026-04-19T11:13:24Z</time></trkpt><trkpt lat="44.483981886823855" lon="10.639461971792226"><ele>249.6</ele><time>2026-04-19T11:13:25Z</time></trkpt><trkpt lat="44.48401128924934" lon="10.639598832245044"><ele>249.8</ele><time>2026-04-19T11:13:26Z</time></trkpt><trkpt lat="44.48402008528926" lon="10.63976014100154"><ele>250.0</ele><time>2026-04-19T11:13:27Z</time></trkpt><trkpt lat="44.48399667120321" lon="10.639929335928576"><ele>250.0</ele><time>2026-04-19T11:13:28Z</time></trkpt><trkpt lat="44.483929655733824" lon="10.640081424899998"><ele>250.0</ele><time>2026-04-19T11:13:29Z</time></trkpt><trkpt lat="44.483826918989536" lon="10.64020140935478"><ele>250.0</ele><time>2026-04-19T11:13:30Z</time></trkpt><trkpt lat="44.48369828662118" lon="10.640291671052076"><ele>250.0</ele><time>2026-04-19T11:13:31Z</time></trkpt><trkpt lat="44.48354841238814" lon="10.640355006983668"><ele>250.33333333333331</ele><time>2026-04-19T11:13:32Z</time></trkpt><trkpt lat="44.48339634509763" lon="10.640412383786863"><ele>250.66666666666669</ele><time>2026-04-19T11:13:33Z</time></trkpt><trkpt lat="44.48324820945207" lon="10.640491026865304"><ele>251.0</ele><time>2026-04-19T11:13:34Z</time></trkpt><trkpt lat="44.48310464625594" lon="10.64058477513081"><ele>251.0</ele><time>2026-04-19T11:13:35Z</time></trkpt><trkpt lat="44.48296947759159" lon="10.640689170288704"><ele>251.0</ele><time>2026-04-19T11:13:36Z</time></trkpt><trkpt lat="44.48285812253588" lon="10.640802092561145"><ele>251.0</ele><time>2026-04-19T11:13:37Z</time></trkpt><trkpt lat="44.48278645030915" lon="10.640914054337776"><ele>251.0</ele><time>2026-04-19T11:13:38Z</time></trkpt><trkpt lat="44.48274425137253" lon="10.64100068366362"><ele>251.0</ele><time>2026-04-19T11:13:39Z</time></trkpt><trkpt lat="44.482876170586025" lon="10.641068124075934"><ele>251.00000000000003</ele><time>2026-04-19T11:13:42Z</time></trkpt><trkpt lat="44.48295109015375" lon="10.641110316321079"><ele>251.00000000000003</ele><time>2026-04-19T11:13:43Z</time></trkpt><trkpt lat="44.48301984264277" lon="10.641204162030727"><ele>251.0</ele><time>2026-04-19T11:13:44Z</time></trkpt><trkpt lat="44.48308950432112" lon="10.641325293142419"><ele>251.0</ele><time>2026-04-19T11:13:45Z</time></trkpt><trkpt lat="44.48317859949775" lon="10.641437354403106"><ele>252.25</ele><time>2026-04-19T11:13:45.999Z</time></trkpt><trkpt lat="44.483288111404164" lon="10.641515118922172"><ele>253.5</ele><time>2026-04-19T11:13:46.999Z</time></trkpt><trkpt lat="44.48339655593744" lon="10.641591988166848"><ele>254.75</ele><time>2026-04-19T11:13:47.999Z</time></trkpt><trkpt lat="44.483489441152095" lon="10.6416838165379"><ele>256.0</ele><time>2026-04-19T11:13:48.999Z</time></trkpt><trkpt lat="44.483545012548106" lon="10.641811529611632"><ele>257.5</ele><time>2026-04-19T11:13:49.999Z</time></trkpt><trkpt lat="44.48358130784405" lon="10.641984483425391"><ele>259.0</ele><time>2026-04-19T11:13:50.999Z</time></trkpt><trkpt lat="44.48360364942723" lon="10.642168139176897"><ele>260.5</ele><time>2026-04-19T11:13:51.999Z</time></trkpt><trkpt lat="44.48363671086623" lon="10.642327808352842"><ele>262.0</ele><time>2026-04-19T11:13:52.999Z</time></trkpt><trkpt lat="44.4837191926956" lon="10.642466463644451"><ele>264.75</ele><time>2026-04-19T11:13:53.999Z</time></trkpt><trkpt lat="44.483821133166316" lon="10.642599748956261"><ele>267.5</ele><time>2026-04-19T11:13:54.999Z</time></trkpt><trkpt lat="44.48394475075553" lon="10.642711392096636"><ele>270.25</ele><time>2026-04-19T11:13:55.999Z</time></trkpt><trkpt lat="44.48405069276198" lon="10.642806127750035"><ele>273.0</ele><time>2026-04-19T11:13:56.999Z</time></trkpt><trkpt lat="44.484126929530625" lon="10.642890617188005"><ele>275.25</ele><time>2026-04-19T11:13:57.999Z</time></trkpt><trkpt lat="44.48416512450933" lon="10.643009850510118"><ele>277.5</ele><time>2026-04-19T11:13:58.999Z</time></trkpt><trkpt lat="44.48417731253215" lon="10.64316880820707"><ele>279.75</ele><time>2026-04-19T11:13:59.999Z</time></trkpt><trkpt lat="44.484169963152596" lon="10.643344159515468"><ele>282.0</ele><time>2026-04-19T11:14:00.999Z</time></trkpt><trkpt lat="44.484168726802125" lon="10.643528005619002"><ele>283.75</ele><time>2026-04-19T11:14:01.999Z</time></trkpt><trkpt lat="44.48414832214466" lon="10.643682388323185"><ele>285.5</ele><time>2026-04-19T11:14:02.999Z</time></trkpt><trkpt lat="44.48409182569003" lon="10.643813931014162"><ele>287.25</ele><time>2026-04-19T11:14:03.999Z</time></trkpt><trkpt lat="44.48402274963319" lon="10.643944150154049"><ele>289.0</ele><time>2026-04-19T11:14:04.999Z</time></trkpt><trkpt lat="44.48396548737604" lon="10.64407991964054"><ele>289.0</ele><time>2026-04-19T11:14:05.999Z</time></trkpt><trkpt lat="44.483932615198455" lon="10.644222186487568"><ele>289.0</ele><time>2026-04-19T11:14:06.999Z</time></trkpt><trkpt lat="44.48393846395508" lon="10.644328823495774"><ele>289.0</ele><time>2026-04-19T11:14:07.999Z</time></trkpt><trkpt lat="44.48397507248658" lon="10.644426417147093"><ele>289.0</ele><time>2026-04-19T11:14:08.999Z</time></trkpt><trkpt lat="44.48404937949758" lon="10.644477880128095"><ele>289.0</ele><time>2026-04-19T11:14:09.999Z</time></trkpt><trkpt lat="44.48420286232759" lon="10.644417839548199"><ele>289.0</ele><time>2026-04-19T11:14:11.999Z</time></trkpt><trkpt lat="44.484301603720944" lon="10.644269992862217"><ele>289.0</ele><time>2026-04-19T11:14:12.999Z</time></trkpt><trkpt lat="44.48438321538873" lon="10.644196590651676"><ele>289.0</ele><time>2026-04-19T11:14:13.999Z</time></trkpt><trkpt lat="44.48448165249061" lon="10.644159464353711"><ele>289.0</ele><time>2026-04-19T11:14:14.999Z</time></trkpt><trkpt lat="44.48458606640484" lon="10.644045945259325"><ele>289.8</ele><time>2026-04-19T11:14:15.999Z</time></trkpt><trkpt lat="44.484666836616476" lon="10.643917427393909"><ele>290.59999999999997</ele><time>2026-04-19T11:14:16.999Z</time></trkpt><trkpt lat="44.48475825906662" lon="10.64379083168244"><ele>291.4</ele><time>2026-04-19T11:14:17.999Z</time></trkpt><trkpt lat="44.48483080063404" lon="10.643698543291633"><ele>292.2</ele><time>2026-04-19T11:14:18.999Z</time></trkpt><trkpt lat="44.4848911626089" lon="10.643627147215625"><ele>293.0</ele><time>2026-04-19T11:14:19.999Z</time></trkpt><trkpt lat="44.48499702812959" lon="10.6436453448715"><ele>293.5</ele><time>2026-04-19T11:14:20.999Z</time></trkpt><trkpt lat="44.48510518088368" lon="10.643735957137698"><ele>294.0</ele><time>2026-04-19T11:14:21.999Z</time></trkpt><trkpt lat="44.485231526384005" lon="10.643824680155447"><ele>294.5</ele><time>2026-04-19T11:14:22.999Z</time></trkpt><trkpt lat="44.485365298290034" lon="10.643862845725971"><ele>295.0</ele><time>2026-04-19T11:14:23.999Z</time></trkpt><trkpt lat="44.48551586151013" lon="10.643907448619977"><ele>299.0</ele><time>2026-04-19T11:14:24.999Z</time></trkpt><trkpt lat="44.48568503413297" lon="10.643931197175146"><ele>303.0</ele><time>2026-04-19T11:14:25.999Z</time></trkpt><trkpt lat="44.4858602953282" lon="10.643934498920936"><ele>307.0</ele><time>2026-04-19T11:14:26.999Z</time></trkpt><trkpt lat="44.4860319571418" lon="10.643950652842856"><ele>307.0</ele><time>2026-04-19T11:14:27.999Z</time></trkpt><trkpt lat="44.4861978384052" lon="10.643966784575817"><ele>307.0</ele><time>2026-04-19T11:14:28.999Z</time></trkpt><trkpt lat="44.48637002266655" lon="10.64397075085505"><ele>307.0</ele><time>2026-04-19T11:14:29.999Z</time></trkpt><trkpt lat="44.48653980905503" lon="10.64396203366813"><ele>310.75</ele><time>2026-04-19T11:14:30.999Z</time></trkpt><trkpt lat="44.48669739773715" lon="10.64397790192408"><ele>314.5</ele><time>2026-04-19T11:14:31.999Z</time></trkpt><trkpt lat="44.4868312207305" lon="10.643989551909916"><ele>318.25</ele><time>2026-04-19T11:14:32.999Z</time></trkpt><trkpt lat="44.48696210019206" lon="10.643995313574862"><ele>322.0</ele><time>2026-04-19T11:14:33.999Z</time></trkpt><trkpt lat="44.487085552364924" lon="10.644079624910821"><ele>324.25</ele><time>2026-04-19T11:14:34.999Z</time></trkpt><trkpt lat="44.48719004761824" lon="10.64413320596593"><ele>326.5</ele><time>2026-04-19T11:14:35.999Z</time></trkpt><trkpt lat="44.4872780692271" lon="10.644286442243155"><ele>328.75</ele><time>2026-04-19T11:14:37.999Z</time></trkpt><trkpt lat="44.487313468794" lon="10.64442102606698"><ele>331.0</ele><time>2026-04-19T11:14:38.999Z</time></trkpt><trkpt lat="44.487407518302184" lon="10.644531954077674"><ele>332.75</ele><time>2026-04-19T11:14:39.999Z</time></trkpt><trkpt lat="44.48748764948314" lon="10.644657207584258"><ele>334.5</ele><time>2026-04-19T11:14:40.999Z</time></trkpt><trkpt lat="44.48755204007042" lon="10.644803268444178"><ele>336.25</ele><time>2026-04-19T11:14:41.999Z</time></trkpt><trkpt lat="44.48757521493356" lon="10.64495927747199"><ele>338.0</ele><time>2026-04-19T11:14:42.999Z</time></trkpt><trkpt lat="44.48760518433717" lon="10.645088814086684"><ele>338.0</ele><time>2026-04-19T11:14:43.999Z</time></trkpt><trkpt lat="44.48768989865422" lon="10.645190407739653"><ele>338.0</ele><time>2026-04-19T11:14:44.999Z</time></trkpt><trkpt lat="44.48779506218392" lon="10.645247222209797"><ele>338.0</ele><time>2026-04-19T11:14:45.999Z</time></trkpt><trkpt lat="44.48792044541255" lon="10.6452953622418"><ele>338.0</ele><time>2026-04-19T11:14:46.999Z</time></trkpt><trkpt lat="44.488056769753484" lon="10.645356345421591"><ele>343.25</ele><time>2026-04-19T11:14:47.999Z</time></trkpt><trkpt lat="44.48818183799345" lon="10.64541054255996"><ele>348.5</ele><time>2026-04-19T11:14:48.999Z</time></trkpt><trkpt lat="44.488318449263566" lon="10.645444109986228"><ele>353.75</ele><time>2026-04-19T11:14:49.999Z</time></trkpt><trkpt lat="44.488452285940966" lon="10.645447812664509"><ele>359.0</ele><time>2026-04-19T11:14:50.999Z</time></trkpt><trkpt lat="44.48856617268483" lon="10.645437178706407"><ele>359.0</ele><time>2026-04-19T11:14:51.999Z</time></trkpt><trkpt lat="44.48866349156188" lon="10.64546704726127"><ele>359.0</ele><time>2026-04-19T11:14:52.999Z</time></trkpt><trkpt lat="44.48877051034538" lon="10.645504294636336"><ele>359.0</ele><time>2026-04-19T11:14:53.999Z</time></trkpt><trkpt lat="44.48889163679285" lon="10.64554843211917"><ele>359.0</ele><time>2026-04-19T11:14:54.999Z</time></trkpt><trkpt lat="44.48901684073628" lon="10.645573793870904"><ele>361.0</ele><time>2026-04-19T11:14:55.999Z</time></trkpt><trkpt lat="44.48912139046191" lon="10.645620681349628"><ele>363.0</ele><time>2026-04-19T11:14:56.999Z</time></trkpt><trkpt lat="44.48918923509479" lon="10.645671471586391"><ele>365.0</ele><time>2026-04-19T11:14:57.999Z</time></trkpt><trkpt lat="44.48919284304582" lon="10.64581161981594"><ele>367.0</ele><time>2026-04-19T11:14:59.999Z</time></trkpt><trkpt lat="44.48913539232228" lon="10.64589670834257"><ele>369.0</ele><time>2026-04-19T11:15:00.999Z</time></trkpt><trkpt lat="44.48906586012191" lon="10.645954598194919"><ele>369.0</ele><time>2026-04-19T11:15:01.999Z</time></trkpt><trkpt lat="44.48903770572232" lon="10.646049026021776"><ele>369.0</ele><time>2026-04-19T11:15:02.999Z</time></trkpt><trkpt lat="44.48905831539289" lon="10.646162628813755"><ele>369.0</ele><time>2026-04-19T11:15:04Z</time></trkpt><trkpt lat="44.48919050856502" lon="10.64621414141581"><ele>369.0</ele><time>2026-04-19T11:15:06Z</time></trkpt><trkpt lat="44.489264039562194" lon="10.646231476834155"><ele>369.0</ele><time>2026-04-19T11:15:07Z</time></trkpt><trkpt lat="44.48930072923018" lon="10.64630808714152"><ele>369.0</ele><time>2026-04-19T11:15:08Z</time></trkpt><trkpt lat="44.48935965673291" lon="10.646362656623863"><ele>371.5</ele><time>2026-04-19T11:15:09Z</time></trkpt><trkpt lat="44.489430006288146" lon="10.646432573456236"><ele>374.0</ele><time>2026-04-19T11:15:10Z</time></trkpt><trkpt lat="44.48951725611904" lon="10.646519286615082"><ele>376.5</ele><time>2026-04-19T11:15:11Z</time></trkpt><trkpt lat="44.48955073649225" lon="10.646746991328671"><ele>379.0</ele><time>2026-04-19T11:15:12Z</time></trkpt><trkpt lat="44.489646270450336" lon="10.646855860886879"><ele>385.0</ele><time>2026-04-19T11:15:13Z</time></trkpt><trkpt lat="44.48973254536665" lon="10.646973224761012"><ele>391.0</ele><time>2026-04-19T11:15:14Z</time></trkpt><trkpt lat="44.48981496720322" lon="10.647112975215121"><ele>397.0</ele><time>2026-04-19T11:15:15Z</time></trkpt><trkpt lat="44.48989519100921" lon="10.64725251404666"><ele>403.0</ele><time>2026-04-19T11:15:16Z</time></trkpt><trkpt lat="44.48995637258782" lon="10.64737574170385"><ele>403.0</ele><time>2026-04-19T11:15:17Z</time></trkpt><trkpt lat="44.48999193597492" lon="10.647499040959014"><ele>403.0</ele><time>2026-04-19T11:15:18Z</time></trkpt><trkpt lat="44.4900009951648" lon="10.647633753812178"><ele>403.0</ele><time>2026-04-19T11:15:19Z</time></trkpt><trkpt lat="44.490002918088884" lon="10.647805946328564"><ele>403.0</ele><time>2026-04-19T11:15:20Z</time></trkpt><trkpt lat="44.49002867733255" lon="10.647927241053823"><ele>403.0</ele><time>2026-04-19T11:15:21Z</time></trkpt><trkpt lat="44.490082696199686" lon="10.64806529983318"><ele>402.25</ele><time>2026-04-19T11:15:22Z</time></trkpt><trkpt lat="44.490131773946466" lon="10.64817856526243"><ele>401.5</ele><time>2026-04-19T11:15:23Z</time></trkpt><trkpt lat="44.49018829140756" lon="10.64830130609634"><ele>400.75</ele><time>2026-04-19T11:15:24Z</time></trkpt><trkpt lat="44.490251376722924" lon="10.648465826979505"><ele>400.0</ele><time>2026-04-19T11:15:25Z</time></trkpt><trkpt lat="44.49032084749774" lon="10.648636069175202"><ele>400.0</ele><time>2026-04-19T11:15:26Z</time></trkpt><trkpt lat="44.49038093778937" lon="10.648792331366232"><ele>400.0</ele><time>2026-04-19T11:15:27Z</time></trkpt><trkpt lat="44.49043119714553" lon="10.648941601717098"><ele>400.0</ele><time>2026-04-19T11:15:28Z</time></trkpt><trkpt lat="44.49049951419978" lon="10.649002073972799"><ele>400.0</ele><time>2026-04-19T11:15:30Z</time></trkpt><trkpt lat="44.490577532716514" lon="10.648966764753489"><ele>400.0</ele><time>2026-04-19T11:15:32Z</time></trkpt><trkpt lat="44.490643584177924" lon="10.64901148126841"><ele>402.83333333333337</ele><time>2026-04-19T11:15:34Z</time></trkpt><trkpt lat="44.49069963487831" lon="10.64909482307489"><ele>405.6666666666667</ele><time>2026-04-19T11:15:36Z</time></trkpt><trkpt lat="44.49077608074331" lon="10.649139021266382"><ele>408.5</ele><time>2026-04-19T11:15:40Z</time></trkpt><trkpt lat="44.490886680965275" lon="10.64912452034339"><ele>411.33333333333337</ele><time>2026-04-19T11:15:42Z</time></trkpt><trkpt lat="44.490966143390835" lon="10.64910417182471"><ele>414.1666666666667</ele><time>2026-04-19T11:15:43Z</time></trkpt><trkpt lat="44.49105782726697" lon="10.64909524635027"><ele>417.0</ele><time>2026-04-19T11:15:44Z</time></trkpt><trkpt lat="44.49115735570951" lon="10.649092924498207"><ele>417.0</ele><time>2026-04-19T11:15:45Z</time></trkpt><trkpt lat="44.49124118668846" lon="10.649119843769611"><ele>417.0</ele><time>2026-04-19T11:15:47Z</time></trkpt><trkpt lat="44.4913203109404" lon="10.649330863812557"><ele>417.0</ele><time>2026-04-19T11:15:49Z</time></trkpt><trkpt lat="44.49138389949409" lon="10.649448957149117"><ele>417.0</ele><time>2026-04-19T11:15:50Z</time></trkpt><trkpt lat="44.49143834703305" lon="10.649563532211141"><ele>420.75</ele><time>2026-04-19T11:15:51Z</time></trkpt><trkpt lat="44.491469331990665" lon="10.64975185365079"><ele>424.5</ele><time>2026-04-19T11:15:51.999Z</time></trkpt><trkpt lat="44.49148496802885" lon="10.649897428564605"><ele>428.25</ele><time>2026-04-19T11:15:52.999Z</time></trkpt><trkpt lat="44.49150779404454" lon="10.650052469509811"><ele>432.0</ele><time>2026-04-19T11:15:53.999Z</time></trkpt><trkpt lat="44.491539295645815" lon="10.650192024935686"><ele>433.20000000000005</ele><time>2026-04-19T11:15:54.999Z</time></trkpt><trkpt lat="44.49157351917897" lon="10.650307342791303"><ele>434.40000000000003</ele><time>2026-04-19T11:15:55.999Z</time></trkpt><trkpt lat="44.49165249698649" lon="10.650467966969266"><ele>435.59999999999997</ele><time>2026-04-19T11:15:57.999Z</time></trkpt><trkpt lat="44.49170187664777" lon="10.650576789885973"><ele>436.79999999999995</ele><time>2026-04-19T11:15:58.999Z</time></trkpt><trkpt lat="44.491757823359755" lon="10.650726687698647"><ele>438.0</ele><time>2026-04-19T11:15:59.999Z</time></trkpt><trkpt lat="44.4917941260475" lon="10.6508838281657"><ele>438.0</ele><time>2026-04-19T11:16:00.999Z</time></trkpt><trkpt lat="44.49183425046827" lon="10.651036831726378"><ele>437.99999999999994</ele><time>2026-04-19T11:16:01.999Z</time></trkpt><trkpt lat="44.491878290299034" lon="10.651177435120712"><ele>437.99999999999994</ele><time>2026-04-19T11:16:02.999Z</time></trkpt><trkpt lat="44.49193422429665" lon="10.65130571264896"><ele>438.0</ele><time>2026-04-19T11:16:03.999Z</time></trkpt><trkpt lat="44.491982383180144" lon="10.65142818743417"><ele>438.0</ele><time>2026-04-19T11:16:04.999Z</time></trkpt><trkpt lat="44.492017493806294" lon="10.651571003451124"><ele>439.0</ele><time>2026-04-19T11:16:05.999Z</time></trkpt><trkpt lat="44.492050668114516" lon="10.651733140203378"><ele>439.99999999999994</ele><time>2026-04-19T11:16:06.999Z</time></trkpt><trkpt lat="44.492084836839126" lon="10.651857529571823"><ele>440.99999999999994</ele><time>2026-04-19T11:16:07.999Z</time></trkpt><trkpt lat="44.492097948508146" lon="10.65199522810944"><ele>442.0</ele><time>2026-04-19T11:16:08.999Z</time></trkpt><trkpt lat="44.4921090126709" lon="10.652146349843719"><ele>443.0</ele><time>2026-04-19T11:16:09.999Z</time></trkpt><trkpt lat="44.4921478258669" lon="10.652273735935317"><ele>440.5</ele><time>2026-04-19T11:16:10.999Z</time></trkpt><trkpt lat="44.49219474793616" lon="10.652432215573763"><ele>438.0</ele><time>2026-04-19T11:16:11.999Z</time></trkpt><trkpt lat="44.49223985788112" lon="10.652590924431035"><ele>435.5</ele><time>2026-04-19T11:16:12.999Z</time></trkpt><trkpt lat="44.492294891631815" lon="10.652725777116084"><ele>433.0</ele><time>2026-04-19T11:16:13.999Z</time></trkpt><trkpt lat="44.49234930728111" lon="10.652870694938512"><ele>433.0</ele><time>2026-04-19T11:16:14.999Z</time></trkpt><trkpt lat="44.492386044364665" lon="10.65301671598751"><ele>432.99999999999994</ele><time>2026-04-19T11:16:15.999Z</time></trkpt><trkpt lat="44.492406038626065" lon="10.653141996870072"><ele>432.99999999999994</ele><time>2026-04-19T11:16:16.999Z</time></trkpt><trkpt lat="44.49243188051758" lon="10.65323266992085"><ele>433.0</ele><time>2026-04-19T11:16:17.999Z</time></trkpt><trkpt lat="44.49253032223558" lon="10.653408927951965"><ele>433.0</ele><time>2026-04-19T11:16:19.999Z</time></trkpt><trkpt lat="44.49260029175603" lon="10.65354822058186"><ele>433.59999999999997</ele><time>2026-04-19T11:16:20.999Z</time></trkpt><trkpt lat="44.49264878468734" lon="10.653668809851299"><ele>434.19999999999993</ele><time>2026-04-19T11:16:21.999Z</time></trkpt><trkpt lat="44.492657532714674" lon="10.653792466542521"><ele>434.8</ele><time>2026-04-19T11:16:22.999Z</time></trkpt><trkpt lat="44.49261956430713" lon="10.653937150907732"><ele>435.4</ele><time>2026-04-19T11:16:23.999Z</time></trkpt><trkpt lat="44.492566256550155" lon="10.65408052072809"><ele>436.0</ele><time>2026-04-19T11:16:24.999Z</time></trkpt><trkpt lat="44.49251278708802" lon="10.654213023197988"><ele>436.00000000000006</ele><time>2026-04-19T11:16:25.999Z</time></trkpt><trkpt lat="44.49245358052381" lon="10.654343287119115"><ele>436.0</ele><time>2026-04-19T11:16:26.999Z</time></trkpt><trkpt lat="44.49240171720587" lon="10.65445487228253"><ele>436.0</ele><time>2026-04-19T11:16:27.999Z</time></trkpt><trkpt lat="44.492363655065844" lon="10.654529940584856"><ele>436.0</ele><time>2026-04-19T11:16:28.999Z</time></trkpt><trkpt lat="44.49232591810672" lon="10.654603696089172"><ele>436.00000000000006</ele><time>2026-04-19T11:16:30.999Z</time></trkpt><trkpt lat="44.49238623096916" lon="10.654650953676903"><ele>436.0</ele><time>2026-04-19T11:16:34.999Z</time></trkpt><trkpt lat="44.49245814801431" lon="10.65458518748377"><ele>436.00000000000006</ele><time>2026-04-19T11:16:39.999Z</time></trkpt><trkpt lat="44.492534842517635" lon="10.654498516218986"><ele>436.0</ele><time>2026-04-19T11:16:40.999Z</time></trkpt><trkpt lat="44.4925840839137" lon="10.654382657068693"><ele>436.0</ele><time>2026-04-19T11:16:42.999Z</time></trkpt><trkpt lat="44.49263637325241" lon="10.65430717367428"><ele>436.0</ele><time>2026-04-19T11:16:44.999Z</time></trkpt><trkpt lat="44.492695383194395" lon="10.654246495116332"><ele>436.00000000000006</ele><time>2026-04-19T11:16:50.999Z</time></trkpt><trkpt lat="44.49262533331006" lon="10.654274250134506"><ele>436.0</ele><time>2026-04-19T11:17:08.999Z</time></trkpt><trkpt lat="44.4925786438285" lon="10.654213136675457"><ele>436.0</ele><time>2026-04-19T11:17:13Z</time></trkpt><trkpt lat="44.49246948259141" lon="10.654138441713407"><ele>436.0</ele><time>2026-04-19T11:17:20Z</time></trkpt><trkpt lat="44.492379700610265" lon="10.65408120333123"><ele>436.0</ele><time>2026-04-19T11:17:22Z</time></trkpt><trkpt lat="44.49230543790026" lon="10.654028528999499"><ele>436.0</ele><time>2026-04-19T11:17:24Z</time></trkpt><trkpt lat="44.4922174367925" lon="10.653993028076124"><ele>436.0</ele><time>2026-04-19T11:17:27Z</time></trkpt><trkpt lat="44.492142900563486" lon="10.653953344758685"><ele>436.0</ele><time>2026-04-19T11:17:30Z</time></trkpt><trkpt lat="44.49221779469337" lon="10.653955423137342"><ele>436.0</ele><time>2026-04-19T11:17:39Z</time></trkpt><trkpt lat="44.492273330710496" lon="10.654013574709897"><ele>436.0</ele><time>2026-04-19T11:17:40Z</time></trkpt><trkpt lat="44.49235846639561" lon="10.65407445339408"><ele>436.0</ele><time>2026-04-19T11:17:41Z</time></trkpt><trkpt lat="44.4924621543245" lon="10.654138502725779"><ele>436.0</ele><time>2026-04-19T11:17:42Z</time></trkpt><trkpt lat="44.492584633412264" lon="10.654215175509535"><ele>436.0</ele><time>2026-04-19T11:17:43Z</time></trkpt><trkpt lat="44.49267342691726" lon="10.654266833349345"><ele>436.0</ele><time>2026-04-19T11:17:44Z</time></trkpt><trkpt lat="44.49273301969486" lon="10.65432132058645"><ele>436.0</ele><time>2026-04-19T11:17:45Z</time></trkpt><trkpt lat="44.49280081886546" lon="10.654424972814258"><ele>436.0</ele><time>2026-04-19T11:17:47Z</time></trkpt><trkpt lat="44.4928388672775" lon="10.654563372274856"><ele>436.0</ele><time>2026-04-19T11:17:49Z</time></trkpt><trkpt lat="44.492890876362274" lon="10.654646279396573"><ele>436.00000000000006</ele><time>2026-04-19T11:17:50Z</time></trkpt><trkpt lat="44.49293374619364" lon="10.654716507059044"><ele>436.0</ele><time>2026-04-19T11:17:51Z</time></trkpt><trkpt lat="44.492977192555756" lon="10.654823230982267"><ele>436.0</ele><time>2026-04-19T11:17:53Z</time></trkpt><trkpt lat="44.49290100315003" lon="10.654747817775474"><ele>436.0</ele><time>2026-04-19T11:17:57.999Z</time></trkpt><trkpt lat="44.492881878361175" lon="10.654625278549766"><ele>436.00000000000006</ele><time>2026-04-19T11:17:58.999Z</time></trkpt><trkpt lat="44.492837636623456" lon="10.654521792689469"><ele>436.0</ele><time>2026-04-19T11:17:59.999Z</time></trkpt><trkpt lat="44.492774660275046" lon="10.654434597495092"><ele>436.00000000000006</ele><time>2026-04-19T11:18:00.999Z</time></trkpt><trkpt lat="44.492714391599065" lon="10.65435036923465"><ele>436.0</ele><time>2026-04-19T11:18:01.999Z</time></trkpt><trkpt lat="44.49266451647493" lon="10.654288401680613"><ele>436.0</ele><time>2026-04-19T11:18:02.999Z</time></trkpt><trkpt lat="44.49259595124235" lon="10.654221520842336"><ele>436.0</ele><time>2026-04-19T11:18:06.999Z</time></trkpt><trkpt lat="44.492518688972716" lon="10.654170456864783"><ele>436.00000000000006</ele><time>2026-04-19T11:18:08.999Z</time></trkpt><trkpt lat="44.49244526302271" lon="10.654144222055281"><ele>436.0</ele><time>2026-04-19T11:18:09.999Z</time></trkpt><trkpt lat="44.492367274722376" lon="10.654096019955869"><ele>436.0</ele><time>2026-04-19T11:18:10.999Z</time></trkpt><trkpt lat="44.492298253368844" lon="10.65404008831514"><ele>436.0</ele><time>2026-04-19T11:18:11.999Z</time></trkpt><trkpt lat="44.49219814772162" lon="10.654001920182246"><ele>436.0</ele><time>2026-04-19T11:18:13.999Z</time></trkpt><trkpt lat="44.49213465954781" lon="10.653979408964648"><ele>436.0</ele><time>2026-04-19T11:18:15.999Z</time></trkpt><trkpt lat="44.49219754488348" lon="10.653963494285707"><ele>436.0</ele><time>2026-04-19T11:18:20.999Z</time></trkpt><trkpt lat="44.4923698037942" lon="10.654085659257623"><ele>436.0</ele><time>2026-04-19T11:18:22.999Z</time></trkpt><trkpt lat="44.492469971727566" lon="10.654154308403566"><ele>436.0</ele><time>2026-04-19T11:18:23.999Z</time></trkpt><trkpt lat="44.49259271649536" lon="10.654237876268473"><ele>436.0</ele><time>2026-04-19T11:18:24.999Z</time></trkpt><trkpt lat="44.49269158183801" lon="10.654312921990828"><ele>436.0</ele><time>2026-04-19T11:18:25.999Z</time></trkpt><trkpt lat="44.4927817273583" lon="10.654378007920224"><ele>436.00000000000006</ele><time>2026-04-19T11:18:26.999Z</time></trkpt><trkpt lat="44.49284272392348" lon="10.654437411395733"><ele>436.0</ele><time>2026-04-19T11:18:27.999Z</time></trkpt><trkpt lat="44.49288402050548" lon="10.654520757694693"><ele>436.0</ele><time>2026-04-19T11:18:28.999Z</time></trkpt><trkpt lat="44.49290843598257" lon="10.654603527024312"><ele>436.0</ele><time>2026-04-19T11:18:29.999Z</time></trkpt><trkpt lat="44.492944962537514" lon="10.654700739598962"><ele>436.00000000000006</ele><time>2026-04-19T11:18:30.999Z</time></trkpt><trkpt lat="44.492995305364346" lon="10.654797462088535"><ele>436.0</ele><time>2026-04-19T11:18:31.999Z</time></trkpt><trkpt lat="44.493038872326885" lon="10.654891390982536"><ele>436.00000000000006</ele><time>2026-04-19T11:18:32.999Z</time></trkpt><trkpt lat="44.49296541356609" lon="10.654875289641916"><ele>436.0</ele><time>2026-04-19T11:18:36.999Z</time></trkpt><trkpt lat="44.49293419572579" lon="10.654793496760657"><ele>436.0</ele><time>2026-04-19T11:18:37.999Z</time></trkpt><trkpt lat="44.49290520122474" lon="10.654660231162817"><ele>436.0</ele><time>2026-04-19T11:18:38.999Z</time></trkpt><trkpt lat="44.4928736277426" lon="10.654570598359511"><ele>436.00000000000006</ele><time>2026-04-19T11:18:39.999Z</time></trkpt><trkpt lat="44.49281776615879" lon="10.654495653491285"><ele>436.0</ele><time>2026-04-19T11:18:40.999Z</time></trkpt><trkpt lat="44.492774910539865" lon="10.654420057588439"><ele>436.0</ele><time>2026-04-19T11:18:41.999Z</time></trkpt><trkpt lat="44.49270890258557" lon="10.654342463130542"><ele>436.0</ele><time>2026-04-19T11:18:42.999Z</time></trkpt><trkpt lat="44.492641094905075" lon="10.654245065069395"><ele>436.0</ele><time>2026-04-19T11:18:44.999Z</time></trkpt><trkpt lat="44.49257552187448" lon="10.654355898031456"><ele>436.0</ele><time>2026-04-19T11:19:25Z</time></trkpt><trkpt lat="44.49251283337681" lon="10.654427052918859"><ele>436.0</ele><time>2026-04-19T11:19:26Z</time></trkpt><trkpt lat="44.49245403367224" lon="10.654514667035537"><ele>435.1666666666667</ele><time>2026-04-19T11:19:27Z</time></trkpt><trkpt lat="44.492393276485345" lon="10.654610731405063"><ele>434.33333333333337</ele><time>2026-04-19T11:19:28Z</time></trkpt><trkpt lat="44.49234587409405" lon="10.654685197709455"><ele>433.5</ele><time>2026-04-19T11:19:29Z</time></trkpt><trkpt lat="44.49232216130176" lon="10.654776834676955"><ele>432.66666666666663</ele><time>2026-04-19T11:19:30Z</time></trkpt><trkpt lat="44.49230572784214" lon="10.654892632312547"><ele>431.8333333333333</ele><time>2026-04-19T11:19:31Z</time></trkpt><trkpt lat="44.49230540628393" lon="10.654991991151228"><ele>431.0</ele><time>2026-04-19T11:19:32Z</time></trkpt><trkpt lat="44.492343381643174" lon="10.655097477358241"><ele>430.99999999999994</ele><time>2026-04-19T11:19:34Z</time></trkpt><trkpt lat="44.4923977575974" lon="10.655210589023676"><ele>431.0</ele><time>2026-04-19T11:19:36Z</time></trkpt><trkpt lat="44.49241608252328" lon="10.655307023231215"><ele>431.0</ele><time>2026-04-19T11:19:37Z</time></trkpt><trkpt lat="44.49241639044088" lon="10.655431277488193"><ele>431.0</ele><time>2026-04-19T11:19:38Z</time></trkpt><trkpt lat="44.49239774213856" lon="10.655571542207356"><ele>430.99999999999994</ele><time>2026-04-19T11:19:39Z</time></trkpt><trkpt lat="44.492385174253705" lon="10.655680239853957"><ele>431.0</ele><time>2026-04-19T11:19:40Z</time></trkpt><trkpt lat="44.49244019703917" lon="10.655836071360632"><ele>429.6</ele><time>2026-04-19T11:19:42Z</time></trkpt><trkpt lat="44.49251568413484" lon="10.655923350495309"><ele>428.20000000000005</ele><time>2026-04-19T11:19:43Z</time></trkpt><trkpt lat="44.492599463289494" lon="10.656010962994863"><ele>426.79999999999995</ele><time>2026-04-19T11:19:44Z</time></trkpt><trkpt lat="44.49267422309348" lon="10.656108832204307"><ele>425.4</ele><time>2026-04-19T11:19:45Z</time></trkpt><trkpt lat="44.492734224319484" lon="10.656205632339605"><ele>424.0</ele><time>2026-04-19T11:19:46Z</time></trkpt><trkpt lat="44.49280823148721" lon="10.656308699660244"><ele>422.1666666666667</ele><time>2026-04-19T11:19:47Z</time></trkpt><trkpt lat="44.492887207174036" lon="10.656394456988492"><ele>420.33333333333337</ele><time>2026-04-19T11:19:48Z</time></trkpt><trkpt lat="44.492952120243075" lon="10.656445802296911"><ele>418.5</ele><time>2026-04-19T11:19:49Z</time></trkpt><trkpt lat="44.4930226962932" lon="10.656490215310557"><ele>416.66666666666663</ele><time>2026-04-19T11:19:50Z</time></trkpt><trkpt lat="44.493105304809404" lon="10.656565277267761"><ele>414.8333333333333</ele><time>2026-04-19T11:19:51Z</time></trkpt><trkpt lat="44.493177236896415" lon="10.656660724702546"><ele>413.0</ele><time>2026-04-19T11:19:52Z</time></trkpt><trkpt lat="44.49323242248173" lon="10.656789997545099"><ele>410.4</ele><time>2026-04-19T11:19:53Z</time></trkpt><trkpt lat="44.49329821743444" lon="10.656931933762495"><ele>407.79999999999995</ele><time>2026-04-19T11:19:54Z</time></trkpt><trkpt lat="44.49334283210972" lon="10.657066063884876"><ele>405.2</ele><time>2026-04-19T11:19:55Z</time></trkpt><trkpt lat="44.493361749070075" lon="10.657168684638952"><ele>402.6</ele><time>2026-04-19T11:19:56Z</time></trkpt><trkpt lat="44.493379244262904" lon="10.657270405945676"><ele>400.0</ele><time>2026-04-19T11:19:57Z</time></trkpt><trkpt lat="44.49343660590602" lon="10.657377015409725"><ele>400.4</ele><time>2026-04-19T11:19:58Z</time></trkpt><trkpt lat="44.49349748897136" lon="10.657478827720212"><ele>400.8</ele><time>2026-04-19T11:19:59Z</time></trkpt><trkpt lat="44.493566633693554" lon="10.657598770793005"><ele>401.20000000000005</ele><time>2026-04-19T11:20:00Z</time></trkpt><trkpt lat="44.49363576746965" lon="10.657706166004028"><ele>401.6</ele><time>2026-04-19T11:20:00.999Z</time></trkpt><trkpt lat="44.493714262363" lon="10.657816264281555"><ele>402.0</ele><time>2026-04-19T11:20:01.999Z</time></trkpt><trkpt lat="44.49380234226903" lon="10.657932746937556"><ele>402.0</ele><time>2026-04-19T11:20:02.999Z</time></trkpt><trkpt lat="44.493904742483906" lon="10.658071470293951"><ele>402.0</ele><time>2026-04-19T11:20:03.999Z</time></trkpt><trkpt lat="44.4940178651061" lon="10.658251714709372"><ele>402.0</ele><time>2026-04-19T11:20:04.999Z</time></trkpt><trkpt lat="44.49410232816012" lon="10.65837919856651"><ele>402.0</ele><time>2026-04-19T11:20:05.999Z</time></trkpt><trkpt lat="44.49419884005751" lon="10.658481187994031"><ele>402.0</ele><time>2026-04-19T11:20:06.999Z</time></trkpt><trkpt lat="44.49432556228522" lon="10.658566734924664"><ele>402.0</ele><time>2026-04-19T11:20:07.999Z</time></trkpt><trkpt lat="44.49446297452107" lon="10.65862080279063"><ele>402.0</ele><time>2026-04-19T11:20:08.999Z</time></trkpt><trkpt lat="44.49456207561864" lon="10.658664877743515"><ele>402.0</ele><time>2026-04-19T11:20:09.999Z</time></trkpt><trkpt lat="44.49465352065155" lon="10.65874702255142"><ele>403.0</ele><time>2026-04-19T11:20:10.999Z</time></trkpt><trkpt lat="44.49473647969108" lon="10.658837451237272"><ele>404.0</ele><time>2026-04-19T11:20:11.999Z</time></trkpt><trkpt lat="44.49478263465448" lon="10.658907216926139"><ele>405.0</ele><time>2026-04-19T11:20:12.999Z</time></trkpt><trkpt lat="44.49485040241489" lon="10.65905438418598"><ele>406.0</ele><time>2026-04-19T11:20:14.999Z</time></trkpt><trkpt lat="44.494955230899215" lon="10.659069103863072"><ele>407.0</ele><time>2026-04-19T11:20:15.999Z</time></trkpt><trkpt lat="44.49507549441689" lon="10.659103509192981"><ele>407.0</ele><time>2026-04-19T11:20:16.999Z</time></trkpt><trkpt lat="44.49518678265256" lon="10.659129128853863"><ele>407.0</ele><time>2026-04-19T11:20:17.999Z</time></trkpt><trkpt lat="44.49530433118143" lon="10.659105163552638"><ele>407.0</ele><time>2026-04-19T11:20:18.999Z</time></trkpt><trkpt lat="44.49540252530062" lon="10.659100324168673"><ele>407.0</ele><time>2026-04-19T11:20:19.999Z</time></trkpt><trkpt lat="44.495508273722216" lon="10.65916395923843"><ele>407.0</ele><time>2026-04-19T11:20:20.999Z</time></trkpt><trkpt lat="44.49561481816853" lon="10.659272316544314"><ele>408.0</ele><time>2026-04-19T11:20:21.999Z</time></trkpt><trkpt lat="44.495710349354994" lon="10.659383718382385"><ele>409.0</ele><time>2026-04-19T11:20:22.999Z</time></trkpt><trkpt lat="44.49578471534909" lon="10.659456632780472"><ele>410.0</ele><time>2026-04-19T11:20:23.999Z</time></trkpt><trkpt lat="44.49583800879725" lon="10.659511516475211"><ele>411.0</ele><time>2026-04-19T11:20:24.999Z</time></trkpt><trkpt lat="44.49591144792472" lon="10.659515959620537"><ele>412.0</ele><time>2026-04-19T11:20:28.999Z</time></trkpt><trkpt lat="44.496036778405426" lon="10.659500704108913"><ele>412.0</ele><time>2026-04-19T11:20:36.999Z</time></trkpt><trkpt lat="44.496129461720145" lon="10.659462157809314"><ele>412.0</ele><time>2026-04-19T11:20:37.999Z</time></trkpt><trkpt lat="44.49621528076536" lon="10.659396903867346"><ele>412.0</ele><time>2026-04-19T11:20:38.999Z</time></trkpt><trkpt lat="44.496295388618464" lon="10.659304793864262"><ele>412.0</ele><time>2026-04-19T11:20:39.999Z</time></trkpt><trkpt lat="44.496385630026246" lon="10.659192152384302"><ele>412.0</ele><time>2026-04-19T11:20:40.999Z</time></trkpt><trkpt lat="44.496478831716054" lon="10.65911407518022"><ele>412.0</ele><time>2026-04-19T11:20:41.999Z</time></trkpt><trkpt lat="44.49658625259921" lon="10.65904096326943"><ele>412.0</ele><time>2026-04-19T11:20:42.999Z</time></trkpt><trkpt lat="44.496686446858874" lon="10.658979998469361"><ele>412.0</ele><time>2026-04-19T11:20:43.999Z</time></trkpt><trkpt lat="44.49676390261268" lon="10.658933822810353"><ele>412.0</ele><time>2026-04-19T11:20:44.999Z</time></trkpt><trkpt lat="44.496861680159704" lon="10.65890847284456"><ele>412.0</ele><time>2026-04-19T11:20:46.999Z</time></trkpt><trkpt lat="44.49693228316083" lon="10.658851892534194"><ele>412.00000000000006</ele><time>2026-04-19T11:20:47.999Z</time></trkpt><trkpt lat="44.49698331030423" lon="10.658780262490296"><ele>412.0</ele><time>2026-04-19T11:20:48.999Z</time></trkpt><trkpt lat="44.49703415556227" lon="10.658680910413976"><ele>412.0</ele><time>2026-04-19T11:20:49.999Z</time></trkpt><trkpt lat="44.49708053776475" lon="10.658619237622005"><ele>412.0</ele><time>2026-04-19T11:20:50.999Z</time></trkpt><trkpt lat="44.49714936878918" lon="10.65859049485393"><ele>412.00000000000006</ele><time>2026-04-19T11:20:51.999Z</time></trkpt><trkpt lat="44.4972482678946" lon="10.658605829308923"><ele>412.0</ele><time>2026-04-19T11:20:52.999Z</time></trkpt><trkpt lat="44.49733295578741" lon="10.658636778042226"><ele>411.20000000000005</ele><time>2026-04-19T11:20:53.999Z</time></trkpt><trkpt lat="44.497439918097584" lon="10.658661746380387"><ele>410.4</ele><time>2026-04-19T11:20:54.999Z</time></trkpt><trkpt lat="44.4975505838894" lon="10.65865759396982"><ele>409.6</ele><time>2026-04-19T11:20:55.999Z</time></trkpt><trkpt lat="44.497649789170744" lon="10.658655568582889"><ele>408.79999999999995</ele><time>2026-04-19T11:20:56.999Z</time></trkpt><trkpt lat="44.49772986489769" lon="10.658615894962427"><ele>408.0</ele><time>2026-04-19T11:20:57.999Z</time></trkpt><trkpt lat="44.497799765965155" lon="10.658583615451333"><ele>408.0</ele><time>2026-04-19T11:20:58.999Z</time></trkpt><trkpt lat="44.49786260648591" lon="10.658608357963676"><ele>408.0</ele><time>2026-04-19T11:20:59.999Z</time></trkpt><trkpt lat="44.49791179606162" lon="10.658684541227796"><ele>408.0</ele><time>2026-04-19T11:21:00.999Z</time></trkpt><trkpt lat="44.49796374017624" lon="10.658754484240326"><ele>408.0</ele><time>2026-04-19T11:21:01.999Z</time></trkpt><trkpt lat="44.498092196769946" lon="10.658854355525817"><ele>408.0</ele><time>2026-04-19T11:21:03.999Z</time></trkpt><trkpt lat="44.4981811038178" lon="10.658958876506562"><ele>406.59999999999997</ele><time>2026-04-19T11:21:04.999Z</time></trkpt><trkpt lat="44.49828685630845" lon="10.659052407629817"><ele>405.2</ele><time>2026-04-19T11:21:05.999Z</time></trkpt><trkpt lat="44.49840448836876" lon="10.659072861097403"><ele>403.8</ele><time>2026-04-19T11:21:06.999Z</time></trkpt><trkpt lat="44.49849134968442" lon="10.659118765724218"><ele>402.4</ele><time>2026-04-19T11:21:07.999Z</time></trkpt><trkpt lat="44.49855215149683" lon="10.659213341938967"><ele>401.0</ele><time>2026-04-19T11:21:08.999Z</time></trkpt><trkpt lat="44.49862897108508" lon="10.659304237369302"><ele>401.0</ele><time>2026-04-19T11:21:09.999Z</time></trkpt><trkpt lat="44.498740249085984" lon="10.65933667477683"><ele>401.0</ele><time>2026-04-19T11:21:10.999Z</time></trkpt><trkpt lat="44.49887778858617" lon="10.65932495604179"><ele>401.0</ele><time>2026-04-19T11:21:11.999Z</time></trkpt><trkpt lat="44.4989933876404" lon="10.659333743623717"><ele>401.0</ele><time>2026-04-19T11:21:12.999Z</time></trkpt><trkpt lat="44.499117667617305" lon="10.659361643306259"><ele>398.0</ele><time>2026-04-19T11:21:13.999Z</time></trkpt><trkpt lat="44.49926271938508" lon="10.65940264589775"><ele>395.0</ele><time>2026-04-19T11:21:14.999Z</time></trkpt><trkpt lat="44.49939604292457" lon="10.659483260596126"><ele>392.0</ele><time>2026-04-19T11:21:15.999Z</time></trkpt><trkpt lat="44.499524502241805" lon="10.659610773671652"><ele>389.0</ele><time>2026-04-19T11:21:16.999Z</time></trkpt><trkpt lat="44.49967388677138" lon="10.6597618118689"><ele>386.0</ele><time>2026-04-19T11:21:17.999Z</time></trkpt><trkpt lat="44.49985885672271" lon="10.659905078859401"><ele>383.0</ele><time>2026-04-19T11:21:18.999Z</time></trkpt><trkpt lat="44.4999832121289" lon="10.66003189661859"><ele>383.0</ele><time>2026-04-19T11:21:19.999Z</time></trkpt><trkpt lat="44.50006989460203" lon="10.660185902623509"><ele>383.0</ele><time>2026-04-19T11:21:20.998Z</time></trkpt><trkpt lat="44.50018492274827" lon="10.66033569437712"><ele>383.0</ele><time>2026-04-19T11:21:22Z</time></trkpt><trkpt lat="44.50032334354814" lon="10.660427269738175"><ele>382.5</ele><time>2026-04-19T11:21:23Z</time></trkpt><trkpt lat="44.50044717869977" lon="10.660473093129976"><ele>382.0</ele><time>2026-04-19T11:21:24Z</time></trkpt><trkpt lat="44.500566722465166" lon="10.660516398120622"><ele>381.5</ele><time>2026-04-19T11:21:25Z</time></trkpt><trkpt lat="44.50066011279721" lon="10.660566462854106"><ele>381.0</ele><time>2026-04-19T11:21:26Z</time></trkpt><trkpt lat="44.50075033851036" lon="10.660620413153081"><ele>381.0</ele><time>2026-04-19T11:21:27Z</time></trkpt><trkpt lat="44.50084796458015" lon="10.660665675347802"><ele>381.0</ele><time>2026-04-19T11:21:28Z</time></trkpt><trkpt lat="44.50094479755585" lon="10.660662500586314"><ele>381.0</ele><time>2026-04-19T11:21:29Z</time></trkpt><trkpt lat="44.50102206176423" lon="10.66065597951369"><ele>381.0</ele><time>2026-04-19T11:21:30Z</time></trkpt><trkpt lat="44.50109694603237" lon="10.660674970699967"><ele>381.0</ele><time>2026-04-19T11:21:31Z</time></trkpt><trkpt lat="44.50116081334189" lon="10.660696111923594"><ele>381.0</ele><time>2026-04-19T11:21:32Z</time></trkpt><trkpt lat="44.50123323557984" lon="10.660681482864844"><ele>380.8</ele><time>2026-04-19T11:21:33Z</time></trkpt><trkpt lat="44.501331175275965" lon="10.660612915127665"><ele>380.6</ele><time>2026-04-19T11:21:34Z</time></trkpt><trkpt lat="44.501428898320974" lon="10.660533462562801"><ele>380.4</ele><time>2026-04-19T11:21:35Z</time></trkpt><trkpt lat="44.50151622174768" lon="10.66045260028962"><ele>380.2</ele><time>2026-04-19T11:21:36Z</time></trkpt><trkpt lat="44.50159638371741" lon="10.660381333906244"><ele>380.0</ele><time>2026-04-19T11:21:37Z</time></trkpt><trkpt lat="44.50166677231515" lon="10.660412691256662"><ele>380.0</ele><time>2026-04-19T11:21:39Z</time></trkpt><trkpt lat="44.50168718950122" lon="10.660516481501487"><ele>380.0</ele><time>2026-04-19T11:22:17.999Z</time></trkpt><trkpt lat="44.50172712654292" lon="10.660664836461395"><ele>380.0</ele><time>2026-04-19T11:22:19.999Z</time></trkpt><trkpt lat="44.50177171348835" lon="10.660777724829591"><ele>380.0</ele><time>2026-04-19T11:22:20.999Z</time></trkpt><trkpt lat="44.50180107320715" lon="10.66089644563094"><ele>380.0</ele><time>2026-04-19T11:22:21.999Z</time></trkpt><trkpt lat="44.501823960928235" lon="10.661005743117823"><ele>378.2</ele><time>2026-04-19T11:22:22.999Z</time></trkpt><trkpt lat="44.50185813472113" lon="10.661143756528054"><ele>376.4</ele><time>2026-04-19T11:22:23.999Z</time></trkpt><trkpt lat="44.50189399484494" lon="10.661260439328634"><ele>374.6</ele><time>2026-04-19T11:22:24.999Z</time></trkpt><trkpt lat="44.501887455942985" lon="10.66145131096272"><ele>372.8</ele><time>2026-04-19T11:22:26.999Z</time></trkpt><trkpt lat="44.501861446131855" lon="10.661568929112876"><ele>371.0</ele><time>2026-04-19T11:22:27.999Z</time></trkpt><trkpt lat="44.50185944108992" lon="10.661666808208945"><ele>371.0</ele><time>2026-04-19T11:22:28.999Z</time></trkpt><trkpt lat="44.50189952565602" lon="10.661779047266922"><ele>371.0</ele><time>2026-04-19T11:22:29.999Z</time></trkpt><trkpt lat="44.50194138480861" lon="10.661925620795488"><ele>371.0</ele><time>2026-04-19T11:22:30.999Z</time></trkpt><trkpt lat="44.50196466850276" lon="10.662055719841222"><ele>371.0</ele><time>2026-04-19T11:22:31.999Z</time></trkpt><trkpt lat="44.502003644765544" lon="10.662163575043232"><ele>371.0</ele><time>2026-04-19T11:22:32.999Z</time></trkpt><trkpt lat="44.50207308851313" lon="10.662237674681476"><ele>370.0</ele><time>2026-04-19T11:22:33.999Z</time></trkpt><trkpt lat="44.50215302842512" lon="10.662331848256114"><ele>369.0</ele><time>2026-04-19T11:22:34.999Z</time></trkpt><trkpt lat="44.50221754480887" lon="10.662454724300197"><ele>368.0</ele><time>2026-04-19T11:22:35.999Z</time></trkpt><trkpt lat="44.50227157902878" lon="10.662558745574575"><ele>367.0</ele><time>2026-04-19T11:22:36.999Z</time></trkpt><trkpt lat="44.502329730248164" lon="10.662668636266805"><ele>366.0</ele><time>2026-04-19T11:22:37.999Z</time></trkpt><trkpt lat="44.50235645796881" lon="10.662766457039277"><ele>363.25</ele><time>2026-04-19T11:22:38.999Z</time></trkpt><trkpt lat="44.502375260747975" lon="10.66287902240066"><ele>360.5</ele><time>2026-04-19T11:22:39.999Z</time></trkpt><trkpt lat="44.50252963664806" lon="10.662980718240066"><ele>357.75</ele><time>2026-04-19T11:22:41.999Z</time></trkpt><trkpt lat="44.5026529313891" lon="10.663031566374737"><ele>355.0</ele><time>2026-04-19T11:22:42.999Z</time></trkpt><trkpt lat="44.50275822878034" lon="10.6630707853668"><ele>355.0</ele><time>2026-04-19T11:22:43.999Z</time></trkpt><trkpt lat="44.50284479104454" lon="10.66314580611186"><ele>355.0</ele><time>2026-04-19T11:22:44.999Z</time></trkpt><trkpt lat="44.502912036222526" lon="10.663235601704514"><ele>355.0</ele><time>2026-04-19T11:22:45.999Z</time></trkpt><trkpt lat="44.50298004954862" lon="10.663334581947801"><ele>355.0</ele><time>2026-04-19T11:22:46.999Z</time></trkpt><trkpt lat="44.503045696858614" lon="10.663384357429479"><ele>355.0</ele><time>2026-04-19T11:22:47.999Z</time></trkpt><trkpt lat="44.50312823710818" lon="10.663401189170221"><ele>355.0</ele><time>2026-04-19T11:22:48.999Z</time></trkpt><trkpt lat="44.503229519442705" lon="10.663465108508348"><ele>355.0</ele><time>2026-04-19T11:22:49.999Z</time></trkpt><trkpt lat="44.50332164263991" lon="10.663506199347474"><ele>355.0</ele><time>2026-04-19T11:22:50.999Z</time></trkpt><trkpt lat="44.50340443525242" lon="10.663546020325242"><ele>355.0</ele><time>2026-04-19T11:22:51.999Z</time></trkpt><trkpt lat="44.50347538445639" lon="10.66359967887921"><ele>355.0</ele><time>2026-04-19T11:22:52.999Z</time></trkpt><trkpt lat="44.50350867429472" lon="10.663713195545489"><ele>352.8</ele><time>2026-04-19T11:22:53.999Z</time></trkpt><trkpt lat="44.503511685005755" lon="10.66387861509411"><ele>350.6</ele><time>2026-04-19T11:22:54.999Z</time></trkpt><trkpt lat="44.503504274723824" lon="10.664033868591435"><ele>348.4</ele><time>2026-04-19T11:22:55.999Z</time></trkpt><trkpt lat="44.503498234899524" lon="10.664159379661942"><ele>346.2</ele><time>2026-04-19T11:22:56.999Z</time></trkpt><trkpt lat="44.50354846236895" lon="10.664258068096153"><ele>344.0</ele><time>2026-04-19T11:22:58.999Z</time></trkpt><trkpt lat="44.503652342626616" lon="10.66425535568712"><ele>344.00000000000006</ele><time>2026-04-19T11:23:00.999Z</time></trkpt><trkpt lat="44.50371920636641" lon="10.664237106930937"><ele>344.0</ele><time>2026-04-19T11:23:01.999Z</time></trkpt><trkpt lat="44.50378217757021" lon="10.664235251835823"><ele>344.0</ele><time>2026-04-19T11:23:02.999Z</time></trkpt><trkpt lat="44.5038495844215" lon="10.664253249888759"><ele>344.0</ele><time>2026-04-19T11:23:03.999Z</time></trkpt><trkpt lat="44.50392882556925" lon="10.664288328951713"><ele>344.0</ele><time>2026-04-19T11:23:04.999Z</time></trkpt><trkpt lat="44.50399894027973" lon="10.66433200279064"><ele>344.00000000000006</ele><time>2026-04-19T11:23:05.999Z</time></trkpt><trkpt lat="44.504070832727585" lon="10.66437920244622"><ele>344.0</ele><time>2026-04-19T11:23:06.999Z</time></trkpt><trkpt lat="44.504146370730744" lon="10.664450751999825"><ele>342.2</ele><time>2026-04-19T11:23:07.999Z</time></trkpt><trkpt lat="44.50420842311051" lon="10.664532450150574"><ele>340.4</ele><time>2026-04-19T11:23:08.999Z</time></trkpt><trkpt lat="44.50426318124556" lon="10.664636169743446"><ele>338.6</ele><time>2026-04-19T11:23:09.999Z</time></trkpt><trkpt lat="44.504312711428796" lon="10.664766663712035"><ele>336.8</ele><time>2026-04-19T11:23:10.999Z</time></trkpt><trkpt lat="44.504373179233674" lon="10.664909680072615"><ele>335.0</ele><time>2026-04-19T11:23:11.999Z</time></trkpt><trkpt lat="44.50441768796841" lon="10.66500277998703"><ele>335.0</ele><time>2026-04-19T11:23:12.999Z</time></trkpt><trkpt lat="44.50446410465933" lon="10.665066652162663"><ele>335.0</ele><time>2026-04-19T11:23:13.999Z</time></trkpt><trkpt lat="44.50452197046625" lon="10.665138977974054"><ele>335.0</ele><time>2026-04-19T11:23:14.999Z</time></trkpt><trkpt lat="44.50460049992417" lon="10.665191043648642"><ele>335.0</ele><time>2026-04-19T11:23:15.999Z</time></trkpt><trkpt lat="44.50466981437347" lon="10.665244631059739"><ele>335.0</ele><time>2026-04-19T11:23:16.999Z</time></trkpt><trkpt lat="44.504736449516365" lon="10.66530452190015"><ele>335.0</ele><time>2026-04-19T11:23:17.999Z</time></trkpt><trkpt lat="44.50480597095253" lon="10.665290400880819"><ele>331.8</ele><time>2026-04-19T11:23:20.999Z</time></trkpt><trkpt lat="44.50493543609839" lon="10.66522756293908"><ele>328.6</ele><time>2026-04-19T11:23:22.998Z</time></trkpt><trkpt lat="44.505020013021465" lon="10.665179871616031"><ele>325.4</ele><time>2026-04-19T11:23:23.998Z</time></trkpt><trkpt lat="44.505111561368565" lon="10.665165357607496"><ele>322.2</ele><time>2026-04-19T11:23:24.998Z</time></trkpt><trkpt lat="44.505205319869695" lon="10.665155996595635"><ele>319.0</ele><time>2026-04-19T11:23:25.998Z</time></trkpt><trkpt lat="44.50527559455116" lon="10.66516347961975"><ele>319.0</ele><time>2026-04-19T11:23:26.998Z</time></trkpt><trkpt lat="44.50534182884316" lon="10.665172185857928"><ele>319.0</ele><time>2026-04-19T11:23:28Z</time></trkpt><trkpt lat="44.50540685918775" lon="10.66516197648921"><ele>319.0</ele><time>2026-04-19T11:23:29Z</time></trkpt><trkpt lat="44.50552337407523" lon="10.665112367463594"><ele>319.0</ele><time>2026-04-19T11:23:31Z</time></trkpt><trkpt lat="44.505596023983905" lon="10.665056075034217"><ele>319.0</ele><time>2026-04-19T11:23:33Z</time></trkpt><trkpt lat="44.5056468057412" lon="10.665000883759141"><ele>319.0</ele><time>2026-04-19T11:23:36Z</time></trkpt><trkpt lat="44.50562968944376" lon="10.665092167706199"><ele>317.16666666666663</ele><time>2026-04-19T11:23:46Z</time></trkpt><trkpt lat="44.505557640845886" lon="10.665102537947527"><ele>315.3333333333333</ele><time>2026-04-19T11:23:50Z</time></trkpt><trkpt lat="44.505537032648334" lon="10.665000230842862"><ele>313.5</ele><time>2026-04-19T11:23:53Z</time></trkpt><trkpt lat="44.505592014766385" lon="10.66492801535732"><ele>311.6666666666667</ele><time>2026-04-19T11:23:57Z</time></trkpt><trkpt lat="44.50564229460232" lon="10.664998032893493"><ele>309.83333333333337</ele><time>2026-04-19T11:24:00Z</time></trkpt><trkpt lat="44.50555015935095" lon="10.665097477970075"><ele>308.0</ele><time>2026-04-19T11:24:34.999Z</time></trkpt><trkpt lat="44.505465479140774" lon="10.665153202881775"><ele>310.75</ele><time>2026-04-19T11:24:35.999Z</time></trkpt><trkpt lat="44.50536857418773" lon="10.66519384630995"><ele>313.5</ele><time>2026-04-19T11:24:36.999Z</time></trkpt><trkpt lat="44.50524647915572" lon="10.665196770295411"><ele>316.25</ele><time>2026-04-19T11:24:37.999Z</time></trkpt><trkpt lat="44.50510679700296" lon="10.665187773554027"><ele>319.0</ele><time>2026-04-19T11:24:38.999Z</time></trkpt><trkpt lat="44.50495627078711" lon="10.665191885810847"><ele>319.0</ele><time>2026-04-19T11:24:39.999Z</time></trkpt><trkpt lat="44.504848263236134" lon="10.66524863815977"><ele>319.0</ele><time>2026-04-19T11:24:40.999Z</time></trkpt><trkpt lat="44.50476981899574" lon="10.665305347874897"><ele>319.0</ele><time>2026-04-19T11:24:41.999Z</time></trkpt><trkpt lat="44.50469613626952" lon="10.665293066507179"><ele>319.0</ele><time>2026-04-19T11:24:43.999Z</time></trkpt><trkpt lat="44.50462528840032" lon="10.665227959513429"><ele>319.0</ele><time>2026-04-19T11:24:44.999Z</time></trkpt><trkpt lat="44.50456816272125" lon="10.665151315345842"><ele>319.0</ele><time>2026-04-19T11:24:45.999Z</time></trkpt><trkpt lat="44.50449256196914" lon="10.665089777487744"><ele>321.66666666666663</ele><time>2026-04-19T11:24:46.999Z</time></trkpt><trkpt lat="44.504407908953155" lon="10.664986151772602"><ele>324.3333333333333</ele><time>2026-04-19T11:24:48.999Z</time></trkpt><trkpt lat="44.504346413514725" lon="10.664816588532892"><ele>327.0</ele><time>2026-04-19T11:24:50.999Z</time></trkpt><trkpt lat="44.504309748355745" lon="10.66474114187727"><ele>329.6666666666667</ele><time>2026-04-19T11:24:51.999Z</time></trkpt><trkpt lat="44.50426586901814" lon="10.664666226186602"><ele>332.33333333333337</ele><time>2026-04-19T11:24:53.999Z</time></trkpt><trkpt lat="44.504228145137915" lon="10.664592851134298"><ele>335.0</ele><time>2026-04-19T11:24:55.999Z</time></trkpt><trkpt lat="44.50416602321976" lon="10.664472351208813"><ele>335.0</ele><time>2026-04-19T11:24:57.999Z</time></trkpt><trkpt lat="44.50410171522531" lon="10.664383961702667"><ele>335.0</ele><time>2026-04-19T11:24:59.999Z</time></trkpt><trkpt lat="44.50402363268055" lon="10.664370155168728"><ele>335.0</ele><time>2026-04-19T11:25:01.999Z</time></trkpt><trkpt lat="44.50397284895086" lon="10.66442658857253"><ele>335.0</ele><time>2026-04-19T11:25:03.999Z</time></trkpt><trkpt lat="44.50395946183098" lon="10.664550769874026"><ele>335.0</ele><time>2026-04-19T11:25:06.999Z</time></trkpt><trkpt lat="44.50397713278415" lon="10.664649720167295"><ele>335.0</ele><time>2026-04-19T11:25:09.999Z</time></trkpt><trkpt lat="44.50391855326349" lon="10.66470151194121"><ele>335.0</ele><time>2026-04-19T11:25:13.999Z</time></trkpt><trkpt lat="44.50388709751214" lon="10.664566017912241"><ele>335.0</ele><time>2026-04-19T11:25:23.999Z</time></trkpt><trkpt lat="44.50384647733643" lon="10.664474144715268"><ele>335.0</ele><time>2026-04-19T11:25:25.998Z</time></trkpt><trkpt lat="44.503783835015206" lon="10.664462532495952"><ele>335.0</ele><time>2026-04-19T11:25:28.998Z</time></trkpt><trkpt lat="44.50371699478231" lon="10.664431431860685"><ele>335.0</ele><time>2026-04-19T11:26:04Z</time></trkpt><trkpt lat="44.50364144975181" lon="10.664396075208776"><ele>335.0</ele><time>2026-04-19T11:26:06Z</time></trkpt><trkpt lat="44.50354739778022" lon="10.664364984420727"><ele>335.0</ele><time>2026-04-19T11:26:08Z</time></trkpt><trkpt lat="44.50351503511773" lon="10.664462236571278"><ele>335.0</ele><time>2026-04-19T11:26:09.999Z</time></trkpt><trkpt lat="44.50351134613134" lon="10.664571405838288"><ele>335.0</ele><time>2026-04-19T11:26:11.999Z</time></trkpt><trkpt lat="44.50350593113358" lon="10.664660561736374"><ele>335.0</ele><time>2026-04-19T11:26:13.999Z</time></trkpt><trkpt lat="44.503555941521576" lon="10.664724175411228"><ele>335.0</ele><time>2026-04-19T11:26:17.999Z</time></trkpt><trkpt lat="44.503655406815646" lon="10.664768697486926"><ele>335.0</ele><time>2026-04-19T11:26:19.999Z</time></trkpt><trkpt lat="44.503744840797985" lon="10.664844247926258"><ele>335.0</ele><time>2026-04-19T11:26:21.999Z</time></trkpt><trkpt lat="44.5037997307763" lon="10.66496969365092"><ele>335.0</ele><time>2026-04-19T11:26:23.999Z</time></trkpt><trkpt lat="44.503856562821085" lon="10.66503899661315"><ele>335.0</ele><time>2026-04-19T11:26:26.999Z</time></trkpt><trkpt lat="44.50386340095276" lon="10.665147427520608"><ele>335.0</ele><time>2026-04-19T11:26:31.999Z</time></trkpt><trkpt lat="44.503857973391966" lon="10.665261259881673"><ele>335.0</ele><time>2026-04-19T11:26:33.999Z</time></trkpt><trkpt lat="44.503964527242786" lon="10.665334154739865"><ele>335.1666666666667</ele><time>2026-04-19T11:26:35.999Z</time></trkpt><trkpt lat="44.504040567329035" lon="10.665378206119206"><ele>335.33333333333337</ele><time>2026-04-19T11:26:36.999Z</time></trkpt><trkpt lat="44.50409506150166" lon="10.665429067055682"><ele>335.5</ele><time>2026-04-19T11:26:37.999Z</time></trkpt><trkpt lat="44.50416271304621" lon="10.6655776917571"><ele>335.6666666666667</ele><time>2026-04-19T11:26:39.999Z</time></trkpt><trkpt lat="44.50418677842435" lon="10.665677726215895"><ele>335.8333333333333</ele><time>2026-04-19T11:26:40.999Z</time></trkpt><trkpt lat="44.50421393186433" lon="10.665785003207093"><ele>336.0</ele><time>2026-04-19T11:26:41.999Z</time></trkpt><trkpt lat="44.504247978641374" lon="10.66591197374536"><ele>336.0</ele><time>2026-04-19T11:26:42.999Z</time></trkpt><trkpt lat="44.5042885986464" lon="10.666004317511455"><ele>336.0</ele><time>2026-04-19T11:26:43.999Z</time></trkpt><trkpt lat="44.50434043920575" lon="10.666086998212585"><ele>336.0</ele><time>2026-04-19T11:26:44.999Z</time></trkpt><trkpt lat="44.50439037579154" lon="10.66617224371683"><ele>336.0</ele><time>2026-04-19T11:26:45.999Z</time></trkpt><trkpt lat="44.50441859436593" lon="10.666255763742267"><ele>336.0</ele><time>2026-04-19T11:26:46.999Z</time></trkpt><trkpt lat="44.50442121654022" lon="10.66634868987932"><ele>336.0</ele><time>2026-04-19T11:26:47.999Z</time></trkpt><trkpt lat="44.50442244866139" lon="10.666483260418659"><ele>336.1666666666667</ele><time>2026-04-19T11:26:49.999Z</time></trkpt><trkpt lat="44.504409981385265" lon="10.666580075288348"><ele>336.3333333333333</ele><time>2026-04-19T11:26:52.999Z</time></trkpt><trkpt lat="44.50444619562391" lon="10.66669908710993"><ele>336.5</ele><time>2026-04-19T11:26:55.999Z</time></trkpt><trkpt lat="44.50439946303216" lon="10.666619021136544"><ele>336.66666666666663</ele><time>2026-04-19T11:27:09.999Z</time></trkpt><trkpt lat="44.50433551767906" lon="10.666598705213204"><ele>336.8333333333333</ele><time>2026-04-19T11:27:11.999Z</time></trkpt><trkpt lat="44.5042485751865" lon="10.666589411044274"><ele>337.0</ele><time>2026-04-19T11:27:12.999Z</time></trkpt><trkpt lat="44.504161589314734" lon="10.666553025903736"><ele>337.0</ele><time>2026-04-19T11:27:13.999Z</time></trkpt><trkpt lat="44.5040700120695" lon="10.666494856187297"><ele>337.0</ele><time>2026-04-19T11:27:14.999Z</time></trkpt><trkpt lat="44.50399693198566" lon="10.666435933536123"><ele>337.0</ele><time>2026-04-19T11:27:15.999Z</time></trkpt><trkpt lat="44.50393051116918" lon="10.666395866633957"><ele>337.0</ele><time>2026-04-19T11:27:16.999Z</time></trkpt><trkpt lat="44.50386596462362" lon="10.666433137675124"><ele>337.0</ele><time>2026-04-19T11:27:18.999Z</time></trkpt><trkpt lat="44.503895873559635" lon="10.666511125204416"><ele>337.0</ele><time>2026-04-19T11:27:19.999Z</time></trkpt><trkpt lat="44.503970396606846" lon="10.666562682223327"><ele>337.0</ele><time>2026-04-19T11:27:20.999Z</time></trkpt><trkpt lat="44.50406221539618" lon="10.666612978106293"><ele>337.0</ele><time>2026-04-19T11:27:21.999Z</time></trkpt><trkpt lat="44.50416696468937" lon="10.666706236731141"><ele>337.0</ele><time>2026-04-19T11:27:22.999Z</time></trkpt><trkpt lat="44.50426764328947" lon="10.666784802711188"><ele>337.0</ele><time>2026-04-19T11:27:23.999Z</time></trkpt><trkpt lat="44.50435808193823" lon="10.666850356734376"><ele>337.0</ele><time>2026-04-19T11:27:24.999Z</time></trkpt><trkpt lat="44.50446274648254" lon="10.666921834214575"><ele>336.3333333333333</ele><time>2026-04-19T11:27:25.999Z</time></trkpt><trkpt lat="44.50452818157287" lon="10.666980253125109"><ele>335.66666666666663</ele><time>2026-04-19T11:27:26.999Z</time></trkpt><trkpt lat="44.504605605897524" lon="10.667031614328588"><ele>335.0</ele><time>2026-04-19T11:27:27.999Z</time></trkpt><trkpt lat="44.50468377878398" lon="10.667065823434912"><ele>334.3333333333333</ele><time>2026-04-19T11:27:28.998Z</time></trkpt><trkpt lat="44.50475793610744" lon="10.667079843153024"><ele>333.6666666666667</ele><time>2026-04-19T11:27:29.998Z</time></trkpt><trkpt lat="44.504847271795136" lon="10.667072860050233"><ele>333.0</ele><time>2026-04-19T11:27:30.998Z</time></trkpt><trkpt lat="44.50491633531745" lon="10.667123198108245"><ele>332.5</ele><time>2026-04-19T11:27:32.998Z</time></trkpt><trkpt lat="44.50488895283285" lon="10.66721690080916"><ele>332.0</ele><time>2026-04-19T11:27:34.998Z</time></trkpt><trkpt lat="44.504771823567" lon="10.667274678460684"><ele>331.5</ele><time>2026-04-19T11:27:36.998Z</time></trkpt><trkpt lat="44.50472773992448" lon="10.667385206992666"><ele>331.0</ele><time>2026-04-19T11:27:38.998Z</time></trkpt><trkpt lat="44.50473255990933" lon="10.667481532241128"><ele>330.5</ele><time>2026-04-19T11:27:41Z</time></trkpt><trkpt lat="44.50471084805437" lon="10.667608441673643"><ele>330.0</ele><time>2026-04-19T11:27:43Z</time></trkpt><trkpt lat="44.50472248233266" lon="10.667723040193604"><ele>332.0</ele><time>2026-04-19T11:27:45Z</time></trkpt><trkpt lat="44.50476154358214" lon="10.667857398925893"><ele>334.0</ele><time>2026-04-19T11:27:47Z</time></trkpt><trkpt lat="44.504783817282494" lon="10.66795447403474"><ele>336.0</ele><time>2026-04-19T11:27:48Z</time></trkpt><trkpt lat="44.504777404482134" lon="10.668124882676054"><ele>338.0</ele><time>2026-04-19T11:27:50Z</time></trkpt><trkpt lat="44.50476118817713" lon="10.668226526237774"><ele>340.0</ele><time>2026-04-19T11:27:51Z</time></trkpt><trkpt lat="44.50473974565723" lon="10.668322507858875"><ele>342.0</ele><time>2026-04-19T11:27:52Z</time></trkpt><trkpt lat="44.50471128217683" lon="10.668414413093837"><ele>342.0</ele><time>2026-04-19T11:27:53Z</time></trkpt><trkpt lat="44.50467066079668" lon="10.668519039759891"><ele>342.0</ele><time>2026-04-19T11:27:54Z</time></trkpt><trkpt lat="44.50464632701816" lon="10.668612248090692"><ele>342.0</ele><time>2026-04-19T11:27:55Z</time></trkpt><trkpt lat="44.50457838658914" lon="10.668624436775131"><ele>342.0</ele><time>2026-04-19T11:27:58Z</time></trkpt><trkpt lat="44.504507863621285" lon="10.668678833490029"><ele>342.0</ele><time>2026-04-19T11:28:00Z</time></trkpt><trkpt lat="44.50440107438331" lon="10.668744145860865"><ele>342.0</ele><time>2026-04-19T11:28:15.999Z</time></trkpt><trkpt lat="44.504341442033635" lon="10.66880650484691"><ele>342.8</ele><time>2026-04-19T11:28:16.999Z</time></trkpt><trkpt lat="44.50423248098341" lon="10.668780006386557"><ele>343.6</ele><time>2026-04-19T11:28:18.999Z</time></trkpt><trkpt lat="44.50416722513164" lon="10.668708434023118"><ele>344.40000000000003</ele><time>2026-04-19T11:28:19.999Z</time></trkpt><trkpt lat="44.504085443083554" lon="10.668644175552393"><ele>345.20000000000005</ele><time>2026-04-19T11:28:20.999Z</time></trkpt><trkpt lat="44.5040338818989" lon="10.668565435619518"><ele>346.0</ele><time>2026-04-19T11:28:21.999Z</time></trkpt><trkpt lat="44.50395540000334" lon="10.668492731425204"><ele>346.0</ele><time>2026-04-19T11:28:23.999Z</time></trkpt><trkpt lat="44.50387449077576" lon="10.668495120559898"><ele>346.0</ele><time>2026-04-19T11:28:24.999Z</time></trkpt><trkpt lat="44.50380538486318" lon="10.668601986750822"><ele>346.0</ele><time>2026-04-19T11:28:26.999Z</time></trkpt><trkpt lat="44.50376102019614" lon="10.668692640935017"><ele>346.0</ele><time>2026-04-19T11:28:27.999Z</time></trkpt><trkpt lat="44.50367955499504" lon="10.668801815481912"><ele>346.0</ele><time>2026-04-19T11:28:28.999Z</time></trkpt><trkpt lat="44.50361393248425" lon="10.668910425970491"><ele>346.16666666666663</ele><time>2026-04-19T11:28:29.999Z</time></trkpt><trkpt lat="44.503576065129934" lon="10.669014555853195"><ele>346.3333333333333</ele><time>2026-04-19T11:28:30.999Z</time></trkpt><trkpt lat="44.50356897844095" lon="10.669131220546882"><ele>346.5</ele><time>2026-04-19T11:28:31.999Z</time></trkpt><trkpt lat="44.50358059170638" lon="10.669262190661863"><ele>346.6666666666667</ele><time>2026-04-19T11:28:32.999Z</time></trkpt><trkpt lat="44.50361074096098" lon="10.669377634001275"><ele>346.83333333333337</ele><time>2026-04-19T11:28:33.999Z</time></trkpt><trkpt lat="44.50363788484622" lon="10.669476030407447"><ele>347.0</ele><time>2026-04-19T11:28:34.999Z</time></trkpt><trkpt lat="44.503669790608114" lon="10.669597595952226"><ele>347.0</ele><time>2026-04-19T11:28:35.999Z</time></trkpt><trkpt lat="44.50372435724117" lon="10.669692159093344"><ele>347.0</ele><time>2026-04-19T11:28:36.999Z</time></trkpt><trkpt lat="44.503804688944996" lon="10.669798217386782"><ele>347.0</ele><time>2026-04-19T11:28:37.999Z</time></trkpt><trkpt lat="44.503876960344634" lon="10.669898214897222"><ele>347.0</ele><time>2026-04-19T11:28:38.999Z</time></trkpt><trkpt lat="44.50394874575895" lon="10.669965492551194"><ele>347.0</ele><time>2026-04-19T11:28:39.999Z</time></trkpt><trkpt lat="44.50404851113833" lon="10.670045441569638"><ele>349.8</ele><time>2026-04-19T11:28:40.999Z</time></trkpt><trkpt lat="44.5041485201831" lon="10.670109852591706"><ele>352.6</ele><time>2026-04-19T11:28:41.999Z</time></trkpt><trkpt lat="44.504240836945336" lon="10.67017613755763"><ele>355.40000000000003</ele><time>2026-04-19T11:28:42.999Z</time></trkpt><trkpt lat="44.50430667936732" lon="10.670252379673965"><ele>358.20000000000005</ele><time>2026-04-19T11:28:43.999Z</time></trkpt><trkpt lat="44.50435424249149" lon="10.670353833968166"><ele>361.0</ele><time>2026-04-19T11:28:44.999Z</time></trkpt><trkpt lat="44.5043966323109" lon="10.670451087538817"><ele>361.0</ele><time>2026-04-19T11:28:45.999Z</time></trkpt><trkpt lat="44.50444474459213" lon="10.67051967103742"><ele>361.0</ele><time>2026-04-19T11:28:47.999Z</time></trkpt><trkpt lat="44.50449021255831" lon="10.670599110574367"><ele>361.0</ele><time>2026-04-19T11:28:48.999Z</time></trkpt><trkpt lat="44.5045703948919" lon="10.670648057445682"><ele>361.0</ele><time>2026-04-19T11:28:49.999Z</time></trkpt><trkpt lat="44.50464821058303" lon="10.670684705186247"><ele>361.0</ele><time>2026-04-19T11:28:50.999Z</time></trkpt><trkpt lat="44.50470801842504" lon="10.670829872349174"><ele>361.0</ele><time>2026-04-19T11:28:51.999Z</time></trkpt><trkpt lat="44.50475238544505" lon="10.67096241953265"><ele>364.0</ele><time>2026-04-19T11:28:52.999Z</time></trkpt><trkpt lat="44.5048200497538" lon="10.671092425676607"><ele>367.0</ele><time>2026-04-19T11:28:53.999Z</time></trkpt><trkpt lat="44.504885330604345" lon="10.671212798379466"><ele>370.0</ele><time>2026-04-19T11:28:54.999Z</time></trkpt><trkpt lat="44.50496029827591" lon="10.671332050698238"><ele>373.0</ele><time>2026-04-19T11:28:55.999Z</time></trkpt><trkpt lat="44.50500034345618" lon="10.671480826396763"><ele>376.0</ele><time>2026-04-19T11:28:56.999Z</time></trkpt><trkpt lat="44.50504380660593" lon="10.671619363368922"><ele>377.5</ele><time>2026-04-19T11:28:57.999Z</time></trkpt><trkpt lat="44.50511440558867" lon="10.671735973947508"><ele>379.0</ele><time>2026-04-19T11:28:58.999Z</time></trkpt><trkpt lat="44.5052081719266" lon="10.671853369859265"><ele>380.5</ele><time>2026-04-19T11:28:59.999Z</time></trkpt><trkpt lat="44.50531924344611" lon="10.671995906117141"><ele>382.0</ele><time>2026-04-19T11:29:00.999Z</time></trkpt><trkpt lat="44.505401446562786" lon="10.672176962724558"><ele>385.8</ele><time>2026-04-19T11:29:01.999Z</time></trkpt><trkpt lat="44.505460817567055" lon="10.672363210537561"><ele>389.6</ele><time>2026-04-19T11:29:02.999Z</time></trkpt><trkpt lat="44.50547861149991" lon="10.672484102858785"><ele>393.40000000000003</ele><time>2026-04-19T11:29:03.999Z</time></trkpt><trkpt lat="44.50544492093287" lon="10.672651472773548"><ele>397.20000000000005</ele><time>2026-04-19T11:29:05.999Z</time></trkpt><trkpt lat="44.50544776817138" lon="10.672767142509723"><ele>401.0</ele><time>2026-04-19T11:29:06.999Z</time></trkpt><trkpt lat="44.505476761102436" lon="10.672862600831657"><ele>402.66666666666663</ele><time>2026-04-19T11:29:07.999Z</time></trkpt><trkpt lat="44.50552878009361" lon="10.672955600505112"><ele>404.3333333333333</ele><time>2026-04-19T11:29:08.999Z</time></trkpt><trkpt lat="44.50561372185892" lon="10.673079448701273"><ele>406.0</ele><time>2026-04-19T11:29:09.999Z</time></trkpt><trkpt lat="44.50567313896515" lon="10.673207903672493"><ele>407.66666666666663</ele><time>2026-04-19T11:29:10.999Z</time></trkpt><trkpt lat="44.5056993636981" lon="10.673290822934419"><ele>409.3333333333333</ele><time>2026-04-19T11:29:11.999Z</time></trkpt><trkpt lat="44.50569009026928" lon="10.673386400523237"><ele>411.0</ele><time>2026-04-19T11:29:12.999Z</time></trkpt><trkpt lat="44.50564893081782" lon="10.673495296089806"><ele>410.3333333333333</ele><time>2026-04-19T11:29:13.999Z</time></trkpt><trkpt lat="44.50559816642903" lon="10.673610486700461"><ele>409.66666666666663</ele><time>2026-04-19T11:29:14.999Z</time></trkpt><trkpt lat="44.50555161854316" lon="10.673692286629246"><ele>409.0</ele><time>2026-04-19T11:29:15.999Z</time></trkpt><trkpt lat="44.50549865330326" lon="10.673775851657366"><ele>408.3333333333333</ele><time>2026-04-19T11:29:16.999Z</time></trkpt><trkpt lat="44.50547463101387" lon="10.673899401120218"><ele>407.66666666666663</ele><time>2026-04-19T11:29:17.999Z</time></trkpt><trkpt lat="44.505457844386946" lon="10.67400376258872"><ele>407.0</ele><time>2026-04-19T11:29:18.999Z</time></trkpt><trkpt lat="44.50536928074372" lon="10.67414900391482"><ele>406.99999999999994</ele><time>2026-04-19T11:29:20.999Z</time></trkpt><trkpt lat="44.505340850405496" lon="10.674229531546521"><ele>407.0</ele><time>2026-04-19T11:29:21.999Z</time></trkpt><trkpt lat="44.50536806139319" lon="10.674314040306546"><ele>407.0</ele><time>2026-04-19T11:29:22.999Z</time></trkpt><trkpt lat="44.50546452282595" lon="10.67437625763921"><ele>407.0</ele><time>2026-04-19T11:29:24.999Z</time></trkpt><trkpt lat="44.50554060348982" lon="10.674436421933292"><ele>406.99999999999994</ele><time>2026-04-19T11:29:26.999Z</time></trkpt><trkpt lat="44.50562063143618" lon="10.674554487035127"><ele>407.0</ele><time>2026-04-19T11:29:51Z</time></trkpt><trkpt lat="44.50567194529547" lon="10.674652112436965"><ele>411.0</ele><time>2026-04-19T11:29:52Z</time></trkpt><trkpt lat="44.50574278750275" lon="10.674767498093036"><ele>415.0</ele><time>2026-04-19T11:29:53Z</time></trkpt><trkpt lat="44.50580306997166" lon="10.67488448383221"><ele>419.00000000000006</ele><time>2026-04-19T11:29:54Z</time></trkpt><trkpt lat="44.505870580878366" lon="10.67501327047782"><ele>423.0</ele><time>2026-04-19T11:29:55Z</time></trkpt><trkpt lat="44.50593423664561" lon="10.675130947949318"><ele>427.0</ele><time>2026-04-19T11:29:56Z</time></trkpt><trkpt lat="44.50595270058335" lon="10.675271736393315"><ele>427.0</ele><time>2026-04-19T11:29:57Z</time></trkpt><trkpt lat="44.50596159729915" lon="10.675454243769348"><ele>427.00000000000006</ele><time>2026-04-19T11:29:58Z</time></trkpt><trkpt lat="44.50599931987558" lon="10.675598089367675"><ele>427.00000000000006</ele><time>2026-04-19T11:29:59Z</time></trkpt><trkpt lat="44.50606025161845" lon="10.67570287526194"><ele>427.0</ele><time>2026-04-19T11:30:00Z</time></trkpt><trkpt lat="44.50612804515633" lon="10.675820496474044"><ele>427.0</ele><time>2026-04-19T11:30:01Z</time></trkpt><trkpt lat="44.50615423493372" lon="10.675964746376252"><ele>428.40000000000003</ele><time>2026-04-19T11:30:02Z</time></trkpt><trkpt lat="44.50614017481515" lon="10.676110943084192"><ele>429.80000000000007</ele><time>2026-04-19T11:30:03Z</time></trkpt><trkpt lat="44.50611861350569" lon="10.67624351421972"><ele>431.2</ele><time>2026-04-19T11:30:04Z</time></trkpt><trkpt lat="44.50607568516183" lon="10.676308223377701"><ele>432.6</ele><time>2026-04-19T11:30:05Z</time></trkpt><trkpt lat="44.50599326337565" lon="10.676389631373953"><ele>434.0</ele><time>2026-04-19T11:30:06Z</time></trkpt><trkpt lat="44.505914290048096" lon="10.676471980930652"><ele>434.0</ele><time>2026-04-19T11:30:07Z</time></trkpt><trkpt lat="44.50584482770678" lon="10.676547772874247"><ele>434.0</ele><time>2026-04-19T11:30:08Z</time></trkpt><trkpt lat="44.50578103412027" lon="10.676628010065027"><ele>434.0</ele><time>2026-04-19T11:30:09Z</time></trkpt><trkpt lat="44.50570944607185" lon="10.67676081839948"><ele>434.0</ele><time>2026-04-19T11:30:10Z</time></trkpt><trkpt lat="44.50562719787668" lon="10.676913688774754"><ele>434.0</ele><time>2026-04-19T11:30:11Z</time></trkpt><trkpt lat="44.50556195458325" lon="10.677070686743537"><ele>434.6</ele><time>2026-04-19T11:30:12Z</time></trkpt><trkpt lat="44.5054937426765" lon="10.677176663362035"><ele>435.2</ele><time>2026-04-19T11:30:13Z</time></trkpt><trkpt lat="44.50540965512671" lon="10.677214533502884"><ele>435.80000000000007</ele><time>2026-04-19T11:30:14Z</time></trkpt><trkpt lat="44.50530200472822" lon="10.677197305130463"><ele>436.40000000000003</ele><time>2026-04-19T11:30:15Z</time></trkpt><trkpt lat="44.50518171950264" lon="10.677118422067553"><ele>437.0</ele><time>2026-04-19T11:30:16Z</time></trkpt><trkpt lat="44.50510570707156" lon="10.677012771435198"><ele>433.6</ele><time>2026-04-19T11:30:16.999Z</time></trkpt><trkpt lat="44.50502416081116" lon="10.676932518445426"><ele>430.20000000000005</ele><time>2026-04-19T11:30:17.999Z</time></trkpt><trkpt lat="44.50493949570844" lon="10.676883561881954"><ele>426.8</ele><time>2026-04-19T11:30:18.999Z</time></trkpt><trkpt lat="44.50486672415426" lon="10.676850527885284"><ele>423.4</ele><time>2026-04-19T11:30:19.999Z</time></trkpt><trkpt lat="44.50477647976019" lon="10.676789978476762"><ele>420.0</ele><time>2026-04-19T11:30:20.999Z</time></trkpt><trkpt lat="44.50467636292048" lon="10.67670024228792"><ele>420.0</ele><time>2026-04-19T11:30:21.999Z</time></trkpt><trkpt lat="44.50460225677332" lon="10.676649869699965"><ele>420.0</ele><time>2026-04-19T11:30:22.999Z</time></trkpt><trkpt lat="44.50450353663653" lon="10.676693638981376"><ele>420.0</ele><time>2026-04-19T11:30:24.999Z</time></trkpt><trkpt lat="44.50449325167591" lon="10.676781408361864"><ele>420.0</ele><time>2026-04-19T11:30:25.999Z</time></trkpt><trkpt lat="44.50454731060401" lon="10.676945468939044"><ele>420.0</ele><time>2026-04-19T11:30:27.999Z</time></trkpt><trkpt lat="44.504608975146894" lon="10.677018927437746"><ele>419.25</ele><time>2026-04-19T11:30:28.999Z</time></trkpt><trkpt lat="44.504654811500835" lon="10.677108230367118"><ele>418.5</ele><time>2026-04-19T11:30:29.999Z</time></trkpt><trkpt lat="44.50459645820356" lon="10.677276963121846"><ele>417.75</ele><time>2026-04-19T11:30:31.999Z</time></trkpt><trkpt lat="44.50453303107341" lon="10.677431717916495"><ele>417.0</ele><time>2026-04-19T11:30:32.999Z</time></trkpt><trkpt lat="44.50446703829044" lon="10.677618296569042"><ele>417.0</ele><time>2026-04-19T11:30:33.999Z</time></trkpt><trkpt lat="44.50442038195087" lon="10.677767805323052"><ele>417.0</ele><time>2026-04-19T11:30:34.999Z</time></trkpt><trkpt lat="44.50443084322054" lon="10.67789960402918"><ele>417.0</ele><time>2026-04-19T11:30:36.999Z</time></trkpt><trkpt lat="44.50445790193922" lon="10.677993429998896"><ele>417.0</ele><time>2026-04-19T11:30:37.999Z</time></trkpt><trkpt lat="44.50451431246738" lon="10.678109117458932"><ele>417.0</ele><time>2026-04-19T11:30:38.999Z</time></trkpt><trkpt lat="44.50454253265864" lon="10.678228503979877"><ele>418.40000000000003</ele><time>2026-04-19T11:30:39.999Z</time></trkpt><trkpt lat="44.50451055936363" lon="10.678348036307854"><ele>419.8</ele><time>2026-04-19T11:30:40.999Z</time></trkpt><trkpt lat="44.50449869115517" lon="10.678473114561436"><ele>421.2</ele><time>2026-04-19T11:30:41.999Z</time></trkpt><trkpt lat="44.504509268810395" lon="10.678609433841343"><ele>422.6</ele><time>2026-04-19T11:30:42.999Z</time></trkpt><trkpt lat="44.504563037349904" lon="10.678694084590035"><ele>424.0</ele><time>2026-04-19T11:30:43.999Z</time></trkpt><trkpt lat="44.50462497574413" lon="10.678804619455176"><ele>427.2</ele><time>2026-04-19T11:30:44.999Z</time></trkpt><trkpt lat="44.50469912187241" lon="10.678925919501047"><ele>430.4</ele><time>2026-04-19T11:30:45.999Z</time></trkpt><trkpt lat="44.504728482871165" lon="10.679043849597067"><ele>433.6</ele><time>2026-04-19T11:30:46.999Z</time></trkpt><trkpt lat="44.50475628257399" lon="10.679132492021138"><ele>436.8</ele><time>2026-04-19T11:30:48.999Z</time></trkpt><trkpt lat="44.504658877264916" lon="10.679248273494878"><ele>440.0</ele><time>2026-04-19T11:30:49.999Z</time></trkpt><trkpt lat="44.50459301468917" lon="10.67932755350342"><ele>440.66666666666663</ele><time>2026-04-19T11:30:50.999Z</time></trkpt><trkpt lat="44.50453108462906" lon="10.679397610089719"><ele>441.3333333333333</ele><time>2026-04-19T11:30:51.999Z</time></trkpt><trkpt lat="44.50447691401431" lon="10.679447395372309"><ele>442.0</ele><time>2026-04-19T11:30:52.999Z</time></trkpt><trkpt lat="44.50440084564365" lon="10.679511012443548"><ele>442.66666666666663</ele><time>2026-04-19T11:30:54.999Z</time></trkpt><trkpt lat="44.504365189079095" lon="10.679590949870667"><ele>443.3333333333333</ele><time>2026-04-19T11:30:56.999Z</time></trkpt><trkpt lat="44.50435486514111" lon="10.679701864741856"><ele>444.0</ele><time>2026-04-19T11:30:59.999Z</time></trkpt><trkpt lat="44.504336840852275" lon="10.6798779832076"><ele>444.0</ele><time>2026-04-19T11:31:01.999Z</time></trkpt><trkpt lat="44.50427418536843" lon="10.679942537217212"><ele>444.0</ele><time>2026-04-19T11:31:04.999Z</time></trkpt><trkpt lat="44.50423649180363" lon="10.680028779299144"><ele>444.0</ele><time>2026-04-19T11:31:06.999Z</time></trkpt><trkpt lat="44.5042039810937" lon="10.68013742665851"><ele>444.0</ele><time>2026-04-19T11:31:08.999Z</time></trkpt><trkpt lat="44.50415245867202" lon="10.680256674110192"><ele>444.0</ele><time>2026-04-19T11:31:19.999Z</time></trkpt><trkpt lat="44.50410529399218" lon="10.680364006816212"><ele>444.0</ele><time>2026-04-19T11:31:20.999Z</time></trkpt><trkpt lat="44.50404857224546" lon="10.680486316436884"><ele>443.75</ele><time>2026-04-19T11:31:21.999Z</time></trkpt><trkpt lat="44.503990178921384" lon="10.680611816720916"><ele>443.5</ele><time>2026-04-19T11:31:22.999Z</time></trkpt><trkpt lat="44.503921032285255" lon="10.680752534537847"><ele>443.25</ele><time>2026-04-19T11:31:23.999Z</time></trkpt><trkpt lat="44.50384939470929" lon="10.680892501101292"><ele>443.0</ele><time>2026-04-19T11:31:24.999Z</time></trkpt><trkpt lat="44.50377442444026" lon="10.681041014290097"><ele>447.25</ele><time>2026-04-19T11:31:25.999Z</time></trkpt><trkpt lat="44.503673798305314" lon="10.681164464098718"><ele>451.5</ele><time>2026-04-19T11:31:26.999Z</time></trkpt><trkpt lat="44.50357403114774" lon="10.681318074818945"><ele>455.75</ele><time>2026-04-19T11:31:27.999Z</time></trkpt><trkpt lat="44.50345187256888" lon="10.681443819128209"><ele>460.0</ele><time>2026-04-19T11:31:28.999Z</time></trkpt><trkpt lat="44.50331687810209" lon="10.681570945437048"><ele>460.0</ele><time>2026-04-19T11:31:29.999Z</time></trkpt><trkpt lat="44.5031846059826" lon="10.681693091798214"><ele>460.0</ele><time>2026-04-19T11:31:30.999Z</time></trkpt><trkpt lat="44.503053883545576" lon="10.681821178505727"><ele>460.0</ele><time>2026-04-19T11:31:31.999Z</time></trkpt><trkpt lat="44.50290417259639" lon="10.68194371883701"><ele>460.25</ele><time>2026-04-19T11:31:32.999Z</time></trkpt><trkpt lat="44.50276055584754" lon="10.682061317029504"><ele>460.5</ele><time>2026-04-19T11:31:33.999Z</time></trkpt><trkpt lat="44.50263597739537" lon="10.682158089869812"><ele>460.75</ele><time>2026-04-19T11:31:34.999Z</time></trkpt><trkpt lat="44.502518839111595" lon="10.682256671073688"><ele>461.0</ele><time>2026-04-19T11:31:35.998Z</time></trkpt><trkpt lat="44.50241556905924" lon="10.682352937472796"><ele>461.0</ele><time>2026-04-19T11:31:36.998Z</time></trkpt><trkpt lat="44.50232407991669" lon="10.682443828522668"><ele>461.0</ele><time>2026-04-19T11:31:37.998Z</time></trkpt><trkpt lat="44.50221898190414" lon="10.682526678932243"><ele>461.0</ele><time>2026-04-19T11:31:38.998Z</time></trkpt><trkpt lat="44.50209521420152" lon="10.682598619694897"><ele>461.0</ele><time>2026-04-19T11:31:39.998Z</time></trkpt><trkpt lat="44.50195934641729" lon="10.682660670367591"><ele>461.25</ele><time>2026-04-19T11:31:40.998Z</time></trkpt><trkpt lat="44.501828729036724" lon="10.682708330395101"><ele>461.5</ele><time>2026-04-19T11:31:41.998Z</time></trkpt><trkpt lat="44.50171353537493" lon="10.68274696613627"><ele>461.75</ele><time>2026-04-19T11:31:42.998Z</time></trkpt><trkpt lat="44.501616400425625" lon="10.682802656388857"><ele>462.0</ele><time>2026-04-19T11:31:43.998Z</time></trkpt><trkpt lat="44.50153589125834" lon="10.682891143048789"><ele>457.0</ele><time>2026-04-19T11:31:44.998Z</time></trkpt><trkpt lat="44.50147503404418" lon="10.68302649691248"><ele>452.0</ele><time>2026-04-19T11:31:45.998Z</time></trkpt><trkpt lat="44.501442588961375" lon="10.68319640630335"><ele>447.0</ele><time>2026-04-19T11:31:46.998Z</time></trkpt><trkpt lat="44.50142696002049" lon="10.683393837498638"><ele>442.0</ele><time>2026-04-19T11:31:47.998Z</time></trkpt><trkpt lat="44.50140933045222" lon="10.683595784352343"><ele>440.0</ele><time>2026-04-19T11:31:48.998Z</time></trkpt><trkpt lat="44.50138736622394" lon="10.683782014148171"><ele>438.00000000000006</ele><time>2026-04-19T11:31:49.998Z</time></trkpt><trkpt lat="44.50137912114517" lon="10.683943492451734"><ele>436.00000000000006</ele><time>2026-04-19T11:31:50.998Z</time></trkpt><trkpt lat="44.50137460125436" lon="10.684067748586703"><ele>434.0</ele><time>2026-04-19T11:31:52Z</time></trkpt><trkpt lat="44.501409147349065" lon="10.684177320273482"><ele>432.0</ele><time>2026-04-19T11:31:53Z</time></trkpt><trkpt lat="44.501483140458404" lon="10.684272820665234"><ele>432.0</ele><time>2026-04-19T11:31:54Z</time></trkpt><trkpt lat="44.50158902159755" lon="10.684359543668414"><ele>432.0</ele><time>2026-04-19T11:31:55Z</time></trkpt><trkpt lat="44.50172067880564" lon="10.684435042016652"><ele>432.0</ele><time>2026-04-19T11:31:56Z</time></trkpt><trkpt lat="44.50185473371216" lon="10.684515694531973"><ele>432.0</ele><time>2026-04-19T11:31:57Z</time></trkpt><trkpt lat="44.50196923174323" lon="10.684590838205875"><ele>432.8</ele><time>2026-04-19T11:31:58Z</time></trkpt><trkpt lat="44.5020551449186" lon="10.68466632811557"><ele>433.6</ele><time>2026-04-19T11:31:59Z</time></trkpt><trkpt lat="44.50211595183138" lon="10.684770740746483"><ele>434.40000000000003</ele><time>2026-04-19T11:32:00Z</time></trkpt><trkpt lat="44.5021385988633" lon="10.684907709723122"><ele>435.20000000000005</ele><time>2026-04-19T11:32:01Z</time></trkpt><trkpt lat="44.50213185046738" lon="10.685061387424604"><ele>436.0</ele><time>2026-04-19T11:32:02Z</time></trkpt><trkpt lat="44.50210992626881" lon="10.685221003399274"><ele>436.0</ele><time>2026-04-19T11:32:03Z</time></trkpt><trkpt lat="44.502090032627635" lon="10.685344783629342"><ele>435.0</ele><time>2026-04-19T11:32:04Z</time></trkpt><trkpt lat="44.5020793189761" lon="10.685437014707464"><ele>419.0</ele><time>2026-04-19T11:32:05Z</time></trkpt><trkpt lat="44.50206934699878" lon="10.68553774361966"><ele>419.0</ele><time>2026-04-19T11:32:07Z</time></trkpt><trkpt lat="44.50200817378732" lon="10.68557437403037"><ele>419.0</ele><time>2026-04-19T11:33:59Z</time></trkpt></trkseg></trk></gpx>